<?xml version="1.0" encoding="UTF-8" standalone="no" ?>
<gpx xmlns="http://www.topografix.com/GPX/1/1" xmlns:xsi="http://www.w3.org/2001/XMLSchema-instance" xsi:schemaLocation="http://www.topografix.com/GPX/1/1 http://www.topografix.com/GPX/1/1/gpx.xsd" version="1.1" creator="VisuGPX - https://www.visugpx.com">
  <metadata>
    <name>Bec de l'Aigle</name>
    <desc><![CDATA[BEC DE L'AIGLE : Sortie découverte. Pas une neige de cinéma. Sommet à pied et retour sentier skis sur le sac. Sortie bien sympa quand même ]]></desc>
  </metadata>
  <trk>
    <name><![CDATA[HAUTE UBAYE J1]]></name>
    <desc><![CDATA[BEC DE L'AIGLE : Sortie découverte. Pas une neige de cinéma. Sommet à pied et retour sentier skis sur le sac. Sortie bien sympa quand même ]]></desc>
    <trkseg>
      <trkpt lat="44.45005" lon="6.84346">
        <ele>1677</ele>
        <time>2022-03-06T08:38:15.000Z</time>
      </trkpt>
      <trkpt lat="44.45001" lon="6.8435">
        <ele>1677.4000244141</ele>
        <time>2022-03-06T08:38:20.000Z</time>
      </trkpt>
      <trkpt lat="44.45" lon="6.84354">
        <ele>1677.8000488281</ele>
        <time>2022-03-06T08:38:24.000Z</time>
      </trkpt>
      <trkpt lat="44.44999" lon="6.84357">
        <ele>1678.1999511719</ele>
        <time>2022-03-06T08:38:27.000Z</time>
      </trkpt>
      <trkpt lat="44.44995" lon="6.84364">
        <ele>1678.8000488281</ele>
        <time>2022-03-06T08:38:34.000Z</time>
      </trkpt>
      <trkpt lat="44.44992" lon="6.84368">
        <ele>1679.1999511719</ele>
        <time>2022-03-06T08:38:39.000Z</time>
      </trkpt>
      <trkpt lat="44.4499" lon="6.84372">
        <ele>1680.4000244141</ele>
        <time>2022-03-06T08:38:44.000Z</time>
      </trkpt>
      <trkpt lat="44.44987" lon="6.84377">
        <ele>1681.4000244141</ele>
        <time>2022-03-06T08:38:50.000Z</time>
      </trkpt>
      <trkpt lat="44.44985" lon="6.84378">
        <ele>1681.8000488281</ele>
        <time>2022-03-06T08:38:52.000Z</time>
      </trkpt>
      <trkpt lat="44.44985" lon="6.8438">
        <ele>1682.5999755859</ele>
        <time>2022-03-06T08:38:56.000Z</time>
      </trkpt>
      <trkpt lat="44.44985" lon="6.84382">
        <ele>1682.8000488281</ele>
        <time>2022-03-06T08:38:58.000Z</time>
      </trkpt>
      <trkpt lat="44.44984" lon="6.84384">
        <ele>1683.5999755859</ele>
        <time>2022-03-06T08:39:01.000Z</time>
      </trkpt>
      <trkpt lat="44.4498" lon="6.84388">
        <ele>1684.5999755859</ele>
        <time>2022-03-06T08:39:08.000Z</time>
      </trkpt>
      <trkpt lat="44.44976" lon="6.8439">
        <ele>1685.8000488281</ele>
        <time>2022-03-06T08:39:13.000Z</time>
      </trkpt>
      <trkpt lat="44.44973" lon="6.84393">
        <ele>1686.8000488281</ele>
        <time>2022-03-06T08:39:18.000Z</time>
      </trkpt>
      <trkpt lat="44.4497" lon="6.84397">
        <ele>1688</ele>
        <time>2022-03-06T08:39:23.000Z</time>
      </trkpt>
      <trkpt lat="44.44968" lon="6.84396">
        <ele>1688.4000244141</ele>
        <time>2022-03-06T08:39:24.000Z</time>
      </trkpt>
      <trkpt lat="44.44965" lon="6.84399">
        <ele>1689</ele>
        <time>2022-03-06T08:39:30.000Z</time>
      </trkpt>
      <trkpt lat="44.44962" lon="6.84399">
        <ele>1689.5999755859</ele>
        <time>2022-03-06T08:39:33.000Z</time>
      </trkpt>
      <trkpt lat="44.44961" lon="6.844">
        <ele>1689.8000488281</ele>
        <time>2022-03-06T08:39:34.000Z</time>
      </trkpt>
      <trkpt lat="44.4496" lon="6.84402">
        <ele>1690.1999511719</ele>
        <time>2022-03-06T08:39:36.000Z</time>
      </trkpt>
      <trkpt lat="44.44958" lon="6.84406">
        <ele>1691.1999511719</ele>
        <time>2022-03-06T08:39:41.000Z</time>
      </trkpt>
      <trkpt lat="44.44954" lon="6.8441">
        <ele>1692.1999511719</ele>
        <time>2022-03-06T08:39:47.000Z</time>
      </trkpt>
      <trkpt lat="44.4495" lon="6.84417">
        <ele>1693.4000244141</ele>
        <time>2022-03-06T08:39:55.000Z</time>
      </trkpt>
      <trkpt lat="44.44948" lon="6.84419">
        <ele>1693.5999755859</ele>
        <time>2022-03-06T08:39:57.000Z</time>
      </trkpt>
      <trkpt lat="44.44945" lon="6.84423">
        <ele>1694.5999755859</ele>
        <time>2022-03-06T08:40:03.000Z</time>
      </trkpt>
      <trkpt lat="44.44943" lon="6.84427">
        <ele>1695.5999755859</ele>
        <time>2022-03-06T08:40:08.000Z</time>
      </trkpt>
      <trkpt lat="44.44943" lon="6.84429">
        <ele>1696</ele>
        <time>2022-03-06T08:40:10.000Z</time>
      </trkpt>
      <trkpt lat="44.44943" lon="6.84429">
        <ele>1696</ele>
        <time>2022-03-06T08:40:11.000Z</time>
      </trkpt>
      <trkpt lat="44.4494" lon="6.84432">
        <ele>1696.5999755859</ele>
        <time>2022-03-06T08:40:16.000Z</time>
      </trkpt>
      <trkpt lat="44.44938" lon="6.84434">
        <ele>1697.5999755859</ele>
        <time>2022-03-06T08:40:20.000Z</time>
      </trkpt>
      <trkpt lat="44.44937" lon="6.84436">
        <ele>1698</ele>
        <time>2022-03-06T08:40:22.000Z</time>
      </trkpt>
      <trkpt lat="44.44935" lon="6.84438">
        <ele>1698.8000488281</ele>
        <time>2022-03-06T08:40:26.000Z</time>
      </trkpt>
      <trkpt lat="44.44932" lon="6.84442">
        <ele>1699.5999755859</ele>
        <time>2022-03-06T08:40:32.000Z</time>
      </trkpt>
      <trkpt lat="44.44931" lon="6.84444">
        <ele>1699.8000488281</ele>
        <time>2022-03-06T08:40:34.000Z</time>
      </trkpt>
      <trkpt lat="44.44925" lon="6.84449">
        <ele>1701</ele>
        <time>2022-03-06T08:40:42.000Z</time>
      </trkpt>
      <trkpt lat="44.44923" lon="6.84452">
        <ele>1701.4000244141</ele>
        <time>2022-03-06T08:40:45.000Z</time>
      </trkpt>
      <trkpt lat="44.44924" lon="6.84454">
        <ele>1702</ele>
        <time>2022-03-06T08:40:47.000Z</time>
      </trkpt>
      <trkpt lat="44.4492" lon="6.84458">
        <ele>1703</ele>
        <time>2022-03-06T08:40:53.000Z</time>
      </trkpt>
      <trkpt lat="44.44916" lon="6.84463">
        <ele>1704.1999511719</ele>
        <time>2022-03-06T08:41:00.000Z</time>
      </trkpt>
      <trkpt lat="44.44913" lon="6.84466">
        <ele>1705.1999511719</ele>
        <time>2022-03-06T08:41:05.000Z</time>
      </trkpt>
      <trkpt lat="44.44911" lon="6.84468">
        <ele>1706</ele>
        <time>2022-03-06T08:41:08.000Z</time>
      </trkpt>
      <trkpt lat="44.4491" lon="6.84472">
        <ele>1706.4000244141</ele>
        <time>2022-03-06T08:41:12.000Z</time>
      </trkpt>
      <trkpt lat="44.44906" lon="6.84478">
        <ele>1707.4000244141</ele>
        <time>2022-03-06T08:41:19.000Z</time>
      </trkpt>
      <trkpt lat="44.44905" lon="6.84478">
        <ele>1707.5999755859</ele>
        <time>2022-03-06T08:41:20.000Z</time>
      </trkpt>
      <trkpt lat="44.44905" lon="6.84479">
        <ele>1708</ele>
        <time>2022-03-06T08:41:21.000Z</time>
      </trkpt>
      <trkpt lat="44.44904" lon="6.84481">
        <ele>1708.5999755859</ele>
        <time>2022-03-06T08:41:23.000Z</time>
      </trkpt>
      <trkpt lat="44.44901" lon="6.84487">
        <ele>1709.5999755859</ele>
        <time>2022-03-06T08:41:29.000Z</time>
      </trkpt>
      <trkpt lat="44.44899" lon="6.84493">
        <ele>1710.8000488281</ele>
        <time>2022-03-06T08:41:35.000Z</time>
      </trkpt>
      <trkpt lat="44.44896" lon="6.84496">
        <ele>1711.1999511719</ele>
        <time>2022-03-06T08:41:39.000Z</time>
      </trkpt>
      <trkpt lat="44.44894" lon="6.84499">
        <ele>1711.8000488281</ele>
        <time>2022-03-06T08:41:43.000Z</time>
      </trkpt>
      <trkpt lat="44.4489" lon="6.84506">
        <ele>1712.8000488281</ele>
        <time>2022-03-06T08:41:51.000Z</time>
      </trkpt>
      <trkpt lat="44.44889" lon="6.84507">
        <ele>1713</ele>
        <time>2022-03-06T08:41:52.000Z</time>
      </trkpt>
      <trkpt lat="44.44885" lon="6.84513">
        <ele>1714</ele>
        <time>2022-03-06T08:41:59.000Z</time>
      </trkpt>
      <trkpt lat="44.44884" lon="6.84516">
        <ele>1714.4000244141</ele>
        <time>2022-03-06T08:42:02.000Z</time>
      </trkpt>
      <trkpt lat="44.44883" lon="6.8452">
        <ele>1715.1999511719</ele>
        <time>2022-03-06T08:42:08.000Z</time>
      </trkpt>
      <trkpt lat="44.4488" lon="6.84522">
        <ele>1715.8000488281</ele>
        <time>2022-03-06T08:42:12.000Z</time>
      </trkpt>
      <trkpt lat="44.44877" lon="6.84523">
        <ele>1716.1999511719</ele>
        <time>2022-03-06T08:42:15.000Z</time>
      </trkpt>
      <trkpt lat="44.44872" lon="6.84526">
        <ele>1717.1999511719</ele>
        <time>2022-03-06T08:42:21.000Z</time>
      </trkpt>
      <trkpt lat="44.44871" lon="6.84527">
        <ele>1717.4000244141</ele>
        <time>2022-03-06T08:42:22.000Z</time>
      </trkpt>
      <trkpt lat="44.44866" lon="6.84527">
        <ele>1718.5999755859</ele>
        <time>2022-03-06T08:42:29.000Z</time>
      </trkpt>
      <trkpt lat="44.44865" lon="6.84528">
        <ele>1719</ele>
        <time>2022-03-06T08:42:30.000Z</time>
      </trkpt>
      <trkpt lat="44.44864" lon="6.84529">
        <ele>1719.5999755859</ele>
        <time>2022-03-06T08:42:33.000Z</time>
      </trkpt>
      <trkpt lat="44.44861" lon="6.8453">
        <ele>1720.5999755859</ele>
        <time>2022-03-06T08:42:37.000Z</time>
      </trkpt>
      <trkpt lat="44.44859" lon="6.84531">
        <ele>1721.5999755859</ele>
        <time>2022-03-06T08:42:41.000Z</time>
      </trkpt>
      <trkpt lat="44.44858" lon="6.84532">
        <ele>1721.8000488281</ele>
        <time>2022-03-06T08:42:42.000Z</time>
      </trkpt>
      <trkpt lat="44.44856" lon="6.84534">
        <ele>1723</ele>
        <time>2022-03-06T08:42:49.000Z</time>
      </trkpt>
      <trkpt lat="44.44854" lon="6.84537">
        <ele>1723.5999755859</ele>
        <time>2022-03-06T08:42:52.000Z</time>
      </trkpt>
      <trkpt lat="44.44852" lon="6.84539">
        <ele>1724</ele>
        <time>2022-03-06T08:42:55.000Z</time>
      </trkpt>
      <trkpt lat="44.44849" lon="6.84545">
        <ele>1725.1999511719</ele>
        <time>2022-03-06T08:43:04.000Z</time>
      </trkpt>
      <trkpt lat="44.44845" lon="6.84549">
        <ele>1726.1999511719</ele>
        <time>2022-03-06T08:43:11.000Z</time>
      </trkpt>
      <trkpt lat="44.44844" lon="6.8455">
        <ele>1726.5999755859</ele>
        <time>2022-03-06T08:43:14.000Z</time>
      </trkpt>
      <trkpt lat="44.44841" lon="6.84553">
        <ele>1727.4000244141</ele>
        <time>2022-03-06T08:43:20.000Z</time>
      </trkpt>
      <trkpt lat="44.44842" lon="6.84554">
        <ele>1727.4000244141</ele>
        <time>2022-03-06T08:43:22.000Z</time>
      </trkpt>
      <trkpt lat="44.44837" lon="6.84556">
        <ele>1728.4000244141</ele>
        <time>2022-03-06T08:43:27.000Z</time>
      </trkpt>
      <trkpt lat="44.44835" lon="6.84558">
        <ele>1729.1999511719</ele>
        <time>2022-03-06T08:43:31.000Z</time>
      </trkpt>
      <trkpt lat="44.44835" lon="6.84558">
        <ele>1729.4000244141</ele>
        <time>2022-03-06T08:43:32.000Z</time>
      </trkpt>
      <trkpt lat="44.44832" lon="6.8456">
        <ele>1730.5999755859</ele>
        <time>2022-03-06T08:43:37.000Z</time>
      </trkpt>
      <trkpt lat="44.44832" lon="6.84564">
        <ele>1730.8000488281</ele>
        <time>2022-03-06T08:43:41.000Z</time>
      </trkpt>
      <trkpt lat="44.4483" lon="6.84568">
        <ele>1731.8000488281</ele>
        <time>2022-03-06T08:43:47.000Z</time>
      </trkpt>
      <trkpt lat="44.44826" lon="6.8457">
        <ele>1732.5999755859</ele>
        <time>2022-03-06T08:43:52.000Z</time>
      </trkpt>
      <trkpt lat="44.44824" lon="6.84571">
        <ele>1732.8000488281</ele>
        <time>2022-03-06T08:43:54.000Z</time>
      </trkpt>
      <trkpt lat="44.44818" lon="6.84575">
        <ele>1733.8000488281</ele>
        <time>2022-03-06T08:44:01.000Z</time>
      </trkpt>
      <trkpt lat="44.44817" lon="6.84577">
        <ele>1734.1999511719</ele>
        <time>2022-03-06T08:44:03.000Z</time>
      </trkpt>
      <trkpt lat="44.44814" lon="6.84581">
        <ele>1735.1999511719</ele>
        <time>2022-03-06T08:44:09.000Z</time>
      </trkpt>
      <trkpt lat="44.44813" lon="6.84582">
        <ele>1735.5999755859</ele>
        <time>2022-03-06T08:44:11.000Z</time>
      </trkpt>
      <trkpt lat="44.4481" lon="6.84586">
        <ele>1736.4000244141</ele>
        <time>2022-03-06T08:44:18.000Z</time>
      </trkpt>
      <trkpt lat="44.44809" lon="6.84587">
        <ele>1736.8000488281</ele>
        <time>2022-03-06T08:44:20.000Z</time>
      </trkpt>
      <trkpt lat="44.44807" lon="6.84589">
        <ele>1737.4000244141</ele>
        <time>2022-03-06T08:44:25.000Z</time>
      </trkpt>
      <trkpt lat="44.44802" lon="6.84591">
        <ele>1738.1999511719</ele>
        <time>2022-03-06T08:44:31.000Z</time>
      </trkpt>
      <trkpt lat="44.44802" lon="6.84592">
        <ele>1738.4000244141</ele>
        <time>2022-03-06T08:44:33.000Z</time>
      </trkpt>
      <trkpt lat="44.44799" lon="6.84596">
        <ele>1739.4000244141</ele>
        <time>2022-03-06T08:44:39.000Z</time>
      </trkpt>
      <trkpt lat="44.44799" lon="6.84596">
        <ele>1739.8000488281</ele>
        <time>2022-03-06T08:44:40.000Z</time>
      </trkpt>
      <trkpt lat="44.44796" lon="6.84598">
        <ele>1740.4000244141</ele>
        <time>2022-03-06T08:44:44.000Z</time>
      </trkpt>
      <trkpt lat="44.44796" lon="6.84602">
        <ele>1741.5999755859</ele>
        <time>2022-03-06T08:44:49.000Z</time>
      </trkpt>
      <trkpt lat="44.44794" lon="6.84604">
        <ele>1742</ele>
        <time>2022-03-06T08:44:52.000Z</time>
      </trkpt>
      <trkpt lat="44.44794" lon="6.84605">
        <ele>1742.5999755859</ele>
        <time>2022-03-06T08:44:55.000Z</time>
      </trkpt>
      <trkpt lat="44.44792" lon="6.84606">
        <ele>1743.8000488281</ele>
        <time>2022-03-06T08:44:59.000Z</time>
      </trkpt>
      <trkpt lat="44.44788" lon="6.8461">
        <ele>1744.8000488281</ele>
        <time>2022-03-06T08:45:06.000Z</time>
      </trkpt>
      <trkpt lat="44.44786" lon="6.84611">
        <ele>1745</ele>
        <time>2022-03-06T08:45:08.000Z</time>
      </trkpt>
      <trkpt lat="44.44787" lon="6.84614">
        <ele>1746</ele>
        <time>2022-03-06T08:45:12.000Z</time>
      </trkpt>
      <trkpt lat="44.44783" lon="6.84616">
        <ele>1747</ele>
        <time>2022-03-06T08:45:18.000Z</time>
      </trkpt>
      <trkpt lat="44.44783" lon="6.84617">
        <ele>1747.1999511719</ele>
        <time>2022-03-06T08:45:19.000Z</time>
      </trkpt>
      <trkpt lat="44.44779" lon="6.84619">
        <ele>1748</ele>
        <time>2022-03-06T08:45:24.000Z</time>
      </trkpt>
      <trkpt lat="44.44778" lon="6.84619">
        <ele>1748.4000244141</ele>
        <time>2022-03-06T08:45:26.000Z</time>
      </trkpt>
      <trkpt lat="44.44776" lon="6.84621">
        <ele>1749.1999511719</ele>
        <time>2022-03-06T08:45:30.000Z</time>
      </trkpt>
      <trkpt lat="44.4477" lon="6.84623">
        <ele>1750.4000244141</ele>
        <time>2022-03-06T08:45:37.000Z</time>
      </trkpt>
      <trkpt lat="44.44769" lon="6.84623">
        <ele>1750.4000244141</ele>
        <time>2022-03-06T08:45:38.000Z</time>
      </trkpt>
      <trkpt lat="44.44765" lon="6.84627">
        <ele>1751.5999755859</ele>
        <time>2022-03-06T08:45:46.000Z</time>
      </trkpt>
      <trkpt lat="44.44764" lon="6.84627">
        <ele>1751.8000488281</ele>
        <time>2022-03-06T08:45:47.000Z</time>
      </trkpt>
      <trkpt lat="44.44761" lon="6.8463">
        <ele>1752.5999755859</ele>
        <time>2022-03-06T08:45:52.000Z</time>
      </trkpt>
      <trkpt lat="44.4476" lon="6.84633">
        <ele>1753</ele>
        <time>2022-03-06T08:45:55.000Z</time>
      </trkpt>
      <trkpt lat="44.44756" lon="6.84634">
        <ele>1753.5999755859</ele>
        <time>2022-03-06T08:45:59.000Z</time>
      </trkpt>
      <trkpt lat="44.44751" lon="6.84636">
        <ele>1754.8000488281</ele>
        <time>2022-03-06T08:46:04.000Z</time>
      </trkpt>
      <trkpt lat="44.44748" lon="6.84638">
        <ele>1756</ele>
        <time>2022-03-06T08:46:10.000Z</time>
      </trkpt>
      <trkpt lat="44.44747" lon="6.84641">
        <ele>1756.8000488281</ele>
        <time>2022-03-06T08:46:15.000Z</time>
      </trkpt>
      <trkpt lat="44.44747" lon="6.84641">
        <ele>1757</ele>
        <time>2022-03-06T08:46:16.000Z</time>
      </trkpt>
      <trkpt lat="44.44742" lon="6.84645">
        <ele>1757.8000488281</ele>
        <time>2022-03-06T08:46:23.000Z</time>
      </trkpt>
      <trkpt lat="44.44741" lon="6.84645">
        <ele>1758</ele>
        <time>2022-03-06T08:46:24.000Z</time>
      </trkpt>
      <trkpt lat="44.44736" lon="6.84644">
        <ele>1759.1999511719</ele>
        <time>2022-03-06T08:46:28.000Z</time>
      </trkpt>
      <trkpt lat="44.44732" lon="6.84647">
        <ele>1760.1999511719</ele>
        <time>2022-03-06T08:46:34.000Z</time>
      </trkpt>
      <trkpt lat="44.44729" lon="6.84649">
        <ele>1761.1999511719</ele>
        <time>2022-03-06T08:46:39.000Z</time>
      </trkpt>
      <trkpt lat="44.4473" lon="6.84652">
        <ele>1761.8000488281</ele>
        <time>2022-03-06T08:46:41.000Z</time>
      </trkpt>
      <trkpt lat="44.44725" lon="6.84655">
        <ele>1762.4000244141</ele>
        <time>2022-03-06T08:46:45.000Z</time>
      </trkpt>
      <trkpt lat="44.4472" lon="6.84657">
        <ele>1763.1999511719</ele>
        <time>2022-03-06T08:46:51.000Z</time>
      </trkpt>
      <trkpt lat="44.44718" lon="6.84657">
        <ele>1763.5999755859</ele>
        <time>2022-03-06T08:46:54.000Z</time>
      </trkpt>
      <trkpt lat="44.44716" lon="6.84656">
        <ele>1764.5999755859</ele>
        <time>2022-03-06T08:46:58.000Z</time>
      </trkpt>
      <trkpt lat="44.44714" lon="6.84655">
        <ele>1765.5999755859</ele>
        <time>2022-03-06T08:47:02.000Z</time>
      </trkpt>
      <trkpt lat="44.44713" lon="6.84655">
        <ele>1765.8000488281</ele>
        <time>2022-03-06T08:47:03.000Z</time>
      </trkpt>
      <trkpt lat="44.44714" lon="6.8465">
        <ele>1767</ele>
        <time>2022-03-06T08:47:09.000Z</time>
      </trkpt>
      <trkpt lat="44.44714" lon="6.84648">
        <ele>1767.1999511719</ele>
        <time>2022-03-06T08:47:10.000Z</time>
      </trkpt>
      <trkpt lat="44.44712" lon="6.84641">
        <ele>1768</ele>
        <time>2022-03-06T08:47:15.000Z</time>
      </trkpt>
      <trkpt lat="44.44713" lon="6.8464">
        <ele>1768.1999511719</ele>
        <time>2022-03-06T08:47:16.000Z</time>
      </trkpt>
      <trkpt lat="44.44712" lon="6.84637">
        <ele>1769</ele>
        <time>2022-03-06T08:47:20.000Z</time>
      </trkpt>
      <trkpt lat="44.44712" lon="6.84635">
        <ele>1769.4000244141</ele>
        <time>2022-03-06T08:47:22.000Z</time>
      </trkpt>
      <trkpt lat="44.44713" lon="6.84632">
        <ele>1769.5999755859</ele>
        <time>2022-03-06T08:47:24.000Z</time>
      </trkpt>
      <trkpt lat="44.44712" lon="6.84628">
        <ele>1770.1999511719</ele>
        <time>2022-03-06T08:47:27.000Z</time>
      </trkpt>
      <trkpt lat="44.44712" lon="6.84621">
        <ele>1771.1999511719</ele>
        <time>2022-03-06T08:47:33.000Z</time>
      </trkpt>
      <trkpt lat="44.44715" lon="6.84618">
        <ele>1771.8000488281</ele>
        <time>2022-03-06T08:47:39.000Z</time>
      </trkpt>
      <trkpt lat="44.44715" lon="6.84616">
        <ele>1772.1999511719</ele>
        <time>2022-03-06T08:47:41.000Z</time>
      </trkpt>
      <trkpt lat="44.44716" lon="6.84612">
        <ele>1773.1999511719</ele>
        <time>2022-03-06T08:47:46.000Z</time>
      </trkpt>
      <trkpt lat="44.44716" lon="6.84612">
        <ele>1773.4000244141</ele>
        <time>2022-03-06T08:47:47.000Z</time>
      </trkpt>
      <trkpt lat="44.44719" lon="6.84605">
        <ele>1774.4000244141</ele>
        <time>2022-03-06T08:47:54.000Z</time>
      </trkpt>
      <trkpt lat="44.4472" lon="6.84605">
        <ele>1774.4000244141</ele>
        <time>2022-03-06T08:47:55.000Z</time>
      </trkpt>
      <trkpt lat="44.44724" lon="6.846">
        <ele>1775.4000244141</ele>
        <time>2022-03-06T08:48:03.000Z</time>
      </trkpt>
      <trkpt lat="44.44725" lon="6.84594">
        <ele>1776.4000244141</ele>
        <time>2022-03-06T08:48:13.000Z</time>
      </trkpt>
      <trkpt lat="44.44725" lon="6.84593">
        <ele>1777.4000244141</ele>
        <time>2022-03-06T08:48:18.000Z</time>
      </trkpt>
      <trkpt lat="44.44725" lon="6.84593">
        <ele>1777.8000488281</ele>
        <time>2022-03-06T08:48:21.000Z</time>
      </trkpt>
      <trkpt lat="44.44723" lon="6.84591">
        <ele>1778</ele>
        <time>2022-03-06T08:48:30.000Z</time>
      </trkpt>
      <trkpt lat="44.44723" lon="6.84591">
        <ele>1778.4000244141</ele>
        <time>2022-03-06T08:48:34.000Z</time>
      </trkpt>
      <trkpt lat="44.44724" lon="6.8459">
        <ele>1779.4000244141</ele>
        <time>2022-03-06T08:48:42.000Z</time>
      </trkpt>
      <trkpt lat="44.44725" lon="6.84588">
        <ele>1780.5999755859</ele>
        <time>2022-03-06T08:48:49.000Z</time>
      </trkpt>
      <trkpt lat="44.44727" lon="6.84584">
        <ele>1781.5999755859</ele>
        <time>2022-03-06T08:48:58.000Z</time>
      </trkpt>
      <trkpt lat="44.44728" lon="6.84573">
        <ele>1782.8000488281</ele>
        <time>2022-03-06T08:49:09.000Z</time>
      </trkpt>
      <trkpt lat="44.44729" lon="6.84564">
        <ele>1783.8000488281</ele>
        <time>2022-03-06T08:49:22.000Z</time>
      </trkpt>
      <trkpt lat="44.44733" lon="6.84558">
        <ele>1784.8000488281</ele>
        <time>2022-03-06T08:49:40.000Z</time>
      </trkpt>
      <trkpt lat="44.44737" lon="6.84557">
        <ele>1785</ele>
        <time>2022-03-06T08:49:45.000Z</time>
      </trkpt>
      <trkpt lat="44.4474" lon="6.84558">
        <ele>1785.4000244141</ele>
        <time>2022-03-06T08:49:53.000Z</time>
      </trkpt>
      <trkpt lat="44.4474" lon="6.84559">
        <ele>1785.8000488281</ele>
        <time>2022-03-06T08:50:06.000Z</time>
      </trkpt>
      <trkpt lat="44.44737" lon="6.84563">
        <ele>1786.8000488281</ele>
        <time>2022-03-06T08:50:14.000Z</time>
      </trkpt>
      <trkpt lat="44.44735" lon="6.84564">
        <ele>1787.1999511719</ele>
        <time>2022-03-06T08:50:16.000Z</time>
      </trkpt>
      <trkpt lat="44.44731" lon="6.84568">
        <ele>1788</ele>
        <time>2022-03-06T08:50:21.000Z</time>
      </trkpt>
      <trkpt lat="44.4473" lon="6.84568">
        <ele>1788.1999511719</ele>
        <time>2022-03-06T08:50:23.000Z</time>
      </trkpt>
      <trkpt lat="44.44728" lon="6.84569">
        <ele>1789.1999511719</ele>
        <time>2022-03-06T08:50:28.000Z</time>
      </trkpt>
      <trkpt lat="44.44728" lon="6.84569">
        <ele>1789.5999755859</ele>
        <time>2022-03-06T08:50:29.000Z</time>
      </trkpt>
      <trkpt lat="44.44725" lon="6.84569">
        <ele>1790.4000244141</ele>
        <time>2022-03-06T08:50:35.000Z</time>
      </trkpt>
      <trkpt lat="44.44725" lon="6.84569">
        <ele>1790.4000244141</ele>
        <time>2022-03-06T08:50:36.000Z</time>
      </trkpt>
      <trkpt lat="44.44723" lon="6.84569">
        <ele>1791.4000244141</ele>
        <time>2022-03-06T08:50:40.000Z</time>
      </trkpt>
      <trkpt lat="44.44722" lon="6.84569">
        <ele>1792.4000244141</ele>
        <time>2022-03-06T08:50:45.000Z</time>
      </trkpt>
      <trkpt lat="44.44721" lon="6.84569">
        <ele>1792.8000488281</ele>
        <time>2022-03-06T08:50:47.000Z</time>
      </trkpt>
      <trkpt lat="44.44719" lon="6.84568">
        <ele>1793.5999755859</ele>
        <time>2022-03-06T08:50:52.000Z</time>
      </trkpt>
      <trkpt lat="44.44718" lon="6.84568">
        <ele>1794</ele>
        <time>2022-03-06T08:50:53.000Z</time>
      </trkpt>
      <trkpt lat="44.44716" lon="6.8457">
        <ele>1794.8000488281</ele>
        <time>2022-03-06T08:50:58.000Z</time>
      </trkpt>
      <trkpt lat="44.44715" lon="6.84569">
        <ele>1795.4000244141</ele>
        <time>2022-03-06T08:51:02.000Z</time>
      </trkpt>
      <trkpt lat="44.44713" lon="6.84569">
        <ele>1796</ele>
        <time>2022-03-06T08:51:05.000Z</time>
      </trkpt>
      <trkpt lat="44.44711" lon="6.8457">
        <ele>1797</ele>
        <time>2022-03-06T08:51:10.000Z</time>
      </trkpt>
      <trkpt lat="44.4471" lon="6.8457">
        <ele>1797.1999511719</ele>
        <time>2022-03-06T08:51:11.000Z</time>
      </trkpt>
      <trkpt lat="44.44706" lon="6.8457">
        <ele>1798.1999511719</ele>
        <time>2022-03-06T08:51:16.000Z</time>
      </trkpt>
      <trkpt lat="44.44706" lon="6.84569">
        <ele>1798.4000244141</ele>
        <time>2022-03-06T08:51:17.000Z</time>
      </trkpt>
      <trkpt lat="44.44706" lon="6.8457">
        <ele>1799.1999511719</ele>
        <time>2022-03-06T08:51:20.000Z</time>
      </trkpt>
      <trkpt lat="44.44703" lon="6.8457">
        <ele>1800.1999511719</ele>
        <time>2022-03-06T08:51:27.000Z</time>
      </trkpt>
      <trkpt lat="44.44702" lon="6.8457">
        <ele>1800.5999755859</ele>
        <time>2022-03-06T08:51:29.000Z</time>
      </trkpt>
      <trkpt lat="44.44699" lon="6.84571">
        <ele>1801.4000244141</ele>
        <time>2022-03-06T08:51:32.000Z</time>
      </trkpt>
      <trkpt lat="44.44697" lon="6.84569">
        <ele>1802.4000244141</ele>
        <time>2022-03-06T08:51:37.000Z</time>
      </trkpt>
      <trkpt lat="44.44695" lon="6.84568">
        <ele>1803</ele>
        <time>2022-03-06T08:51:40.000Z</time>
      </trkpt>
      <trkpt lat="44.44693" lon="6.84568">
        <ele>1803.4000244141</ele>
        <time>2022-03-06T08:51:44.000Z</time>
      </trkpt>
      <trkpt lat="44.44692" lon="6.84568">
        <ele>1804.1999511719</ele>
        <time>2022-03-06T08:51:47.000Z</time>
      </trkpt>
      <trkpt lat="44.44691" lon="6.84569">
        <ele>1804.5999755859</ele>
        <time>2022-03-06T08:51:48.000Z</time>
      </trkpt>
      <trkpt lat="44.44689" lon="6.84568">
        <ele>1805.4000244141</ele>
        <time>2022-03-06T08:51:54.000Z</time>
      </trkpt>
      <trkpt lat="44.44688" lon="6.84568">
        <ele>1805.5999755859</ele>
        <time>2022-03-06T08:51:56.000Z</time>
      </trkpt>
      <trkpt lat="44.44687" lon="6.84569">
        <ele>1806</ele>
        <time>2022-03-06T08:52:00.000Z</time>
      </trkpt>
      <trkpt lat="44.44682" lon="6.84569">
        <ele>1806.5999755859</ele>
        <time>2022-03-06T08:52:07.000Z</time>
      </trkpt>
      <trkpt lat="44.44681" lon="6.8457">
        <ele>1807.8000488281</ele>
        <time>2022-03-06T08:52:12.000Z</time>
      </trkpt>
      <trkpt lat="44.4468" lon="6.8457">
        <ele>1808</ele>
        <time>2022-03-06T08:52:14.000Z</time>
      </trkpt>
      <trkpt lat="44.44677" lon="6.84571">
        <ele>1809</ele>
        <time>2022-03-06T08:52:19.000Z</time>
      </trkpt>
      <trkpt lat="44.44675" lon="6.84572">
        <ele>1809.5999755859</ele>
        <time>2022-03-06T08:52:23.000Z</time>
      </trkpt>
      <trkpt lat="44.44673" lon="6.84573">
        <ele>1810</ele>
        <time>2022-03-06T08:52:25.000Z</time>
      </trkpt>
      <trkpt lat="44.44669" lon="6.84573">
        <ele>1811</ele>
        <time>2022-03-06T08:52:30.000Z</time>
      </trkpt>
      <trkpt lat="44.44668" lon="6.84573">
        <ele>1811.1999511719</ele>
        <time>2022-03-06T08:52:31.000Z</time>
      </trkpt>
      <trkpt lat="44.44663" lon="6.84573">
        <ele>1812.1999511719</ele>
        <time>2022-03-06T08:52:38.000Z</time>
      </trkpt>
      <trkpt lat="44.44663" lon="6.84573">
        <ele>1812.1999511719</ele>
        <time>2022-03-06T08:52:39.000Z</time>
      </trkpt>
      <trkpt lat="44.44659" lon="6.84574">
        <ele>1813.4000244141</ele>
        <time>2022-03-06T08:52:45.000Z</time>
      </trkpt>
      <trkpt lat="44.44657" lon="6.84574">
        <ele>1813.8000488281</ele>
        <time>2022-03-06T08:52:48.000Z</time>
      </trkpt>
      <trkpt lat="44.44653" lon="6.84575">
        <ele>1814.5999755859</ele>
        <time>2022-03-06T08:52:53.000Z</time>
      </trkpt>
      <trkpt lat="44.4465" lon="6.84575">
        <ele>1815.5999755859</ele>
        <time>2022-03-06T08:52:58.000Z</time>
      </trkpt>
      <trkpt lat="44.44644" lon="6.84579">
        <ele>1816.8000488281</ele>
        <time>2022-03-06T08:53:04.000Z</time>
      </trkpt>
      <trkpt lat="44.44643" lon="6.84581">
        <ele>1817.5999755859</ele>
        <time>2022-03-06T08:53:08.000Z</time>
      </trkpt>
      <trkpt lat="44.44642" lon="6.8458">
        <ele>1817.8000488281</ele>
        <time>2022-03-06T08:53:10.000Z</time>
      </trkpt>
      <trkpt lat="44.44642" lon="6.84581">
        <ele>1818.4000244141</ele>
        <time>2022-03-06T08:53:15.000Z</time>
      </trkpt>
      <trkpt lat="44.4464" lon="6.84581">
        <ele>1818.8000488281</ele>
        <time>2022-03-06T08:53:18.000Z</time>
      </trkpt>
      <trkpt lat="44.4464" lon="6.84582">
        <ele>1819.1999511719</ele>
        <time>2022-03-06T08:53:21.000Z</time>
      </trkpt>
      <trkpt lat="44.44637" lon="6.84582">
        <ele>1820</ele>
        <time>2022-03-06T08:53:26.000Z</time>
      </trkpt>
      <trkpt lat="44.44634" lon="6.84583">
        <ele>1821.1999511719</ele>
        <time>2022-03-06T08:53:31.000Z</time>
      </trkpt>
      <trkpt lat="44.44632" lon="6.84585">
        <ele>1822.1999511719</ele>
        <time>2022-03-06T08:53:36.000Z</time>
      </trkpt>
      <trkpt lat="44.4463" lon="6.84585">
        <ele>1822.5999755859</ele>
        <time>2022-03-06T08:53:39.000Z</time>
      </trkpt>
      <trkpt lat="44.44628" lon="6.84586">
        <ele>1823.4000244141</ele>
        <time>2022-03-06T08:53:42.000Z</time>
      </trkpt>
      <trkpt lat="44.44626" lon="6.84588">
        <ele>1824.4000244141</ele>
        <time>2022-03-06T08:53:47.000Z</time>
      </trkpt>
      <trkpt lat="44.44625" lon="6.84588">
        <ele>1824.4000244141</ele>
        <time>2022-03-06T08:53:48.000Z</time>
      </trkpt>
      <trkpt lat="44.44622" lon="6.84591">
        <ele>1825.5999755859</ele>
        <time>2022-03-06T08:53:54.000Z</time>
      </trkpt>
      <trkpt lat="44.4462" lon="6.84593">
        <ele>1826.5999755859</ele>
        <time>2022-03-06T08:54:00.000Z</time>
      </trkpt>
      <trkpt lat="44.44619" lon="6.84594">
        <ele>1827</ele>
        <time>2022-03-06T08:54:03.000Z</time>
      </trkpt>
      <trkpt lat="44.44618" lon="6.84595">
        <ele>1827.5999755859</ele>
        <time>2022-03-06T08:54:07.000Z</time>
      </trkpt>
      <trkpt lat="44.44616" lon="6.84597">
        <ele>1829</ele>
        <time>2022-03-06T08:54:12.000Z</time>
      </trkpt>
      <trkpt lat="44.44611" lon="6.84598">
        <ele>1830.1999511719</ele>
        <time>2022-03-06T08:54:18.000Z</time>
      </trkpt>
      <trkpt lat="44.44607" lon="6.84597">
        <ele>1831.1999511719</ele>
        <time>2022-03-06T08:54:22.000Z</time>
      </trkpt>
      <trkpt lat="44.44602" lon="6.84598">
        <ele>1832.1999511719</ele>
        <time>2022-03-06T08:54:30.000Z</time>
      </trkpt>
      <trkpt lat="44.44601" lon="6.84599">
        <ele>1832.8000488281</ele>
        <time>2022-03-06T08:54:32.000Z</time>
      </trkpt>
      <trkpt lat="44.446" lon="6.84601">
        <ele>1833.4000244141</ele>
        <time>2022-03-06T08:54:35.000Z</time>
      </trkpt>
      <trkpt lat="44.44599" lon="6.84602">
        <ele>1834.4000244141</ele>
        <time>2022-03-06T08:54:39.000Z</time>
      </trkpt>
      <trkpt lat="44.44598" lon="6.84602">
        <ele>1834.5999755859</ele>
        <time>2022-03-06T08:54:40.000Z</time>
      </trkpt>
      <trkpt lat="44.44596" lon="6.84604">
        <ele>1835.5999755859</ele>
        <time>2022-03-06T08:54:47.000Z</time>
      </trkpt>
      <trkpt lat="44.44593" lon="6.84606">
        <ele>1836.5999755859</ele>
        <time>2022-03-06T08:54:53.000Z</time>
      </trkpt>
      <trkpt lat="44.44593" lon="6.84607">
        <ele>1836.5999755859</ele>
        <time>2022-03-06T08:54:54.000Z</time>
      </trkpt>
      <trkpt lat="44.44591" lon="6.84608">
        <ele>1837.8000488281</ele>
        <time>2022-03-06T08:54:57.000Z</time>
      </trkpt>
      <trkpt lat="44.4459" lon="6.8461">
        <ele>1838.5999755859</ele>
        <time>2022-03-06T08:55:02.000Z</time>
      </trkpt>
      <trkpt lat="44.44589" lon="6.8461">
        <ele>1838.8000488281</ele>
        <time>2022-03-06T08:55:03.000Z</time>
      </trkpt>
      <trkpt lat="44.44584" lon="6.84611">
        <ele>1839.8000488281</ele>
        <time>2022-03-06T08:55:10.000Z</time>
      </trkpt>
      <trkpt lat="44.44581" lon="6.84614">
        <ele>1840.8000488281</ele>
        <time>2022-03-06T08:55:16.000Z</time>
      </trkpt>
      <trkpt lat="44.44578" lon="6.84616">
        <ele>1841.8000488281</ele>
        <time>2022-03-06T08:55:21.000Z</time>
      </trkpt>
      <trkpt lat="44.44578" lon="6.84616">
        <ele>1842.1999511719</ele>
        <time>2022-03-06T08:55:22.000Z</time>
      </trkpt>
      <trkpt lat="44.44575" lon="6.84618">
        <ele>1843.1999511719</ele>
        <time>2022-03-06T08:55:28.000Z</time>
      </trkpt>
      <trkpt lat="44.44574" lon="6.84619">
        <ele>1843.4000244141</ele>
        <time>2022-03-06T08:55:29.000Z</time>
      </trkpt>
      <trkpt lat="44.44572" lon="6.8462">
        <ele>1844.4000244141</ele>
        <time>2022-03-06T08:55:34.000Z</time>
      </trkpt>
      <trkpt lat="44.44569" lon="6.84621">
        <ele>1845.4000244141</ele>
        <time>2022-03-06T08:55:41.000Z</time>
      </trkpt>
      <trkpt lat="44.44566" lon="6.84622">
        <ele>1846.5999755859</ele>
        <time>2022-03-06T08:55:46.000Z</time>
      </trkpt>
      <trkpt lat="44.44563" lon="6.84625">
        <ele>1847.4000244141</ele>
        <time>2022-03-06T08:55:51.000Z</time>
      </trkpt>
      <trkpt lat="44.44562" lon="6.84625">
        <ele>1847.5999755859</ele>
        <time>2022-03-06T08:55:53.000Z</time>
      </trkpt>
      <trkpt lat="44.44561" lon="6.84627">
        <ele>1848.8000488281</ele>
        <time>2022-03-06T08:55:59.000Z</time>
      </trkpt>
      <trkpt lat="44.44559" lon="6.84628">
        <ele>1849.5999755859</ele>
        <time>2022-03-06T08:56:04.000Z</time>
      </trkpt>
      <trkpt lat="44.44559" lon="6.84629">
        <ele>1850</ele>
        <time>2022-03-06T08:56:06.000Z</time>
      </trkpt>
      <trkpt lat="44.44556" lon="6.8463">
        <ele>1851</ele>
        <time>2022-03-06T08:56:11.000Z</time>
      </trkpt>
      <trkpt lat="44.44556" lon="6.8463">
        <ele>1851.1999511719</ele>
        <time>2022-03-06T08:56:12.000Z</time>
      </trkpt>
      <trkpt lat="44.44553" lon="6.84632">
        <ele>1852.1999511719</ele>
        <time>2022-03-06T08:56:18.000Z</time>
      </trkpt>
      <trkpt lat="44.44553" lon="6.84633">
        <ele>1852.4000244141</ele>
        <time>2022-03-06T08:56:19.000Z</time>
      </trkpt>
      <trkpt lat="44.44552" lon="6.84634">
        <ele>1853.4000244141</ele>
        <time>2022-03-06T08:56:23.000Z</time>
      </trkpt>
      <trkpt lat="44.44549" lon="6.84636">
        <ele>1854.4000244141</ele>
        <time>2022-03-06T08:56:29.000Z</time>
      </trkpt>
      <trkpt lat="44.44547" lon="6.84637">
        <ele>1855.4000244141</ele>
        <time>2022-03-06T08:56:33.000Z</time>
      </trkpt>
      <trkpt lat="44.44545" lon="6.84638">
        <ele>1856.4000244141</ele>
        <time>2022-03-06T08:56:37.000Z</time>
      </trkpt>
      <trkpt lat="44.44545" lon="6.84638">
        <ele>1856.5999755859</ele>
        <time>2022-03-06T08:56:38.000Z</time>
      </trkpt>
      <trkpt lat="44.44542" lon="6.84638">
        <ele>1857.1999511719</ele>
        <time>2022-03-06T08:56:44.000Z</time>
      </trkpt>
      <trkpt lat="44.4454" lon="6.84638">
        <ele>1857.8000488281</ele>
        <time>2022-03-06T08:56:48.000Z</time>
      </trkpt>
      <trkpt lat="44.44538" lon="6.84639">
        <ele>1858.8000488281</ele>
        <time>2022-03-06T08:56:54.000Z</time>
      </trkpt>
      <trkpt lat="44.44538" lon="6.84639">
        <ele>1859.1999511719</ele>
        <time>2022-03-06T08:56:55.000Z</time>
      </trkpt>
      <trkpt lat="44.44534" lon="6.84639">
        <ele>1859.8000488281</ele>
        <time>2022-03-06T08:57:00.000Z</time>
      </trkpt>
      <trkpt lat="44.44534" lon="6.84639">
        <ele>1860.1999511719</ele>
        <time>2022-03-06T08:57:01.000Z</time>
      </trkpt>
      <trkpt lat="44.4453" lon="6.84639">
        <ele>1861.1999511719</ele>
        <time>2022-03-06T08:57:06.000Z</time>
      </trkpt>
      <trkpt lat="44.44528" lon="6.8464">
        <ele>1861.8000488281</ele>
        <time>2022-03-06T08:57:09.000Z</time>
      </trkpt>
      <trkpt lat="44.44527" lon="6.8464">
        <ele>1862.1999511719</ele>
        <time>2022-03-06T08:57:11.000Z</time>
      </trkpt>
      <trkpt lat="44.44525" lon="6.84641">
        <ele>1862.8000488281</ele>
        <time>2022-03-06T08:57:16.000Z</time>
      </trkpt>
      <trkpt lat="44.44522" lon="6.84642">
        <ele>1863.1999511719</ele>
        <time>2022-03-06T08:57:20.000Z</time>
      </trkpt>
      <trkpt lat="44.44521" lon="6.84642">
        <ele>1863.4000244141</ele>
        <time>2022-03-06T08:57:22.000Z</time>
      </trkpt>
      <trkpt lat="44.44519" lon="6.84642">
        <ele>1864.4000244141</ele>
        <time>2022-03-06T08:57:26.000Z</time>
      </trkpt>
      <trkpt lat="44.44515" lon="6.84641">
        <ele>1865.1999511719</ele>
        <time>2022-03-06T08:57:31.000Z</time>
      </trkpt>
      <trkpt lat="44.44513" lon="6.84642">
        <ele>1865.4000244141</ele>
        <time>2022-03-06T08:57:34.000Z</time>
      </trkpt>
      <trkpt lat="44.4451" lon="6.84644">
        <ele>1866.1999511719</ele>
        <time>2022-03-06T08:57:39.000Z</time>
      </trkpt>
      <trkpt lat="44.44508" lon="6.84645">
        <ele>1866.5999755859</ele>
        <time>2022-03-06T08:57:41.000Z</time>
      </trkpt>
      <trkpt lat="44.44505" lon="6.84646">
        <ele>1867.5999755859</ele>
        <time>2022-03-06T08:57:46.000Z</time>
      </trkpt>
      <trkpt lat="44.44502" lon="6.84646">
        <ele>1868.5999755859</ele>
        <time>2022-03-06T08:57:52.000Z</time>
      </trkpt>
      <trkpt lat="44.44502" lon="6.84646">
        <ele>1868.8000488281</ele>
        <time>2022-03-06T08:57:53.000Z</time>
      </trkpt>
      <trkpt lat="44.44499" lon="6.84647">
        <ele>1869.5999755859</ele>
        <time>2022-03-06T08:57:59.000Z</time>
      </trkpt>
      <trkpt lat="44.44496" lon="6.84647">
        <ele>1870.8000488281</ele>
        <time>2022-03-06T08:58:05.000Z</time>
      </trkpt>
      <trkpt lat="44.44494" lon="6.84648">
        <ele>1871.1999511719</ele>
        <time>2022-03-06T08:58:08.000Z</time>
      </trkpt>
      <trkpt lat="44.44492" lon="6.84649">
        <ele>1871.8000488281</ele>
        <time>2022-03-06T08:58:10.000Z</time>
      </trkpt>
      <trkpt lat="44.44486" lon="6.8465">
        <ele>1873</ele>
        <time>2022-03-06T08:58:17.000Z</time>
      </trkpt>
      <trkpt lat="44.44485" lon="6.8465">
        <ele>1873.1999511719</ele>
        <time>2022-03-06T08:58:18.000Z</time>
      </trkpt>
      <trkpt lat="44.44482" lon="6.84652">
        <ele>1874</ele>
        <time>2022-03-06T08:58:24.000Z</time>
      </trkpt>
      <trkpt lat="44.4448" lon="6.84655">
        <ele>1874.5999755859</ele>
        <time>2022-03-06T08:58:29.000Z</time>
      </trkpt>
      <trkpt lat="44.44478" lon="6.84657">
        <ele>1875</ele>
        <time>2022-03-06T08:58:36.000Z</time>
      </trkpt>
      <trkpt lat="44.44477" lon="6.84657">
        <ele>1875.1999511719</ele>
        <time>2022-03-06T08:58:38.000Z</time>
      </trkpt>
      <trkpt lat="44.44473" lon="6.84659">
        <ele>1875.5999755859</ele>
        <time>2022-03-06T08:58:45.000Z</time>
      </trkpt>
      <trkpt lat="44.44467" lon="6.84658">
        <ele>1876.1999511719</ele>
        <time>2022-03-06T08:58:53.000Z</time>
      </trkpt>
      <trkpt lat="44.44461" lon="6.84657">
        <ele>1877.4000244141</ele>
        <time>2022-03-06T08:59:01.000Z</time>
      </trkpt>
      <trkpt lat="44.44454" lon="6.84657">
        <ele>1878.4000244141</ele>
        <time>2022-03-06T08:59:10.000Z</time>
      </trkpt>
      <trkpt lat="44.44454" lon="6.84657">
        <ele>1878.4000244141</ele>
        <time>2022-03-06T08:59:11.000Z</time>
      </trkpt>
      <trkpt lat="44.44449" lon="6.84659">
        <ele>1879.1999511719</ele>
        <time>2022-03-06T08:59:17.000Z</time>
      </trkpt>
      <trkpt lat="44.44446" lon="6.84659">
        <ele>1879.5999755859</ele>
        <time>2022-03-06T08:59:22.000Z</time>
      </trkpt>
      <trkpt lat="44.44445" lon="6.8466">
        <ele>1880</ele>
        <time>2022-03-06T08:59:24.000Z</time>
      </trkpt>
      <trkpt lat="44.44443" lon="6.84662">
        <ele>1880.8000488281</ele>
        <time>2022-03-06T08:59:28.000Z</time>
      </trkpt>
      <trkpt lat="44.44441" lon="6.84664">
        <ele>1881.4000244141</ele>
        <time>2022-03-06T08:59:32.000Z</time>
      </trkpt>
      <trkpt lat="44.44438" lon="6.84665">
        <ele>1881.8000488281</ele>
        <time>2022-03-06T08:59:37.000Z</time>
      </trkpt>
      <trkpt lat="44.44435" lon="6.84666">
        <ele>1882.4000244141</ele>
        <time>2022-03-06T08:59:40.000Z</time>
      </trkpt>
      <trkpt lat="44.44433" lon="6.84667">
        <ele>1882.8000488281</ele>
        <time>2022-03-06T08:59:43.000Z</time>
      </trkpt>
      <trkpt lat="44.44429" lon="6.84668">
        <ele>1883.5999755859</ele>
        <time>2022-03-06T08:59:49.000Z</time>
      </trkpt>
      <trkpt lat="44.44428" lon="6.84668">
        <ele>1883.8000488281</ele>
        <time>2022-03-06T08:59:51.000Z</time>
      </trkpt>
      <trkpt lat="44.44423" lon="6.84669">
        <ele>1884.8000488281</ele>
        <time>2022-03-06T08:59:57.000Z</time>
      </trkpt>
      <trkpt lat="44.44422" lon="6.84669">
        <ele>1885</ele>
        <time>2022-03-06T08:59:58.000Z</time>
      </trkpt>
      <trkpt lat="44.4442" lon="6.84671">
        <ele>1885.8000488281</ele>
        <time>2022-03-06T09:00:04.000Z</time>
      </trkpt>
      <trkpt lat="44.44419" lon="6.84672">
        <ele>1886</ele>
        <time>2022-03-06T09:00:05.000Z</time>
      </trkpt>
      <trkpt lat="44.44416" lon="6.84675">
        <ele>1887.1999511719</ele>
        <time>2022-03-06T09:00:11.000Z</time>
      </trkpt>
      <trkpt lat="44.44413" lon="6.84677">
        <ele>1888.1999511719</ele>
        <time>2022-03-06T09:00:18.000Z</time>
      </trkpt>
      <trkpt lat="44.44411" lon="6.84678">
        <ele>1888.4000244141</ele>
        <time>2022-03-06T09:00:20.000Z</time>
      </trkpt>
      <trkpt lat="44.44409" lon="6.84679">
        <ele>1889.1999511719</ele>
        <time>2022-03-06T09:00:26.000Z</time>
      </trkpt>
      <trkpt lat="44.44405" lon="6.8468">
        <ele>1890</ele>
        <time>2022-03-06T09:00:31.000Z</time>
      </trkpt>
      <trkpt lat="44.44405" lon="6.8468">
        <ele>1890.1999511719</ele>
        <time>2022-03-06T09:00:32.000Z</time>
      </trkpt>
      <trkpt lat="44.44402" lon="6.84681">
        <ele>1890.5999755859</ele>
        <time>2022-03-06T09:00:38.000Z</time>
      </trkpt>
      <trkpt lat="44.444" lon="6.84682">
        <ele>1891.4000244141</ele>
        <time>2022-03-06T09:00:45.000Z</time>
      </trkpt>
      <trkpt lat="44.44397" lon="6.84683">
        <ele>1891.8000488281</ele>
        <time>2022-03-06T09:00:51.000Z</time>
      </trkpt>
      <trkpt lat="44.44393" lon="6.84684">
        <ele>1892.4000244141</ele>
        <time>2022-03-06T09:00:57.000Z</time>
      </trkpt>
      <trkpt lat="44.44393" lon="6.84684">
        <ele>1892.5999755859</ele>
        <time>2022-03-06T09:00:58.000Z</time>
      </trkpt>
      <trkpt lat="44.44389" lon="6.84684">
        <ele>1893.4000244141</ele>
        <time>2022-03-06T09:01:03.000Z</time>
      </trkpt>
      <trkpt lat="44.44386" lon="6.84685">
        <ele>1894</ele>
        <time>2022-03-06T09:01:07.000Z</time>
      </trkpt>
      <trkpt lat="44.44383" lon="6.84685">
        <ele>1894.5999755859</ele>
        <time>2022-03-06T09:01:11.000Z</time>
      </trkpt>
      <trkpt lat="44.44379" lon="6.84687">
        <ele>1895.5999755859</ele>
        <time>2022-03-06T09:01:18.000Z</time>
      </trkpt>
      <trkpt lat="44.44372" lon="6.84689">
        <ele>1896.5999755859</ele>
        <time>2022-03-06T09:01:27.000Z</time>
      </trkpt>
      <trkpt lat="44.44371" lon="6.84689">
        <ele>1896.5999755859</ele>
        <time>2022-03-06T09:01:28.000Z</time>
      </trkpt>
      <trkpt lat="44.44368" lon="6.8469">
        <ele>1896.8000488281</ele>
        <time>2022-03-06T09:01:31.000Z</time>
      </trkpt>
      <trkpt lat="44.44366" lon="6.8469">
        <ele>1897.1999511719</ele>
        <time>2022-03-06T09:01:34.000Z</time>
      </trkpt>
      <trkpt lat="44.44361" lon="6.84691">
        <ele>1897.8000488281</ele>
        <time>2022-03-06T09:01:41.000Z</time>
      </trkpt>
      <trkpt lat="44.44356" lon="6.84691">
        <ele>1898.8000488281</ele>
        <time>2022-03-06T09:01:47.000Z</time>
      </trkpt>
      <trkpt lat="44.44355" lon="6.8469">
        <ele>1899</ele>
        <time>2022-03-06T09:01:48.000Z</time>
      </trkpt>
      <trkpt lat="44.4435" lon="6.84687">
        <ele>1900</ele>
        <time>2022-03-06T09:01:55.000Z</time>
      </trkpt>
      <trkpt lat="44.44347" lon="6.84685">
        <ele>1900.1999511719</ele>
        <time>2022-03-06T09:01:59.000Z</time>
      </trkpt>
      <trkpt lat="44.44345" lon="6.84683">
        <ele>1901.1999511719</ele>
        <time>2022-03-06T09:02:03.000Z</time>
      </trkpt>
      <trkpt lat="44.44343" lon="6.84681">
        <ele>1902</ele>
        <time>2022-03-06T09:02:08.000Z</time>
      </trkpt>
      <trkpt lat="44.44342" lon="6.84681">
        <ele>1902.4000244141</ele>
        <time>2022-03-06T09:02:10.000Z</time>
      </trkpt>
      <trkpt lat="44.44337" lon="6.84679">
        <ele>1903.4000244141</ele>
        <time>2022-03-06T09:02:17.000Z</time>
      </trkpt>
      <trkpt lat="44.44337" lon="6.84679">
        <ele>1903.8000488281</ele>
        <time>2022-03-06T09:02:18.000Z</time>
      </trkpt>
      <trkpt lat="44.44334" lon="6.84679">
        <ele>1904.4000244141</ele>
        <time>2022-03-06T09:02:24.000Z</time>
      </trkpt>
      <trkpt lat="44.44331" lon="6.84683">
        <ele>1905.5999755859</ele>
        <time>2022-03-06T09:02:30.000Z</time>
      </trkpt>
      <trkpt lat="44.44328" lon="6.84686">
        <ele>1905.8000488281</ele>
        <time>2022-03-06T09:02:34.000Z</time>
      </trkpt>
      <trkpt lat="44.44325" lon="6.84687">
        <ele>1906.5999755859</ele>
        <time>2022-03-06T09:02:38.000Z</time>
      </trkpt>
      <trkpt lat="44.44323" lon="6.84688">
        <ele>1907.4000244141</ele>
        <time>2022-03-06T09:02:41.000Z</time>
      </trkpt>
      <trkpt lat="44.44322" lon="6.84689">
        <ele>1907.5999755859</ele>
        <time>2022-03-06T09:02:43.000Z</time>
      </trkpt>
      <trkpt lat="44.44317" lon="6.84689">
        <ele>1908.5999755859</ele>
        <time>2022-03-06T09:02:50.000Z</time>
      </trkpt>
      <trkpt lat="44.44315" lon="6.84688">
        <ele>1908.8000488281</ele>
        <time>2022-03-06T09:02:53.000Z</time>
      </trkpt>
      <trkpt lat="44.44313" lon="6.84689">
        <ele>1909</ele>
        <time>2022-03-06T09:02:56.000Z</time>
      </trkpt>
      <trkpt lat="44.44309" lon="6.84689">
        <ele>1909.8000488281</ele>
        <time>2022-03-06T09:03:02.000Z</time>
      </trkpt>
      <trkpt lat="44.44307" lon="6.84688">
        <ele>1910</ele>
        <time>2022-03-06T09:03:05.000Z</time>
      </trkpt>
      <trkpt lat="44.44304" lon="6.84688">
        <ele>1910.8000488281</ele>
        <time>2022-03-06T09:03:11.000Z</time>
      </trkpt>
      <trkpt lat="44.44303" lon="6.84687">
        <ele>1911</ele>
        <time>2022-03-06T09:03:12.000Z</time>
      </trkpt>
      <trkpt lat="44.443" lon="6.84686">
        <ele>1911.5999755859</ele>
        <time>2022-03-06T09:03:16.000Z</time>
      </trkpt>
      <trkpt lat="44.443" lon="6.84686">
        <ele>1911.8000488281</ele>
        <time>2022-03-06T09:03:21.000Z</time>
      </trkpt>
      <trkpt lat="44.44299" lon="6.84687">
        <ele>1911.8000488281</ele>
        <time>2022-03-06T09:03:23.000Z</time>
      </trkpt>
      <trkpt lat="44.44299" lon="6.84686">
        <ele>1912</ele>
        <time>2022-03-06T09:03:27.000Z</time>
      </trkpt>
      <trkpt lat="44.44297" lon="6.84686">
        <ele>1912.1999511719</ele>
        <time>2022-03-06T09:03:37.000Z</time>
      </trkpt>
      <trkpt lat="44.44295" lon="6.84686">
        <ele>1913</ele>
        <time>2022-03-06T09:03:42.000Z</time>
      </trkpt>
      <trkpt lat="44.44293" lon="6.84686">
        <ele>1913.5999755859</ele>
        <time>2022-03-06T09:03:48.000Z</time>
      </trkpt>
      <trkpt lat="44.44291" lon="6.84686">
        <ele>1914.1999511719</ele>
        <time>2022-03-06T09:03:51.000Z</time>
      </trkpt>
      <trkpt lat="44.44289" lon="6.84686">
        <ele>1914.5999755859</ele>
        <time>2022-03-06T09:03:54.000Z</time>
      </trkpt>
      <trkpt lat="44.44287" lon="6.84685">
        <ele>1915.1999511719</ele>
        <time>2022-03-06T09:03:57.000Z</time>
      </trkpt>
      <trkpt lat="44.44285" lon="6.84685">
        <ele>1915.5999755859</ele>
        <time>2022-03-06T09:04:01.000Z</time>
      </trkpt>
      <trkpt lat="44.44285" lon="6.84685">
        <ele>1916.4000244141</ele>
        <time>2022-03-06T09:04:05.000Z</time>
      </trkpt>
      <trkpt lat="44.44285" lon="6.84687">
        <ele>1916.4000244141</ele>
        <time>2022-03-06T09:04:07.000Z</time>
      </trkpt>
      <trkpt lat="44.44285" lon="6.84682">
        <ele>1916</ele>
        <time>2022-03-06T09:04:13.000Z</time>
      </trkpt>
      <trkpt lat="44.44282" lon="6.84677">
        <ele>1916.1999511719</ele>
        <time>2022-03-06T09:05:15.000Z</time>
      </trkpt>
      <trkpt lat="44.44277" lon="6.84676">
        <ele>1917</ele>
        <time>2022-03-06T09:05:18.000Z</time>
      </trkpt>
      <trkpt lat="44.44275" lon="6.84674">
        <ele>1917.4000244141</ele>
        <time>2022-03-06T09:05:20.000Z</time>
      </trkpt>
      <trkpt lat="44.44272" lon="6.84672">
        <ele>1918.4000244141</ele>
        <time>2022-03-06T09:05:25.000Z</time>
      </trkpt>
      <trkpt lat="44.44271" lon="6.84671">
        <ele>1918.5999755859</ele>
        <time>2022-03-06T09:05:26.000Z</time>
      </trkpt>
      <trkpt lat="44.44267" lon="6.84668">
        <ele>1919.8000488281</ele>
        <time>2022-03-06T09:05:34.000Z</time>
      </trkpt>
      <trkpt lat="44.44264" lon="6.84666">
        <ele>1920.1999511719</ele>
        <time>2022-03-06T09:05:40.000Z</time>
      </trkpt>
      <trkpt lat="44.44263" lon="6.84663">
        <ele>1920.8000488281</ele>
        <time>2022-03-06T09:05:44.000Z</time>
      </trkpt>
      <trkpt lat="44.4426" lon="6.84659">
        <ele>1921.4000244141</ele>
        <time>2022-03-06T09:05:49.000Z</time>
      </trkpt>
      <trkpt lat="44.44263" lon="6.84658">
        <ele>1922</ele>
        <time>2022-03-06T09:05:52.000Z</time>
      </trkpt>
      <trkpt lat="44.44262" lon="6.84657">
        <ele>1922.1999511719</ele>
        <time>2022-03-06T09:05:53.000Z</time>
      </trkpt>
      <trkpt lat="44.44258" lon="6.84653">
        <ele>1923.1999511719</ele>
        <time>2022-03-06T09:05:59.000Z</time>
      </trkpt>
      <trkpt lat="44.44256" lon="6.84652">
        <ele>1923.5999755859</ele>
        <time>2022-03-06T09:06:00.000Z</time>
      </trkpt>
      <trkpt lat="44.44252" lon="6.84649">
        <ele>1924.1999511719</ele>
        <time>2022-03-06T09:06:06.000Z</time>
      </trkpt>
      <trkpt lat="44.44251" lon="6.84649">
        <ele>1924.5999755859</ele>
        <time>2022-03-06T09:06:07.000Z</time>
      </trkpt>
      <trkpt lat="44.44248" lon="6.84647">
        <ele>1925.4000244141</ele>
        <time>2022-03-06T09:06:13.000Z</time>
      </trkpt>
      <trkpt lat="44.44247" lon="6.84647">
        <ele>1926</ele>
        <time>2022-03-06T09:06:15.000Z</time>
      </trkpt>
      <trkpt lat="44.44245" lon="6.84646">
        <ele>1926.4000244141</ele>
        <time>2022-03-06T09:06:18.000Z</time>
      </trkpt>
      <trkpt lat="44.44245" lon="6.84645">
        <ele>1927</ele>
        <time>2022-03-06T09:06:21.000Z</time>
      </trkpt>
      <trkpt lat="44.44244" lon="6.84645">
        <ele>1927.5999755859</ele>
        <time>2022-03-06T09:06:24.000Z</time>
      </trkpt>
      <trkpt lat="44.44242" lon="6.84646">
        <ele>1928.8000488281</ele>
        <time>2022-03-06T09:06:29.000Z</time>
      </trkpt>
      <trkpt lat="44.44241" lon="6.84646">
        <ele>1929</ele>
        <time>2022-03-06T09:06:30.000Z</time>
      </trkpt>
      <trkpt lat="44.44239" lon="6.84645">
        <ele>1929.4000244141</ele>
        <time>2022-03-06T09:06:34.000Z</time>
      </trkpt>
      <trkpt lat="44.44238" lon="6.84645">
        <ele>1929.8000488281</ele>
        <time>2022-03-06T09:06:36.000Z</time>
      </trkpt>
      <trkpt lat="44.44235" lon="6.84643">
        <ele>1931.1999511719</ele>
        <time>2022-03-06T09:06:41.000Z</time>
      </trkpt>
      <trkpt lat="44.44235" lon="6.84643">
        <ele>1931.4000244141</ele>
        <time>2022-03-06T09:06:42.000Z</time>
      </trkpt>
      <trkpt lat="44.44232" lon="6.84643">
        <ele>1932</ele>
        <time>2022-03-06T09:06:49.000Z</time>
      </trkpt>
      <trkpt lat="44.44231" lon="6.84643">
        <ele>1932.1999511719</ele>
        <time>2022-03-06T09:06:51.000Z</time>
      </trkpt>
      <trkpt lat="44.44231" lon="6.84641">
        <ele>1933</ele>
        <time>2022-03-06T09:06:55.000Z</time>
      </trkpt>
      <trkpt lat="44.4423" lon="6.84641">
        <ele>1933.4000244141</ele>
        <time>2022-03-06T09:06:57.000Z</time>
      </trkpt>
      <trkpt lat="44.44224" lon="6.84642">
        <ele>1934.4000244141</ele>
        <time>2022-03-06T09:07:05.000Z</time>
      </trkpt>
      <trkpt lat="44.4422" lon="6.8464">
        <ele>1935.5999755859</ele>
        <time>2022-03-06T09:07:12.000Z</time>
      </trkpt>
      <trkpt lat="44.44219" lon="6.84639">
        <ele>1936.1999511719</ele>
        <time>2022-03-06T09:07:15.000Z</time>
      </trkpt>
      <trkpt lat="44.44217" lon="6.84639">
        <ele>1936.5999755859</ele>
        <time>2022-03-06T09:07:18.000Z</time>
      </trkpt>
      <trkpt lat="44.44214" lon="6.84636">
        <ele>1937.5999755859</ele>
        <time>2022-03-06T09:07:24.000Z</time>
      </trkpt>
      <trkpt lat="44.44212" lon="6.84633">
        <ele>1938.4000244141</ele>
        <time>2022-03-06T09:07:29.000Z</time>
      </trkpt>
      <trkpt lat="44.44212" lon="6.84633">
        <ele>1938.8000488281</ele>
        <time>2022-03-06T09:07:30.000Z</time>
      </trkpt>
      <trkpt lat="44.44211" lon="6.84631">
        <ele>1939.4000244141</ele>
        <time>2022-03-06T09:07:34.000Z</time>
      </trkpt>
      <trkpt lat="44.4421" lon="6.84631">
        <ele>1939.8000488281</ele>
        <time>2022-03-06T09:07:37.000Z</time>
      </trkpt>
      <trkpt lat="44.44208" lon="6.84629">
        <ele>1940.4000244141</ele>
        <time>2022-03-06T09:07:43.000Z</time>
      </trkpt>
      <trkpt lat="44.44206" lon="6.84626">
        <ele>1940.8000488281</ele>
        <time>2022-03-06T09:07:46.000Z</time>
      </trkpt>
      <trkpt lat="44.44205" lon="6.84626">
        <ele>1941</ele>
        <time>2022-03-06T09:07:49.000Z</time>
      </trkpt>
      <trkpt lat="44.44204" lon="6.84625">
        <ele>1941.4000244141</ele>
        <time>2022-03-06T09:07:55.000Z</time>
      </trkpt>
      <trkpt lat="44.44202" lon="6.84623">
        <ele>1942.1999511719</ele>
        <time>2022-03-06T09:08:00.000Z</time>
      </trkpt>
      <trkpt lat="44.44202" lon="6.84622">
        <ele>1942.4000244141</ele>
        <time>2022-03-06T09:08:01.000Z</time>
      </trkpt>
      <trkpt lat="44.442" lon="6.8462">
        <ele>1943.4000244141</ele>
        <time>2022-03-06T09:08:08.000Z</time>
      </trkpt>
      <trkpt lat="44.44199" lon="6.84618">
        <ele>1944.4000244141</ele>
        <time>2022-03-06T09:08:16.000Z</time>
      </trkpt>
      <trkpt lat="44.44196" lon="6.84617">
        <ele>1945.4000244141</ele>
        <time>2022-03-06T09:08:22.000Z</time>
      </trkpt>
      <trkpt lat="44.44195" lon="6.84615">
        <ele>1946.4000244141</ele>
        <time>2022-03-06T09:08:25.000Z</time>
      </trkpt>
      <trkpt lat="44.44194" lon="6.84615">
        <ele>1946.5999755859</ele>
        <time>2022-03-06T09:08:26.000Z</time>
      </trkpt>
      <trkpt lat="44.44192" lon="6.84612">
        <ele>1947.8000488281</ele>
        <time>2022-03-06T09:08:33.000Z</time>
      </trkpt>
      <trkpt lat="44.44191" lon="6.84611">
        <ele>1948.5999755859</ele>
        <time>2022-03-06T09:08:36.000Z</time>
      </trkpt>
      <trkpt lat="44.4419" lon="6.8461">
        <ele>1948.8000488281</ele>
        <time>2022-03-06T09:08:37.000Z</time>
      </trkpt>
      <trkpt lat="44.44188" lon="6.84611">
        <ele>1950</ele>
        <time>2022-03-06T09:08:42.000Z</time>
      </trkpt>
      <trkpt lat="44.44187" lon="6.84612">
        <ele>1951</ele>
        <time>2022-03-06T09:08:46.000Z</time>
      </trkpt>
      <trkpt lat="44.44182" lon="6.84612">
        <ele>1952</ele>
        <time>2022-03-06T09:08:53.000Z</time>
      </trkpt>
      <trkpt lat="44.44182" lon="6.84612">
        <ele>1952.1999511719</ele>
        <time>2022-03-06T09:08:54.000Z</time>
      </trkpt>
      <trkpt lat="44.44177" lon="6.84613">
        <ele>1953</ele>
        <time>2022-03-06T09:09:01.000Z</time>
      </trkpt>
      <trkpt lat="44.44177" lon="6.84613">
        <ele>1953.1999511719</ele>
        <time>2022-03-06T09:09:02.000Z</time>
      </trkpt>
      <trkpt lat="44.44176" lon="6.84613">
        <ele>1953.4000244141</ele>
        <time>2022-03-06T09:09:03.000Z</time>
      </trkpt>
      <trkpt lat="44.44172" lon="6.84612">
        <ele>1954.1999511719</ele>
        <time>2022-03-06T09:09:07.000Z</time>
      </trkpt>
      <trkpt lat="44.44169" lon="6.8461">
        <ele>1955</ele>
        <time>2022-03-06T09:09:12.000Z</time>
      </trkpt>
      <trkpt lat="44.44169" lon="6.84609">
        <ele>1955.1999511719</ele>
        <time>2022-03-06T09:09:14.000Z</time>
      </trkpt>
      <trkpt lat="44.44167" lon="6.84609">
        <ele>1956.1999511719</ele>
        <time>2022-03-06T09:09:18.000Z</time>
      </trkpt>
      <trkpt lat="44.44164" lon="6.84609">
        <ele>1956.8000488281</ele>
        <time>2022-03-06T09:09:23.000Z</time>
      </trkpt>
      <trkpt lat="44.44163" lon="6.84609">
        <ele>1957.1999511719</ele>
        <time>2022-03-06T09:09:25.000Z</time>
      </trkpt>
      <trkpt lat="44.44158" lon="6.84608">
        <ele>1958.5999755859</ele>
        <time>2022-03-06T09:09:32.000Z</time>
      </trkpt>
      <trkpt lat="44.44158" lon="6.84608">
        <ele>1958.5999755859</ele>
        <time>2022-03-06T09:09:33.000Z</time>
      </trkpt>
      <trkpt lat="44.44155" lon="6.84608">
        <ele>1959.5999755859</ele>
        <time>2022-03-06T09:09:37.000Z</time>
      </trkpt>
      <trkpt lat="44.44153" lon="6.84608">
        <ele>1960.4000244141</ele>
        <time>2022-03-06T09:09:41.000Z</time>
      </trkpt>
      <trkpt lat="44.44152" lon="6.84609">
        <ele>1960.8000488281</ele>
        <time>2022-03-06T09:09:43.000Z</time>
      </trkpt>
      <trkpt lat="44.44149" lon="6.84609">
        <ele>1961.8000488281</ele>
        <time>2022-03-06T09:09:49.000Z</time>
      </trkpt>
      <trkpt lat="44.44148" lon="6.84609">
        <ele>1962</ele>
        <time>2022-03-06T09:09:50.000Z</time>
      </trkpt>
      <trkpt lat="44.44146" lon="6.84609">
        <ele>1962.8000488281</ele>
        <time>2022-03-06T09:09:54.000Z</time>
      </trkpt>
      <trkpt lat="44.44143" lon="6.84607">
        <ele>1963.8000488281</ele>
        <time>2022-03-06T09:09:59.000Z</time>
      </trkpt>
      <trkpt lat="44.44143" lon="6.84607">
        <ele>1963.8000488281</ele>
        <time>2022-03-06T09:10:00.000Z</time>
      </trkpt>
      <trkpt lat="44.44143" lon="6.84606">
        <ele>1964</ele>
        <time>2022-03-06T09:10:01.000Z</time>
      </trkpt>
      <trkpt lat="44.44139" lon="6.84606">
        <ele>1965</ele>
        <time>2022-03-06T09:10:07.000Z</time>
      </trkpt>
      <trkpt lat="44.44138" lon="6.84605">
        <ele>1965.4000244141</ele>
        <time>2022-03-06T09:10:09.000Z</time>
      </trkpt>
      <trkpt lat="44.44135" lon="6.84602">
        <ele>1966.4000244141</ele>
        <time>2022-03-06T09:10:14.000Z</time>
      </trkpt>
      <trkpt lat="44.44133" lon="6.84599">
        <ele>1967.1999511719</ele>
        <time>2022-03-06T09:10:19.000Z</time>
      </trkpt>
      <trkpt lat="44.44132" lon="6.84598">
        <ele>1967.5999755859</ele>
        <time>2022-03-06T09:10:21.000Z</time>
      </trkpt>
      <trkpt lat="44.44129" lon="6.84595">
        <ele>1968.5999755859</ele>
        <time>2022-03-06T09:10:27.000Z</time>
      </trkpt>
      <trkpt lat="44.44129" lon="6.84593">
        <ele>1969.4000244141</ele>
        <time>2022-03-06T09:10:30.000Z</time>
      </trkpt>
      <trkpt lat="44.44128" lon="6.84593">
        <ele>1969.5999755859</ele>
        <time>2022-03-06T09:10:37.000Z</time>
      </trkpt>
      <trkpt lat="44.44129" lon="6.84593">
        <ele>1969.5999755859</ele>
        <time>2022-03-06T09:10:50.000Z</time>
      </trkpt>
      <trkpt lat="44.44131" lon="6.84589">
        <ele>1969.5999755859</ele>
        <time>2022-03-06T09:11:11.000Z</time>
      </trkpt>
      <trkpt lat="44.44134" lon="6.8458">
        <ele>1970.8000488281</ele>
        <time>2022-03-06T09:11:32.000Z</time>
      </trkpt>
      <trkpt lat="44.44134" lon="6.84578">
        <ele>1971</ele>
        <time>2022-03-06T09:11:33.000Z</time>
      </trkpt>
      <trkpt lat="44.44133" lon="6.84573">
        <ele>1971.8000488281</ele>
        <time>2022-03-06T09:11:40.000Z</time>
      </trkpt>
      <trkpt lat="44.44133" lon="6.84573">
        <ele>1972</ele>
        <time>2022-03-06T09:11:42.000Z</time>
      </trkpt>
      <trkpt lat="44.44136" lon="6.84574">
        <ele>1972</ele>
        <time>2022-03-06T09:11:46.000Z</time>
      </trkpt>
      <trkpt lat="44.44138" lon="6.84573">
        <ele>1972</ele>
        <time>2022-03-06T09:11:56.000Z</time>
      </trkpt>
      <trkpt lat="44.44134" lon="6.84573">
        <ele>1953</ele>
        <time>2022-03-06T09:12:26.000Z</time>
      </trkpt>
      <trkpt lat="44.44135" lon="6.84574">
        <ele>1954</ele>
        <time>2022-03-06T09:13:02.000Z</time>
      </trkpt>
      <trkpt lat="44.44135" lon="6.84572">
        <ele>1954.1999511719</ele>
        <time>2022-03-06T09:13:07.000Z</time>
      </trkpt>
      <trkpt lat="44.44133" lon="6.84563">
        <ele>1955</ele>
        <time>2022-03-06T09:15:15.000Z</time>
      </trkpt>
      <trkpt lat="44.44133" lon="6.84563">
        <ele>1955.4000244141</ele>
        <time>2022-03-06T09:15:38.000Z</time>
      </trkpt>
      <trkpt lat="44.44133" lon="6.84562">
        <ele>1956</ele>
        <time>2022-03-06T09:15:44.000Z</time>
      </trkpt>
      <trkpt lat="44.44132" lon="6.84559">
        <ele>1957.1999511719</ele>
        <time>2022-03-06T09:15:53.000Z</time>
      </trkpt>
      <trkpt lat="44.44127" lon="6.8454">
        <ele>1957.8000488281</ele>
        <time>2022-03-06T09:15:58.000Z</time>
      </trkpt>
      <trkpt lat="44.44125" lon="6.84532">
        <ele>1958.1999511719</ele>
        <time>2022-03-06T09:16:00.000Z</time>
      </trkpt>
      <trkpt lat="44.44123" lon="6.8452">
        <ele>1959.1999511719</ele>
        <time>2022-03-06T09:16:07.000Z</time>
      </trkpt>
      <trkpt lat="44.44123" lon="6.84517">
        <ele>1959.8000488281</ele>
        <time>2022-03-06T09:16:10.000Z</time>
      </trkpt>
      <trkpt lat="44.44123" lon="6.84514">
        <ele>1960.1999511719</ele>
        <time>2022-03-06T09:16:12.000Z</time>
      </trkpt>
      <trkpt lat="44.44122" lon="6.84509">
        <ele>1961.4000244141</ele>
        <time>2022-03-06T09:16:18.000Z</time>
      </trkpt>
      <trkpt lat="44.44122" lon="6.84506">
        <ele>1961.8000488281</ele>
        <time>2022-03-06T09:16:21.000Z</time>
      </trkpt>
      <trkpt lat="44.44121" lon="6.84496">
        <ele>1962.4000244141</ele>
        <time>2022-03-06T09:16:32.000Z</time>
      </trkpt>
      <trkpt lat="44.44121" lon="6.84495">
        <ele>1962.5999755859</ele>
        <time>2022-03-06T09:16:33.000Z</time>
      </trkpt>
      <trkpt lat="44.4412" lon="6.84489">
        <ele>1963.5999755859</ele>
        <time>2022-03-06T09:16:39.000Z</time>
      </trkpt>
      <trkpt lat="44.4412" lon="6.84482">
        <ele>1964.8000488281</ele>
        <time>2022-03-06T09:16:47.000Z</time>
      </trkpt>
      <trkpt lat="44.4412" lon="6.84477">
        <ele>1965.8000488281</ele>
        <time>2022-03-06T09:16:53.000Z</time>
      </trkpt>
      <trkpt lat="44.4412" lon="6.84471">
        <ele>1966.8000488281</ele>
        <time>2022-03-06T09:17:00.000Z</time>
      </trkpt>
      <trkpt lat="44.4412" lon="6.84471">
        <ele>1967</ele>
        <time>2022-03-06T09:17:01.000Z</time>
      </trkpt>
      <trkpt lat="44.44119" lon="6.84465">
        <ele>1968</ele>
        <time>2022-03-06T09:17:08.000Z</time>
      </trkpt>
      <trkpt lat="44.44119" lon="6.84464">
        <ele>1968</ele>
        <time>2022-03-06T09:17:09.000Z</time>
      </trkpt>
      <trkpt lat="44.44119" lon="6.84461">
        <ele>1969</ele>
        <time>2022-03-06T09:17:13.000Z</time>
      </trkpt>
      <trkpt lat="44.4412" lon="6.84455">
        <ele>1970.1999511719</ele>
        <time>2022-03-06T09:17:19.000Z</time>
      </trkpt>
      <trkpt lat="44.4412" lon="6.8445">
        <ele>1971</ele>
        <time>2022-03-06T09:17:25.000Z</time>
      </trkpt>
      <trkpt lat="44.4412" lon="6.84448">
        <ele>1971.1999511719</ele>
        <time>2022-03-06T09:17:27.000Z</time>
      </trkpt>
      <trkpt lat="44.44117" lon="6.84443">
        <ele>1972.4000244141</ele>
        <time>2022-03-06T09:17:35.000Z</time>
      </trkpt>
      <trkpt lat="44.44117" lon="6.84443">
        <ele>1972.5999755859</ele>
        <time>2022-03-06T09:17:37.000Z</time>
      </trkpt>
      <trkpt lat="44.44114" lon="6.84441">
        <ele>1973.5999755859</ele>
        <time>2022-03-06T09:17:41.000Z</time>
      </trkpt>
      <trkpt lat="44.44112" lon="6.84438">
        <ele>1974.5999755859</ele>
        <time>2022-03-06T09:17:47.000Z</time>
      </trkpt>
      <trkpt lat="44.44112" lon="6.84438">
        <ele>1974.5999755859</ele>
        <time>2022-03-06T09:17:48.000Z</time>
      </trkpt>
      <trkpt lat="44.44109" lon="6.84435">
        <ele>1975.5999755859</ele>
        <time>2022-03-06T09:17:54.000Z</time>
      </trkpt>
      <trkpt lat="44.44107" lon="6.84431">
        <ele>1976.5999755859</ele>
        <time>2022-03-06T09:17:58.000Z</time>
      </trkpt>
      <trkpt lat="44.44107" lon="6.84431">
        <ele>1976.8000488281</ele>
        <time>2022-03-06T09:17:59.000Z</time>
      </trkpt>
      <trkpt lat="44.44105" lon="6.84427">
        <ele>1978</ele>
        <time>2022-03-06T09:18:05.000Z</time>
      </trkpt>
      <trkpt lat="44.44103" lon="6.84426">
        <ele>1978.4000244141</ele>
        <time>2022-03-06T09:18:09.000Z</time>
      </trkpt>
      <trkpt lat="44.44102" lon="6.84426">
        <ele>1979</ele>
        <time>2022-03-06T09:18:14.000Z</time>
      </trkpt>
      <trkpt lat="44.44098" lon="6.84427">
        <ele>1979.8000488281</ele>
        <time>2022-03-06T09:18:20.000Z</time>
      </trkpt>
      <trkpt lat="44.44097" lon="6.84428">
        <ele>1980</ele>
        <time>2022-03-06T09:18:23.000Z</time>
      </trkpt>
      <trkpt lat="44.44093" lon="6.84431">
        <ele>1980.4000244141</ele>
        <time>2022-03-06T09:18:29.000Z</time>
      </trkpt>
      <trkpt lat="44.44091" lon="6.8443">
        <ele>1981.1999511719</ele>
        <time>2022-03-06T09:18:32.000Z</time>
      </trkpt>
      <trkpt lat="44.44089" lon="6.84427">
        <ele>1981.8000488281</ele>
        <time>2022-03-06T09:18:36.000Z</time>
      </trkpt>
      <trkpt lat="44.44088" lon="6.84423">
        <ele>1982.4000244141</ele>
        <time>2022-03-06T09:18:39.000Z</time>
      </trkpt>
      <trkpt lat="44.44087" lon="6.84419">
        <ele>1983</ele>
        <time>2022-03-06T09:18:45.000Z</time>
      </trkpt>
      <trkpt lat="44.44086" lon="6.84418">
        <ele>1983.4000244141</ele>
        <time>2022-03-06T09:18:49.000Z</time>
      </trkpt>
      <trkpt lat="44.44083" lon="6.84417">
        <ele>1984.4000244141</ele>
        <time>2022-03-06T09:18:54.000Z</time>
      </trkpt>
      <trkpt lat="44.44083" lon="6.84416">
        <ele>1984.5999755859</ele>
        <time>2022-03-06T09:18:55.000Z</time>
      </trkpt>
      <trkpt lat="44.44083" lon="6.84415">
        <ele>1984.8000488281</ele>
        <time>2022-03-06T09:18:56.000Z</time>
      </trkpt>
      <trkpt lat="44.44082" lon="6.84409">
        <ele>1985.8000488281</ele>
        <time>2022-03-06T09:19:03.000Z</time>
      </trkpt>
      <trkpt lat="44.44084" lon="6.84402">
        <ele>1986.8000488281</ele>
        <time>2022-03-06T09:19:09.000Z</time>
      </trkpt>
      <trkpt lat="44.44084" lon="6.84397">
        <ele>1987.4000244141</ele>
        <time>2022-03-06T09:19:14.000Z</time>
      </trkpt>
      <trkpt lat="44.44084" lon="6.84394">
        <ele>1988</ele>
        <time>2022-03-06T09:19:18.000Z</time>
      </trkpt>
      <trkpt lat="44.44081" lon="6.84393">
        <ele>1988.4000244141</ele>
        <time>2022-03-06T09:19:22.000Z</time>
      </trkpt>
      <trkpt lat="44.44081" lon="6.84398">
        <ele>1989</ele>
        <time>2022-03-06T09:19:27.000Z</time>
      </trkpt>
      <trkpt lat="44.4408" lon="6.84398">
        <ele>1989.4000244141</ele>
        <time>2022-03-06T09:19:30.000Z</time>
      </trkpt>
      <trkpt lat="44.44078" lon="6.844">
        <ele>1990</ele>
        <time>2022-03-06T09:19:36.000Z</time>
      </trkpt>
      <trkpt lat="44.44073" lon="6.84402">
        <ele>1991.1999511719</ele>
        <time>2022-03-06T09:19:42.000Z</time>
      </trkpt>
      <trkpt lat="44.4407" lon="6.84403">
        <ele>1991.5999755859</ele>
        <time>2022-03-06T09:19:46.000Z</time>
      </trkpt>
      <trkpt lat="44.44068" lon="6.84405">
        <ele>1992.1999511719</ele>
        <time>2022-03-06T09:19:50.000Z</time>
      </trkpt>
      <trkpt lat="44.44068" lon="6.84405">
        <ele>1992.1999511719</ele>
        <time>2022-03-06T09:19:51.000Z</time>
      </trkpt>
      <trkpt lat="44.44067" lon="6.84409">
        <ele>1992.4000244141</ele>
        <time>2022-03-06T09:19:57.000Z</time>
      </trkpt>
      <trkpt lat="44.44065" lon="6.84409">
        <ele>1992.5999755859</ele>
        <time>2022-03-06T09:19:59.000Z</time>
      </trkpt>
      <trkpt lat="44.44063" lon="6.8441">
        <ele>1993.1999511719</ele>
        <time>2022-03-06T09:20:02.000Z</time>
      </trkpt>
      <trkpt lat="44.44059" lon="6.84411">
        <ele>1994.4000244141</ele>
        <time>2022-03-06T09:20:08.000Z</time>
      </trkpt>
      <trkpt lat="44.44055" lon="6.8441">
        <ele>1995.4000244141</ele>
        <time>2022-03-06T09:20:14.000Z</time>
      </trkpt>
      <trkpt lat="44.44053" lon="6.8441">
        <ele>1995.8000488281</ele>
        <time>2022-03-06T09:20:16.000Z</time>
      </trkpt>
      <trkpt lat="44.44047" lon="6.8441">
        <ele>1996.5999755859</ele>
        <time>2022-03-06T09:20:24.000Z</time>
      </trkpt>
      <trkpt lat="44.44047" lon="6.8441">
        <ele>1996.8000488281</ele>
        <time>2022-03-06T09:20:25.000Z</time>
      </trkpt>
      <trkpt lat="44.44043" lon="6.84411">
        <ele>1997.5999755859</ele>
        <time>2022-03-06T09:20:31.000Z</time>
      </trkpt>
      <trkpt lat="44.44041" lon="6.84412">
        <ele>1998.1999511719</ele>
        <time>2022-03-06T09:20:34.000Z</time>
      </trkpt>
      <trkpt lat="44.44038" lon="6.84414">
        <ele>1998.8000488281</ele>
        <time>2022-03-06T09:20:40.000Z</time>
      </trkpt>
      <trkpt lat="44.44037" lon="6.84415">
        <ele>1999</ele>
        <time>2022-03-06T09:20:42.000Z</time>
      </trkpt>
      <trkpt lat="44.44034" lon="6.84417">
        <ele>1999.8000488281</ele>
        <time>2022-03-06T09:20:49.000Z</time>
      </trkpt>
      <trkpt lat="44.44032" lon="6.84418">
        <ele>2000.5999755859</ele>
        <time>2022-03-06T09:20:54.000Z</time>
      </trkpt>
      <trkpt lat="44.4403" lon="6.84417">
        <ele>2000.8000488281</ele>
        <time>2022-03-06T09:20:59.000Z</time>
      </trkpt>
      <trkpt lat="44.4403" lon="6.84417">
        <ele>2001</ele>
        <time>2022-03-06T09:21:00.000Z</time>
      </trkpt>
      <trkpt lat="44.44029" lon="6.84407">
        <ele>2001.8000488281</ele>
        <time>2022-03-06T09:21:06.000Z</time>
      </trkpt>
      <trkpt lat="44.44029" lon="6.84406">
        <ele>2002</ele>
        <time>2022-03-06T09:21:07.000Z</time>
      </trkpt>
      <trkpt lat="44.44028" lon="6.84397">
        <ele>2003</ele>
        <time>2022-03-06T09:21:13.000Z</time>
      </trkpt>
      <trkpt lat="44.44029" lon="6.84392">
        <ele>2004</ele>
        <time>2022-03-06T09:21:19.000Z</time>
      </trkpt>
      <trkpt lat="44.44029" lon="6.84389">
        <ele>2004.1999511719</ele>
        <time>2022-03-06T09:21:25.000Z</time>
      </trkpt>
      <trkpt lat="44.44029" lon="6.84385">
        <ele>2004.8000488281</ele>
        <time>2022-03-06T09:21:34.000Z</time>
      </trkpt>
      <trkpt lat="44.44029" lon="6.84387">
        <ele>2005</ele>
        <time>2022-03-06T09:21:40.000Z</time>
      </trkpt>
      <trkpt lat="44.44028" lon="6.84388">
        <ele>2005</ele>
        <time>2022-03-06T09:21:42.000Z</time>
      </trkpt>
      <trkpt lat="44.44027" lon="6.84391">
        <ele>2006.1999511719</ele>
        <time>2022-03-06T09:21:49.000Z</time>
      </trkpt>
      <trkpt lat="44.44025" lon="6.84385">
        <ele>2007</ele>
        <time>2022-03-06T09:21:55.000Z</time>
      </trkpt>
      <trkpt lat="44.44025" lon="6.84382">
        <ele>2007.1999511719</ele>
        <time>2022-03-06T09:21:57.000Z</time>
      </trkpt>
      <trkpt lat="44.44025" lon="6.84374">
        <ele>2008.5999755859</ele>
        <time>2022-03-06T09:22:05.000Z</time>
      </trkpt>
      <trkpt lat="44.44025" lon="6.8437">
        <ele>2009.1999511719</ele>
        <time>2022-03-06T09:22:09.000Z</time>
      </trkpt>
      <trkpt lat="44.44024" lon="6.84368">
        <ele>2009.5999755859</ele>
        <time>2022-03-06T09:22:14.000Z</time>
      </trkpt>
      <trkpt lat="44.44024" lon="6.84368">
        <ele>2009.5999755859</ele>
        <time>2022-03-06T09:22:15.000Z</time>
      </trkpt>
      <trkpt lat="44.44022" lon="6.84371">
        <ele>2010.5999755859</ele>
        <time>2022-03-06T09:22:23.000Z</time>
      </trkpt>
      <trkpt lat="44.44021" lon="6.84371">
        <ele>2010.8000488281</ele>
        <time>2022-03-06T09:22:24.000Z</time>
      </trkpt>
      <trkpt lat="44.44018" lon="6.84373">
        <ele>2011.5999755859</ele>
        <time>2022-03-06T09:22:28.000Z</time>
      </trkpt>
      <trkpt lat="44.44016" lon="6.84376">
        <ele>2012.5999755859</ele>
        <time>2022-03-06T09:22:33.000Z</time>
      </trkpt>
      <trkpt lat="44.44016" lon="6.84376">
        <ele>2012.8000488281</ele>
        <time>2022-03-06T09:22:34.000Z</time>
      </trkpt>
      <trkpt lat="44.44012" lon="6.8438">
        <ele>2014</ele>
        <time>2022-03-06T09:22:41.000Z</time>
      </trkpt>
      <trkpt lat="44.44012" lon="6.84381">
        <ele>2014.1999511719</ele>
        <time>2022-03-06T09:22:42.000Z</time>
      </trkpt>
      <trkpt lat="44.4401" lon="6.84382">
        <ele>2014.8000488281</ele>
        <time>2022-03-06T09:22:44.000Z</time>
      </trkpt>
      <trkpt lat="44.4401" lon="6.84383">
        <ele>2015</ele>
        <time>2022-03-06T09:22:46.000Z</time>
      </trkpt>
      <trkpt lat="44.44005" lon="6.84386">
        <ele>2016</ele>
        <time>2022-03-06T09:22:53.000Z</time>
      </trkpt>
      <trkpt lat="44.44005" lon="6.84386">
        <ele>2016.1999511719</ele>
        <time>2022-03-06T09:22:54.000Z</time>
      </trkpt>
      <trkpt lat="44.44004" lon="6.84386">
        <ele>2016.5999755859</ele>
        <time>2022-03-06T09:23:00.000Z</time>
      </trkpt>
      <trkpt lat="44.44003" lon="6.84386">
        <ele>2017.4000244141</ele>
        <time>2022-03-06T09:23:08.000Z</time>
      </trkpt>
      <trkpt lat="44.44003" lon="6.84386">
        <ele>2017.4000244141</ele>
        <time>2022-03-06T09:23:09.000Z</time>
      </trkpt>
      <trkpt lat="44.44003" lon="6.84386">
        <ele>2018.4000244141</ele>
        <time>2022-03-06T09:23:18.000Z</time>
      </trkpt>
      <trkpt lat="44.44002" lon="6.84377">
        <ele>2019.4000244141</ele>
        <time>2022-03-06T09:23:24.000Z</time>
      </trkpt>
      <trkpt lat="44.44001" lon="6.84373">
        <ele>2019.5999755859</ele>
        <time>2022-03-06T09:23:26.000Z</time>
      </trkpt>
      <trkpt lat="44.44" lon="6.84363">
        <ele>2020.1999511719</ele>
        <time>2022-03-06T09:23:32.000Z</time>
      </trkpt>
      <trkpt lat="44.44" lon="6.84361">
        <ele>2020.5999755859</ele>
        <time>2022-03-06T09:23:34.000Z</time>
      </trkpt>
      <trkpt lat="44.44001" lon="6.84354">
        <ele>2021.4000244141</ele>
        <time>2022-03-06T09:23:40.000Z</time>
      </trkpt>
      <trkpt lat="44.44001" lon="6.84351">
        <ele>2021.8000488281</ele>
        <time>2022-03-06T09:23:43.000Z</time>
      </trkpt>
      <trkpt lat="44.44" lon="6.84347">
        <ele>2022.1999511719</ele>
        <time>2022-03-06T09:23:47.000Z</time>
      </trkpt>
      <trkpt lat="44.43999" lon="6.84344">
        <ele>2023</ele>
        <time>2022-03-06T09:23:53.000Z</time>
      </trkpt>
      <trkpt lat="44.43999" lon="6.84343">
        <ele>2023</ele>
        <time>2022-03-06T09:23:54.000Z</time>
      </trkpt>
      <trkpt lat="44.43998" lon="6.84336">
        <ele>2024.1999511719</ele>
        <time>2022-03-06T09:24:01.000Z</time>
      </trkpt>
      <trkpt lat="44.43999" lon="6.84332">
        <ele>2024.5999755859</ele>
        <time>2022-03-06T09:24:04.000Z</time>
      </trkpt>
      <trkpt lat="44.44" lon="6.8433">
        <ele>2025.1999511719</ele>
        <time>2022-03-06T09:24:06.000Z</time>
      </trkpt>
      <trkpt lat="44.43999" lon="6.84325">
        <ele>2026.1999511719</ele>
        <time>2022-03-06T09:24:12.000Z</time>
      </trkpt>
      <trkpt lat="44.43999" lon="6.84324">
        <ele>2026.4000244141</ele>
        <time>2022-03-06T09:24:13.000Z</time>
      </trkpt>
      <trkpt lat="44.44" lon="6.84319">
        <ele>2027.4000244141</ele>
        <time>2022-03-06T09:24:19.000Z</time>
      </trkpt>
      <trkpt lat="44.44" lon="6.84318">
        <ele>2027.5999755859</ele>
        <time>2022-03-06T09:24:20.000Z</time>
      </trkpt>
      <trkpt lat="44.43999" lon="6.84315">
        <ele>2028.1999511719</ele>
        <time>2022-03-06T09:24:24.000Z</time>
      </trkpt>
      <trkpt lat="44.43999" lon="6.84313">
        <ele>2028.5999755859</ele>
        <time>2022-03-06T09:24:26.000Z</time>
      </trkpt>
      <trkpt lat="44.43998" lon="6.84309">
        <ele>2029.4000244141</ele>
        <time>2022-03-06T09:24:32.000Z</time>
      </trkpt>
      <trkpt lat="44.43998" lon="6.84308">
        <ele>2029.5999755859</ele>
        <time>2022-03-06T09:24:33.000Z</time>
      </trkpt>
      <trkpt lat="44.43997" lon="6.84304">
        <ele>2030.5999755859</ele>
        <time>2022-03-06T09:24:39.000Z</time>
      </trkpt>
      <trkpt lat="44.43997" lon="6.84299">
        <ele>2031.5999755859</ele>
        <time>2022-03-06T09:24:44.000Z</time>
      </trkpt>
      <trkpt lat="44.43998" lon="6.84297">
        <ele>2032.1999511719</ele>
        <time>2022-03-06T09:24:47.000Z</time>
      </trkpt>
      <trkpt lat="44.43998" lon="6.84295">
        <ele>2032.8000488281</ele>
        <time>2022-03-06T09:24:51.000Z</time>
      </trkpt>
      <trkpt lat="44.44" lon="6.84294">
        <ele>2032.8000488281</ele>
        <time>2022-03-06T09:24:56.000Z</time>
      </trkpt>
      <trkpt lat="44.44001" lon="6.84289">
        <ele>2033.8000488281</ele>
        <time>2022-03-06T09:25:04.000Z</time>
      </trkpt>
      <trkpt lat="44.44002" lon="6.84284">
        <ele>2034.8000488281</ele>
        <time>2022-03-06T09:25:11.000Z</time>
      </trkpt>
      <trkpt lat="44.44002" lon="6.84279">
        <ele>2035.8000488281</ele>
        <time>2022-03-06T09:25:19.000Z</time>
      </trkpt>
      <trkpt lat="44.44001" lon="6.84275">
        <ele>2037</ele>
        <time>2022-03-06T09:25:24.000Z</time>
      </trkpt>
      <trkpt lat="44.44" lon="6.84273">
        <ele>2037.5999755859</ele>
        <time>2022-03-06T09:25:27.000Z</time>
      </trkpt>
      <trkpt lat="44.44" lon="6.84271">
        <ele>2038</ele>
        <time>2022-03-06T09:25:30.000Z</time>
      </trkpt>
      <trkpt lat="44.44001" lon="6.84269">
        <ele>2038.5999755859</ele>
        <time>2022-03-06T09:25:32.000Z</time>
      </trkpt>
      <trkpt lat="44.44001" lon="6.84265">
        <ele>2039</ele>
        <time>2022-03-06T09:25:35.000Z</time>
      </trkpt>
      <trkpt lat="44.44002" lon="6.84264">
        <ele>2039.1999511719</ele>
        <time>2022-03-06T09:25:37.000Z</time>
      </trkpt>
      <trkpt lat="44.44003" lon="6.84257">
        <ele>2040.4000244141</ele>
        <time>2022-03-06T09:25:45.000Z</time>
      </trkpt>
      <trkpt lat="44.44003" lon="6.84257">
        <ele>2040.5999755859</ele>
        <time>2022-03-06T09:25:46.000Z</time>
      </trkpt>
      <trkpt lat="44.44003" lon="6.8425">
        <ele>2041.1999511719</ele>
        <time>2022-03-06T09:25:55.000Z</time>
      </trkpt>
      <trkpt lat="44.44002" lon="6.84249">
        <ele>2041.8000488281</ele>
        <time>2022-03-06T09:25:57.000Z</time>
      </trkpt>
      <trkpt lat="44.44002" lon="6.84244">
        <ele>2042.8000488281</ele>
        <time>2022-03-06T09:26:04.000Z</time>
      </trkpt>
      <trkpt lat="44.44001" lon="6.84243">
        <ele>2042.8000488281</ele>
        <time>2022-03-06T09:26:05.000Z</time>
      </trkpt>
      <trkpt lat="44.44002" lon="6.84238">
        <ele>2044</ele>
        <time>2022-03-06T09:26:11.000Z</time>
      </trkpt>
      <trkpt lat="44.44002" lon="6.84236">
        <ele>2044.4000244141</ele>
        <time>2022-03-06T09:26:13.000Z</time>
      </trkpt>
      <trkpt lat="44.44004" lon="6.84231">
        <ele>2045</ele>
        <time>2022-03-06T09:26:21.000Z</time>
      </trkpt>
      <trkpt lat="44.44003" lon="6.8423">
        <ele>2045.1999511719</ele>
        <time>2022-03-06T09:26:23.000Z</time>
      </trkpt>
      <trkpt lat="44.44005" lon="6.84224">
        <ele>2046.1999511719</ele>
        <time>2022-03-06T09:26:29.000Z</time>
      </trkpt>
      <trkpt lat="44.44002" lon="6.8422">
        <ele>2047.1999511719</ele>
        <time>2022-03-06T09:26:35.000Z</time>
      </trkpt>
      <trkpt lat="44.44001" lon="6.8422">
        <ele>2047.1999511719</ele>
        <time>2022-03-06T09:26:36.000Z</time>
      </trkpt>
      <trkpt lat="44.44" lon="6.84216">
        <ele>2047.8000488281</ele>
        <time>2022-03-06T09:26:41.000Z</time>
      </trkpt>
      <trkpt lat="44.43999" lon="6.84213">
        <ele>2048.3999023438</ele>
        <time>2022-03-06T09:26:46.000Z</time>
      </trkpt>
      <trkpt lat="44.43999" lon="6.84212">
        <ele>2048.8000488281</ele>
        <time>2022-03-06T09:26:49.000Z</time>
      </trkpt>
      <trkpt lat="44.44003" lon="6.84212">
        <ele>2048.8000488281</ele>
        <time>2022-03-06T09:26:59.000Z</time>
      </trkpt>
      <trkpt lat="44.44003" lon="6.84212">
        <ele>2048.8000488281</ele>
        <time>2022-03-06T09:27:06.000Z</time>
      </trkpt>
      <trkpt lat="44.44001" lon="6.84209">
        <ele>2048.3999023438</ele>
        <time>2022-03-06T09:27:32.000Z</time>
      </trkpt>
      <trkpt lat="44.44007" lon="6.84212">
        <ele>2048.3999023438</ele>
        <time>2022-03-06T09:28:29.000Z</time>
      </trkpt>
      <trkpt lat="44.44003" lon="6.84202">
        <ele>2049.3999023438</ele>
        <time>2022-03-06T09:29:06.000Z</time>
      </trkpt>
      <trkpt lat="44.44002" lon="6.842">
        <ele>2049.3999023438</ele>
        <time>2022-03-06T09:29:07.000Z</time>
      </trkpt>
      <trkpt lat="44.44001" lon="6.84188">
        <ele>2049.8000488281</ele>
        <time>2022-03-06T09:29:14.000Z</time>
      </trkpt>
      <trkpt lat="44.44001" lon="6.84184">
        <ele>2050.3999023438</ele>
        <time>2022-03-06T09:29:19.000Z</time>
      </trkpt>
      <trkpt lat="44.44001" lon="6.84181">
        <ele>2050.8000488281</ele>
        <time>2022-03-06T09:29:22.000Z</time>
      </trkpt>
      <trkpt lat="44.44" lon="6.84174">
        <ele>2051.3999023438</ele>
        <time>2022-03-06T09:29:28.000Z</time>
      </trkpt>
      <trkpt lat="44.44" lon="6.84169">
        <ele>2052.1999511719</ele>
        <time>2022-03-06T09:29:33.000Z</time>
      </trkpt>
      <trkpt lat="44.44" lon="6.84162">
        <ele>2052.6000976562</ele>
        <time>2022-03-06T09:29:40.000Z</time>
      </trkpt>
      <trkpt lat="44.44001" lon="6.84159">
        <ele>2052.6000976562</ele>
        <time>2022-03-06T09:29:42.000Z</time>
      </trkpt>
      <trkpt lat="44.44001" lon="6.84151">
        <ele>2053.3999023438</ele>
        <time>2022-03-06T09:29:49.000Z</time>
      </trkpt>
      <trkpt lat="44.44001" lon="6.84146">
        <ele>2053.6000976562</ele>
        <time>2022-03-06T09:29:53.000Z</time>
      </trkpt>
      <trkpt lat="44.44001" lon="6.84141">
        <ele>2054</ele>
        <time>2022-03-06T09:29:58.000Z</time>
      </trkpt>
      <trkpt lat="44.44001" lon="6.84135">
        <ele>2054.6000976562</ele>
        <time>2022-03-06T09:30:03.000Z</time>
      </trkpt>
      <trkpt lat="44.44001" lon="6.84127">
        <ele>2055.1999511719</ele>
        <time>2022-03-06T09:30:10.000Z</time>
      </trkpt>
      <trkpt lat="44.44" lon="6.84123">
        <ele>2055.6000976562</ele>
        <time>2022-03-06T09:30:15.000Z</time>
      </trkpt>
      <trkpt lat="44.43999" lon="6.84119">
        <ele>2055.8000488281</ele>
        <time>2022-03-06T09:30:18.000Z</time>
      </trkpt>
      <trkpt lat="44.43998" lon="6.84109">
        <ele>2056.6000976562</ele>
        <time>2022-03-06T09:30:27.000Z</time>
      </trkpt>
      <trkpt lat="44.43998" lon="6.84108">
        <ele>2056.8000488281</ele>
        <time>2022-03-06T09:30:28.000Z</time>
      </trkpt>
      <trkpt lat="44.43995" lon="6.841">
        <ele>2057.6000976562</ele>
        <time>2022-03-06T09:30:36.000Z</time>
      </trkpt>
      <trkpt lat="44.43995" lon="6.84098">
        <ele>2057.6000976562</ele>
        <time>2022-03-06T09:30:38.000Z</time>
      </trkpt>
      <trkpt lat="44.43994" lon="6.84097">
        <ele>2057.8000488281</ele>
        <time>2022-03-06T09:30:39.000Z</time>
      </trkpt>
      <trkpt lat="44.43993" lon="6.84092">
        <ele>2058</ele>
        <time>2022-03-06T09:30:46.000Z</time>
      </trkpt>
      <trkpt lat="44.43991" lon="6.84088">
        <ele>2058.6000976562</ele>
        <time>2022-03-06T09:30:54.000Z</time>
      </trkpt>
      <trkpt lat="44.4399" lon="6.84086">
        <ele>2059</ele>
        <time>2022-03-06T09:30:57.000Z</time>
      </trkpt>
      <trkpt lat="44.43987" lon="6.84083">
        <ele>2060</ele>
        <time>2022-03-06T09:31:02.000Z</time>
      </trkpt>
      <trkpt lat="44.43985" lon="6.84079">
        <ele>2061.1999511719</ele>
        <time>2022-03-06T09:31:10.000Z</time>
      </trkpt>
      <trkpt lat="44.43982" lon="6.84078">
        <ele>2061.6000976562</ele>
        <time>2022-03-06T09:31:14.000Z</time>
      </trkpt>
      <trkpt lat="44.4398" lon="6.84079">
        <ele>2061.8000488281</ele>
        <time>2022-03-06T09:31:16.000Z</time>
      </trkpt>
      <trkpt lat="44.43978" lon="6.84076">
        <ele>2062.1999511719</ele>
        <time>2022-03-06T09:31:20.000Z</time>
      </trkpt>
      <trkpt lat="44.43977" lon="6.84076">
        <ele>2062.3999023438</ele>
        <time>2022-03-06T09:31:21.000Z</time>
      </trkpt>
      <trkpt lat="44.43969" lon="6.8407">
        <ele>2063.1999511719</ele>
        <time>2022-03-06T09:31:33.000Z</time>
      </trkpt>
      <trkpt lat="44.43969" lon="6.84069">
        <ele>2063.1999511719</ele>
        <time>2022-03-06T09:31:34.000Z</time>
      </trkpt>
      <trkpt lat="44.43965" lon="6.84066">
        <ele>2064.1999511719</ele>
        <time>2022-03-06T09:31:42.000Z</time>
      </trkpt>
      <trkpt lat="44.43965" lon="6.84066">
        <ele>2064.3999023438</ele>
        <time>2022-03-06T09:31:43.000Z</time>
      </trkpt>
      <trkpt lat="44.43961" lon="6.8406">
        <ele>2065.3999023438</ele>
        <time>2022-03-06T09:31:50.000Z</time>
      </trkpt>
      <trkpt lat="44.43961" lon="6.8406">
        <ele>2065.6000976562</ele>
        <time>2022-03-06T09:31:51.000Z</time>
      </trkpt>
      <trkpt lat="44.43957" lon="6.84055">
        <ele>2066.3999023438</ele>
        <time>2022-03-06T09:31:59.000Z</time>
      </trkpt>
      <trkpt lat="44.43955" lon="6.84054">
        <ele>2066.8000488281</ele>
        <time>2022-03-06T09:32:02.000Z</time>
      </trkpt>
      <trkpt lat="44.43954" lon="6.8405">
        <ele>2067.6000976562</ele>
        <time>2022-03-06T09:32:06.000Z</time>
      </trkpt>
      <trkpt lat="44.43953" lon="6.84045">
        <ele>2068.1999511719</ele>
        <time>2022-03-06T09:32:11.000Z</time>
      </trkpt>
      <trkpt lat="44.43952" lon="6.84044">
        <ele>2068.6000976562</ele>
        <time>2022-03-06T09:32:13.000Z</time>
      </trkpt>
      <trkpt lat="44.43949" lon="6.84041">
        <ele>2069.6000976562</ele>
        <time>2022-03-06T09:32:19.000Z</time>
      </trkpt>
      <trkpt lat="44.43947" lon="6.84037">
        <ele>2070.6000976562</ele>
        <time>2022-03-06T09:32:23.000Z</time>
      </trkpt>
      <trkpt lat="44.43946" lon="6.84036">
        <ele>2070.8000488281</ele>
        <time>2022-03-06T09:32:24.000Z</time>
      </trkpt>
      <trkpt lat="44.43944" lon="6.84029">
        <ele>2072</ele>
        <time>2022-03-06T09:32:31.000Z</time>
      </trkpt>
      <trkpt lat="44.43944" lon="6.84027">
        <ele>2072.1999511719</ele>
        <time>2022-03-06T09:32:33.000Z</time>
      </trkpt>
      <trkpt lat="44.43944" lon="6.84023">
        <ele>2072.6000976562</ele>
        <time>2022-03-06T09:32:36.000Z</time>
      </trkpt>
      <trkpt lat="44.43943" lon="6.8402">
        <ele>2073</ele>
        <time>2022-03-06T09:32:39.000Z</time>
      </trkpt>
      <trkpt lat="44.43942" lon="6.84016">
        <ele>2073.1999511719</ele>
        <time>2022-03-06T09:32:42.000Z</time>
      </trkpt>
      <trkpt lat="44.43942" lon="6.84009">
        <ele>2074</ele>
        <time>2022-03-06T09:32:50.000Z</time>
      </trkpt>
      <trkpt lat="44.43941" lon="6.84003">
        <ele>2074.3999023438</ele>
        <time>2022-03-06T09:32:56.000Z</time>
      </trkpt>
      <trkpt lat="44.4394" lon="6.83996">
        <ele>2075</ele>
        <time>2022-03-06T09:33:04.000Z</time>
      </trkpt>
      <trkpt lat="44.4394" lon="6.83993">
        <ele>2075</ele>
        <time>2022-03-06T09:33:06.000Z</time>
      </trkpt>
      <trkpt lat="44.43942" lon="6.83983">
        <ele>2075.3999023438</ele>
        <time>2022-03-06T09:33:13.000Z</time>
      </trkpt>
      <trkpt lat="44.43941" lon="6.83975">
        <ele>2075.3999023438</ele>
        <time>2022-03-06T09:33:20.000Z</time>
      </trkpt>
      <trkpt lat="44.43942" lon="6.8397">
        <ele>2076</ele>
        <time>2022-03-06T09:33:26.000Z</time>
      </trkpt>
      <trkpt lat="44.43942" lon="6.83968">
        <ele>2076.1999511719</ele>
        <time>2022-03-06T09:33:28.000Z</time>
      </trkpt>
      <trkpt lat="44.43942" lon="6.8396">
        <ele>2077.3999023438</ele>
        <time>2022-03-06T09:33:36.000Z</time>
      </trkpt>
      <trkpt lat="44.43942" lon="6.83952">
        <ele>2078.3999023438</ele>
        <time>2022-03-06T09:33:45.000Z</time>
      </trkpt>
      <trkpt lat="44.43941" lon="6.83945">
        <ele>2079</ele>
        <time>2022-03-06T09:33:51.000Z</time>
      </trkpt>
      <trkpt lat="44.43941" lon="6.8394">
        <ele>2079.3999023438</ele>
        <time>2022-03-06T09:33:56.000Z</time>
      </trkpt>
      <trkpt lat="44.4394" lon="6.83938">
        <ele>2079.6000976562</ele>
        <time>2022-03-06T09:33:58.000Z</time>
      </trkpt>
      <trkpt lat="44.4394" lon="6.83929">
        <ele>2080.1999511719</ele>
        <time>2022-03-06T09:34:06.000Z</time>
      </trkpt>
      <trkpt lat="44.4394" lon="6.83928">
        <ele>2080.3999023438</ele>
        <time>2022-03-06T09:34:07.000Z</time>
      </trkpt>
      <trkpt lat="44.43939" lon="6.83922">
        <ele>2081.1999511719</ele>
        <time>2022-03-06T09:34:13.000Z</time>
      </trkpt>
      <trkpt lat="44.43939" lon="6.83917">
        <ele>2081.3999023438</ele>
        <time>2022-03-06T09:34:18.000Z</time>
      </trkpt>
      <trkpt lat="44.43939" lon="6.83911">
        <ele>2081.8000488281</ele>
        <time>2022-03-06T09:34:23.000Z</time>
      </trkpt>
      <trkpt lat="44.43943" lon="6.83899">
        <ele>2082.6000976562</ele>
        <time>2022-03-06T09:34:32.000Z</time>
      </trkpt>
      <trkpt lat="44.43943" lon="6.83897">
        <ele>2082.8000488281</ele>
        <time>2022-03-06T09:34:34.000Z</time>
      </trkpt>
      <trkpt lat="44.43943" lon="6.83889">
        <ele>2083.6000976562</ele>
        <time>2022-03-06T09:34:41.000Z</time>
      </trkpt>
      <trkpt lat="44.43944" lon="6.83886">
        <ele>2084</ele>
        <time>2022-03-06T09:34:44.000Z</time>
      </trkpt>
      <trkpt lat="44.43945" lon="6.83878">
        <ele>2084.8000488281</ele>
        <time>2022-03-06T09:34:51.000Z</time>
      </trkpt>
      <trkpt lat="44.43944" lon="6.83873">
        <ele>2085.1999511719</ele>
        <time>2022-03-06T09:34:55.000Z</time>
      </trkpt>
      <trkpt lat="44.43944" lon="6.83867">
        <ele>2085.8000488281</ele>
        <time>2022-03-06T09:35:00.000Z</time>
      </trkpt>
      <trkpt lat="44.43943" lon="6.8386">
        <ele>2086.8000488281</ele>
        <time>2022-03-06T09:35:07.000Z</time>
      </trkpt>
      <trkpt lat="44.43943" lon="6.83858">
        <ele>2087</ele>
        <time>2022-03-06T09:35:08.000Z</time>
      </trkpt>
      <trkpt lat="44.43943" lon="6.83848">
        <ele>2087.6000976562</ele>
        <time>2022-03-06T09:35:16.000Z</time>
      </trkpt>
      <trkpt lat="44.43943" lon="6.83846">
        <ele>2087.6000976562</ele>
        <time>2022-03-06T09:35:18.000Z</time>
      </trkpt>
      <trkpt lat="44.43942" lon="6.83838">
        <ele>2087.6000976562</ele>
        <time>2022-03-06T09:35:24.000Z</time>
      </trkpt>
      <trkpt lat="44.4394" lon="6.8383">
        <ele>2088</ele>
        <time>2022-03-06T09:35:31.000Z</time>
      </trkpt>
      <trkpt lat="44.4394" lon="6.83828">
        <ele>2088.1999511719</ele>
        <time>2022-03-06T09:35:33.000Z</time>
      </trkpt>
      <trkpt lat="44.43936" lon="6.83816">
        <ele>2089</ele>
        <time>2022-03-06T09:35:43.000Z</time>
      </trkpt>
      <trkpt lat="44.43936" lon="6.83815">
        <ele>2089</ele>
        <time>2022-03-06T09:35:44.000Z</time>
      </trkpt>
      <trkpt lat="44.43933" lon="6.83805">
        <ele>2090</ele>
        <time>2022-03-06T09:35:53.000Z</time>
      </trkpt>
      <trkpt lat="44.43932" lon="6.83801">
        <ele>2090.1999511719</ele>
        <time>2022-03-06T09:35:57.000Z</time>
      </trkpt>
      <trkpt lat="44.43931" lon="6.83797">
        <ele>2090.3999023438</ele>
        <time>2022-03-06T09:36:01.000Z</time>
      </trkpt>
      <trkpt lat="44.4393" lon="6.83795">
        <ele>2090.3999023438</ele>
        <time>2022-03-06T09:36:03.000Z</time>
      </trkpt>
      <trkpt lat="44.43929" lon="6.83781">
        <ele>2091</ele>
        <time>2022-03-06T09:36:13.000Z</time>
      </trkpt>
      <trkpt lat="44.43928" lon="6.83779">
        <ele>2091.1999511719</ele>
        <time>2022-03-06T09:36:16.000Z</time>
      </trkpt>
      <trkpt lat="44.43929" lon="6.83769">
        <ele>2091.8000488281</ele>
        <time>2022-03-06T09:36:23.000Z</time>
      </trkpt>
      <trkpt lat="44.43927" lon="6.83761">
        <ele>2092.1999511719</ele>
        <time>2022-03-06T09:36:31.000Z</time>
      </trkpt>
      <trkpt lat="44.43927" lon="6.83759">
        <ele>2092.3999023438</ele>
        <time>2022-03-06T09:36:33.000Z</time>
      </trkpt>
      <trkpt lat="44.43927" lon="6.8375">
        <ele>2093.1999511719</ele>
        <time>2022-03-06T09:36:40.000Z</time>
      </trkpt>
      <trkpt lat="44.43927" lon="6.83745">
        <ele>2093.3999023438</ele>
        <time>2022-03-06T09:36:44.000Z</time>
      </trkpt>
      <trkpt lat="44.43928" lon="6.83734">
        <ele>2093.6000976562</ele>
        <time>2022-03-06T09:36:53.000Z</time>
      </trkpt>
      <trkpt lat="44.43928" lon="6.83727">
        <ele>2093.8000488281</ele>
        <time>2022-03-06T09:36:59.000Z</time>
      </trkpt>
      <trkpt lat="44.43929" lon="6.83717">
        <ele>2094.1999511719</ele>
        <time>2022-03-06T09:37:06.000Z</time>
      </trkpt>
      <trkpt lat="44.43929" lon="6.83715">
        <ele>2094.1999511719</ele>
        <time>2022-03-06T09:37:07.000Z</time>
      </trkpt>
      <trkpt lat="44.43928" lon="6.83709">
        <ele>2094.6000976562</ele>
        <time>2022-03-06T09:37:12.000Z</time>
      </trkpt>
      <trkpt lat="44.43929" lon="6.83697">
        <ele>2094.6000976562</ele>
        <time>2022-03-06T09:37:20.000Z</time>
      </trkpt>
      <trkpt lat="44.4393" lon="6.83688">
        <ele>2095.3999023438</ele>
        <time>2022-03-06T09:37:29.000Z</time>
      </trkpt>
      <trkpt lat="44.43931" lon="6.83677">
        <ele>2096.3999023438</ele>
        <time>2022-03-06T09:37:37.000Z</time>
      </trkpt>
      <trkpt lat="44.43931" lon="6.83672">
        <ele>2096.6000976562</ele>
        <time>2022-03-06T09:37:40.000Z</time>
      </trkpt>
      <trkpt lat="44.4393" lon="6.83659">
        <ele>2097</ele>
        <time>2022-03-06T09:37:50.000Z</time>
      </trkpt>
      <trkpt lat="44.4393" lon="6.83651">
        <ele>2097.3999023438</ele>
        <time>2022-03-06T09:37:57.000Z</time>
      </trkpt>
      <trkpt lat="44.43928" lon="6.83645">
        <ele>2098</ele>
        <time>2022-03-06T09:38:02.000Z</time>
      </trkpt>
      <trkpt lat="44.43928" lon="6.83637">
        <ele>2098.1999511719</ele>
        <time>2022-03-06T09:38:08.000Z</time>
      </trkpt>
      <trkpt lat="44.43929" lon="6.83634">
        <ele>2098.3999023438</ele>
        <time>2022-03-06T09:38:10.000Z</time>
      </trkpt>
      <trkpt lat="44.43929" lon="6.83633">
        <ele>2098.3999023438</ele>
        <time>2022-03-06T09:38:11.000Z</time>
      </trkpt>
      <trkpt lat="44.43927" lon="6.83624">
        <ele>2099.3999023438</ele>
        <time>2022-03-06T09:38:19.000Z</time>
      </trkpt>
      <trkpt lat="44.43927" lon="6.83624">
        <ele>2099.6000976562</ele>
        <time>2022-03-06T09:38:20.000Z</time>
      </trkpt>
      <trkpt lat="44.43926" lon="6.83619">
        <ele>2099.6000976562</ele>
        <time>2022-03-06T09:38:24.000Z</time>
      </trkpt>
      <trkpt lat="44.43925" lon="6.83612">
        <ele>2099.8000488281</ele>
        <time>2022-03-06T09:38:29.000Z</time>
      </trkpt>
      <trkpt lat="44.43922" lon="6.83597">
        <ele>2100</ele>
        <time>2022-03-06T09:38:40.000Z</time>
      </trkpt>
      <trkpt lat="44.4392" lon="6.83584">
        <ele>2100.1999511719</ele>
        <time>2022-03-06T09:38:50.000Z</time>
      </trkpt>
      <trkpt lat="44.43917" lon="6.83569">
        <ele>2100.3999023438</ele>
        <time>2022-03-06T09:39:01.000Z</time>
      </trkpt>
      <trkpt lat="44.43917" lon="6.83566">
        <ele>2100.3999023438</ele>
        <time>2022-03-06T09:39:03.000Z</time>
      </trkpt>
      <trkpt lat="44.43915" lon="6.83555">
        <ele>2101</ele>
        <time>2022-03-06T09:39:12.000Z</time>
      </trkpt>
      <trkpt lat="44.43913" lon="6.83547">
        <ele>2101.3999023438</ele>
        <time>2022-03-06T09:39:19.000Z</time>
      </trkpt>
      <trkpt lat="44.43913" lon="6.83546">
        <ele>2101.6000976562</ele>
        <time>2022-03-06T09:39:20.000Z</time>
      </trkpt>
      <trkpt lat="44.43913" lon="6.83542">
        <ele>2101.8000488281</ele>
        <time>2022-03-06T09:39:23.000Z</time>
      </trkpt>
      <trkpt lat="44.43912" lon="6.83538">
        <ele>2102.6000976562</ele>
        <time>2022-03-06T09:39:28.000Z</time>
      </trkpt>
      <trkpt lat="44.43912" lon="6.83538">
        <ele>2102.8000488281</ele>
        <time>2022-03-06T09:39:29.000Z</time>
      </trkpt>
      <trkpt lat="44.43911" lon="6.83533">
        <ele>2103.8000488281</ele>
        <time>2022-03-06T09:39:35.000Z</time>
      </trkpt>
      <trkpt lat="44.4391" lon="6.83529">
        <ele>2104.3999023438</ele>
        <time>2022-03-06T09:39:40.000Z</time>
      </trkpt>
      <trkpt lat="44.4391" lon="6.83527">
        <ele>2105</ele>
        <time>2022-03-06T09:39:42.000Z</time>
      </trkpt>
      <trkpt lat="44.43909" lon="6.83522">
        <ele>2106</ele>
        <time>2022-03-06T09:39:48.000Z</time>
      </trkpt>
      <trkpt lat="44.43906" lon="6.83515">
        <ele>2106.8000488281</ele>
        <time>2022-03-06T09:39:56.000Z</time>
      </trkpt>
      <trkpt lat="44.43905" lon="6.83512">
        <ele>2107.1999511719</ele>
        <time>2022-03-06T09:39:59.000Z</time>
      </trkpt>
      <trkpt lat="44.43904" lon="6.83506">
        <ele>2107.8000488281</ele>
        <time>2022-03-06T09:40:05.000Z</time>
      </trkpt>
      <trkpt lat="44.43903" lon="6.83504">
        <ele>2108.1999511719</ele>
        <time>2022-03-06T09:40:08.000Z</time>
      </trkpt>
      <trkpt lat="44.439" lon="6.83499">
        <ele>2109.1999511719</ele>
        <time>2022-03-06T09:40:15.000Z</time>
      </trkpt>
      <trkpt lat="44.439" lon="6.83498">
        <ele>2109.1999511719</ele>
        <time>2022-03-06T09:40:16.000Z</time>
      </trkpt>
      <trkpt lat="44.43899" lon="6.8349">
        <ele>2110.3999023438</ele>
        <time>2022-03-06T09:40:24.000Z</time>
      </trkpt>
      <trkpt lat="44.43898" lon="6.83488">
        <ele>2110.6000976562</ele>
        <time>2022-03-06T09:40:26.000Z</time>
      </trkpt>
      <trkpt lat="44.43896" lon="6.83484">
        <ele>2111.6000976562</ele>
        <time>2022-03-06T09:40:31.000Z</time>
      </trkpt>
      <trkpt lat="44.43894" lon="6.83479">
        <ele>2112.1999511719</ele>
        <time>2022-03-06T09:40:36.000Z</time>
      </trkpt>
      <trkpt lat="44.43893" lon="6.83477">
        <ele>2112.6000976562</ele>
        <time>2022-03-06T09:40:40.000Z</time>
      </trkpt>
      <trkpt lat="44.43893" lon="6.83474">
        <ele>2113.1999511719</ele>
        <time>2022-03-06T09:40:44.000Z</time>
      </trkpt>
      <trkpt lat="44.43893" lon="6.83471">
        <ele>2113.6000976562</ele>
        <time>2022-03-06T09:40:46.000Z</time>
      </trkpt>
      <trkpt lat="44.43891" lon="6.83466">
        <ele>2114.6000976562</ele>
        <time>2022-03-06T09:40:52.000Z</time>
      </trkpt>
      <trkpt lat="44.4389" lon="6.83465">
        <ele>2115</ele>
        <time>2022-03-06T09:40:54.000Z</time>
      </trkpt>
      <trkpt lat="44.43888" lon="6.83461">
        <ele>2115.6000976562</ele>
        <time>2022-03-06T09:41:00.000Z</time>
      </trkpt>
      <trkpt lat="44.43888" lon="6.83459">
        <ele>2115.8000488281</ele>
        <time>2022-03-06T09:41:02.000Z</time>
      </trkpt>
      <trkpt lat="44.43887" lon="6.83457">
        <ele>2116.1999511719</ele>
        <time>2022-03-06T09:41:06.000Z</time>
      </trkpt>
      <trkpt lat="44.43886" lon="6.83452">
        <ele>2117</ele>
        <time>2022-03-06T09:41:12.000Z</time>
      </trkpt>
      <trkpt lat="44.43886" lon="6.83451">
        <ele>2117</ele>
        <time>2022-03-06T09:41:13.000Z</time>
      </trkpt>
      <trkpt lat="44.43885" lon="6.83446">
        <ele>2117.3999023438</ele>
        <time>2022-03-06T09:41:22.000Z</time>
      </trkpt>
      <trkpt lat="44.43883" lon="6.83448">
        <ele>2118</ele>
        <time>2022-03-06T09:41:28.000Z</time>
      </trkpt>
      <trkpt lat="44.43881" lon="6.83449">
        <ele>2118.3999023438</ele>
        <time>2022-03-06T09:41:32.000Z</time>
      </trkpt>
      <trkpt lat="44.4388" lon="6.83453">
        <ele>2119.1999511719</ele>
        <time>2022-03-06T09:41:38.000Z</time>
      </trkpt>
      <trkpt lat="44.4388" lon="6.83454">
        <ele>2119.3999023438</ele>
        <time>2022-03-06T09:41:39.000Z</time>
      </trkpt>
      <trkpt lat="44.4388" lon="6.8346">
        <ele>2120.1999511719</ele>
        <time>2022-03-06T09:41:46.000Z</time>
      </trkpt>
      <trkpt lat="44.4388" lon="6.83461">
        <ele>2120.1999511719</ele>
        <time>2022-03-06T09:41:47.000Z</time>
      </trkpt>
      <trkpt lat="44.4388" lon="6.83461">
        <ele>2120.3999023438</ele>
        <time>2022-03-06T09:41:48.000Z</time>
      </trkpt>
      <trkpt lat="44.43879" lon="6.83461">
        <ele>2120.8000488281</ele>
        <time>2022-03-06T09:41:53.000Z</time>
      </trkpt>
      <trkpt lat="44.43878" lon="6.83462">
        <ele>2121.3999023438</ele>
        <time>2022-03-06T09:41:57.000Z</time>
      </trkpt>
      <trkpt lat="44.43876" lon="6.83462">
        <ele>2121.8000488281</ele>
        <time>2022-03-06T09:41:59.000Z</time>
      </trkpt>
      <trkpt lat="44.43874" lon="6.83466">
        <ele>2122.3999023438</ele>
        <time>2022-03-06T09:42:05.000Z</time>
      </trkpt>
      <trkpt lat="44.43872" lon="6.83467">
        <ele>2122.6000976562</ele>
        <time>2022-03-06T09:42:07.000Z</time>
      </trkpt>
      <trkpt lat="44.4387" lon="6.83468">
        <ele>2123.6000976562</ele>
        <time>2022-03-06T09:42:12.000Z</time>
      </trkpt>
      <trkpt lat="44.43866" lon="6.83469">
        <ele>2124.3999023438</ele>
        <time>2022-03-06T09:42:19.000Z</time>
      </trkpt>
      <trkpt lat="44.43864" lon="6.83468">
        <ele>2124.6000976562</ele>
        <time>2022-03-06T09:42:21.000Z</time>
      </trkpt>
      <trkpt lat="44.4386" lon="6.83466">
        <ele>2125.8000488281</ele>
        <time>2022-03-06T09:42:26.000Z</time>
      </trkpt>
      <trkpt lat="44.43858" lon="6.83464">
        <ele>2125.8000488281</ele>
        <time>2022-03-06T09:42:28.000Z</time>
      </trkpt>
      <trkpt lat="44.43855" lon="6.8346">
        <ele>2127</ele>
        <time>2022-03-06T09:42:33.000Z</time>
      </trkpt>
      <trkpt lat="44.43855" lon="6.83456">
        <ele>2127.3999023438</ele>
        <time>2022-03-06T09:42:37.000Z</time>
      </trkpt>
      <trkpt lat="44.43854" lon="6.83447">
        <ele>2128</ele>
        <time>2022-03-06T09:42:43.000Z</time>
      </trkpt>
      <trkpt lat="44.43854" lon="6.83446">
        <ele>2128.1999511719</ele>
        <time>2022-03-06T09:42:44.000Z</time>
      </trkpt>
      <trkpt lat="44.43853" lon="6.83441">
        <ele>2129</ele>
        <time>2022-03-06T09:42:50.000Z</time>
      </trkpt>
      <trkpt lat="44.43853" lon="6.83439">
        <ele>2129.1999511719</ele>
        <time>2022-03-06T09:42:52.000Z</time>
      </trkpt>
      <trkpt lat="44.43852" lon="6.83434">
        <ele>2130.1999511719</ele>
        <time>2022-03-06T09:42:58.000Z</time>
      </trkpt>
      <trkpt lat="44.43851" lon="6.83433">
        <ele>2130.3999023438</ele>
        <time>2022-03-06T09:42:59.000Z</time>
      </trkpt>
      <trkpt lat="44.4385" lon="6.83429">
        <ele>2131.3999023438</ele>
        <time>2022-03-06T09:43:06.000Z</time>
      </trkpt>
      <trkpt lat="44.43848" lon="6.8343">
        <ele>2132.6000976562</ele>
        <time>2022-03-06T09:43:10.000Z</time>
      </trkpt>
      <trkpt lat="44.43846" lon="6.8343">
        <ele>2133.6000976562</ele>
        <time>2022-03-06T09:43:16.000Z</time>
      </trkpt>
      <trkpt lat="44.43845" lon="6.8343">
        <ele>2133.6000976562</ele>
        <time>2022-03-06T09:43:17.000Z</time>
      </trkpt>
      <trkpt lat="44.43841" lon="6.83429">
        <ele>2134.6000976562</ele>
        <time>2022-03-06T09:43:25.000Z</time>
      </trkpt>
      <trkpt lat="44.43841" lon="6.83429">
        <ele>2134.8000488281</ele>
        <time>2022-03-06T09:43:26.000Z</time>
      </trkpt>
      <trkpt lat="44.43835" lon="6.83429">
        <ele>2135.8000488281</ele>
        <time>2022-03-06T09:43:34.000Z</time>
      </trkpt>
      <trkpt lat="44.4383" lon="6.8343">
        <ele>2137</ele>
        <time>2022-03-06T09:43:41.000Z</time>
      </trkpt>
      <trkpt lat="44.4383" lon="6.8343">
        <ele>2137.1999511719</ele>
        <time>2022-03-06T09:43:42.000Z</time>
      </trkpt>
      <trkpt lat="44.4383" lon="6.8343">
        <ele>2137.3999023438</ele>
        <time>2022-03-06T09:43:50.000Z</time>
      </trkpt>
      <trkpt lat="44.43829" lon="6.8343">
        <ele>2137.3999023438</ele>
        <time>2022-03-06T09:43:51.000Z</time>
      </trkpt>
      <trkpt lat="44.43824" lon="6.83429">
        <ele>2138</ele>
        <time>2022-03-06T09:43:57.000Z</time>
      </trkpt>
      <trkpt lat="44.43821" lon="6.83428">
        <ele>2138.1999511719</ele>
        <time>2022-03-06T09:44:01.000Z</time>
      </trkpt>
      <trkpt lat="44.4382" lon="6.83428">
        <ele>2138.1999511719</ele>
        <time>2022-03-06T09:44:07.000Z</time>
      </trkpt>
      <trkpt lat="44.4382" lon="6.83423">
        <ele>2138</ele>
        <time>2022-03-06T09:44:14.000Z</time>
      </trkpt>
      <trkpt lat="44.4382" lon="6.83423">
        <ele>2137.8000488281</ele>
        <time>2022-03-06T09:44:32.000Z</time>
      </trkpt>
      <trkpt lat="44.43821" lon="6.83419">
        <ele>2137.8000488281</ele>
        <time>2022-03-06T09:44:40.000Z</time>
      </trkpt>
      <trkpt lat="44.4383" lon="6.83404">
        <ele>2137.3999023438</ele>
        <time>2022-03-06T09:45:06.000Z</time>
      </trkpt>
      <trkpt lat="44.4383" lon="6.83397">
        <ele>2138</ele>
        <time>2022-03-06T09:45:12.000Z</time>
      </trkpt>
      <trkpt lat="44.43829" lon="6.83396">
        <ele>2138.3999023438</ele>
        <time>2022-03-06T09:45:14.000Z</time>
      </trkpt>
      <trkpt lat="44.43825" lon="6.83395">
        <ele>2139</ele>
        <time>2022-03-06T09:45:18.000Z</time>
      </trkpt>
      <trkpt lat="44.43824" lon="6.83395">
        <ele>2139</ele>
        <time>2022-03-06T09:45:19.000Z</time>
      </trkpt>
      <trkpt lat="44.43813" lon="6.83395">
        <ele>2140.1999511719</ele>
        <time>2022-03-06T09:45:27.000Z</time>
      </trkpt>
      <trkpt lat="44.4381" lon="6.83394">
        <ele>2141.1999511719</ele>
        <time>2022-03-06T09:45:33.000Z</time>
      </trkpt>
      <trkpt lat="44.43807" lon="6.83394">
        <ele>2141.6000976562</ele>
        <time>2022-03-06T09:45:36.000Z</time>
      </trkpt>
      <trkpt lat="44.43804" lon="6.83395">
        <ele>2142.1999511719</ele>
        <time>2022-03-06T09:45:40.000Z</time>
      </trkpt>
      <trkpt lat="44.43801" lon="6.83392">
        <ele>2143</ele>
        <time>2022-03-06T09:45:45.000Z</time>
      </trkpt>
      <trkpt lat="44.43799" lon="6.83392">
        <ele>2143</ele>
        <time>2022-03-06T09:45:48.000Z</time>
      </trkpt>
      <trkpt lat="44.43797" lon="6.83393">
        <ele>2143.3999023438</ele>
        <time>2022-03-06T09:45:51.000Z</time>
      </trkpt>
      <trkpt lat="44.43795" lon="6.83394">
        <ele>2144.1999511719</ele>
        <time>2022-03-06T09:45:54.000Z</time>
      </trkpt>
      <trkpt lat="44.43794" lon="6.83395">
        <ele>2144.6000976562</ele>
        <time>2022-03-06T09:45:57.000Z</time>
      </trkpt>
      <trkpt lat="44.43791" lon="6.83396">
        <ele>2145.8000488281</ele>
        <time>2022-03-06T09:46:03.000Z</time>
      </trkpt>
      <trkpt lat="44.4379" lon="6.83397">
        <ele>2145.8000488281</ele>
        <time>2022-03-06T09:46:04.000Z</time>
      </trkpt>
      <trkpt lat="44.43787" lon="6.83399">
        <ele>2146.8000488281</ele>
        <time>2022-03-06T09:46:10.000Z</time>
      </trkpt>
      <trkpt lat="44.43784" lon="6.83403">
        <ele>2147.8000488281</ele>
        <time>2022-03-06T09:46:16.000Z</time>
      </trkpt>
      <trkpt lat="44.43783" lon="6.83404">
        <ele>2147.8000488281</ele>
        <time>2022-03-06T09:46:17.000Z</time>
      </trkpt>
      <trkpt lat="44.43782" lon="6.83407">
        <ele>2148</ele>
        <time>2022-03-06T09:46:19.000Z</time>
      </trkpt>
      <trkpt lat="44.43779" lon="6.8341">
        <ele>2148.1999511719</ele>
        <time>2022-03-06T09:46:24.000Z</time>
      </trkpt>
      <trkpt lat="44.43776" lon="6.83413">
        <ele>2149.1999511719</ele>
        <time>2022-03-06T09:46:31.000Z</time>
      </trkpt>
      <trkpt lat="44.43774" lon="6.83414">
        <ele>2149.6000976562</ele>
        <time>2022-03-06T09:46:34.000Z</time>
      </trkpt>
      <trkpt lat="44.4377" lon="6.83416">
        <ele>2150.1999511719</ele>
        <time>2022-03-06T09:46:39.000Z</time>
      </trkpt>
      <trkpt lat="44.43768" lon="6.83417">
        <ele>2150.8000488281</ele>
        <time>2022-03-06T09:46:44.000Z</time>
      </trkpt>
      <trkpt lat="44.43766" lon="6.83419">
        <ele>2151.1999511719</ele>
        <time>2022-03-06T09:46:49.000Z</time>
      </trkpt>
      <trkpt lat="44.43761" lon="6.8342">
        <ele>2152</ele>
        <time>2022-03-06T09:46:54.000Z</time>
      </trkpt>
      <trkpt lat="44.43759" lon="6.83421">
        <ele>2152.3999023438</ele>
        <time>2022-03-06T09:46:57.000Z</time>
      </trkpt>
      <trkpt lat="44.43754" lon="6.83423">
        <ele>2153.1999511719</ele>
        <time>2022-03-06T09:47:04.000Z</time>
      </trkpt>
      <trkpt lat="44.43753" lon="6.83424">
        <ele>2153.3999023438</ele>
        <time>2022-03-06T09:47:06.000Z</time>
      </trkpt>
      <trkpt lat="44.4375" lon="6.83421">
        <ele>2153.8000488281</ele>
        <time>2022-03-06T09:47:10.000Z</time>
      </trkpt>
      <trkpt lat="44.43748" lon="6.83416">
        <ele>2154.6000976562</ele>
        <time>2022-03-06T09:47:14.000Z</time>
      </trkpt>
      <trkpt lat="44.43747" lon="6.83411">
        <ele>2155</ele>
        <time>2022-03-06T09:47:19.000Z</time>
      </trkpt>
      <trkpt lat="44.43747" lon="6.83409">
        <ele>2155.8000488281</ele>
        <time>2022-03-06T09:47:22.000Z</time>
      </trkpt>
      <trkpt lat="44.43747" lon="6.83404">
        <ele>2156.3999023438</ele>
        <time>2022-03-06T09:47:28.000Z</time>
      </trkpt>
      <trkpt lat="44.43748" lon="6.83398">
        <ele>2156.8000488281</ele>
        <time>2022-03-06T09:47:33.000Z</time>
      </trkpt>
      <trkpt lat="44.43748" lon="6.83391">
        <ele>2158</ele>
        <time>2022-03-06T09:47:40.000Z</time>
      </trkpt>
      <trkpt lat="44.43747" lon="6.8339">
        <ele>2158.1999511719</ele>
        <time>2022-03-06T09:47:41.000Z</time>
      </trkpt>
      <trkpt lat="44.43745" lon="6.83386">
        <ele>2159.1999511719</ele>
        <time>2022-03-06T09:47:47.000Z</time>
      </trkpt>
      <trkpt lat="44.43745" lon="6.83385">
        <ele>2159.3999023438</ele>
        <time>2022-03-06T09:47:48.000Z</time>
      </trkpt>
      <trkpt lat="44.43744" lon="6.8338">
        <ele>2160.3999023438</ele>
        <time>2022-03-06T09:47:53.000Z</time>
      </trkpt>
      <trkpt lat="44.43744" lon="6.83379">
        <ele>2160.6000976562</ele>
        <time>2022-03-06T09:47:54.000Z</time>
      </trkpt>
      <trkpt lat="44.43742" lon="6.83379">
        <ele>2161</ele>
        <time>2022-03-06T09:47:57.000Z</time>
      </trkpt>
      <trkpt lat="44.43742" lon="6.83377">
        <ele>2161.3999023438</ele>
        <time>2022-03-06T09:47:59.000Z</time>
      </trkpt>
      <trkpt lat="44.43741" lon="6.83374">
        <ele>2162.3999023438</ele>
        <time>2022-03-06T09:48:03.000Z</time>
      </trkpt>
      <trkpt lat="44.4374" lon="6.83371">
        <ele>2163</ele>
        <time>2022-03-06T09:48:06.000Z</time>
      </trkpt>
      <trkpt lat="44.4374" lon="6.83367">
        <ele>2163.8000488281</ele>
        <time>2022-03-06T09:48:09.000Z</time>
      </trkpt>
      <trkpt lat="44.4374" lon="6.83362">
        <ele>2164.8000488281</ele>
        <time>2022-03-06T09:48:13.000Z</time>
      </trkpt>
      <trkpt lat="44.43739" lon="6.8336">
        <ele>2165.1999511719</ele>
        <time>2022-03-06T09:48:16.000Z</time>
      </trkpt>
      <trkpt lat="44.43739" lon="6.83357">
        <ele>2166</ele>
        <time>2022-03-06T09:48:20.000Z</time>
      </trkpt>
      <trkpt lat="44.4374" lon="6.83352">
        <ele>2167</ele>
        <time>2022-03-06T09:48:25.000Z</time>
      </trkpt>
      <trkpt lat="44.4374" lon="6.83349">
        <ele>2167.6000976562</ele>
        <time>2022-03-06T09:48:28.000Z</time>
      </trkpt>
      <trkpt lat="44.4374" lon="6.83347">
        <ele>2168</ele>
        <time>2022-03-06T09:48:31.000Z</time>
      </trkpt>
      <trkpt lat="44.43739" lon="6.83346">
        <ele>2169</ele>
        <time>2022-03-06T09:48:35.000Z</time>
      </trkpt>
      <trkpt lat="44.43739" lon="6.83346">
        <ele>2169.1999511719</ele>
        <time>2022-03-06T09:48:36.000Z</time>
      </trkpt>
      <trkpt lat="44.43738" lon="6.83345">
        <ele>2169.3999023438</ele>
        <time>2022-03-06T09:48:39.000Z</time>
      </trkpt>
      <trkpt lat="44.43737" lon="6.83343">
        <ele>2170.1999511719</ele>
        <time>2022-03-06T09:48:42.000Z</time>
      </trkpt>
      <trkpt lat="44.43737" lon="6.83344">
        <ele>2170.3999023438</ele>
        <time>2022-03-06T09:48:43.000Z</time>
      </trkpt>
      <trkpt lat="44.43737" lon="6.83345">
        <ele>2171.1999511719</ele>
        <time>2022-03-06T09:48:47.000Z</time>
      </trkpt>
      <trkpt lat="44.43736" lon="6.83347">
        <ele>2172.3999023438</ele>
        <time>2022-03-06T09:48:53.000Z</time>
      </trkpt>
      <trkpt lat="44.43734" lon="6.83343">
        <ele>2172.8000488281</ele>
        <time>2022-03-06T09:48:59.000Z</time>
      </trkpt>
      <trkpt lat="44.43732" lon="6.8334">
        <ele>2173.3999023438</ele>
        <time>2022-03-06T09:49:04.000Z</time>
      </trkpt>
      <trkpt lat="44.43731" lon="6.83335">
        <ele>2174.8000488281</ele>
        <time>2022-03-06T09:49:10.000Z</time>
      </trkpt>
      <trkpt lat="44.43729" lon="6.83331">
        <ele>2175.8000488281</ele>
        <time>2022-03-06T09:49:16.000Z</time>
      </trkpt>
      <trkpt lat="44.43729" lon="6.83331">
        <ele>2175.8000488281</ele>
        <time>2022-03-06T09:49:17.000Z</time>
      </trkpt>
      <trkpt lat="44.43728" lon="6.83323">
        <ele>2177</ele>
        <time>2022-03-06T09:49:24.000Z</time>
      </trkpt>
      <trkpt lat="44.43727" lon="6.83322">
        <ele>2178.1999511719</ele>
        <time>2022-03-06T09:49:28.000Z</time>
      </trkpt>
      <trkpt lat="44.43727" lon="6.83322">
        <ele>2178.1999511719</ele>
        <time>2022-03-06T09:49:29.000Z</time>
      </trkpt>
      <trkpt lat="44.43727" lon="6.83321">
        <ele>2178.3999023438</ele>
        <time>2022-03-06T09:49:30.000Z</time>
      </trkpt>
      <trkpt lat="44.43727" lon="6.83318">
        <ele>2179.1999511719</ele>
        <time>2022-03-06T09:49:37.000Z</time>
      </trkpt>
      <trkpt lat="44.43727" lon="6.83318">
        <ele>2179.3999023438</ele>
        <time>2022-03-06T09:49:38.000Z</time>
      </trkpt>
      <trkpt lat="44.43726" lon="6.83319">
        <ele>2180</ele>
        <time>2022-03-06T09:49:44.000Z</time>
      </trkpt>
      <trkpt lat="44.43726" lon="6.83319">
        <ele>2180.1999511719</ele>
        <time>2022-03-06T09:49:45.000Z</time>
      </trkpt>
      <trkpt lat="44.43723" lon="6.8332">
        <ele>2181.1999511719</ele>
        <time>2022-03-06T09:49:50.000Z</time>
      </trkpt>
      <trkpt lat="44.43723" lon="6.8332">
        <ele>2181.6000976562</ele>
        <time>2022-03-06T09:49:52.000Z</time>
      </trkpt>
      <trkpt lat="44.43721" lon="6.83319">
        <ele>2182</ele>
        <time>2022-03-06T09:49:57.000Z</time>
      </trkpt>
      <trkpt lat="44.43721" lon="6.83317">
        <ele>2182.1999511719</ele>
        <time>2022-03-06T09:49:59.000Z</time>
      </trkpt>
      <trkpt lat="44.43718" lon="6.83311">
        <ele>2182.8000488281</ele>
        <time>2022-03-06T09:50:04.000Z</time>
      </trkpt>
      <trkpt lat="44.43719" lon="6.83306">
        <ele>2183.6000976562</ele>
        <time>2022-03-06T09:50:08.000Z</time>
      </trkpt>
      <trkpt lat="44.43718" lon="6.83305">
        <ele>2184.1999511719</ele>
        <time>2022-03-06T09:50:12.000Z</time>
      </trkpt>
      <trkpt lat="44.43718" lon="6.83303">
        <ele>2184.8000488281</ele>
        <time>2022-03-06T09:50:14.000Z</time>
      </trkpt>
      <trkpt lat="44.43718" lon="6.83302">
        <ele>2185.1999511719</ele>
        <time>2022-03-06T09:50:17.000Z</time>
      </trkpt>
      <trkpt lat="44.43719" lon="6.83299">
        <ele>2185.3999023438</ele>
        <time>2022-03-06T09:50:20.000Z</time>
      </trkpt>
      <trkpt lat="44.43719" lon="6.83296">
        <ele>2185.8000488281</ele>
        <time>2022-03-06T09:50:23.000Z</time>
      </trkpt>
      <trkpt lat="44.4372" lon="6.83293">
        <ele>2186.8000488281</ele>
        <time>2022-03-06T09:50:28.000Z</time>
      </trkpt>
      <trkpt lat="44.43718" lon="6.83291">
        <ele>2187.3999023438</ele>
        <time>2022-03-06T09:50:31.000Z</time>
      </trkpt>
      <trkpt lat="44.43719" lon="6.8329">
        <ele>2187.8000488281</ele>
        <time>2022-03-06T09:50:32.000Z</time>
      </trkpt>
      <trkpt lat="44.43718" lon="6.8329">
        <ele>2188</ele>
        <time>2022-03-06T09:50:33.000Z</time>
      </trkpt>
      <trkpt lat="44.43718" lon="6.83289">
        <ele>2188.1999511719</ele>
        <time>2022-03-06T09:50:34.000Z</time>
      </trkpt>
      <trkpt lat="44.43718" lon="6.83284">
        <ele>2189.1999511719</ele>
        <time>2022-03-06T09:50:38.000Z</time>
      </trkpt>
      <trkpt lat="44.43719" lon="6.8328">
        <ele>2190.1999511719</ele>
        <time>2022-03-06T09:50:46.000Z</time>
      </trkpt>
      <trkpt lat="44.4372" lon="6.83279">
        <ele>2190.1999511719</ele>
        <time>2022-03-06T09:50:47.000Z</time>
      </trkpt>
      <trkpt lat="44.4372" lon="6.83281">
        <ele>2190.6000976562</ele>
        <time>2022-03-06T09:50:52.000Z</time>
      </trkpt>
      <trkpt lat="44.43718" lon="6.83281">
        <ele>2191.3999023438</ele>
        <time>2022-03-06T09:50:56.000Z</time>
      </trkpt>
      <trkpt lat="44.43717" lon="6.83282">
        <ele>2191.8000488281</ele>
        <time>2022-03-06T09:51:00.000Z</time>
      </trkpt>
      <trkpt lat="44.43715" lon="6.83283">
        <ele>2192.3999023438</ele>
        <time>2022-03-06T09:51:03.000Z</time>
      </trkpt>
      <trkpt lat="44.43712" lon="6.83283">
        <ele>2193.3999023438</ele>
        <time>2022-03-06T09:51:07.000Z</time>
      </trkpt>
      <trkpt lat="44.43712" lon="6.83283">
        <ele>2193.3999023438</ele>
        <time>2022-03-06T09:51:08.000Z</time>
      </trkpt>
      <trkpt lat="44.4371" lon="6.83282">
        <ele>2193.6000976562</ele>
        <time>2022-03-06T09:51:11.000Z</time>
      </trkpt>
      <trkpt lat="44.43709" lon="6.83283">
        <ele>2194.1999511719</ele>
        <time>2022-03-06T09:51:14.000Z</time>
      </trkpt>
      <trkpt lat="44.43708" lon="6.83284">
        <ele>2194.6000976562</ele>
        <time>2022-03-06T09:51:17.000Z</time>
      </trkpt>
      <trkpt lat="44.43705" lon="6.83285">
        <ele>2195.1999511719</ele>
        <time>2022-03-06T09:51:22.000Z</time>
      </trkpt>
      <trkpt lat="44.43704" lon="6.83286">
        <ele>2195.6000976562</ele>
        <time>2022-03-06T09:51:26.000Z</time>
      </trkpt>
      <trkpt lat="44.43703" lon="6.83286">
        <ele>2196</ele>
        <time>2022-03-06T09:51:28.000Z</time>
      </trkpt>
      <trkpt lat="44.43701" lon="6.83285">
        <ele>2196.3999023438</ele>
        <time>2022-03-06T09:51:35.000Z</time>
      </trkpt>
      <trkpt lat="44.43701" lon="6.83284">
        <ele>2196.8000488281</ele>
        <time>2022-03-06T09:51:38.000Z</time>
      </trkpt>
      <trkpt lat="44.437" lon="6.83279">
        <ele>2197.3999023438</ele>
        <time>2022-03-06T09:51:43.000Z</time>
      </trkpt>
      <trkpt lat="44.437" lon="6.83278">
        <ele>2197.8000488281</ele>
        <time>2022-03-06T09:51:45.000Z</time>
      </trkpt>
      <trkpt lat="44.437" lon="6.83276">
        <ele>2198</ele>
        <time>2022-03-06T09:51:48.000Z</time>
      </trkpt>
      <trkpt lat="44.437" lon="6.83272">
        <ele>2198.6000976562</ele>
        <time>2022-03-06T09:51:55.000Z</time>
      </trkpt>
      <trkpt lat="44.437" lon="6.8327">
        <ele>2198.8000488281</ele>
        <time>2022-03-06T09:51:56.000Z</time>
      </trkpt>
      <trkpt lat="44.43701" lon="6.83265">
        <ele>2199.8000488281</ele>
        <time>2022-03-06T09:52:01.000Z</time>
      </trkpt>
      <trkpt lat="44.43702" lon="6.83262">
        <ele>2200.6000976562</ele>
        <time>2022-03-06T09:52:05.000Z</time>
      </trkpt>
      <trkpt lat="44.43702" lon="6.8326">
        <ele>2201</ele>
        <time>2022-03-06T09:52:07.000Z</time>
      </trkpt>
      <trkpt lat="44.43703" lon="6.83256">
        <ele>2202</ele>
        <time>2022-03-06T09:52:12.000Z</time>
      </trkpt>
      <trkpt lat="44.43704" lon="6.83253">
        <ele>2202.3999023438</ele>
        <time>2022-03-06T09:52:15.000Z</time>
      </trkpt>
      <trkpt lat="44.43705" lon="6.83251">
        <ele>2203.1999511719</ele>
        <time>2022-03-06T09:52:20.000Z</time>
      </trkpt>
      <trkpt lat="44.43705" lon="6.83252">
        <ele>2203.6000976562</ele>
        <time>2022-03-06T09:52:22.000Z</time>
      </trkpt>
      <trkpt lat="44.43705" lon="6.8325">
        <ele>2203.8000488281</ele>
        <time>2022-03-06T09:52:27.000Z</time>
      </trkpt>
      <trkpt lat="44.43704" lon="6.83251">
        <ele>2204.3999023438</ele>
        <time>2022-03-06T09:52:30.000Z</time>
      </trkpt>
      <trkpt lat="44.43702" lon="6.83252">
        <ele>2204.8000488281</ele>
        <time>2022-03-06T09:52:33.000Z</time>
      </trkpt>
      <trkpt lat="44.43699" lon="6.83252">
        <ele>2205.6000976562</ele>
        <time>2022-03-06T09:52:38.000Z</time>
      </trkpt>
      <trkpt lat="44.43698" lon="6.83252">
        <ele>2205.8000488281</ele>
        <time>2022-03-06T09:52:40.000Z</time>
      </trkpt>
      <trkpt lat="44.43697" lon="6.83251">
        <ele>2206.6000976562</ele>
        <time>2022-03-06T09:52:44.000Z</time>
      </trkpt>
      <trkpt lat="44.43696" lon="6.83253">
        <ele>2207</ele>
        <time>2022-03-06T09:52:47.000Z</time>
      </trkpt>
      <trkpt lat="44.43693" lon="6.83255">
        <ele>2207.6000976562</ele>
        <time>2022-03-06T09:52:53.000Z</time>
      </trkpt>
      <trkpt lat="44.43692" lon="6.83256">
        <ele>2207.8000488281</ele>
        <time>2022-03-06T09:52:54.000Z</time>
      </trkpt>
      <trkpt lat="44.4369" lon="6.83258">
        <ele>2208.8000488281</ele>
        <time>2022-03-06T09:52:58.000Z</time>
      </trkpt>
      <trkpt lat="44.43689" lon="6.83259">
        <ele>2209.1999511719</ele>
        <time>2022-03-06T09:53:04.000Z</time>
      </trkpt>
      <trkpt lat="44.43689" lon="6.83255">
        <ele>2209.3999023438</ele>
        <time>2022-03-06T09:53:09.000Z</time>
      </trkpt>
      <trkpt lat="44.43689" lon="6.83251">
        <ele>2209.3999023438</ele>
        <time>2022-03-06T09:53:12.000Z</time>
      </trkpt>
      <trkpt lat="44.43689" lon="6.83247">
        <ele>2209.8000488281</ele>
        <time>2022-03-06T09:53:17.000Z</time>
      </trkpt>
      <trkpt lat="44.43689" lon="6.83242">
        <ele>2211</ele>
        <time>2022-03-06T09:53:23.000Z</time>
      </trkpt>
      <trkpt lat="44.4369" lon="6.8324">
        <ele>2211.6000976562</ele>
        <time>2022-03-06T09:53:25.000Z</time>
      </trkpt>
      <trkpt lat="44.4369" lon="6.83239">
        <ele>2212</ele>
        <time>2022-03-06T09:53:27.000Z</time>
      </trkpt>
      <trkpt lat="44.43691" lon="6.83238">
        <ele>2212.8000488281</ele>
        <time>2022-03-06T09:53:33.000Z</time>
      </trkpt>
      <trkpt lat="44.43691" lon="6.83238">
        <ele>2213.1999511719</ele>
        <time>2022-03-06T09:53:34.000Z</time>
      </trkpt>
      <trkpt lat="44.43691" lon="6.83238">
        <ele>2213.8000488281</ele>
        <time>2022-03-06T09:53:40.000Z</time>
      </trkpt>
      <trkpt lat="44.43689" lon="6.83238">
        <ele>2214.1999511719</ele>
        <time>2022-03-06T09:53:42.000Z</time>
      </trkpt>
      <trkpt lat="44.43687" lon="6.83237">
        <ele>2215</ele>
        <time>2022-03-06T09:53:47.000Z</time>
      </trkpt>
      <trkpt lat="44.43685" lon="6.83237">
        <ele>2215.1999511719</ele>
        <time>2022-03-06T09:53:50.000Z</time>
      </trkpt>
      <trkpt lat="44.43685" lon="6.83236">
        <ele>2215.6000976562</ele>
        <time>2022-03-06T09:53:53.000Z</time>
      </trkpt>
      <trkpt lat="44.43683" lon="6.83236">
        <ele>2216.1999511719</ele>
        <time>2022-03-06T09:53:56.000Z</time>
      </trkpt>
      <trkpt lat="44.43681" lon="6.83237">
        <ele>2217.1999511719</ele>
        <time>2022-03-06T09:54:00.000Z</time>
      </trkpt>
      <trkpt lat="44.43679" lon="6.83238">
        <ele>2217.6000976562</ele>
        <time>2022-03-06T09:54:03.000Z</time>
      </trkpt>
      <trkpt lat="44.43678" lon="6.83238">
        <ele>2218.3999023438</ele>
        <time>2022-03-06T09:54:06.000Z</time>
      </trkpt>
      <trkpt lat="44.43677" lon="6.83239">
        <ele>2218.8000488281</ele>
        <time>2022-03-06T09:54:10.000Z</time>
      </trkpt>
      <trkpt lat="44.43675" lon="6.83241">
        <ele>2219.3999023438</ele>
        <time>2022-03-06T09:54:14.000Z</time>
      </trkpt>
      <trkpt lat="44.43674" lon="6.83245">
        <ele>2219.8000488281</ele>
        <time>2022-03-06T09:54:20.000Z</time>
      </trkpt>
      <trkpt lat="44.43671" lon="6.83249">
        <ele>2220.3999023438</ele>
        <time>2022-03-06T09:54:25.000Z</time>
      </trkpt>
      <trkpt lat="44.43671" lon="6.83249">
        <ele>2220.3999023438</ele>
        <time>2022-03-06T09:54:27.000Z</time>
      </trkpt>
      <trkpt lat="44.4367" lon="6.83249">
        <ele>2220.8000488281</ele>
        <time>2022-03-06T09:54:30.000Z</time>
      </trkpt>
      <trkpt lat="44.43669" lon="6.83246">
        <ele>2221.1999511719</ele>
        <time>2022-03-06T09:54:36.000Z</time>
      </trkpt>
      <trkpt lat="44.43669" lon="6.83245">
        <ele>2221.3999023438</ele>
        <time>2022-03-06T09:54:38.000Z</time>
      </trkpt>
      <trkpt lat="44.43669" lon="6.83238">
        <ele>2222</ele>
        <time>2022-03-06T09:54:44.000Z</time>
      </trkpt>
      <trkpt lat="44.43668" lon="6.83235">
        <ele>2222.3999023438</ele>
        <time>2022-03-06T09:54:49.000Z</time>
      </trkpt>
      <trkpt lat="44.43669" lon="6.83228">
        <ele>2223.3999023438</ele>
        <time>2022-03-06T09:54:53.000Z</time>
      </trkpt>
      <trkpt lat="44.43669" lon="6.83228">
        <ele>2223.6000976562</ele>
        <time>2022-03-06T09:54:54.000Z</time>
      </trkpt>
      <trkpt lat="44.43665" lon="6.83227">
        <ele>2224.3999023438</ele>
        <time>2022-03-06T09:55:02.000Z</time>
      </trkpt>
      <trkpt lat="44.43665" lon="6.83226">
        <ele>2224.8000488281</ele>
        <time>2022-03-06T09:55:04.000Z</time>
      </trkpt>
      <trkpt lat="44.43665" lon="6.83223">
        <ele>2225.6000976562</ele>
        <time>2022-03-06T09:55:09.000Z</time>
      </trkpt>
      <trkpt lat="44.43665" lon="6.83221">
        <ele>2225.8000488281</ele>
        <time>2022-03-06T09:55:11.000Z</time>
      </trkpt>
      <trkpt lat="44.43666" lon="6.83219">
        <ele>2226.1999511719</ele>
        <time>2022-03-06T09:55:14.000Z</time>
      </trkpt>
      <trkpt lat="44.43667" lon="6.83216">
        <ele>2226.8000488281</ele>
        <time>2022-03-06T09:55:17.000Z</time>
      </trkpt>
      <trkpt lat="44.43667" lon="6.83215">
        <ele>2227</ele>
        <time>2022-03-06T09:55:18.000Z</time>
      </trkpt>
      <trkpt lat="44.43667" lon="6.83215">
        <ele>2227.6000976562</ele>
        <time>2022-03-06T09:55:23.000Z</time>
      </trkpt>
      <trkpt lat="44.43667" lon="6.83215">
        <ele>2228</ele>
        <time>2022-03-06T09:55:29.000Z</time>
      </trkpt>
      <trkpt lat="44.43667" lon="6.83214">
        <ele>2228.1999511719</ele>
        <time>2022-03-06T09:55:30.000Z</time>
      </trkpt>
      <trkpt lat="44.43665" lon="6.83214">
        <ele>2229.1999511719</ele>
        <time>2022-03-06T09:55:34.000Z</time>
      </trkpt>
      <trkpt lat="44.43665" lon="6.83214">
        <ele>2229.3999023438</ele>
        <time>2022-03-06T09:55:35.000Z</time>
      </trkpt>
      <trkpt lat="44.43663" lon="6.83214">
        <ele>2229.8000488281</ele>
        <time>2022-03-06T09:55:41.000Z</time>
      </trkpt>
      <trkpt lat="44.43662" lon="6.83214">
        <ele>2230.3999023438</ele>
        <time>2022-03-06T09:55:43.000Z</time>
      </trkpt>
      <trkpt lat="44.43659" lon="6.83217">
        <ele>2231</ele>
        <time>2022-03-06T09:55:49.000Z</time>
      </trkpt>
      <trkpt lat="44.43659" lon="6.83217">
        <ele>2231.3999023438</ele>
        <time>2022-03-06T09:55:50.000Z</time>
      </trkpt>
      <trkpt lat="44.43655" lon="6.8322">
        <ele>2232.6000976562</ele>
        <time>2022-03-06T09:55:58.000Z</time>
      </trkpt>
      <trkpt lat="44.43655" lon="6.8322">
        <ele>2232.6000976562</ele>
        <time>2022-03-06T09:55:59.000Z</time>
      </trkpt>
      <trkpt lat="44.43652" lon="6.83221">
        <ele>2233.6000976562</ele>
        <time>2022-03-06T09:56:08.000Z</time>
      </trkpt>
      <trkpt lat="44.43652" lon="6.83222">
        <ele>2233.6000976562</ele>
        <time>2022-03-06T09:56:09.000Z</time>
      </trkpt>
      <trkpt lat="44.43651" lon="6.83222">
        <ele>2233.8000488281</ele>
        <time>2022-03-06T09:56:10.000Z</time>
      </trkpt>
      <trkpt lat="44.43651" lon="6.83219">
        <ele>2234.3999023438</ele>
        <time>2022-03-06T09:56:15.000Z</time>
      </trkpt>
      <trkpt lat="44.4365" lon="6.83215">
        <ele>2234.6000976562</ele>
        <time>2022-03-06T09:56:20.000Z</time>
      </trkpt>
      <trkpt lat="44.43649" lon="6.8321">
        <ele>2235.6000976562</ele>
        <time>2022-03-06T09:56:26.000Z</time>
      </trkpt>
      <trkpt lat="44.43649" lon="6.83208">
        <ele>2235.8000488281</ele>
        <time>2022-03-06T09:56:28.000Z</time>
      </trkpt>
      <trkpt lat="44.43648" lon="6.83205">
        <ele>2236.1999511719</ele>
        <time>2022-03-06T09:56:33.000Z</time>
      </trkpt>
      <trkpt lat="44.43648" lon="6.83203">
        <ele>2237</ele>
        <time>2022-03-06T09:56:36.000Z</time>
      </trkpt>
      <trkpt lat="44.43648" lon="6.83199">
        <ele>2237.8000488281</ele>
        <time>2022-03-06T09:56:43.000Z</time>
      </trkpt>
      <trkpt lat="44.43648" lon="6.83198">
        <ele>2238</ele>
        <time>2022-03-06T09:56:44.000Z</time>
      </trkpt>
      <trkpt lat="44.43648" lon="6.83196">
        <ele>2239</ele>
        <time>2022-03-06T09:56:49.000Z</time>
      </trkpt>
      <trkpt lat="44.43649" lon="6.83194">
        <ele>2239.3999023438</ele>
        <time>2022-03-06T09:56:52.000Z</time>
      </trkpt>
      <trkpt lat="44.43647" lon="6.83194">
        <ele>2240.1999511719</ele>
        <time>2022-03-06T09:56:59.000Z</time>
      </trkpt>
      <trkpt lat="44.43647" lon="6.83193">
        <ele>2240.3999023438</ele>
        <time>2022-03-06T09:57:00.000Z</time>
      </trkpt>
      <trkpt lat="44.43645" lon="6.83194">
        <ele>2241</ele>
        <time>2022-03-06T09:57:05.000Z</time>
      </trkpt>
      <trkpt lat="44.43645" lon="6.83194">
        <ele>2241.1999511719</ele>
        <time>2022-03-06T09:57:06.000Z</time>
      </trkpt>
      <trkpt lat="44.43644" lon="6.83193">
        <ele>2242</ele>
        <time>2022-03-06T09:57:12.000Z</time>
      </trkpt>
      <trkpt lat="44.43643" lon="6.83188">
        <ele>2242.3999023438</ele>
        <time>2022-03-06T09:57:19.000Z</time>
      </trkpt>
      <trkpt lat="44.43643" lon="6.83185">
        <ele>2242.8000488281</ele>
        <time>2022-03-06T09:57:22.000Z</time>
      </trkpt>
      <trkpt lat="44.43644" lon="6.83182">
        <ele>2243.6000976562</ele>
        <time>2022-03-06T09:57:27.000Z</time>
      </trkpt>
      <trkpt lat="44.43644" lon="6.83182">
        <ele>2244.3999023438</ele>
        <time>2022-03-06T09:57:31.000Z</time>
      </trkpt>
      <trkpt lat="44.43643" lon="6.83181">
        <ele>2244.6000976562</ele>
        <time>2022-03-06T09:57:34.000Z</time>
      </trkpt>
      <trkpt lat="44.43644" lon="6.83181">
        <ele>2244.8000488281</ele>
        <time>2022-03-06T09:57:37.000Z</time>
      </trkpt>
      <trkpt lat="44.43644" lon="6.83181">
        <ele>2245.6000976562</ele>
        <time>2022-03-06T09:57:47.000Z</time>
      </trkpt>
      <trkpt lat="44.43644" lon="6.83182">
        <ele>2246.8000488281</ele>
        <time>2022-03-06T09:57:53.000Z</time>
      </trkpt>
      <trkpt lat="44.4364" lon="6.83183">
        <ele>2247.8000488281</ele>
        <time>2022-03-06T09:58:03.000Z</time>
      </trkpt>
      <trkpt lat="44.43639" lon="6.83183">
        <ele>2248</ele>
        <time>2022-03-06T09:58:06.000Z</time>
      </trkpt>
      <trkpt lat="44.43638" lon="6.83186">
        <ele>2249</ele>
        <time>2022-03-06T09:58:11.000Z</time>
      </trkpt>
      <trkpt lat="44.43631" lon="6.83192">
        <ele>2250</ele>
        <time>2022-03-06T09:58:21.000Z</time>
      </trkpt>
      <trkpt lat="44.43629" lon="6.83194">
        <ele>2250.3999023438</ele>
        <time>2022-03-06T09:58:23.000Z</time>
      </trkpt>
      <trkpt lat="44.43626" lon="6.83195">
        <ele>2250.3999023438</ele>
        <time>2022-03-06T09:58:29.000Z</time>
      </trkpt>
      <trkpt lat="44.43625" lon="6.83194">
        <ele>2250.8000488281</ele>
        <time>2022-03-06T09:58:31.000Z</time>
      </trkpt>
      <trkpt lat="44.43624" lon="6.83193">
        <ele>2251</ele>
        <time>2022-03-06T09:58:35.000Z</time>
      </trkpt>
      <trkpt lat="44.43622" lon="6.83188">
        <ele>2252.1999511719</ele>
        <time>2022-03-06T09:58:41.000Z</time>
      </trkpt>
      <trkpt lat="44.43622" lon="6.83187">
        <ele>2252.3999023438</ele>
        <time>2022-03-06T09:58:42.000Z</time>
      </trkpt>
      <trkpt lat="44.43623" lon="6.83184">
        <ele>2253</ele>
        <time>2022-03-06T09:58:48.000Z</time>
      </trkpt>
      <trkpt lat="44.43623" lon="6.83189">
        <ele>2253.1999511719</ele>
        <time>2022-03-06T09:58:56.000Z</time>
      </trkpt>
      <trkpt lat="44.43622" lon="6.83191">
        <ele>2253.8000488281</ele>
        <time>2022-03-06T09:59:00.000Z</time>
      </trkpt>
      <trkpt lat="44.43621" lon="6.83192">
        <ele>2254.3999023438</ele>
        <time>2022-03-06T09:59:03.000Z</time>
      </trkpt>
      <trkpt lat="44.4362" lon="6.83192">
        <ele>2254.6000976562</ele>
        <time>2022-03-06T09:59:05.000Z</time>
      </trkpt>
      <trkpt lat="44.43618" lon="6.83196">
        <ele>2255.6000976562</ele>
        <time>2022-03-06T09:59:09.000Z</time>
      </trkpt>
      <trkpt lat="44.43616" lon="6.83198">
        <ele>2256.1999511719</ele>
        <time>2022-03-06T09:59:14.000Z</time>
      </trkpt>
      <trkpt lat="44.43615" lon="6.83199">
        <ele>2256.6000976562</ele>
        <time>2022-03-06T09:59:20.000Z</time>
      </trkpt>
      <trkpt lat="44.43614" lon="6.83199">
        <ele>2256.6000976562</ele>
        <time>2022-03-06T09:59:22.000Z</time>
      </trkpt>
      <trkpt lat="44.43615" lon="6.83195">
        <ele>2256.8000488281</ele>
        <time>2022-03-06T09:59:28.000Z</time>
      </trkpt>
      <trkpt lat="44.43615" lon="6.83194">
        <ele>2256.3999023438</ele>
        <time>2022-03-06T09:59:49.000Z</time>
      </trkpt>
      <trkpt lat="44.43615" lon="6.83194">
        <ele>2256.1999511719</ele>
        <time>2022-03-06T09:59:57.000Z</time>
      </trkpt>
      <trkpt lat="44.43612" lon="6.83196">
        <ele>2257.8000488281</ele>
        <time>2022-03-06T10:00:57.000Z</time>
      </trkpt>
      <trkpt lat="44.43611" lon="6.8319">
        <ele>2258.8000488281</ele>
        <time>2022-03-06T10:01:01.000Z</time>
      </trkpt>
      <trkpt lat="44.4361" lon="6.83184">
        <ele>2259.3999023438</ele>
        <time>2022-03-06T10:01:04.000Z</time>
      </trkpt>
      <trkpt lat="44.43608" lon="6.83183">
        <ele>2260.1999511719</ele>
        <time>2022-03-06T10:01:06.000Z</time>
      </trkpt>
      <trkpt lat="44.43606" lon="6.83178">
        <ele>2261.1999511719</ele>
        <time>2022-03-06T10:01:11.000Z</time>
      </trkpt>
      <trkpt lat="44.43606" lon="6.83177">
        <ele>2261.1999511719</ele>
        <time>2022-03-06T10:01:12.000Z</time>
      </trkpt>
      <trkpt lat="44.43606" lon="6.83176">
        <ele>2261.3999023438</ele>
        <time>2022-03-06T10:01:13.000Z</time>
      </trkpt>
      <trkpt lat="44.43606" lon="6.83173">
        <ele>2262.1999511719</ele>
        <time>2022-03-06T10:01:16.000Z</time>
      </trkpt>
      <trkpt lat="44.43606" lon="6.83168">
        <ele>2263.3999023438</ele>
        <time>2022-03-06T10:01:22.000Z</time>
      </trkpt>
      <trkpt lat="44.43607" lon="6.83167">
        <ele>2263.8000488281</ele>
        <time>2022-03-06T10:01:24.000Z</time>
      </trkpt>
      <trkpt lat="44.43607" lon="6.83166">
        <ele>2264</ele>
        <time>2022-03-06T10:01:25.000Z</time>
      </trkpt>
      <trkpt lat="44.43607" lon="6.83166">
        <ele>2264.3999023438</ele>
        <time>2022-03-06T10:01:27.000Z</time>
      </trkpt>
      <trkpt lat="44.43607" lon="6.83167">
        <ele>2265</ele>
        <time>2022-03-06T10:01:32.000Z</time>
      </trkpt>
      <trkpt lat="44.43605" lon="6.83168">
        <ele>2265.8000488281</ele>
        <time>2022-03-06T10:01:37.000Z</time>
      </trkpt>
      <trkpt lat="44.43603" lon="6.83169">
        <ele>2266.1999511719</ele>
        <time>2022-03-06T10:01:39.000Z</time>
      </trkpt>
      <trkpt lat="44.43603" lon="6.83169">
        <ele>2266.3999023438</ele>
        <time>2022-03-06T10:01:40.000Z</time>
      </trkpt>
      <trkpt lat="44.43602" lon="6.83171">
        <ele>2266.8000488281</ele>
        <time>2022-03-06T10:01:43.000Z</time>
      </trkpt>
      <trkpt lat="44.43602" lon="6.83171">
        <ele>2267</ele>
        <time>2022-03-06T10:01:44.000Z</time>
      </trkpt>
      <trkpt lat="44.43599" lon="6.83172">
        <ele>2268</ele>
        <time>2022-03-06T10:01:49.000Z</time>
      </trkpt>
      <trkpt lat="44.43599" lon="6.83174">
        <ele>2268.3999023438</ele>
        <time>2022-03-06T10:01:52.000Z</time>
      </trkpt>
      <trkpt lat="44.43598" lon="6.83176">
        <ele>2269</ele>
        <time>2022-03-06T10:02:01.000Z</time>
      </trkpt>
      <trkpt lat="44.43597" lon="6.83173">
        <ele>2269.1999511719</ele>
        <time>2022-03-06T10:02:04.000Z</time>
      </trkpt>
      <trkpt lat="44.43597" lon="6.83168">
        <ele>2269.8000488281</ele>
        <time>2022-03-06T10:02:08.000Z</time>
      </trkpt>
      <trkpt lat="44.43595" lon="6.83167">
        <ele>2270.1999511719</ele>
        <time>2022-03-06T10:02:10.000Z</time>
      </trkpt>
      <trkpt lat="44.43595" lon="6.83162">
        <ele>2271.3999023438</ele>
        <time>2022-03-06T10:02:16.000Z</time>
      </trkpt>
      <trkpt lat="44.43594" lon="6.83161">
        <ele>2271.6000976562</ele>
        <time>2022-03-06T10:02:17.000Z</time>
      </trkpt>
      <trkpt lat="44.43594" lon="6.8316">
        <ele>2272.3999023438</ele>
        <time>2022-03-06T10:02:22.000Z</time>
      </trkpt>
      <trkpt lat="44.43595" lon="6.8316">
        <ele>2272.8000488281</ele>
        <time>2022-03-06T10:02:24.000Z</time>
      </trkpt>
      <trkpt lat="44.43594" lon="6.83161">
        <ele>2273.8000488281</ele>
        <time>2022-03-06T10:02:29.000Z</time>
      </trkpt>
      <trkpt lat="44.43593" lon="6.83161">
        <ele>2274.1999511719</ele>
        <time>2022-03-06T10:02:31.000Z</time>
      </trkpt>
      <trkpt lat="44.4359" lon="6.83162">
        <ele>2275</ele>
        <time>2022-03-06T10:02:36.000Z</time>
      </trkpt>
      <trkpt lat="44.43589" lon="6.83162">
        <ele>2275.8000488281</ele>
        <time>2022-03-06T10:02:40.000Z</time>
      </trkpt>
      <trkpt lat="44.43588" lon="6.83163">
        <ele>2276.1999511719</ele>
        <time>2022-03-06T10:02:42.000Z</time>
      </trkpt>
      <trkpt lat="44.43587" lon="6.83164">
        <ele>2276.8000488281</ele>
        <time>2022-03-06T10:02:45.000Z</time>
      </trkpt>
      <trkpt lat="44.43586" lon="6.83165">
        <ele>2277.3999023438</ele>
        <time>2022-03-06T10:02:48.000Z</time>
      </trkpt>
      <trkpt lat="44.43585" lon="6.83166">
        <ele>2278</ele>
        <time>2022-03-06T10:02:51.000Z</time>
      </trkpt>
      <trkpt lat="44.43584" lon="6.83167">
        <ele>2278.3999023438</ele>
        <time>2022-03-06T10:02:53.000Z</time>
      </trkpt>
      <trkpt lat="44.43582" lon="6.83171">
        <ele>2279.3999023438</ele>
        <time>2022-03-06T10:03:00.000Z</time>
      </trkpt>
      <trkpt lat="44.43582" lon="6.83171">
        <ele>2279.6000976562</ele>
        <time>2022-03-06T10:03:01.000Z</time>
      </trkpt>
      <trkpt lat="44.4358" lon="6.83175">
        <ele>2280</ele>
        <time>2022-03-06T10:03:06.000Z</time>
      </trkpt>
      <trkpt lat="44.43578" lon="6.83174">
        <ele>2280.6000976562</ele>
        <time>2022-03-06T10:03:11.000Z</time>
      </trkpt>
      <trkpt lat="44.43575" lon="6.8317">
        <ele>2281.1999511719</ele>
        <time>2022-03-06T10:03:19.000Z</time>
      </trkpt>
      <trkpt lat="44.43575" lon="6.83169">
        <ele>2281.6000976562</ele>
        <time>2022-03-06T10:03:21.000Z</time>
      </trkpt>
      <trkpt lat="44.43573" lon="6.83166">
        <ele>2282.1999511719</ele>
        <time>2022-03-06T10:03:26.000Z</time>
      </trkpt>
      <trkpt lat="44.43573" lon="6.83164">
        <ele>2282.6000976562</ele>
        <time>2022-03-06T10:03:28.000Z</time>
      </trkpt>
      <trkpt lat="44.43572" lon="6.83159">
        <ele>2283.3999023438</ele>
        <time>2022-03-06T10:03:35.000Z</time>
      </trkpt>
      <trkpt lat="44.43572" lon="6.83159">
        <ele>2283.6000976562</ele>
        <time>2022-03-06T10:03:36.000Z</time>
      </trkpt>
      <trkpt lat="44.43571" lon="6.83154">
        <ele>2284.6000976562</ele>
        <time>2022-03-06T10:03:43.000Z</time>
      </trkpt>
      <trkpt lat="44.43571" lon="6.83151">
        <ele>2285.3999023438</ele>
        <time>2022-03-06T10:03:46.000Z</time>
      </trkpt>
      <trkpt lat="44.43572" lon="6.83147">
        <ele>2285.6000976562</ele>
        <time>2022-03-06T10:03:48.000Z</time>
      </trkpt>
      <trkpt lat="44.43571" lon="6.83142">
        <ele>2286.8000488281</ele>
        <time>2022-03-06T10:03:56.000Z</time>
      </trkpt>
      <trkpt lat="44.4357" lon="6.83138">
        <ele>2288</ele>
        <time>2022-03-06T10:04:03.000Z</time>
      </trkpt>
      <trkpt lat="44.4357" lon="6.83134">
        <ele>2289</ele>
        <time>2022-03-06T10:04:08.000Z</time>
      </trkpt>
      <trkpt lat="44.43571" lon="6.83133">
        <ele>2289</ele>
        <time>2022-03-06T10:04:09.000Z</time>
      </trkpt>
      <trkpt lat="44.43571" lon="6.83129">
        <ele>2290</ele>
        <time>2022-03-06T10:04:17.000Z</time>
      </trkpt>
      <trkpt lat="44.43572" lon="6.83128">
        <ele>2290.1999511719</ele>
        <time>2022-03-06T10:04:18.000Z</time>
      </trkpt>
      <trkpt lat="44.43572" lon="6.83127">
        <ele>2291</ele>
        <time>2022-03-06T10:04:23.000Z</time>
      </trkpt>
      <trkpt lat="44.43571" lon="6.83127">
        <ele>2291.3999023438</ele>
        <time>2022-03-06T10:04:25.000Z</time>
      </trkpt>
      <trkpt lat="44.43569" lon="6.83127">
        <ele>2291.8000488281</ele>
        <time>2022-03-06T10:04:29.000Z</time>
      </trkpt>
      <trkpt lat="44.43566" lon="6.83128">
        <ele>2292.3999023438</ele>
        <time>2022-03-06T10:04:34.000Z</time>
      </trkpt>
      <trkpt lat="44.43566" lon="6.83128">
        <ele>2292.8000488281</ele>
        <time>2022-03-06T10:04:37.000Z</time>
      </trkpt>
      <trkpt lat="44.43563" lon="6.8313">
        <ele>2293.1999511719</ele>
        <time>2022-03-06T10:04:43.000Z</time>
      </trkpt>
      <trkpt lat="44.43563" lon="6.8313">
        <ele>2293.3999023438</ele>
        <time>2022-03-06T10:04:44.000Z</time>
      </trkpt>
      <trkpt lat="44.43561" lon="6.83131">
        <ele>2294</ele>
        <time>2022-03-06T10:04:48.000Z</time>
      </trkpt>
      <trkpt lat="44.4356" lon="6.8313">
        <ele>2294.3999023438</ele>
        <time>2022-03-06T10:04:52.000Z</time>
      </trkpt>
      <trkpt lat="44.4356" lon="6.83127">
        <ele>2294.8000488281</ele>
        <time>2022-03-06T10:04:55.000Z</time>
      </trkpt>
      <trkpt lat="44.4356" lon="6.83124">
        <ele>2295.6000976562</ele>
        <time>2022-03-06T10:05:00.000Z</time>
      </trkpt>
      <trkpt lat="44.43561" lon="6.83122">
        <ele>2295.8000488281</ele>
        <time>2022-03-06T10:05:03.000Z</time>
      </trkpt>
      <trkpt lat="44.43561" lon="6.83119">
        <ele>2296.6000976562</ele>
        <time>2022-03-06T10:05:07.000Z</time>
      </trkpt>
      <trkpt lat="44.43561" lon="6.83118">
        <ele>2297.1999511719</ele>
        <time>2022-03-06T10:05:11.000Z</time>
      </trkpt>
      <trkpt lat="44.43563" lon="6.83115">
        <ele>2297.6000976562</ele>
        <time>2022-03-06T10:05:16.000Z</time>
      </trkpt>
      <trkpt lat="44.43563" lon="6.83115">
        <ele>2297.8000488281</ele>
        <time>2022-03-06T10:05:18.000Z</time>
      </trkpt>
      <trkpt lat="44.43563" lon="6.83113">
        <ele>2298.6000976562</ele>
        <time>2022-03-06T10:05:24.000Z</time>
      </trkpt>
      <trkpt lat="44.43564" lon="6.83113">
        <ele>2298.8000488281</ele>
        <time>2022-03-06T10:05:28.000Z</time>
      </trkpt>
      <trkpt lat="44.43564" lon="6.83113">
        <ele>2299.6000976562</ele>
        <time>2022-03-06T10:05:37.000Z</time>
      </trkpt>
      <trkpt lat="44.43564" lon="6.83113">
        <ele>2299.6000976562</ele>
        <time>2022-03-06T10:05:38.000Z</time>
      </trkpt>
      <trkpt lat="44.43564" lon="6.83113">
        <ele>2300.8000488281</ele>
        <time>2022-03-06T10:05:46.000Z</time>
      </trkpt>
      <trkpt lat="44.43561" lon="6.83113">
        <ele>2301.8000488281</ele>
        <time>2022-03-06T10:05:56.000Z</time>
      </trkpt>
      <trkpt lat="44.4356" lon="6.83113">
        <ele>2301.8000488281</ele>
        <time>2022-03-06T10:05:57.000Z</time>
      </trkpt>
      <trkpt lat="44.43557" lon="6.83113">
        <ele>2303.1999511719</ele>
        <time>2022-03-06T10:06:09.000Z</time>
      </trkpt>
      <trkpt lat="44.43557" lon="6.83113">
        <ele>2304.1999511719</ele>
        <time>2022-03-06T10:06:15.000Z</time>
      </trkpt>
      <trkpt lat="44.43557" lon="6.83108">
        <ele>2305.1999511719</ele>
        <time>2022-03-06T10:06:25.000Z</time>
      </trkpt>
      <trkpt lat="44.43557" lon="6.83105">
        <ele>2306.3999023438</ele>
        <time>2022-03-06T10:06:37.000Z</time>
      </trkpt>
      <trkpt lat="44.43555" lon="6.83105">
        <ele>2307.3999023438</ele>
        <time>2022-03-06T10:06:45.000Z</time>
      </trkpt>
      <trkpt lat="44.43551" lon="6.83106">
        <ele>2308.3999023438</ele>
        <time>2022-03-06T10:06:54.000Z</time>
      </trkpt>
      <trkpt lat="44.43549" lon="6.83107">
        <ele>2309.3999023438</ele>
        <time>2022-03-06T10:07:00.000Z</time>
      </trkpt>
      <trkpt lat="44.43542" lon="6.83113">
        <ele>2310.3999023438</ele>
        <time>2022-03-06T10:07:09.000Z</time>
      </trkpt>
      <trkpt lat="44.43541" lon="6.83114">
        <ele>2310.6000976562</ele>
        <time>2022-03-06T10:07:10.000Z</time>
      </trkpt>
      <trkpt lat="44.43538" lon="6.83113">
        <ele>2311</ele>
        <time>2022-03-06T10:07:15.000Z</time>
      </trkpt>
      <trkpt lat="44.43538" lon="6.83111">
        <ele>2311.3999023438</ele>
        <time>2022-03-06T10:07:18.000Z</time>
      </trkpt>
      <trkpt lat="44.43538" lon="6.8311">
        <ele>2311.6000976562</ele>
        <time>2022-03-06T10:07:20.000Z</time>
      </trkpt>
      <trkpt lat="44.43538" lon="6.83107">
        <ele>2312.6000976562</ele>
        <time>2022-03-06T10:07:26.000Z</time>
      </trkpt>
      <trkpt lat="44.43537" lon="6.83106">
        <ele>2312.8000488281</ele>
        <time>2022-03-06T10:07:28.000Z</time>
      </trkpt>
      <trkpt lat="44.43537" lon="6.83102">
        <ele>2313.8000488281</ele>
        <time>2022-03-06T10:07:36.000Z</time>
      </trkpt>
      <trkpt lat="44.43536" lon="6.83101">
        <ele>2314</ele>
        <time>2022-03-06T10:07:37.000Z</time>
      </trkpt>
      <trkpt lat="44.43535" lon="6.83097">
        <ele>2315</ele>
        <time>2022-03-06T10:07:44.000Z</time>
      </trkpt>
      <trkpt lat="44.43533" lon="6.83094">
        <ele>2316</ele>
        <time>2022-03-06T10:07:50.000Z</time>
      </trkpt>
      <trkpt lat="44.43532" lon="6.83093">
        <ele>2316.3999023438</ele>
        <time>2022-03-06T10:07:52.000Z</time>
      </trkpt>
      <trkpt lat="44.43532" lon="6.8309">
        <ele>2317</ele>
        <time>2022-03-06T10:07:55.000Z</time>
      </trkpt>
      <trkpt lat="44.43531" lon="6.83088">
        <ele>2317.8000488281</ele>
        <time>2022-03-06T10:08:00.000Z</time>
      </trkpt>
      <trkpt lat="44.43532" lon="6.83087">
        <ele>2318.1999511719</ele>
        <time>2022-03-06T10:08:02.000Z</time>
      </trkpt>
      <trkpt lat="44.43534" lon="6.8308">
        <ele>2319</ele>
        <time>2022-03-06T10:08:10.000Z</time>
      </trkpt>
      <trkpt lat="44.43535" lon="6.8308">
        <ele>2319.1999511719</ele>
        <time>2022-03-06T10:08:11.000Z</time>
      </trkpt>
      <trkpt lat="44.43534" lon="6.8308">
        <ele>2319.3999023438</ele>
        <time>2022-03-06T10:08:16.000Z</time>
      </trkpt>
      <trkpt lat="44.43532" lon="6.83078">
        <ele>2319.3999023438</ele>
        <time>2022-03-06T10:08:24.000Z</time>
      </trkpt>
      <trkpt lat="44.43528" lon="6.83077">
        <ele>2319.6000976562</ele>
        <time>2022-03-06T10:08:34.000Z</time>
      </trkpt>
      <trkpt lat="44.43527" lon="6.83074">
        <ele>2320</ele>
        <time>2022-03-06T10:08:42.000Z</time>
      </trkpt>
      <trkpt lat="44.43528" lon="6.83073">
        <ele>2318.8000488281</ele>
        <time>2022-03-06T10:08:53.000Z</time>
      </trkpt>
      <trkpt lat="44.43529" lon="6.83071">
        <ele>2318.1999511719</ele>
        <time>2022-03-06T10:08:56.000Z</time>
      </trkpt>
      <trkpt lat="44.43529" lon="6.8307">
        <ele>2317.8000488281</ele>
        <time>2022-03-06T10:09:01.000Z</time>
      </trkpt>
      <trkpt lat="44.43529" lon="6.83068">
        <ele>2317</ele>
        <time>2022-03-06T10:09:04.000Z</time>
      </trkpt>
      <trkpt lat="44.43528" lon="6.83066">
        <ele>2316.1999511719</ele>
        <time>2022-03-06T10:09:11.000Z</time>
      </trkpt>
      <trkpt lat="44.43527" lon="6.83066">
        <ele>2315.8000488281</ele>
        <time>2022-03-06T10:09:13.000Z</time>
      </trkpt>
      <trkpt lat="44.43525" lon="6.83063">
        <ele>2315.1999511719</ele>
        <time>2022-03-06T10:09:23.000Z</time>
      </trkpt>
      <trkpt lat="44.43522" lon="6.8306">
        <ele>2315</ele>
        <time>2022-03-06T10:09:32.000Z</time>
      </trkpt>
      <trkpt lat="44.43522" lon="6.83059">
        <ele>2314.8000488281</ele>
        <time>2022-03-06T10:09:35.000Z</time>
      </trkpt>
      <trkpt lat="44.4352" lon="6.83058">
        <ele>2314.3999023438</ele>
        <time>2022-03-06T10:09:41.000Z</time>
      </trkpt>
      <trkpt lat="44.43517" lon="6.83055">
        <ele>2313.8000488281</ele>
        <time>2022-03-06T10:09:49.000Z</time>
      </trkpt>
      <trkpt lat="44.43516" lon="6.83054">
        <ele>2313.6000976562</ele>
        <time>2022-03-06T10:09:52.000Z</time>
      </trkpt>
      <trkpt lat="44.43515" lon="6.83054">
        <ele>2313.1999511719</ele>
        <time>2022-03-06T10:09:56.000Z</time>
      </trkpt>
      <trkpt lat="44.4351" lon="6.83052">
        <ele>2312.8000488281</ele>
        <time>2022-03-06T10:10:04.000Z</time>
      </trkpt>
      <trkpt lat="44.43508" lon="6.8305">
        <ele>2312.8000488281</ele>
        <time>2022-03-06T10:10:06.000Z</time>
      </trkpt>
      <trkpt lat="44.43507" lon="6.83049">
        <ele>2312.8000488281</ele>
        <time>2022-03-06T10:10:07.000Z</time>
      </trkpt>
      <trkpt lat="44.43505" lon="6.83046">
        <ele>2313</ele>
        <time>2022-03-06T10:10:11.000Z</time>
      </trkpt>
      <trkpt lat="44.43501" lon="6.8304">
        <ele>2313.1999511719</ele>
        <time>2022-03-06T10:10:17.000Z</time>
      </trkpt>
      <trkpt lat="44.43498" lon="6.83034">
        <ele>2313.6000976562</ele>
        <time>2022-03-06T10:10:23.000Z</time>
      </trkpt>
      <trkpt lat="44.43497" lon="6.8303">
        <ele>2313.6000976562</ele>
        <time>2022-03-06T10:10:26.000Z</time>
      </trkpt>
      <trkpt lat="44.43491" lon="6.83021">
        <ele>2313.8000488281</ele>
        <time>2022-03-06T10:10:36.000Z</time>
      </trkpt>
      <trkpt lat="44.43487" lon="6.83008">
        <ele>2313.1999511719</ele>
        <time>2022-03-06T10:10:46.000Z</time>
      </trkpt>
      <trkpt lat="44.43481" lon="6.82996">
        <ele>2312.8000488281</ele>
        <time>2022-03-06T10:10:57.000Z</time>
      </trkpt>
      <trkpt lat="44.43476" lon="6.82989">
        <ele>2312.1999511719</ele>
        <time>2022-03-06T10:11:05.000Z</time>
      </trkpt>
      <trkpt lat="44.43475" lon="6.82985">
        <ele>2311.8000488281</ele>
        <time>2022-03-06T10:11:08.000Z</time>
      </trkpt>
      <trkpt lat="44.43474" lon="6.82983">
        <ele>2311.6000976562</ele>
        <time>2022-03-06T10:11:10.000Z</time>
      </trkpt>
      <trkpt lat="44.43472" lon="6.82978">
        <ele>2311.6000976562</ele>
        <time>2022-03-06T10:11:14.000Z</time>
      </trkpt>
      <trkpt lat="44.43467" lon="6.82971">
        <ele>2311.8000488281</ele>
        <time>2022-03-06T10:11:22.000Z</time>
      </trkpt>
      <trkpt lat="44.43462" lon="6.82961">
        <ele>2312.6000976562</ele>
        <time>2022-03-06T10:11:31.000Z</time>
      </trkpt>
      <trkpt lat="44.43458" lon="6.82953">
        <ele>2312.3999023438</ele>
        <time>2022-03-06T10:11:39.000Z</time>
      </trkpt>
      <trkpt lat="44.43455" lon="6.82951">
        <ele>2312.8000488281</ele>
        <time>2022-03-06T10:11:42.000Z</time>
      </trkpt>
      <trkpt lat="44.43451" lon="6.82945">
        <ele>2312.8000488281</ele>
        <time>2022-03-06T10:11:48.000Z</time>
      </trkpt>
      <trkpt lat="44.43445" lon="6.82936">
        <ele>2312.3999023438</ele>
        <time>2022-03-06T10:11:57.000Z</time>
      </trkpt>
      <trkpt lat="44.4344" lon="6.82931">
        <ele>2313</ele>
        <time>2022-03-06T10:12:05.000Z</time>
      </trkpt>
      <trkpt lat="44.43434" lon="6.82922">
        <ele>2313.6000976562</ele>
        <time>2022-03-06T10:12:15.000Z</time>
      </trkpt>
      <trkpt lat="44.43433" lon="6.8292">
        <ele>2313.8000488281</ele>
        <time>2022-03-06T10:12:17.000Z</time>
      </trkpt>
      <trkpt lat="44.43428" lon="6.82915">
        <ele>2314.8000488281</ele>
        <time>2022-03-06T10:12:25.000Z</time>
      </trkpt>
      <trkpt lat="44.43427" lon="6.82915">
        <ele>2315</ele>
        <time>2022-03-06T10:12:26.000Z</time>
      </trkpt>
      <trkpt lat="44.43423" lon="6.82909">
        <ele>2315.3999023438</ele>
        <time>2022-03-06T10:12:32.000Z</time>
      </trkpt>
      <trkpt lat="44.43422" lon="6.82902">
        <ele>2316</ele>
        <time>2022-03-06T10:12:37.000Z</time>
      </trkpt>
      <trkpt lat="44.4342" lon="6.82901">
        <ele>2316.3999023438</ele>
        <time>2022-03-06T10:12:40.000Z</time>
      </trkpt>
      <trkpt lat="44.43417" lon="6.82897">
        <ele>2317.1999511719</ele>
        <time>2022-03-06T10:12:44.000Z</time>
      </trkpt>
      <trkpt lat="44.43414" lon="6.82891">
        <ele>2318.1999511719</ele>
        <time>2022-03-06T10:12:52.000Z</time>
      </trkpt>
      <trkpt lat="44.43413" lon="6.8289">
        <ele>2318.1999511719</ele>
        <time>2022-03-06T10:12:53.000Z</time>
      </trkpt>
      <trkpt lat="44.43409" lon="6.82882">
        <ele>2319</ele>
        <time>2022-03-06T10:13:02.000Z</time>
      </trkpt>
      <trkpt lat="44.43408" lon="6.8288">
        <ele>2319.3999023438</ele>
        <time>2022-03-06T10:13:05.000Z</time>
      </trkpt>
      <trkpt lat="44.43403" lon="6.82875">
        <ele>2320.1999511719</ele>
        <time>2022-03-06T10:13:12.000Z</time>
      </trkpt>
      <trkpt lat="44.43403" lon="6.82874">
        <ele>2320.3999023438</ele>
        <time>2022-03-06T10:13:13.000Z</time>
      </trkpt>
      <trkpt lat="44.43399" lon="6.82865">
        <ele>2321.3999023438</ele>
        <time>2022-03-06T10:13:22.000Z</time>
      </trkpt>
      <trkpt lat="44.43399" lon="6.82864">
        <ele>2321.3999023438</ele>
        <time>2022-03-06T10:13:23.000Z</time>
      </trkpt>
      <trkpt lat="44.43395" lon="6.82858">
        <ele>2322</ele>
        <time>2022-03-06T10:13:30.000Z</time>
      </trkpt>
      <trkpt lat="44.43394" lon="6.82852">
        <ele>2322.6000976562</ele>
        <time>2022-03-06T10:13:36.000Z</time>
      </trkpt>
      <trkpt lat="44.43392" lon="6.82849">
        <ele>2322.6000976562</ele>
        <time>2022-03-06T10:13:39.000Z</time>
      </trkpt>
      <trkpt lat="44.43389" lon="6.82841">
        <ele>2323.6000976562</ele>
        <time>2022-03-06T10:13:46.000Z</time>
      </trkpt>
      <trkpt lat="44.43389" lon="6.82841">
        <ele>2323.6000976562</ele>
        <time>2022-03-06T10:13:47.000Z</time>
      </trkpt>
      <trkpt lat="44.43384" lon="6.82836">
        <ele>2324.1999511719</ele>
        <time>2022-03-06T10:13:54.000Z</time>
      </trkpt>
      <trkpt lat="44.4338" lon="6.8283">
        <ele>2324.6000976562</ele>
        <time>2022-03-06T10:14:02.000Z</time>
      </trkpt>
      <trkpt lat="44.43374" lon="6.82824">
        <ele>2325.3999023438</ele>
        <time>2022-03-06T10:14:11.000Z</time>
      </trkpt>
      <trkpt lat="44.43373" lon="6.82822">
        <ele>2325.8000488281</ele>
        <time>2022-03-06T10:14:13.000Z</time>
      </trkpt>
      <trkpt lat="44.4337" lon="6.82819">
        <ele>2326.1999511719</ele>
        <time>2022-03-06T10:14:18.000Z</time>
      </trkpt>
      <trkpt lat="44.43366" lon="6.8281">
        <ele>2326.8000488281</ele>
        <time>2022-03-06T10:14:26.000Z</time>
      </trkpt>
      <trkpt lat="44.43365" lon="6.82803">
        <ele>2327</ele>
        <time>2022-03-06T10:14:30.000Z</time>
      </trkpt>
      <trkpt lat="44.43362" lon="6.82793">
        <ele>2327.6000976562</ele>
        <time>2022-03-06T10:14:39.000Z</time>
      </trkpt>
      <trkpt lat="44.43358" lon="6.82791">
        <ele>2327.8000488281</ele>
        <time>2022-03-06T10:14:43.000Z</time>
      </trkpt>
      <trkpt lat="44.43356" lon="6.8279">
        <ele>2328.6000976562</ele>
        <time>2022-03-06T10:14:47.000Z</time>
      </trkpt>
      <trkpt lat="44.43353" lon="6.82784">
        <ele>2329</ele>
        <time>2022-03-06T10:14:53.000Z</time>
      </trkpt>
      <trkpt lat="44.43352" lon="6.82782">
        <ele>2329.1999511719</ele>
        <time>2022-03-06T10:14:55.000Z</time>
      </trkpt>
      <trkpt lat="44.43347" lon="6.82777">
        <ele>2329.8000488281</ele>
        <time>2022-03-06T10:15:03.000Z</time>
      </trkpt>
      <trkpt lat="44.43343" lon="6.82774">
        <ele>2330</ele>
        <time>2022-03-06T10:15:08.000Z</time>
      </trkpt>
      <trkpt lat="44.43343" lon="6.82773">
        <ele>2330</ele>
        <time>2022-03-06T10:15:10.000Z</time>
      </trkpt>
      <trkpt lat="44.43339" lon="6.82757">
        <ele>2331</ele>
        <time>2022-03-06T10:15:21.000Z</time>
      </trkpt>
      <trkpt lat="44.43339" lon="6.82755">
        <ele>2331.1999511719</ele>
        <time>2022-03-06T10:15:22.000Z</time>
      </trkpt>
      <trkpt lat="44.43335" lon="6.82746">
        <ele>2331.8000488281</ele>
        <time>2022-03-06T10:15:31.000Z</time>
      </trkpt>
      <trkpt lat="44.43333" lon="6.82742">
        <ele>2332</ele>
        <time>2022-03-06T10:15:36.000Z</time>
      </trkpt>
      <trkpt lat="44.43331" lon="6.82739">
        <ele>2332.1999511719</ele>
        <time>2022-03-06T10:15:39.000Z</time>
      </trkpt>
      <trkpt lat="44.43326" lon="6.8273">
        <ele>2333</ele>
        <time>2022-03-06T10:15:49.000Z</time>
      </trkpt>
      <trkpt lat="44.43325" lon="6.82728">
        <ele>2333.1999511719</ele>
        <time>2022-03-06T10:15:50.000Z</time>
      </trkpt>
      <trkpt lat="44.43322" lon="6.82722">
        <ele>2333.3999023438</ele>
        <time>2022-03-06T10:15:56.000Z</time>
      </trkpt>
      <trkpt lat="44.43317" lon="6.82714">
        <ele>2334.1999511719</ele>
        <time>2022-03-06T10:16:05.000Z</time>
      </trkpt>
      <trkpt lat="44.43316" lon="6.82705">
        <ele>2334.6000976562</ele>
        <time>2022-03-06T10:16:12.000Z</time>
      </trkpt>
      <trkpt lat="44.4331" lon="6.82702">
        <ele>2335.1999511719</ele>
        <time>2022-03-06T10:16:19.000Z</time>
      </trkpt>
      <trkpt lat="44.43309" lon="6.827">
        <ele>2335.6000976562</ele>
        <time>2022-03-06T10:16:21.000Z</time>
      </trkpt>
      <trkpt lat="44.43305" lon="6.82693">
        <ele>2336</ele>
        <time>2022-03-06T10:16:28.000Z</time>
      </trkpt>
      <trkpt lat="44.43304" lon="6.82692">
        <ele>2336.1999511719</ele>
        <time>2022-03-06T10:16:29.000Z</time>
      </trkpt>
      <trkpt lat="44.43303" lon="6.82691">
        <ele>2336.3999023438</ele>
        <time>2022-03-06T10:16:31.000Z</time>
      </trkpt>
      <trkpt lat="44.43301" lon="6.82689">
        <ele>2336.6000976562</ele>
        <time>2022-03-06T10:16:35.000Z</time>
      </trkpt>
      <trkpt lat="44.433" lon="6.82686">
        <ele>2337</ele>
        <time>2022-03-06T10:16:38.000Z</time>
      </trkpt>
      <trkpt lat="44.43297" lon="6.82684">
        <ele>2337.3999023438</ele>
        <time>2022-03-06T10:16:42.000Z</time>
      </trkpt>
      <trkpt lat="44.43294" lon="6.82679">
        <ele>2338</ele>
        <time>2022-03-06T10:16:48.000Z</time>
      </trkpt>
      <trkpt lat="44.4329" lon="6.82672">
        <ele>2338.3999023438</ele>
        <time>2022-03-06T10:16:56.000Z</time>
      </trkpt>
      <trkpt lat="44.43289" lon="6.82671">
        <ele>2338.6000976562</ele>
        <time>2022-03-06T10:16:58.000Z</time>
      </trkpt>
      <trkpt lat="44.43287" lon="6.82666">
        <ele>2339</ele>
        <time>2022-03-06T10:17:04.000Z</time>
      </trkpt>
      <trkpt lat="44.43284" lon="6.82662">
        <ele>2339.1999511719</ele>
        <time>2022-03-06T10:17:10.000Z</time>
      </trkpt>
      <trkpt lat="44.43281" lon="6.82659">
        <ele>2339.6000976562</ele>
        <time>2022-03-06T10:17:14.000Z</time>
      </trkpt>
      <trkpt lat="44.4328" lon="6.82658">
        <ele>2339.6000976562</ele>
        <time>2022-03-06T10:17:15.000Z</time>
      </trkpt>
      <trkpt lat="44.43275" lon="6.82651">
        <ele>2340.6000976562</ele>
        <time>2022-03-06T10:17:25.000Z</time>
      </trkpt>
      <trkpt lat="44.43268" lon="6.82645">
        <ele>2341.6000976562</ele>
        <time>2022-03-06T10:17:36.000Z</time>
      </trkpt>
      <trkpt lat="44.43267" lon="6.82644">
        <ele>2341.8000488281</ele>
        <time>2022-03-06T10:17:37.000Z</time>
      </trkpt>
      <trkpt lat="44.43261" lon="6.82638">
        <ele>2342.3999023438</ele>
        <time>2022-03-06T10:17:46.000Z</time>
      </trkpt>
      <trkpt lat="44.43258" lon="6.82634">
        <ele>2342.8000488281</ele>
        <time>2022-03-06T10:17:51.000Z</time>
      </trkpt>
      <trkpt lat="44.43257" lon="6.82632">
        <ele>2342.8000488281</ele>
        <time>2022-03-06T10:17:54.000Z</time>
      </trkpt>
      <trkpt lat="44.43251" lon="6.82624">
        <ele>2343.8000488281</ele>
        <time>2022-03-06T10:18:04.000Z</time>
      </trkpt>
      <trkpt lat="44.43248" lon="6.82621">
        <ele>2344</ele>
        <time>2022-03-06T10:18:08.000Z</time>
      </trkpt>
      <trkpt lat="44.43246" lon="6.82615">
        <ele>2344</ele>
        <time>2022-03-06T10:18:13.000Z</time>
      </trkpt>
      <trkpt lat="44.43244" lon="6.82611">
        <ele>2344.1999511719</ele>
        <time>2022-03-06T10:18:16.000Z</time>
      </trkpt>
      <trkpt lat="44.43241" lon="6.82606">
        <ele>2344.8000488281</ele>
        <time>2022-03-06T10:18:22.000Z</time>
      </trkpt>
      <trkpt lat="44.43236" lon="6.82602">
        <ele>2345.6000976562</ele>
        <time>2022-03-06T10:18:28.000Z</time>
      </trkpt>
      <trkpt lat="44.43234" lon="6.82598">
        <ele>2345.8000488281</ele>
        <time>2022-03-06T10:18:33.000Z</time>
      </trkpt>
      <trkpt lat="44.43234" lon="6.82597">
        <ele>2345.8000488281</ele>
        <time>2022-03-06T10:18:34.000Z</time>
      </trkpt>
      <trkpt lat="44.43233" lon="6.82598">
        <ele>2346</ele>
        <time>2022-03-06T10:18:35.000Z</time>
      </trkpt>
      <trkpt lat="44.43228" lon="6.82595">
        <ele>2346.1999511719</ele>
        <time>2022-03-06T10:18:41.000Z</time>
      </trkpt>
      <trkpt lat="44.43227" lon="6.82592">
        <ele>2346.6000976562</ele>
        <time>2022-03-06T10:18:44.000Z</time>
      </trkpt>
      <trkpt lat="44.4322" lon="6.82588">
        <ele>2346.6000976562</ele>
        <time>2022-03-06T10:18:52.000Z</time>
      </trkpt>
      <trkpt lat="44.43214" lon="6.82584">
        <ele>2346.8000488281</ele>
        <time>2022-03-06T10:19:00.000Z</time>
      </trkpt>
      <trkpt lat="44.4321" lon="6.8258">
        <ele>2347</ele>
        <time>2022-03-06T10:19:05.000Z</time>
      </trkpt>
      <trkpt lat="44.43209" lon="6.82579">
        <ele>2347.1999511719</ele>
        <time>2022-03-06T10:19:07.000Z</time>
      </trkpt>
      <trkpt lat="44.43208" lon="6.82577">
        <ele>2347.1999511719</ele>
        <time>2022-03-06T10:19:09.000Z</time>
      </trkpt>
      <trkpt lat="44.43204" lon="6.82572">
        <ele>2347.8000488281</ele>
        <time>2022-03-06T10:19:16.000Z</time>
      </trkpt>
      <trkpt lat="44.43203" lon="6.82569">
        <ele>2348</ele>
        <time>2022-03-06T10:19:19.000Z</time>
      </trkpt>
      <trkpt lat="44.432" lon="6.82565">
        <ele>2348.3999023438</ele>
        <time>2022-03-06T10:19:23.000Z</time>
      </trkpt>
      <trkpt lat="44.43198" lon="6.82564">
        <ele>2348.8000488281</ele>
        <time>2022-03-06T10:19:27.000Z</time>
      </trkpt>
      <trkpt lat="44.43193" lon="6.82559">
        <ele>2349.1999511719</ele>
        <time>2022-03-06T10:19:35.000Z</time>
      </trkpt>
      <trkpt lat="44.43191" lon="6.82558">
        <ele>2349.6000976562</ele>
        <time>2022-03-06T10:19:38.000Z</time>
      </trkpt>
      <trkpt lat="44.43186" lon="6.8255">
        <ele>2350.1999511719</ele>
        <time>2022-03-06T10:19:47.000Z</time>
      </trkpt>
      <trkpt lat="44.43184" lon="6.82545">
        <ele>2350.6000976562</ele>
        <time>2022-03-06T10:19:51.000Z</time>
      </trkpt>
      <trkpt lat="44.4318" lon="6.8254">
        <ele>2351.1999511719</ele>
        <time>2022-03-06T10:19:58.000Z</time>
      </trkpt>
      <trkpt lat="44.43178" lon="6.82537">
        <ele>2351.6000976562</ele>
        <time>2022-03-06T10:20:03.000Z</time>
      </trkpt>
      <trkpt lat="44.43176" lon="6.82534">
        <ele>2352.3999023438</ele>
        <time>2022-03-06T10:20:07.000Z</time>
      </trkpt>
      <trkpt lat="44.4317" lon="6.82526">
        <ele>2353.3999023438</ele>
        <time>2022-03-06T10:20:17.000Z</time>
      </trkpt>
      <trkpt lat="44.43169" lon="6.82526">
        <ele>2353.6000976562</ele>
        <time>2022-03-06T10:20:18.000Z</time>
      </trkpt>
      <trkpt lat="44.43165" lon="6.82519">
        <ele>2354.6000976562</ele>
        <time>2022-03-06T10:20:27.000Z</time>
      </trkpt>
      <trkpt lat="44.43164" lon="6.82518">
        <ele>2354.6000976562</ele>
        <time>2022-03-06T10:20:28.000Z</time>
      </trkpt>
      <trkpt lat="44.43161" lon="6.82512">
        <ele>2355.1999511719</ele>
        <time>2022-03-06T10:20:36.000Z</time>
      </trkpt>
      <trkpt lat="44.4316" lon="6.82509">
        <ele>2355.8000488281</ele>
        <time>2022-03-06T10:20:39.000Z</time>
      </trkpt>
      <trkpt lat="44.43157" lon="6.82505">
        <ele>2356.6000976562</ele>
        <time>2022-03-06T10:20:45.000Z</time>
      </trkpt>
      <trkpt lat="44.43156" lon="6.82503">
        <ele>2356.8000488281</ele>
        <time>2022-03-06T10:20:48.000Z</time>
      </trkpt>
      <trkpt lat="44.43154" lon="6.825">
        <ele>2357</ele>
        <time>2022-03-06T10:20:52.000Z</time>
      </trkpt>
      <trkpt lat="44.43153" lon="6.82496">
        <ele>2357.1999511719</ele>
        <time>2022-03-06T10:20:56.000Z</time>
      </trkpt>
      <trkpt lat="44.43151" lon="6.82493">
        <ele>2357.8000488281</ele>
        <time>2022-03-06T10:20:59.000Z</time>
      </trkpt>
      <trkpt lat="44.43151" lon="6.82492">
        <ele>2358</ele>
        <time>2022-03-06T10:21:00.000Z</time>
      </trkpt>
      <trkpt lat="44.43145" lon="6.82483">
        <ele>2358.8000488281</ele>
        <time>2022-03-06T10:21:10.000Z</time>
      </trkpt>
      <trkpt lat="44.43144" lon="6.82483">
        <ele>2359</ele>
        <time>2022-03-06T10:21:11.000Z</time>
      </trkpt>
      <trkpt lat="44.43143" lon="6.82475">
        <ele>2359.6000976562</ele>
        <time>2022-03-06T10:21:19.000Z</time>
      </trkpt>
      <trkpt lat="44.43142" lon="6.82476">
        <ele>2359.8000488281</ele>
        <time>2022-03-06T10:21:25.000Z</time>
      </trkpt>
      <trkpt lat="44.43141" lon="6.82476">
        <ele>2360</ele>
        <time>2022-03-06T10:21:28.000Z</time>
      </trkpt>
      <trkpt lat="44.43141" lon="6.82475">
        <ele>2360.1999511719</ele>
        <time>2022-03-06T10:21:33.000Z</time>
      </trkpt>
      <trkpt lat="44.43142" lon="6.82476">
        <ele>2359.8000488281</ele>
        <time>2022-03-06T10:21:53.000Z</time>
      </trkpt>
      <trkpt lat="44.43143" lon="6.82482">
        <ele>2359.8000488281</ele>
        <time>2022-03-06T10:22:10.000Z</time>
      </trkpt>
      <trkpt lat="44.43144" lon="6.82483">
        <ele>2359.3999023438</ele>
        <time>2022-03-06T10:22:25.000Z</time>
      </trkpt>
      <trkpt lat="44.43143" lon="6.82483">
        <ele>2359.1999511719</ele>
        <time>2022-03-06T10:22:46.000Z</time>
      </trkpt>
      <trkpt lat="44.43142" lon="6.82483">
        <ele>2359.3999023438</ele>
        <time>2022-03-06T10:22:49.000Z</time>
      </trkpt>
      <trkpt lat="44.43141" lon="6.82481">
        <ele>2359.1999511719</ele>
        <time>2022-03-06T10:22:57.000Z</time>
      </trkpt>
      <trkpt lat="44.43141" lon="6.82474">
        <ele>2359.1999511719</ele>
        <time>2022-03-06T10:24:27.000Z</time>
      </trkpt>
      <trkpt lat="44.43143" lon="6.82476">
        <ele>2359.6000976562</ele>
        <time>2022-03-06T10:26:10.000Z</time>
      </trkpt>
      <trkpt lat="44.43143" lon="6.82476">
        <ele>2359</ele>
        <time>2022-03-06T10:26:30.000Z</time>
      </trkpt>
      <trkpt lat="44.43142" lon="6.82476">
        <ele>2359</ele>
        <time>2022-03-06T10:26:59.000Z</time>
      </trkpt>
      <trkpt lat="44.43141" lon="6.82475">
        <ele>2358.8000488281</ele>
        <time>2022-03-06T10:27:01.000Z</time>
      </trkpt>
      <trkpt lat="44.43142" lon="6.82474">
        <ele>2358.8000488281</ele>
        <time>2022-03-06T10:27:02.000Z</time>
      </trkpt>
      <trkpt lat="44.43144" lon="6.82471">
        <ele>2359</ele>
        <time>2022-03-06T10:27:10.000Z</time>
      </trkpt>
      <trkpt lat="44.43142" lon="6.82473">
        <ele>2358.8000488281</ele>
        <time>2022-03-06T10:27:35.000Z</time>
      </trkpt>
      <trkpt lat="44.43143" lon="6.82472">
        <ele>2359.1999511719</ele>
        <time>2022-03-06T10:29:55.000Z</time>
      </trkpt>
      <trkpt lat="44.43142" lon="6.82477">
        <ele>2358.8000488281</ele>
        <time>2022-03-06T10:30:07.000Z</time>
      </trkpt>
      <trkpt lat="44.43143" lon="6.82473">
        <ele>2359.1999511719</ele>
        <time>2022-03-06T10:30:53.000Z</time>
      </trkpt>
      <trkpt lat="44.4314" lon="6.82476">
        <ele>2359.3999023438</ele>
        <time>2022-03-06T10:31:34.000Z</time>
      </trkpt>
      <trkpt lat="44.43137" lon="6.82479">
        <ele>2359.3999023438</ele>
        <time>2022-03-06T10:31:40.000Z</time>
      </trkpt>
      <trkpt lat="44.43137" lon="6.82478">
        <ele>2358.6000976562</ele>
        <time>2022-03-06T10:31:48.000Z</time>
      </trkpt>
      <trkpt lat="44.43137" lon="6.8248">
        <ele>2358.6000976562</ele>
        <time>2022-03-06T10:31:57.000Z</time>
      </trkpt>
      <trkpt lat="44.43137" lon="6.82479">
        <ele>2359</ele>
        <time>2022-03-06T10:32:06.000Z</time>
      </trkpt>
      <trkpt lat="44.43138" lon="6.82477">
        <ele>2359</ele>
        <time>2022-03-06T10:32:13.000Z</time>
      </trkpt>
      <trkpt lat="44.43138" lon="6.82477">
        <ele>2359.1999511719</ele>
        <time>2022-03-06T10:32:18.000Z</time>
      </trkpt>
      <trkpt lat="44.43136" lon="6.82477">
        <ele>2359.1999511719</ele>
        <time>2022-03-06T10:32:24.000Z</time>
      </trkpt>
      <trkpt lat="44.43137" lon="6.82477">
        <ele>2359.1999511719</ele>
        <time>2022-03-06T10:32:27.000Z</time>
      </trkpt>
      <trkpt lat="44.43139" lon="6.82477">
        <ele>2359.1999511719</ele>
        <time>2022-03-06T10:32:29.000Z</time>
      </trkpt>
      <trkpt lat="44.43142" lon="6.82473">
        <ele>2359.1999511719</ele>
        <time>2022-03-06T10:32:37.000Z</time>
      </trkpt>
      <trkpt lat="44.43142" lon="6.82473">
        <ele>2359.1999511719</ele>
        <time>2022-03-06T10:32:45.000Z</time>
      </trkpt>
      <trkpt lat="44.4316" lon="6.82465">
        <ele>2359</ele>
        <time>2022-03-06T10:33:27.000Z</time>
      </trkpt>
      <trkpt lat="44.43172" lon="6.82453">
        <ele>2358.8000488281</ele>
        <time>2022-03-06T10:33:30.000Z</time>
      </trkpt>
      <trkpt lat="44.43176" lon="6.82449">
        <ele>2358.8000488281</ele>
        <time>2022-03-06T10:33:37.000Z</time>
      </trkpt>
      <trkpt lat="44.43162" lon="6.82458">
        <ele>2358.8000488281</ele>
        <time>2022-03-06T10:33:43.000Z</time>
      </trkpt>
      <trkpt lat="44.43161" lon="6.82459">
        <ele>2358.6000976562</ele>
        <time>2022-03-06T10:33:56.000Z</time>
      </trkpt>
      <trkpt lat="44.43162" lon="6.82459">
        <ele>2358.8000488281</ele>
        <time>2022-03-06T10:34:01.000Z</time>
      </trkpt>
      <trkpt lat="44.43154" lon="6.82464">
        <ele>2358.6000976562</ele>
        <time>2022-03-06T10:34:04.000Z</time>
      </trkpt>
      <trkpt lat="44.43155" lon="6.82463">
        <ele>2358.8000488281</ele>
        <time>2022-03-06T10:34:11.000Z</time>
      </trkpt>
      <trkpt lat="44.43154" lon="6.82465">
        <ele>2358.6000976562</ele>
        <time>2022-03-06T10:34:18.000Z</time>
      </trkpt>
      <trkpt lat="44.43153" lon="6.82467">
        <ele>2358.6000976562</ele>
        <time>2022-03-06T10:34:31.000Z</time>
      </trkpt>
      <trkpt lat="44.43151" lon="6.8247">
        <ele>2358.6000976562</ele>
        <time>2022-03-06T10:34:37.000Z</time>
      </trkpt>
      <trkpt lat="44.43154" lon="6.82467">
        <ele>2358.6000976562</ele>
        <time>2022-03-06T10:34:46.000Z</time>
      </trkpt>
      <trkpt lat="44.43154" lon="6.82466">
        <ele>2358.6000976562</ele>
        <time>2022-03-06T10:34:54.000Z</time>
      </trkpt>
      <trkpt lat="44.43151" lon="6.82469">
        <ele>2358.6000976562</ele>
        <time>2022-03-06T10:35:06.000Z</time>
      </trkpt>
      <trkpt lat="44.43157" lon="6.8247">
        <ele>2358.6000976562</ele>
        <time>2022-03-06T10:35:20.000Z</time>
      </trkpt>
      <trkpt lat="44.43158" lon="6.82472">
        <ele>2358.6000976562</ele>
        <time>2022-03-06T10:35:28.000Z</time>
      </trkpt>
      <trkpt lat="44.43159" lon="6.82468">
        <ele>2358.6000976562</ele>
        <time>2022-03-06T10:35:40.000Z</time>
      </trkpt>
      <trkpt lat="44.43167" lon="6.8246">
        <ele>2358.6000976562</ele>
        <time>2022-03-06T10:35:47.000Z</time>
      </trkpt>
      <trkpt lat="44.43168" lon="6.82459">
        <ele>2358.6000976562</ele>
        <time>2022-03-06T10:35:48.000Z</time>
      </trkpt>
      <trkpt lat="44.43173" lon="6.82456">
        <ele>2358.6000976562</ele>
        <time>2022-03-06T10:35:54.000Z</time>
      </trkpt>
      <trkpt lat="44.43175" lon="6.82457">
        <ele>2358.6000976562</ele>
        <time>2022-03-06T10:36:04.000Z</time>
      </trkpt>
      <trkpt lat="44.43172" lon="6.82463">
        <ele>2358.6000976562</ele>
        <time>2022-03-06T10:36:17.000Z</time>
      </trkpt>
      <trkpt lat="44.43168" lon="6.82465">
        <ele>2358.3999023438</ele>
        <time>2022-03-06T10:36:22.000Z</time>
      </trkpt>
      <trkpt lat="44.43167" lon="6.82466">
        <ele>2358.6000976562</ele>
        <time>2022-03-06T10:36:30.000Z</time>
      </trkpt>
      <trkpt lat="44.43159" lon="6.82473">
        <ele>2358.3999023438</ele>
        <time>2022-03-06T10:36:38.000Z</time>
      </trkpt>
      <trkpt lat="44.4315" lon="6.8248">
        <ele>2358.1999511719</ele>
        <time>2022-03-06T10:36:46.000Z</time>
      </trkpt>
      <trkpt lat="44.43149" lon="6.82479">
        <ele>2358.1999511719</ele>
        <time>2022-03-06T10:36:51.000Z</time>
      </trkpt>
      <trkpt lat="44.43149" lon="6.82478">
        <ele>2358.1999511719</ele>
        <time>2022-03-06T10:37:00.000Z</time>
      </trkpt>
      <trkpt lat="44.43147" lon="6.82478">
        <ele>2358.1999511719</ele>
        <time>2022-03-06T10:37:08.000Z</time>
      </trkpt>
      <trkpt lat="44.43146" lon="6.82478">
        <ele>2358.3999023438</ele>
        <time>2022-03-06T10:37:29.000Z</time>
      </trkpt>
      <trkpt lat="44.4314" lon="6.82482">
        <ele>2358.6000976562</ele>
        <time>2022-03-06T10:37:40.000Z</time>
      </trkpt>
      <trkpt lat="44.43141" lon="6.8248">
        <ele>2358.3999023438</ele>
        <time>2022-03-06T10:37:46.000Z</time>
      </trkpt>
      <trkpt lat="44.4314" lon="6.82481">
        <ele>2358.3999023438</ele>
        <time>2022-03-06T10:37:57.000Z</time>
      </trkpt>
      <trkpt lat="44.43136" lon="6.82482">
        <ele>2358.3999023438</ele>
        <time>2022-03-06T10:38:42.000Z</time>
      </trkpt>
      <trkpt lat="44.43138" lon="6.82481">
        <ele>2358.6000976562</ele>
        <time>2022-03-06T10:39:08.000Z</time>
      </trkpt>
      <trkpt lat="44.43136" lon="6.82483">
        <ele>2358.3999023438</ele>
        <time>2022-03-06T10:39:28.000Z</time>
      </trkpt>
      <trkpt lat="44.43134" lon="6.82485">
        <ele>2358.8000488281</ele>
        <time>2022-03-06T10:40:59.000Z</time>
      </trkpt>
      <trkpt lat="44.43133" lon="6.82485">
        <ele>2358.8000488281</ele>
        <time>2022-03-06T10:41:10.000Z</time>
      </trkpt>
      <trkpt lat="44.43132" lon="6.82485">
        <ele>2359</ele>
        <time>2022-03-06T10:41:28.000Z</time>
      </trkpt>
      <trkpt lat="44.43137" lon="6.82482">
        <ele>2358.8000488281</ele>
        <time>2022-03-06T10:41:37.000Z</time>
      </trkpt>
      <trkpt lat="44.43144" lon="6.82476">
        <ele>2358.8000488281</ele>
        <time>2022-03-06T10:41:44.000Z</time>
      </trkpt>
      <trkpt lat="44.43145" lon="6.82475">
        <ele>2358.8000488281</ele>
        <time>2022-03-06T10:41:50.000Z</time>
      </trkpt>
      <trkpt lat="44.43151" lon="6.82473">
        <ele>2358.8000488281</ele>
        <time>2022-03-06T10:42:01.000Z</time>
      </trkpt>
      <trkpt lat="44.43151" lon="6.82474">
        <ele>2359</ele>
        <time>2022-03-06T10:42:14.000Z</time>
      </trkpt>
      <trkpt lat="44.43146" lon="6.82472">
        <ele>2359</ele>
        <time>2022-03-06T10:43:52.000Z</time>
      </trkpt>
      <trkpt lat="44.43147" lon="6.82472">
        <ele>2359.1999511719</ele>
        <time>2022-03-06T10:44:09.000Z</time>
      </trkpt>
      <trkpt lat="44.43144" lon="6.82476">
        <ele>2359.1999511719</ele>
        <time>2022-03-06T10:44:12.000Z</time>
      </trkpt>
      <trkpt lat="44.43134" lon="6.82482">
        <ele>2359.1999511719</ele>
        <time>2022-03-06T10:44:17.000Z</time>
      </trkpt>
      <trkpt lat="44.43132" lon="6.82483">
        <ele>2359.1999511719</ele>
        <time>2022-03-06T10:44:25.000Z</time>
      </trkpt>
      <trkpt lat="44.43134" lon="6.82481">
        <ele>2359.1999511719</ele>
        <time>2022-03-06T10:44:35.000Z</time>
      </trkpt>
      <trkpt lat="44.43133" lon="6.82482">
        <ele>2360</ele>
        <time>2022-03-06T10:44:47.000Z</time>
      </trkpt>
      <trkpt lat="44.43128" lon="6.82479">
        <ele>2360.8000488281</ele>
        <time>2022-03-06T10:44:54.000Z</time>
      </trkpt>
      <trkpt lat="44.43125" lon="6.82476">
        <ele>2361.1999511719</ele>
        <time>2022-03-06T10:44:58.000Z</time>
      </trkpt>
      <trkpt lat="44.43124" lon="6.82474">
        <ele>2361.6000976562</ele>
        <time>2022-03-06T10:45:00.000Z</time>
      </trkpt>
      <trkpt lat="44.43123" lon="6.82472">
        <ele>2362.1999511719</ele>
        <time>2022-03-06T10:45:05.000Z</time>
      </trkpt>
      <trkpt lat="44.43123" lon="6.82471">
        <ele>2362.6000976562</ele>
        <time>2022-03-06T10:45:07.000Z</time>
      </trkpt>
      <trkpt lat="44.43121" lon="6.82471">
        <ele>2363</ele>
        <time>2022-03-06T10:45:10.000Z</time>
      </trkpt>
      <trkpt lat="44.43121" lon="6.82469">
        <ele>2363.1999511719</ele>
        <time>2022-03-06T10:45:13.000Z</time>
      </trkpt>
      <trkpt lat="44.43122" lon="6.82466">
        <ele>2363.8000488281</ele>
        <time>2022-03-06T10:45:17.000Z</time>
      </trkpt>
      <trkpt lat="44.43119" lon="6.82467">
        <ele>2364.3999023438</ele>
        <time>2022-03-06T10:45:22.000Z</time>
      </trkpt>
      <trkpt lat="44.43119" lon="6.82467">
        <ele>2364.6000976562</ele>
        <time>2022-03-06T10:45:23.000Z</time>
      </trkpt>
      <trkpt lat="44.43116" lon="6.82464">
        <ele>2365.6000976562</ele>
        <time>2022-03-06T10:45:28.000Z</time>
      </trkpt>
      <trkpt lat="44.43115" lon="6.82463">
        <ele>2365.6000976562</ele>
        <time>2022-03-06T10:45:29.000Z</time>
      </trkpt>
      <trkpt lat="44.43116" lon="6.82459">
        <ele>2366.1999511719</ele>
        <time>2022-03-06T10:45:34.000Z</time>
      </trkpt>
      <trkpt lat="44.43118" lon="6.82454">
        <ele>2366.6000976562</ele>
        <time>2022-03-06T10:45:37.000Z</time>
      </trkpt>
      <trkpt lat="44.43119" lon="6.82451">
        <ele>2366.8000488281</ele>
        <time>2022-03-06T10:45:39.000Z</time>
      </trkpt>
      <trkpt lat="44.43115" lon="6.82449">
        <ele>2367.6000976562</ele>
        <time>2022-03-06T10:45:45.000Z</time>
      </trkpt>
      <trkpt lat="44.43113" lon="6.82448">
        <ele>2368</ele>
        <time>2022-03-06T10:45:50.000Z</time>
      </trkpt>
      <trkpt lat="44.4311" lon="6.82446">
        <ele>2368.6000976562</ele>
        <time>2022-03-06T10:45:55.000Z</time>
      </trkpt>
      <trkpt lat="44.4311" lon="6.82445">
        <ele>2368.8000488281</ele>
        <time>2022-03-06T10:45:56.000Z</time>
      </trkpt>
      <trkpt lat="44.43107" lon="6.82442">
        <ele>2369.1999511719</ele>
        <time>2022-03-06T10:46:02.000Z</time>
      </trkpt>
      <trkpt lat="44.43107" lon="6.82438">
        <ele>2369.8000488281</ele>
        <time>2022-03-06T10:46:06.000Z</time>
      </trkpt>
      <trkpt lat="44.43106" lon="6.82435">
        <ele>2370</ele>
        <time>2022-03-06T10:46:09.000Z</time>
      </trkpt>
      <trkpt lat="44.43105" lon="6.82431">
        <ele>2370.6000976562</ele>
        <time>2022-03-06T10:46:15.000Z</time>
      </trkpt>
      <trkpt lat="44.43105" lon="6.82428">
        <ele>2371</ele>
        <time>2022-03-06T10:46:17.000Z</time>
      </trkpt>
      <trkpt lat="44.43106" lon="6.82424">
        <ele>2371.3999023438</ele>
        <time>2022-03-06T10:46:20.000Z</time>
      </trkpt>
      <trkpt lat="44.43105" lon="6.82421">
        <ele>2371.8000488281</ele>
        <time>2022-03-06T10:46:25.000Z</time>
      </trkpt>
      <trkpt lat="44.43105" lon="6.82419">
        <ele>2372</ele>
        <time>2022-03-06T10:46:26.000Z</time>
      </trkpt>
      <trkpt lat="44.43104" lon="6.82415">
        <ele>2373</ele>
        <time>2022-03-06T10:46:33.000Z</time>
      </trkpt>
      <trkpt lat="44.43104" lon="6.82415">
        <ele>2373</ele>
        <time>2022-03-06T10:46:34.000Z</time>
      </trkpt>
      <trkpt lat="44.43104" lon="6.82412">
        <ele>2373.6000976562</ele>
        <time>2022-03-06T10:46:39.000Z</time>
      </trkpt>
      <trkpt lat="44.43103" lon="6.82408">
        <ele>2374</ele>
        <time>2022-03-06T10:46:44.000Z</time>
      </trkpt>
      <trkpt lat="44.43102" lon="6.82406">
        <ele>2374.1999511719</ele>
        <time>2022-03-06T10:46:47.000Z</time>
      </trkpt>
      <trkpt lat="44.431" lon="6.82405">
        <ele>2374.3999023438</ele>
        <time>2022-03-06T10:46:49.000Z</time>
      </trkpt>
      <trkpt lat="44.43099" lon="6.82403">
        <ele>2374.8000488281</ele>
        <time>2022-03-06T10:46:52.000Z</time>
      </trkpt>
      <trkpt lat="44.43099" lon="6.82401">
        <ele>2375.1999511719</ele>
        <time>2022-03-06T10:46:56.000Z</time>
      </trkpt>
      <trkpt lat="44.43099" lon="6.82401">
        <ele>2375.1999511719</ele>
        <time>2022-03-06T10:46:57.000Z</time>
      </trkpt>
      <trkpt lat="44.43098" lon="6.82396">
        <ele>2376</ele>
        <time>2022-03-06T10:47:03.000Z</time>
      </trkpt>
      <trkpt lat="44.43097" lon="6.82393">
        <ele>2376.1999511719</ele>
        <time>2022-03-06T10:47:08.000Z</time>
      </trkpt>
      <trkpt lat="44.43092" lon="6.8239">
        <ele>2377.3999023438</ele>
        <time>2022-03-06T10:47:15.000Z</time>
      </trkpt>
      <trkpt lat="44.43091" lon="6.82389">
        <ele>2377.3999023438</ele>
        <time>2022-03-06T10:47:17.000Z</time>
      </trkpt>
      <trkpt lat="44.43088" lon="6.82385">
        <ele>2377.8000488281</ele>
        <time>2022-03-06T10:47:23.000Z</time>
      </trkpt>
      <trkpt lat="44.43088" lon="6.82385">
        <ele>2377.8000488281</ele>
        <time>2022-03-06T10:47:24.000Z</time>
      </trkpt>
      <trkpt lat="44.43084" lon="6.82383">
        <ele>2378.1999511719</ele>
        <time>2022-03-06T10:47:29.000Z</time>
      </trkpt>
      <trkpt lat="44.43084" lon="6.82381">
        <ele>2378.3999023438</ele>
        <time>2022-03-06T10:47:31.000Z</time>
      </trkpt>
      <trkpt lat="44.43084" lon="6.82379">
        <ele>2378.8000488281</ele>
        <time>2022-03-06T10:47:35.000Z</time>
      </trkpt>
      <trkpt lat="44.4308" lon="6.82378">
        <ele>2379.3999023438</ele>
        <time>2022-03-06T10:47:39.000Z</time>
      </trkpt>
      <trkpt lat="44.4308" lon="6.82377">
        <ele>2379.3999023438</ele>
        <time>2022-03-06T10:47:40.000Z</time>
      </trkpt>
      <trkpt lat="44.43076" lon="6.82374">
        <ele>2379.8000488281</ele>
        <time>2022-03-06T10:47:46.000Z</time>
      </trkpt>
      <trkpt lat="44.43074" lon="6.82373">
        <ele>2380.3999023438</ele>
        <time>2022-03-06T10:47:50.000Z</time>
      </trkpt>
      <trkpt lat="44.43072" lon="6.82373">
        <ele>2380.6000976562</ele>
        <time>2022-03-06T10:47:52.000Z</time>
      </trkpt>
      <trkpt lat="44.4307" lon="6.82372">
        <ele>2380.8000488281</ele>
        <time>2022-03-06T10:47:54.000Z</time>
      </trkpt>
      <trkpt lat="44.43069" lon="6.8237">
        <ele>2380.8000488281</ele>
        <time>2022-03-06T10:47:56.000Z</time>
      </trkpt>
      <trkpt lat="44.43068" lon="6.82369">
        <ele>2381</ele>
        <time>2022-03-06T10:47:58.000Z</time>
      </trkpt>
      <trkpt lat="44.43064" lon="6.82368">
        <ele>2381.6000976562</ele>
        <time>2022-03-06T10:48:02.000Z</time>
      </trkpt>
      <trkpt lat="44.43063" lon="6.82368">
        <ele>2381.6000976562</ele>
        <time>2022-03-06T10:48:03.000Z</time>
      </trkpt>
      <trkpt lat="44.43062" lon="6.82368">
        <ele>2381.8000488281</ele>
        <time>2022-03-06T10:48:04.000Z</time>
      </trkpt>
      <trkpt lat="44.4306" lon="6.82366">
        <ele>2382.3999023438</ele>
        <time>2022-03-06T10:48:07.000Z</time>
      </trkpt>
      <trkpt lat="44.43059" lon="6.82365">
        <ele>2382.6000976562</ele>
        <time>2022-03-06T10:48:10.000Z</time>
      </trkpt>
      <trkpt lat="44.43058" lon="6.82363">
        <ele>2383</ele>
        <time>2022-03-06T10:48:13.000Z</time>
      </trkpt>
      <trkpt lat="44.43056" lon="6.82359">
        <ele>2383.3999023438</ele>
        <time>2022-03-06T10:48:18.000Z</time>
      </trkpt>
      <trkpt lat="44.43055" lon="6.82356">
        <ele>2383.8000488281</ele>
        <time>2022-03-06T10:48:20.000Z</time>
      </trkpt>
      <trkpt lat="44.43054" lon="6.82353">
        <ele>2384.1999511719</ele>
        <time>2022-03-06T10:48:23.000Z</time>
      </trkpt>
      <trkpt lat="44.43053" lon="6.82349">
        <ele>2384.8000488281</ele>
        <time>2022-03-06T10:48:28.000Z</time>
      </trkpt>
      <trkpt lat="44.43052" lon="6.82347">
        <ele>2385.1999511719</ele>
        <time>2022-03-06T10:48:31.000Z</time>
      </trkpt>
      <trkpt lat="44.4305" lon="6.82346">
        <ele>2385.3999023438</ele>
        <time>2022-03-06T10:48:33.000Z</time>
      </trkpt>
      <trkpt lat="44.43047" lon="6.82343">
        <ele>2385.8000488281</ele>
        <time>2022-03-06T10:48:38.000Z</time>
      </trkpt>
      <trkpt lat="44.43047" lon="6.82341">
        <ele>2386.3999023438</ele>
        <time>2022-03-06T10:48:41.000Z</time>
      </trkpt>
      <trkpt lat="44.43047" lon="6.82339">
        <ele>2387</ele>
        <time>2022-03-06T10:48:44.000Z</time>
      </trkpt>
      <trkpt lat="44.43046" lon="6.82334">
        <ele>2387.1999511719</ele>
        <time>2022-03-06T10:48:49.000Z</time>
      </trkpt>
      <trkpt lat="44.43044" lon="6.82334">
        <ele>2387.8000488281</ele>
        <time>2022-03-06T10:48:51.000Z</time>
      </trkpt>
      <trkpt lat="44.43044" lon="6.82331">
        <ele>2388</ele>
        <time>2022-03-06T10:48:53.000Z</time>
      </trkpt>
      <trkpt lat="44.43044" lon="6.82331">
        <ele>2388</ele>
        <time>2022-03-06T10:48:54.000Z</time>
      </trkpt>
      <trkpt lat="44.43042" lon="6.8233">
        <ele>2388.3999023438</ele>
        <time>2022-03-06T10:48:58.000Z</time>
      </trkpt>
      <trkpt lat="44.43041" lon="6.82325">
        <ele>2389.1999511719</ele>
        <time>2022-03-06T10:49:04.000Z</time>
      </trkpt>
      <trkpt lat="44.43041" lon="6.82323">
        <ele>2389.6000976562</ele>
        <time>2022-03-06T10:49:06.000Z</time>
      </trkpt>
      <trkpt lat="44.43041" lon="6.8232">
        <ele>2390.1999511719</ele>
        <time>2022-03-06T10:49:11.000Z</time>
      </trkpt>
      <trkpt lat="44.43042" lon="6.82319">
        <ele>2390.1999511719</ele>
        <time>2022-03-06T10:49:12.000Z</time>
      </trkpt>
      <trkpt lat="44.43043" lon="6.82318">
        <ele>2390.3999023438</ele>
        <time>2022-03-06T10:49:13.000Z</time>
      </trkpt>
      <trkpt lat="44.43043" lon="6.82317">
        <ele>2390.8000488281</ele>
        <time>2022-03-06T10:49:14.000Z</time>
      </trkpt>
      <trkpt lat="44.43043" lon="6.82318">
        <ele>2391.3999023438</ele>
        <time>2022-03-06T10:49:18.000Z</time>
      </trkpt>
      <trkpt lat="44.43045" lon="6.82316">
        <ele>2392.1999511719</ele>
        <time>2022-03-06T10:49:23.000Z</time>
      </trkpt>
      <trkpt lat="44.43043" lon="6.82317">
        <ele>2392.6000976562</ele>
        <time>2022-03-06T10:49:26.000Z</time>
      </trkpt>
      <trkpt lat="44.43044" lon="6.82316">
        <ele>2392.8000488281</ele>
        <time>2022-03-06T10:49:28.000Z</time>
      </trkpt>
      <trkpt lat="44.43041" lon="6.82316">
        <ele>2393.1999511719</ele>
        <time>2022-03-06T10:49:30.000Z</time>
      </trkpt>
      <trkpt lat="44.43041" lon="6.82317">
        <ele>2393.6000976562</ele>
        <time>2022-03-06T10:49:33.000Z</time>
      </trkpt>
      <trkpt lat="44.4304" lon="6.82318">
        <ele>2394.3999023438</ele>
        <time>2022-03-06T10:49:39.000Z</time>
      </trkpt>
      <trkpt lat="44.4304" lon="6.82318">
        <ele>2394.6000976562</ele>
        <time>2022-03-06T10:49:40.000Z</time>
      </trkpt>
      <trkpt lat="44.43038" lon="6.82316">
        <ele>2395.6000976562</ele>
        <time>2022-03-06T10:49:48.000Z</time>
      </trkpt>
      <trkpt lat="44.43038" lon="6.82316">
        <ele>2395.8000488281</ele>
        <time>2022-03-06T10:49:49.000Z</time>
      </trkpt>
      <trkpt lat="44.43035" lon="6.82317">
        <ele>2396.8000488281</ele>
        <time>2022-03-06T10:49:55.000Z</time>
      </trkpt>
      <trkpt lat="44.43032" lon="6.82318">
        <ele>2397.8000488281</ele>
        <time>2022-03-06T10:49:59.000Z</time>
      </trkpt>
      <trkpt lat="44.43031" lon="6.82318">
        <ele>2398.6000976562</ele>
        <time>2022-03-06T10:50:04.000Z</time>
      </trkpt>
      <trkpt lat="44.43029" lon="6.82318">
        <ele>2399</ele>
        <time>2022-03-06T10:50:06.000Z</time>
      </trkpt>
      <trkpt lat="44.43027" lon="6.82318">
        <ele>2400</ele>
        <time>2022-03-06T10:50:12.000Z</time>
      </trkpt>
      <trkpt lat="44.43025" lon="6.82315">
        <ele>2401.1999511719</ele>
        <time>2022-03-06T10:50:17.000Z</time>
      </trkpt>
      <trkpt lat="44.43024" lon="6.82313">
        <ele>2401.3999023438</ele>
        <time>2022-03-06T10:50:19.000Z</time>
      </trkpt>
      <trkpt lat="44.43019" lon="6.82312">
        <ele>2402</ele>
        <time>2022-03-06T10:50:26.000Z</time>
      </trkpt>
      <trkpt lat="44.43018" lon="6.82311">
        <ele>2402.1999511719</ele>
        <time>2022-03-06T10:50:28.000Z</time>
      </trkpt>
      <trkpt lat="44.43017" lon="6.82311">
        <ele>2402.8000488281</ele>
        <time>2022-03-06T10:50:31.000Z</time>
      </trkpt>
      <trkpt lat="44.43016" lon="6.82312">
        <ele>2403.3999023438</ele>
        <time>2022-03-06T10:50:33.000Z</time>
      </trkpt>
      <trkpt lat="44.43011" lon="6.82314">
        <ele>2404.1999511719</ele>
        <time>2022-03-06T10:50:38.000Z</time>
      </trkpt>
      <trkpt lat="44.4301" lon="6.82314">
        <ele>2404.3999023438</ele>
        <time>2022-03-06T10:50:39.000Z</time>
      </trkpt>
      <trkpt lat="44.43001" lon="6.82318">
        <ele>2405.3999023438</ele>
        <time>2022-03-06T10:50:46.000Z</time>
      </trkpt>
      <trkpt lat="44.43" lon="6.82318">
        <ele>2405.3999023438</ele>
        <time>2022-03-06T10:50:47.000Z</time>
      </trkpt>
      <trkpt lat="44.43001" lon="6.8232">
        <ele>2406.1999511719</ele>
        <time>2022-03-06T10:50:53.000Z</time>
      </trkpt>
      <trkpt lat="44.42999" lon="6.82322">
        <ele>2406.6000976562</ele>
        <time>2022-03-06T10:50:56.000Z</time>
      </trkpt>
      <trkpt lat="44.42997" lon="6.82323">
        <ele>2406.8000488281</ele>
        <time>2022-03-06T10:50:58.000Z</time>
      </trkpt>
      <trkpt lat="44.42996" lon="6.82324">
        <ele>2407</ele>
        <time>2022-03-06T10:51:01.000Z</time>
      </trkpt>
      <trkpt lat="44.42996" lon="6.82323">
        <ele>2407.1999511719</ele>
        <time>2022-03-06T10:51:02.000Z</time>
      </trkpt>
      <trkpt lat="44.42995" lon="6.82322">
        <ele>2407.6000976562</ele>
        <time>2022-03-06T10:51:05.000Z</time>
      </trkpt>
      <trkpt lat="44.42996" lon="6.8232">
        <ele>2408</ele>
        <time>2022-03-06T10:51:07.000Z</time>
      </trkpt>
      <trkpt lat="44.42997" lon="6.82319">
        <ele>2408.8000488281</ele>
        <time>2022-03-06T10:51:11.000Z</time>
      </trkpt>
      <trkpt lat="44.42995" lon="6.82315">
        <ele>2409.3999023438</ele>
        <time>2022-03-06T10:51:14.000Z</time>
      </trkpt>
      <trkpt lat="44.42994" lon="6.82312">
        <ele>2409.8000488281</ele>
        <time>2022-03-06T10:51:17.000Z</time>
      </trkpt>
      <trkpt lat="44.42993" lon="6.82311">
        <ele>2410</ele>
        <time>2022-03-06T10:51:19.000Z</time>
      </trkpt>
      <trkpt lat="44.42993" lon="6.82306">
        <ele>2410.8000488281</ele>
        <time>2022-03-06T10:51:25.000Z</time>
      </trkpt>
      <trkpt lat="44.42993" lon="6.82305">
        <ele>2411</ele>
        <time>2022-03-06T10:51:26.000Z</time>
      </trkpt>
      <trkpt lat="44.42991" lon="6.82301">
        <ele>2412</ele>
        <time>2022-03-06T10:51:33.000Z</time>
      </trkpt>
      <trkpt lat="44.42987" lon="6.82297">
        <ele>2412.8000488281</ele>
        <time>2022-03-06T10:51:40.000Z</time>
      </trkpt>
      <trkpt lat="44.42986" lon="6.82296">
        <ele>2413</ele>
        <time>2022-03-06T10:51:41.000Z</time>
      </trkpt>
      <trkpt lat="44.42983" lon="6.82293">
        <ele>2414</ele>
        <time>2022-03-06T10:51:47.000Z</time>
      </trkpt>
      <trkpt lat="44.42984" lon="6.82292">
        <ele>2414.1999511719</ele>
        <time>2022-03-06T10:51:48.000Z</time>
      </trkpt>
      <trkpt lat="44.42984" lon="6.82286">
        <ele>2414.8000488281</ele>
        <time>2022-03-06T10:51:53.000Z</time>
      </trkpt>
      <trkpt lat="44.42985" lon="6.82285">
        <ele>2415</ele>
        <time>2022-03-06T10:51:55.000Z</time>
      </trkpt>
      <trkpt lat="44.42982" lon="6.82282">
        <ele>2416</ele>
        <time>2022-03-06T10:51:59.000Z</time>
      </trkpt>
      <trkpt lat="44.42982" lon="6.8228">
        <ele>2416</ele>
        <time>2022-03-06T10:52:01.000Z</time>
      </trkpt>
      <trkpt lat="44.42981" lon="6.82278">
        <ele>2416.1999511719</ele>
        <time>2022-03-06T10:52:03.000Z</time>
      </trkpt>
      <trkpt lat="44.42979" lon="6.82276">
        <ele>2416.6000976562</ele>
        <time>2022-03-06T10:52:06.000Z</time>
      </trkpt>
      <trkpt lat="44.42978" lon="6.82274">
        <ele>2417.1999511719</ele>
        <time>2022-03-06T10:52:09.000Z</time>
      </trkpt>
      <trkpt lat="44.42978" lon="6.82273">
        <ele>2417.6000976562</ele>
        <time>2022-03-06T10:52:12.000Z</time>
      </trkpt>
      <trkpt lat="44.42981" lon="6.82268">
        <ele>2418.3999023438</ele>
        <time>2022-03-06T10:52:18.000Z</time>
      </trkpt>
      <trkpt lat="44.42982" lon="6.82266">
        <ele>2419</ele>
        <time>2022-03-06T10:52:22.000Z</time>
      </trkpt>
      <trkpt lat="44.42982" lon="6.82263">
        <ele>2419.3999023438</ele>
        <time>2022-03-06T10:52:25.000Z</time>
      </trkpt>
      <trkpt lat="44.42981" lon="6.82261">
        <ele>2420.1999511719</ele>
        <time>2022-03-06T10:52:30.000Z</time>
      </trkpt>
      <trkpt lat="44.42981" lon="6.8226">
        <ele>2420.3999023438</ele>
        <time>2022-03-06T10:52:31.000Z</time>
      </trkpt>
      <trkpt lat="44.42978" lon="6.82256">
        <ele>2421</ele>
        <time>2022-03-06T10:52:37.000Z</time>
      </trkpt>
      <trkpt lat="44.42975" lon="6.82254">
        <ele>2421.6000976562</ele>
        <time>2022-03-06T10:52:40.000Z</time>
      </trkpt>
      <trkpt lat="44.42978" lon="6.82251">
        <ele>2422</ele>
        <time>2022-03-06T10:52:44.000Z</time>
      </trkpt>
      <trkpt lat="44.42976" lon="6.82251">
        <ele>2422.6000976562</ele>
        <time>2022-03-06T10:52:47.000Z</time>
      </trkpt>
      <trkpt lat="44.42975" lon="6.82251">
        <ele>2423</ele>
        <time>2022-03-06T10:52:49.000Z</time>
      </trkpt>
      <trkpt lat="44.42974" lon="6.82252">
        <ele>2423.1999511719</ele>
        <time>2022-03-06T10:52:50.000Z</time>
      </trkpt>
      <trkpt lat="44.42969" lon="6.82254">
        <ele>2423.8000488281</ele>
        <time>2022-03-06T10:52:55.000Z</time>
      </trkpt>
      <trkpt lat="44.42969" lon="6.82254">
        <ele>2423.8000488281</ele>
        <time>2022-03-06T10:52:56.000Z</time>
      </trkpt>
      <trkpt lat="44.42967" lon="6.82255">
        <ele>2424.6000976562</ele>
        <time>2022-03-06T10:53:02.000Z</time>
      </trkpt>
      <trkpt lat="44.42966" lon="6.82256">
        <ele>2424.8000488281</ele>
        <time>2022-03-06T10:53:04.000Z</time>
      </trkpt>
      <trkpt lat="44.42965" lon="6.82258">
        <ele>2425.8000488281</ele>
        <time>2022-03-06T10:53:09.000Z</time>
      </trkpt>
      <trkpt lat="44.42965" lon="6.82259">
        <ele>2426</ele>
        <time>2022-03-06T10:53:10.000Z</time>
      </trkpt>
      <trkpt lat="44.42963" lon="6.82262">
        <ele>2426.6000976562</ele>
        <time>2022-03-06T10:53:16.000Z</time>
      </trkpt>
      <trkpt lat="44.42961" lon="6.82262">
        <ele>2427</ele>
        <time>2022-03-06T10:53:18.000Z</time>
      </trkpt>
      <trkpt lat="44.42961" lon="6.82265">
        <ele>2427.8000488281</ele>
        <time>2022-03-06T10:53:23.000Z</time>
      </trkpt>
      <trkpt lat="44.42961" lon="6.82266">
        <ele>2428</ele>
        <time>2022-03-06T10:53:24.000Z</time>
      </trkpt>
      <trkpt lat="44.42956" lon="6.82269">
        <ele>2429</ele>
        <time>2022-03-06T10:53:30.000Z</time>
      </trkpt>
      <trkpt lat="44.42955" lon="6.82271">
        <ele>2429.1999511719</ele>
        <time>2022-03-06T10:53:32.000Z</time>
      </trkpt>
      <trkpt lat="44.42951" lon="6.82275">
        <ele>2430</ele>
        <time>2022-03-06T10:53:39.000Z</time>
      </trkpt>
      <trkpt lat="44.42951" lon="6.82275">
        <ele>2430</ele>
        <time>2022-03-06T10:53:40.000Z</time>
      </trkpt>
      <trkpt lat="44.4295" lon="6.8228">
        <ele>2430.8000488281</ele>
        <time>2022-03-06T10:53:46.000Z</time>
      </trkpt>
      <trkpt lat="44.4295" lon="6.82281">
        <ele>2431.1999511719</ele>
        <time>2022-03-06T10:53:47.000Z</time>
      </trkpt>
      <trkpt lat="44.42949" lon="6.82284">
        <ele>2432.1999511719</ele>
        <time>2022-03-06T10:53:52.000Z</time>
      </trkpt>
      <trkpt lat="44.42949" lon="6.82285">
        <ele>2432.3999023438</ele>
        <time>2022-03-06T10:53:53.000Z</time>
      </trkpt>
      <trkpt lat="44.42947" lon="6.82289">
        <ele>2433.1999511719</ele>
        <time>2022-03-06T10:53:59.000Z</time>
      </trkpt>
      <trkpt lat="44.42947" lon="6.8229">
        <ele>2433.1999511719</ele>
        <time>2022-03-06T10:54:00.000Z</time>
      </trkpt>
      <trkpt lat="44.42946" lon="6.82294">
        <ele>2434.1999511719</ele>
        <time>2022-03-06T10:54:06.000Z</time>
      </trkpt>
      <trkpt lat="44.42946" lon="6.82297">
        <ele>2434.8000488281</ele>
        <time>2022-03-06T10:54:13.000Z</time>
      </trkpt>
      <trkpt lat="44.42948" lon="6.82298">
        <ele>2435.3999023438</ele>
        <time>2022-03-06T10:54:19.000Z</time>
      </trkpt>
      <trkpt lat="44.42947" lon="6.82304">
        <ele>2436.3999023438</ele>
        <time>2022-03-06T10:54:27.000Z</time>
      </trkpt>
      <trkpt lat="44.42947" lon="6.82305">
        <ele>2436.6000976562</ele>
        <time>2022-03-06T10:54:28.000Z</time>
      </trkpt>
      <trkpt lat="44.42947" lon="6.82309">
        <ele>2437.1999511719</ele>
        <time>2022-03-06T10:54:34.000Z</time>
      </trkpt>
      <trkpt lat="44.42946" lon="6.82308">
        <ele>2437.6000976562</ele>
        <time>2022-03-06T10:54:38.000Z</time>
      </trkpt>
      <trkpt lat="44.42945" lon="6.82307">
        <ele>2437.6000976562</ele>
        <time>2022-03-06T10:54:39.000Z</time>
      </trkpt>
      <trkpt lat="44.42941" lon="6.82304">
        <ele>2438.3999023438</ele>
        <time>2022-03-06T10:54:47.000Z</time>
      </trkpt>
      <trkpt lat="44.42941" lon="6.82303">
        <ele>2438.6000976562</ele>
        <time>2022-03-06T10:54:48.000Z</time>
      </trkpt>
      <trkpt lat="44.4294" lon="6.82299">
        <ele>2439.6000976562</ele>
        <time>2022-03-06T10:54:54.000Z</time>
      </trkpt>
      <trkpt lat="44.42939" lon="6.82298">
        <ele>2439.8000488281</ele>
        <time>2022-03-06T10:54:55.000Z</time>
      </trkpt>
      <trkpt lat="44.42938" lon="6.82297">
        <ele>2439.8000488281</ele>
        <time>2022-03-06T10:54:56.000Z</time>
      </trkpt>
      <trkpt lat="44.42936" lon="6.82296">
        <ele>2440.3999023438</ele>
        <time>2022-03-06T10:54:59.000Z</time>
      </trkpt>
      <trkpt lat="44.42935" lon="6.82294">
        <ele>2440.8000488281</ele>
        <time>2022-03-06T10:55:01.000Z</time>
      </trkpt>
      <trkpt lat="44.42934" lon="6.82292">
        <ele>2441.3999023438</ele>
        <time>2022-03-06T10:55:05.000Z</time>
      </trkpt>
      <trkpt lat="44.42933" lon="6.82289">
        <ele>2441.8000488281</ele>
        <time>2022-03-06T10:55:09.000Z</time>
      </trkpt>
      <trkpt lat="44.42933" lon="6.82288">
        <ele>2442.1999511719</ele>
        <time>2022-03-06T10:55:10.000Z</time>
      </trkpt>
      <trkpt lat="44.4293" lon="6.82286">
        <ele>2443</ele>
        <time>2022-03-06T10:55:16.000Z</time>
      </trkpt>
      <trkpt lat="44.42929" lon="6.82287">
        <ele>2443.3999023438</ele>
        <time>2022-03-06T10:55:18.000Z</time>
      </trkpt>
      <trkpt lat="44.4293" lon="6.82284">
        <ele>2444</ele>
        <time>2022-03-06T10:55:22.000Z</time>
      </trkpt>
      <trkpt lat="44.4293" lon="6.82284">
        <ele>2444.1999511719</ele>
        <time>2022-03-06T10:55:23.000Z</time>
      </trkpt>
      <trkpt lat="44.42929" lon="6.82284">
        <ele>2444.3999023438</ele>
        <time>2022-03-06T10:55:25.000Z</time>
      </trkpt>
      <trkpt lat="44.42924" lon="6.82281">
        <ele>2445.1999511719</ele>
        <time>2022-03-06T10:55:30.000Z</time>
      </trkpt>
      <trkpt lat="44.42924" lon="6.82277">
        <ele>2445.6000976562</ele>
        <time>2022-03-06T10:55:34.000Z</time>
      </trkpt>
      <trkpt lat="44.42922" lon="6.82275">
        <ele>2446.1999511719</ele>
        <time>2022-03-06T10:55:37.000Z</time>
      </trkpt>
      <trkpt lat="44.42919" lon="6.8227">
        <ele>2446.6000976562</ele>
        <time>2022-03-06T10:55:41.000Z</time>
      </trkpt>
      <trkpt lat="44.4292" lon="6.82267">
        <ele>2447.1999511719</ele>
        <time>2022-03-06T10:55:45.000Z</time>
      </trkpt>
      <trkpt lat="44.42919" lon="6.82267">
        <ele>2447.3999023438</ele>
        <time>2022-03-06T10:55:46.000Z</time>
      </trkpt>
      <trkpt lat="44.42915" lon="6.82266">
        <ele>2448.1999511719</ele>
        <time>2022-03-06T10:55:52.000Z</time>
      </trkpt>
      <trkpt lat="44.42913" lon="6.82262">
        <ele>2448.6000976562</ele>
        <time>2022-03-06T10:55:58.000Z</time>
      </trkpt>
      <trkpt lat="44.42913" lon="6.82256">
        <ele>2449.3999023438</ele>
        <time>2022-03-06T10:56:04.000Z</time>
      </trkpt>
      <trkpt lat="44.42913" lon="6.82255">
        <ele>2449.6000976562</ele>
        <time>2022-03-06T10:56:06.000Z</time>
      </trkpt>
      <trkpt lat="44.42913" lon="6.82252">
        <ele>2450</ele>
        <time>2022-03-06T10:56:09.000Z</time>
      </trkpt>
      <trkpt lat="44.42914" lon="6.82251">
        <ele>2450.3999023438</ele>
        <time>2022-03-06T10:56:12.000Z</time>
      </trkpt>
      <trkpt lat="44.42911" lon="6.82248">
        <ele>2451.6000976562</ele>
        <time>2022-03-06T10:56:18.000Z</time>
      </trkpt>
      <trkpt lat="44.42911" lon="6.82247">
        <ele>2451.8000488281</ele>
        <time>2022-03-06T10:56:19.000Z</time>
      </trkpt>
      <trkpt lat="44.42908" lon="6.82244">
        <ele>2452.3999023438</ele>
        <time>2022-03-06T10:56:25.000Z</time>
      </trkpt>
      <trkpt lat="44.42908" lon="6.82244">
        <ele>2452.6000976562</ele>
        <time>2022-03-06T10:56:26.000Z</time>
      </trkpt>
      <trkpt lat="44.42907" lon="6.82239">
        <ele>2453.6000976562</ele>
        <time>2022-03-06T10:56:34.000Z</time>
      </trkpt>
      <trkpt lat="44.42907" lon="6.82235">
        <ele>2454.8000488281</ele>
        <time>2022-03-06T10:56:42.000Z</time>
      </trkpt>
      <trkpt lat="44.42907" lon="6.82234">
        <ele>2454.8000488281</ele>
        <time>2022-03-06T10:56:43.000Z</time>
      </trkpt>
      <trkpt lat="44.42902" lon="6.82231">
        <ele>2455.8000488281</ele>
        <time>2022-03-06T10:56:49.000Z</time>
      </trkpt>
      <trkpt lat="44.42901" lon="6.82225">
        <ele>2457</ele>
        <time>2022-03-06T10:56:56.000Z</time>
      </trkpt>
      <trkpt lat="44.42899" lon="6.82221">
        <ele>2457.6000976562</ele>
        <time>2022-03-06T10:57:03.000Z</time>
      </trkpt>
      <trkpt lat="44.42899" lon="6.82219">
        <ele>2457.8000488281</ele>
        <time>2022-03-06T10:57:05.000Z</time>
      </trkpt>
      <trkpt lat="44.42901" lon="6.82215">
        <ele>2458</ele>
        <time>2022-03-06T10:57:08.000Z</time>
      </trkpt>
      <trkpt lat="44.429" lon="6.82213">
        <ele>2458.3999023438</ele>
        <time>2022-03-06T10:57:12.000Z</time>
      </trkpt>
      <trkpt lat="44.42899" lon="6.82212">
        <ele>2459</ele>
        <time>2022-03-06T10:57:15.000Z</time>
      </trkpt>
      <trkpt lat="44.42899" lon="6.82211">
        <ele>2459.1999511719</ele>
        <time>2022-03-06T10:57:18.000Z</time>
      </trkpt>
      <trkpt lat="44.42898" lon="6.82209">
        <ele>2459.1999511719</ele>
        <time>2022-03-06T10:57:22.000Z</time>
      </trkpt>
      <trkpt lat="44.42895" lon="6.82207">
        <ele>2460.1999511719</ele>
        <time>2022-03-06T10:57:27.000Z</time>
      </trkpt>
      <trkpt lat="44.42893" lon="6.82205">
        <ele>2461</ele>
        <time>2022-03-06T10:57:32.000Z</time>
      </trkpt>
      <trkpt lat="44.42892" lon="6.82205">
        <ele>2461.1999511719</ele>
        <time>2022-03-06T10:57:33.000Z</time>
      </trkpt>
      <trkpt lat="44.42892" lon="6.82205">
        <ele>2461.1999511719</ele>
        <time>2022-03-06T10:57:34.000Z</time>
      </trkpt>
      <trkpt lat="44.42895" lon="6.82201">
        <ele>2462</ele>
        <time>2022-03-06T10:57:41.000Z</time>
      </trkpt>
      <trkpt lat="44.42895" lon="6.82201">
        <ele>2462</ele>
        <time>2022-03-06T10:57:54.000Z</time>
      </trkpt>
      <trkpt lat="44.42899" lon="6.82201">
        <ele>2461.6000976562</ele>
        <time>2022-03-06T10:58:07.000Z</time>
      </trkpt>
      <trkpt lat="44.42899" lon="6.82201">
        <ele>2461.6000976562</ele>
        <time>2022-03-06T10:58:18.000Z</time>
      </trkpt>
      <trkpt lat="44.429" lon="6.822">
        <ele>2461</ele>
        <time>2022-03-06T10:58:32.000Z</time>
      </trkpt>
      <trkpt lat="44.429" lon="6.822">
        <ele>2460.8000488281</ele>
        <time>2022-03-06T10:58:35.000Z</time>
      </trkpt>
      <trkpt lat="44.42893" lon="6.82205">
        <ele>2462.1999511719</ele>
        <time>2022-03-06T11:00:34.000Z</time>
      </trkpt>
      <trkpt lat="44.42893" lon="6.82207">
        <ele>2463.3999023438</ele>
        <time>2022-03-06T11:00:43.000Z</time>
      </trkpt>
      <trkpt lat="44.42892" lon="6.82212">
        <ele>2464.3999023438</ele>
        <time>2022-03-06T11:00:50.000Z</time>
      </trkpt>
      <trkpt lat="44.42892" lon="6.82221">
        <ele>2465.3999023438</ele>
        <time>2022-03-06T11:01:03.000Z</time>
      </trkpt>
      <trkpt lat="44.42891" lon="6.82222">
        <ele>2465.6000976562</ele>
        <time>2022-03-06T11:01:08.000Z</time>
      </trkpt>
      <trkpt lat="44.42889" lon="6.82219">
        <ele>2466</ele>
        <time>2022-03-06T11:01:11.000Z</time>
      </trkpt>
      <trkpt lat="44.42888" lon="6.82215">
        <ele>2466.6000976562</ele>
        <time>2022-03-06T11:01:15.000Z</time>
      </trkpt>
      <trkpt lat="44.42887" lon="6.82212">
        <ele>2467</ele>
        <time>2022-03-06T11:01:18.000Z</time>
      </trkpt>
      <trkpt lat="44.42887" lon="6.82211">
        <ele>2467</ele>
        <time>2022-03-06T11:01:19.000Z</time>
      </trkpt>
      <trkpt lat="44.42885" lon="6.82206">
        <ele>2467.6000976562</ele>
        <time>2022-03-06T11:01:25.000Z</time>
      </trkpt>
      <trkpt lat="44.42885" lon="6.82205">
        <ele>2467.6000976562</ele>
        <time>2022-03-06T11:01:26.000Z</time>
      </trkpt>
      <trkpt lat="44.42885" lon="6.82203">
        <ele>2468.3999023438</ele>
        <time>2022-03-06T11:01:31.000Z</time>
      </trkpt>
      <trkpt lat="44.42885" lon="6.82201">
        <ele>2468.6000976562</ele>
        <time>2022-03-06T11:01:33.000Z</time>
      </trkpt>
      <trkpt lat="44.42884" lon="6.82201">
        <ele>2468.8000488281</ele>
        <time>2022-03-06T11:01:34.000Z</time>
      </trkpt>
      <trkpt lat="44.42884" lon="6.82198">
        <ele>2469.6000976562</ele>
        <time>2022-03-06T11:01:38.000Z</time>
      </trkpt>
      <trkpt lat="44.42884" lon="6.82197">
        <ele>2469.8000488281</ele>
        <time>2022-03-06T11:01:39.000Z</time>
      </trkpt>
      <trkpt lat="44.42884" lon="6.82194">
        <ele>2470.3999023438</ele>
        <time>2022-03-06T11:01:44.000Z</time>
      </trkpt>
      <trkpt lat="44.42884" lon="6.82191">
        <ele>2470.8000488281</ele>
        <time>2022-03-06T11:01:48.000Z</time>
      </trkpt>
      <trkpt lat="44.42885" lon="6.82189">
        <ele>2471</ele>
        <time>2022-03-06T11:01:50.000Z</time>
      </trkpt>
      <trkpt lat="44.42884" lon="6.82184">
        <ele>2471.8000488281</ele>
        <time>2022-03-06T11:01:55.000Z</time>
      </trkpt>
      <trkpt lat="44.42883" lon="6.82184">
        <ele>2472</ele>
        <time>2022-03-06T11:01:56.000Z</time>
      </trkpt>
      <trkpt lat="44.42879" lon="6.8218">
        <ele>2472.8000488281</ele>
        <time>2022-03-06T11:02:03.000Z</time>
      </trkpt>
      <trkpt lat="44.42879" lon="6.82181">
        <ele>2473</ele>
        <time>2022-03-06T11:02:04.000Z</time>
      </trkpt>
      <trkpt lat="44.4288" lon="6.82179">
        <ele>2473.6000976562</ele>
        <time>2022-03-06T11:02:07.000Z</time>
      </trkpt>
      <trkpt lat="44.42879" lon="6.82176">
        <ele>2474</ele>
        <time>2022-03-06T11:02:10.000Z</time>
      </trkpt>
      <trkpt lat="44.42882" lon="6.82173">
        <ele>2474.6000976562</ele>
        <time>2022-03-06T11:02:14.000Z</time>
      </trkpt>
      <trkpt lat="44.42881" lon="6.82171">
        <ele>2474.8000488281</ele>
        <time>2022-03-06T11:02:17.000Z</time>
      </trkpt>
      <trkpt lat="44.4288" lon="6.82169">
        <ele>2475.1999511719</ele>
        <time>2022-03-06T11:02:20.000Z</time>
      </trkpt>
      <trkpt lat="44.42879" lon="6.82164">
        <ele>2476.3999023438</ele>
        <time>2022-03-06T11:02:27.000Z</time>
      </trkpt>
      <trkpt lat="44.42877" lon="6.82158">
        <ele>2477.1999511719</ele>
        <time>2022-03-06T11:02:35.000Z</time>
      </trkpt>
      <trkpt lat="44.42876" lon="6.82157">
        <ele>2477.3999023438</ele>
        <time>2022-03-06T11:02:36.000Z</time>
      </trkpt>
      <trkpt lat="44.42876" lon="6.82153">
        <ele>2477.8000488281</ele>
        <time>2022-03-06T11:02:42.000Z</time>
      </trkpt>
      <trkpt lat="44.42873" lon="6.82151">
        <ele>2478.6000976562</ele>
        <time>2022-03-06T11:02:46.000Z</time>
      </trkpt>
      <trkpt lat="44.42872" lon="6.82146">
        <ele>2479</ele>
        <time>2022-03-06T11:02:50.000Z</time>
      </trkpt>
      <trkpt lat="44.42872" lon="6.82142">
        <ele>2479.3999023438</ele>
        <time>2022-03-06T11:02:57.000Z</time>
      </trkpt>
      <trkpt lat="44.42872" lon="6.82139">
        <ele>2479.6000976562</ele>
        <time>2022-03-06T11:02:59.000Z</time>
      </trkpt>
      <trkpt lat="44.42873" lon="6.82138">
        <ele>2479.6000976562</ele>
        <time>2022-03-06T11:03:00.000Z</time>
      </trkpt>
      <trkpt lat="44.42873" lon="6.82136">
        <ele>2479.6000976562</ele>
        <time>2022-03-06T11:03:02.000Z</time>
      </trkpt>
      <trkpt lat="44.42874" lon="6.82133">
        <ele>2480.3999023438</ele>
        <time>2022-03-06T11:03:08.000Z</time>
      </trkpt>
      <trkpt lat="44.42873" lon="6.82131">
        <ele>2480.6000976562</ele>
        <time>2022-03-06T11:03:11.000Z</time>
      </trkpt>
      <trkpt lat="44.42874" lon="6.8213">
        <ele>2480.8000488281</ele>
        <time>2022-03-06T11:03:14.000Z</time>
      </trkpt>
      <trkpt lat="44.42874" lon="6.82126">
        <ele>2481.1999511719</ele>
        <time>2022-03-06T11:03:20.000Z</time>
      </trkpt>
      <trkpt lat="44.42873" lon="6.82123">
        <ele>2481.6000976562</ele>
        <time>2022-03-06T11:03:24.000Z</time>
      </trkpt>
      <trkpt lat="44.42873" lon="6.82122">
        <ele>2482.3999023438</ele>
        <time>2022-03-06T11:03:28.000Z</time>
      </trkpt>
      <trkpt lat="44.42873" lon="6.82119">
        <ele>2482.6000976562</ele>
        <time>2022-03-06T11:03:35.000Z</time>
      </trkpt>
      <trkpt lat="44.42874" lon="6.82115">
        <ele>2483.3999023438</ele>
        <time>2022-03-06T11:03:39.000Z</time>
      </trkpt>
      <trkpt lat="44.42872" lon="6.82113">
        <ele>2484</ele>
        <time>2022-03-06T11:03:44.000Z</time>
      </trkpt>
      <trkpt lat="44.42871" lon="6.82111">
        <ele>2484.1999511719</ele>
        <time>2022-03-06T11:03:47.000Z</time>
      </trkpt>
      <trkpt lat="44.42869" lon="6.82109">
        <ele>2485</ele>
        <time>2022-03-06T11:03:51.000Z</time>
      </trkpt>
      <trkpt lat="44.42868" lon="6.82107">
        <ele>2485.3999023438</ele>
        <time>2022-03-06T11:03:57.000Z</time>
      </trkpt>
      <trkpt lat="44.42868" lon="6.82106">
        <ele>2485.6000976562</ele>
        <time>2022-03-06T11:03:58.000Z</time>
      </trkpt>
      <trkpt lat="44.42868" lon="6.82106">
        <ele>2486</ele>
        <time>2022-03-06T11:04:00.000Z</time>
      </trkpt>
      <trkpt lat="44.42866" lon="6.82103">
        <ele>2486.6000976562</ele>
        <time>2022-03-06T11:04:07.000Z</time>
      </trkpt>
      <trkpt lat="44.42865" lon="6.82102">
        <ele>2487</ele>
        <time>2022-03-06T11:04:10.000Z</time>
      </trkpt>
      <trkpt lat="44.42864" lon="6.82098">
        <ele>2488.1999511719</ele>
        <time>2022-03-06T11:04:20.000Z</time>
      </trkpt>
      <trkpt lat="44.42862" lon="6.82092">
        <ele>2489.1999511719</ele>
        <time>2022-03-06T11:04:29.000Z</time>
      </trkpt>
      <trkpt lat="44.42862" lon="6.8209">
        <ele>2489.6000976562</ele>
        <time>2022-03-06T11:04:33.000Z</time>
      </trkpt>
      <trkpt lat="44.4286" lon="6.82087">
        <ele>2490.1999511719</ele>
        <time>2022-03-06T11:04:37.000Z</time>
      </trkpt>
      <trkpt lat="44.42858" lon="6.82085">
        <ele>2490.6000976562</ele>
        <time>2022-03-06T11:04:41.000Z</time>
      </trkpt>
      <trkpt lat="44.42857" lon="6.82082">
        <ele>2491.3999023438</ele>
        <time>2022-03-06T11:04:46.000Z</time>
      </trkpt>
      <trkpt lat="44.42855" lon="6.8208">
        <ele>2492</ele>
        <time>2022-03-06T11:04:50.000Z</time>
      </trkpt>
      <trkpt lat="44.42854" lon="6.82077">
        <ele>2492.3999023438</ele>
        <time>2022-03-06T11:04:55.000Z</time>
      </trkpt>
      <trkpt lat="44.42852" lon="6.82075">
        <ele>2493.3999023438</ele>
        <time>2022-03-06T11:04:59.000Z</time>
      </trkpt>
      <trkpt lat="44.42852" lon="6.82074">
        <ele>2493.3999023438</ele>
        <time>2022-03-06T11:05:00.000Z</time>
      </trkpt>
      <trkpt lat="44.4285" lon="6.82067">
        <ele>2494.6000976562</ele>
        <time>2022-03-06T11:05:10.000Z</time>
      </trkpt>
      <trkpt lat="44.42849" lon="6.82063">
        <ele>2495.6000976562</ele>
        <time>2022-03-06T11:05:17.000Z</time>
      </trkpt>
      <trkpt lat="44.42849" lon="6.82063">
        <ele>2495.8000488281</ele>
        <time>2022-03-06T11:05:18.000Z</time>
      </trkpt>
      <trkpt lat="44.42848" lon="6.82059">
        <ele>2496.8000488281</ele>
        <time>2022-03-06T11:05:25.000Z</time>
      </trkpt>
      <trkpt lat="44.42847" lon="6.82055">
        <ele>2497.6000976562</ele>
        <time>2022-03-06T11:05:31.000Z</time>
      </trkpt>
      <trkpt lat="44.42846" lon="6.82054">
        <ele>2498</ele>
        <time>2022-03-06T11:05:33.000Z</time>
      </trkpt>
      <trkpt lat="44.42846" lon="6.82051">
        <ele>2498.1999511719</ele>
        <time>2022-03-06T11:05:37.000Z</time>
      </trkpt>
      <trkpt lat="44.42846" lon="6.82048">
        <ele>2499</ele>
        <time>2022-03-06T11:05:42.000Z</time>
      </trkpt>
      <trkpt lat="44.42845" lon="6.82045">
        <ele>2499.8000488281</ele>
        <time>2022-03-06T11:05:47.000Z</time>
      </trkpt>
      <trkpt lat="44.42844" lon="6.82044">
        <ele>2500.1999511719</ele>
        <time>2022-03-06T11:05:49.000Z</time>
      </trkpt>
      <trkpt lat="44.42843" lon="6.82038">
        <ele>2501.1999511719</ele>
        <time>2022-03-06T11:05:57.000Z</time>
      </trkpt>
      <trkpt lat="44.42842" lon="6.82034">
        <ele>2502.1999511719</ele>
        <time>2022-03-06T11:06:05.000Z</time>
      </trkpt>
      <trkpt lat="44.42841" lon="6.82032">
        <ele>2502.6000976562</ele>
        <time>2022-03-06T11:06:07.000Z</time>
      </trkpt>
      <trkpt lat="44.42838" lon="6.82027">
        <ele>2503.1999511719</ele>
        <time>2022-03-06T11:06:11.000Z</time>
      </trkpt>
      <trkpt lat="44.42836" lon="6.82022">
        <ele>2504.3999023438</ele>
        <time>2022-03-06T11:06:18.000Z</time>
      </trkpt>
      <trkpt lat="44.42834" lon="6.82019">
        <ele>2505</ele>
        <time>2022-03-06T11:06:23.000Z</time>
      </trkpt>
      <trkpt lat="44.42834" lon="6.82017">
        <ele>2505.6000976562</ele>
        <time>2022-03-06T11:06:26.000Z</time>
      </trkpt>
      <trkpt lat="44.42831" lon="6.82012">
        <ele>2506.8000488281</ele>
        <time>2022-03-06T11:06:34.000Z</time>
      </trkpt>
      <trkpt lat="44.4283" lon="6.82011">
        <ele>2507</ele>
        <time>2022-03-06T11:06:35.000Z</time>
      </trkpt>
      <trkpt lat="44.42828" lon="6.82006">
        <ele>2508</ele>
        <time>2022-03-06T11:06:43.000Z</time>
      </trkpt>
      <trkpt lat="44.42826" lon="6.82004">
        <ele>2508.6000976562</ele>
        <time>2022-03-06T11:06:47.000Z</time>
      </trkpt>
      <trkpt lat="44.42826" lon="6.82003">
        <ele>2508.6000976562</ele>
        <time>2022-03-06T11:06:48.000Z</time>
      </trkpt>
      <trkpt lat="44.42825" lon="6.82001">
        <ele>2509</ele>
        <time>2022-03-06T11:06:51.000Z</time>
      </trkpt>
      <trkpt lat="44.42824" lon="6.81996">
        <ele>2509.8000488281</ele>
        <time>2022-03-06T11:06:57.000Z</time>
      </trkpt>
      <trkpt lat="44.42823" lon="6.81994">
        <ele>2510.3999023438</ele>
        <time>2022-03-06T11:07:01.000Z</time>
      </trkpt>
      <trkpt lat="44.42823" lon="6.81992">
        <ele>2510.8000488281</ele>
        <time>2022-03-06T11:07:04.000Z</time>
      </trkpt>
      <trkpt lat="44.42823" lon="6.81991">
        <ele>2511.3999023438</ele>
        <time>2022-03-06T11:07:07.000Z</time>
      </trkpt>
      <trkpt lat="44.42822" lon="6.81988">
        <ele>2511.8000488281</ele>
        <time>2022-03-06T11:07:11.000Z</time>
      </trkpt>
      <trkpt lat="44.42821" lon="6.81987">
        <ele>2512</ele>
        <time>2022-03-06T11:07:13.000Z</time>
      </trkpt>
      <trkpt lat="44.4282" lon="6.81986">
        <ele>2512.3999023438</ele>
        <time>2022-03-06T11:07:15.000Z</time>
      </trkpt>
      <trkpt lat="44.42818" lon="6.81982">
        <ele>2513.3999023438</ele>
        <time>2022-03-06T11:07:21.000Z</time>
      </trkpt>
      <trkpt lat="44.42818" lon="6.81981">
        <ele>2513.6000976562</ele>
        <time>2022-03-06T11:07:23.000Z</time>
      </trkpt>
      <trkpt lat="44.42816" lon="6.81976">
        <ele>2514.6000976562</ele>
        <time>2022-03-06T11:07:31.000Z</time>
      </trkpt>
      <trkpt lat="44.42815" lon="6.81972">
        <ele>2515.3999023438</ele>
        <time>2022-03-06T11:07:36.000Z</time>
      </trkpt>
      <trkpt lat="44.42814" lon="6.81971">
        <ele>2515.6000976562</ele>
        <time>2022-03-06T11:07:38.000Z</time>
      </trkpt>
      <trkpt lat="44.42813" lon="6.81969">
        <ele>2516.3999023438</ele>
        <time>2022-03-06T11:07:42.000Z</time>
      </trkpt>
      <trkpt lat="44.42812" lon="6.81967">
        <ele>2516.8000488281</ele>
        <time>2022-03-06T11:07:45.000Z</time>
      </trkpt>
      <trkpt lat="44.42812" lon="6.81964">
        <ele>2517.3999023438</ele>
        <time>2022-03-06T11:07:50.000Z</time>
      </trkpt>
      <trkpt lat="44.42811" lon="6.8196">
        <ele>2517.8000488281</ele>
        <time>2022-03-06T11:07:55.000Z</time>
      </trkpt>
      <trkpt lat="44.42811" lon="6.81956">
        <ele>2519</ele>
        <time>2022-03-06T11:08:00.000Z</time>
      </trkpt>
      <trkpt lat="44.42811" lon="6.81955">
        <ele>2519</ele>
        <time>2022-03-06T11:08:01.000Z</time>
      </trkpt>
      <trkpt lat="44.4281" lon="6.81948">
        <ele>2520</ele>
        <time>2022-03-06T11:08:09.000Z</time>
      </trkpt>
      <trkpt lat="44.4281" lon="6.81947">
        <ele>2520.1999511719</ele>
        <time>2022-03-06T11:08:10.000Z</time>
      </trkpt>
      <trkpt lat="44.4281" lon="6.81942">
        <ele>2520.8000488281</ele>
        <time>2022-03-06T11:08:16.000Z</time>
      </trkpt>
      <trkpt lat="44.42809" lon="6.81942">
        <ele>2520.8000488281</ele>
        <time>2022-03-06T11:08:17.000Z</time>
      </trkpt>
      <trkpt lat="44.4281" lon="6.81942">
        <ele>2521</ele>
        <time>2022-03-06T11:08:19.000Z</time>
      </trkpt>
      <trkpt lat="44.4281" lon="6.81942">
        <ele>2521.1999511719</ele>
        <time>2022-03-06T11:08:20.000Z</time>
      </trkpt>
      <trkpt lat="44.42811" lon="6.81944">
        <ele>2521.6000976562</ele>
        <time>2022-03-06T11:08:27.000Z</time>
      </trkpt>
      <trkpt lat="44.42809" lon="6.81944">
        <ele>2522.1999511719</ele>
        <time>2022-03-06T11:08:32.000Z</time>
      </trkpt>
      <trkpt lat="44.42805" lon="6.81941">
        <ele>2522.6000976562</ele>
        <time>2022-03-06T11:08:38.000Z</time>
      </trkpt>
      <trkpt lat="44.42803" lon="6.81941">
        <ele>2523.1999511719</ele>
        <time>2022-03-06T11:08:43.000Z</time>
      </trkpt>
      <trkpt lat="44.42802" lon="6.81941">
        <ele>2523.1999511719</ele>
        <time>2022-03-06T11:08:44.000Z</time>
      </trkpt>
      <trkpt lat="44.428" lon="6.81945">
        <ele>2524.1999511719</ele>
        <time>2022-03-06T11:08:53.000Z</time>
      </trkpt>
      <trkpt lat="44.428" lon="6.81946">
        <ele>2524.6000976562</ele>
        <time>2022-03-06T11:08:55.000Z</time>
      </trkpt>
      <trkpt lat="44.42799" lon="6.81951">
        <ele>2525.1999511719</ele>
        <time>2022-03-06T11:09:01.000Z</time>
      </trkpt>
      <trkpt lat="44.42799" lon="6.81951">
        <ele>2525.3999023438</ele>
        <time>2022-03-06T11:09:02.000Z</time>
      </trkpt>
      <trkpt lat="44.42798" lon="6.81954">
        <ele>2526.1999511719</ele>
        <time>2022-03-06T11:09:06.000Z</time>
      </trkpt>
      <trkpt lat="44.42799" lon="6.81956">
        <ele>2526.3999023438</ele>
        <time>2022-03-06T11:09:08.000Z</time>
      </trkpt>
      <trkpt lat="44.42798" lon="6.81958">
        <ele>2526.8000488281</ele>
        <time>2022-03-06T11:09:12.000Z</time>
      </trkpt>
      <trkpt lat="44.42797" lon="6.81962">
        <ele>2527.1999511719</ele>
        <time>2022-03-06T11:09:18.000Z</time>
      </trkpt>
      <trkpt lat="44.42796" lon="6.81963">
        <ele>2527.6000976562</ele>
        <time>2022-03-06T11:09:23.000Z</time>
      </trkpt>
      <trkpt lat="44.42795" lon="6.81962">
        <ele>2527.8000488281</ele>
        <time>2022-03-06T11:09:25.000Z</time>
      </trkpt>
      <trkpt lat="44.42793" lon="6.81961">
        <ele>2527.8000488281</ele>
        <time>2022-03-06T11:09:27.000Z</time>
      </trkpt>
      <trkpt lat="44.42793" lon="6.8196">
        <ele>2528</ele>
        <time>2022-03-06T11:09:30.000Z</time>
      </trkpt>
      <trkpt lat="44.42792" lon="6.81957">
        <ele>2528.6000976562</ele>
        <time>2022-03-06T11:09:36.000Z</time>
      </trkpt>
      <trkpt lat="44.42793" lon="6.81957">
        <ele>2529.1999511719</ele>
        <time>2022-03-06T11:09:40.000Z</time>
      </trkpt>
      <trkpt lat="44.42791" lon="6.81954">
        <ele>2529.6000976562</ele>
        <time>2022-03-06T11:09:45.000Z</time>
      </trkpt>
      <trkpt lat="44.4279" lon="6.81952">
        <ele>2530.1999511719</ele>
        <time>2022-03-06T11:09:49.000Z</time>
      </trkpt>
      <trkpt lat="44.42789" lon="6.81951">
        <ele>2530.6000976562</ele>
        <time>2022-03-06T11:09:51.000Z</time>
      </trkpt>
      <trkpt lat="44.42786" lon="6.81948">
        <ele>2531.1999511719</ele>
        <time>2022-03-06T11:09:57.000Z</time>
      </trkpt>
      <trkpt lat="44.42784" lon="6.81946">
        <ele>2531.6000976562</ele>
        <time>2022-03-06T11:10:00.000Z</time>
      </trkpt>
      <trkpt lat="44.42782" lon="6.81941">
        <ele>2532.6000976562</ele>
        <time>2022-03-06T11:10:05.000Z</time>
      </trkpt>
      <trkpt lat="44.42782" lon="6.81941">
        <ele>2532.6000976562</ele>
        <time>2022-03-06T11:10:06.000Z</time>
      </trkpt>
      <trkpt lat="44.42781" lon="6.81937">
        <ele>2533.1999511719</ele>
        <time>2022-03-06T11:10:12.000Z</time>
      </trkpt>
      <trkpt lat="44.42782" lon="6.81936">
        <ele>2533.8000488281</ele>
        <time>2022-03-06T11:10:16.000Z</time>
      </trkpt>
      <trkpt lat="44.42781" lon="6.81935">
        <ele>2534.1999511719</ele>
        <time>2022-03-06T11:10:18.000Z</time>
      </trkpt>
      <trkpt lat="44.42779" lon="6.81931">
        <ele>2534.8000488281</ele>
        <time>2022-03-06T11:10:24.000Z</time>
      </trkpt>
      <trkpt lat="44.42779" lon="6.8193">
        <ele>2535</ele>
        <time>2022-03-06T11:10:26.000Z</time>
      </trkpt>
      <trkpt lat="44.42779" lon="6.81925">
        <ele>2536</ele>
        <time>2022-03-06T11:10:33.000Z</time>
      </trkpt>
      <trkpt lat="44.42778" lon="6.81923">
        <ele>2536.1999511719</ele>
        <time>2022-03-06T11:10:36.000Z</time>
      </trkpt>
      <trkpt lat="44.42779" lon="6.81919">
        <ele>2536.6000976562</ele>
        <time>2022-03-06T11:10:41.000Z</time>
      </trkpt>
      <trkpt lat="44.42779" lon="6.81919">
        <ele>2537</ele>
        <time>2022-03-06T11:10:43.000Z</time>
      </trkpt>
      <trkpt lat="44.4278" lon="6.81912">
        <ele>2538</ele>
        <time>2022-03-06T11:10:52.000Z</time>
      </trkpt>
      <trkpt lat="44.42779" lon="6.81907">
        <ele>2539</ele>
        <time>2022-03-06T11:11:00.000Z</time>
      </trkpt>
      <trkpt lat="44.4278" lon="6.81906">
        <ele>2539</ele>
        <time>2022-03-06T11:11:02.000Z</time>
      </trkpt>
      <trkpt lat="44.42782" lon="6.81902">
        <ele>2539.6000976562</ele>
        <time>2022-03-06T11:11:09.000Z</time>
      </trkpt>
      <trkpt lat="44.42783" lon="6.81899">
        <ele>2540.1999511719</ele>
        <time>2022-03-06T11:11:13.000Z</time>
      </trkpt>
      <trkpt lat="44.42783" lon="6.81898">
        <ele>2540.1999511719</ele>
        <time>2022-03-06T11:11:14.000Z</time>
      </trkpt>
      <trkpt lat="44.42784" lon="6.81899">
        <ele>2540.8000488281</ele>
        <time>2022-03-06T11:11:20.000Z</time>
      </trkpt>
      <trkpt lat="44.42784" lon="6.819">
        <ele>2541</ele>
        <time>2022-03-06T11:11:27.000Z</time>
      </trkpt>
      <trkpt lat="44.42783" lon="6.819">
        <ele>2541.1999511719</ele>
        <time>2022-03-06T11:11:28.000Z</time>
      </trkpt>
      <trkpt lat="44.42782" lon="6.81901">
        <ele>2542.1999511719</ele>
        <time>2022-03-06T11:11:35.000Z</time>
      </trkpt>
      <trkpt lat="44.42782" lon="6.81901">
        <ele>2542.1999511719</ele>
        <time>2022-03-06T11:11:36.000Z</time>
      </trkpt>
      <trkpt lat="44.4278" lon="6.81902">
        <ele>2542.6000976562</ele>
        <time>2022-03-06T11:11:43.000Z</time>
      </trkpt>
      <trkpt lat="44.4278" lon="6.81901">
        <ele>2542.6000976562</ele>
        <time>2022-03-06T11:11:56.000Z</time>
      </trkpt>
      <trkpt lat="44.42778" lon="6.819">
        <ele>2543.1999511719</ele>
        <time>2022-03-06T11:12:11.000Z</time>
      </trkpt>
      <trkpt lat="44.42776" lon="6.819">
        <ele>2544.3999023438</ele>
        <time>2022-03-06T11:12:19.000Z</time>
      </trkpt>
      <trkpt lat="44.42773" lon="6.81901">
        <ele>2544.8000488281</ele>
        <time>2022-03-06T11:12:25.000Z</time>
      </trkpt>
      <trkpt lat="44.42771" lon="6.81903">
        <ele>2545.3999023438</ele>
        <time>2022-03-06T11:12:30.000Z</time>
      </trkpt>
      <trkpt lat="44.42768" lon="6.81906">
        <ele>2546.6000976562</ele>
        <time>2022-03-06T11:12:38.000Z</time>
      </trkpt>
      <trkpt lat="44.42765" lon="6.81911">
        <ele>2547.6000976562</ele>
        <time>2022-03-06T11:12:49.000Z</time>
      </trkpt>
      <trkpt lat="44.42762" lon="6.81915">
        <ele>2548.6000976562</ele>
        <time>2022-03-06T11:12:58.000Z</time>
      </trkpt>
      <trkpt lat="44.42761" lon="6.81917">
        <ele>2549</ele>
        <time>2022-03-06T11:13:03.000Z</time>
      </trkpt>
      <trkpt lat="44.42759" lon="6.81921">
        <ele>2549.8000488281</ele>
        <time>2022-03-06T11:13:12.000Z</time>
      </trkpt>
      <trkpt lat="44.42756" lon="6.8192">
        <ele>2550.6000976562</ele>
        <time>2022-03-06T11:13:24.000Z</time>
      </trkpt>
      <trkpt lat="44.42755" lon="6.81918">
        <ele>2550.8000488281</ele>
        <time>2022-03-06T11:13:31.000Z</time>
      </trkpt>
      <trkpt lat="44.42754" lon="6.81916">
        <ele>2551.8000488281</ele>
        <time>2022-03-06T11:13:40.000Z</time>
      </trkpt>
      <trkpt lat="44.42754" lon="6.81912">
        <ele>2553</ele>
        <time>2022-03-06T11:13:56.000Z</time>
      </trkpt>
      <trkpt lat="44.42755" lon="6.81906">
        <ele>2554.1999511719</ele>
        <time>2022-03-06T11:14:08.000Z</time>
      </trkpt>
      <trkpt lat="44.42755" lon="6.81905">
        <ele>2554.3999023438</ele>
        <time>2022-03-06T11:14:11.000Z</time>
      </trkpt>
      <trkpt lat="44.42755" lon="6.81901">
        <ele>2555.1999511719</ele>
        <time>2022-03-06T11:14:19.000Z</time>
      </trkpt>
      <trkpt lat="44.42755" lon="6.81895">
        <ele>2556.3999023438</ele>
        <time>2022-03-06T11:14:29.000Z</time>
      </trkpt>
      <trkpt lat="44.42756" lon="6.81891">
        <ele>2557.3999023438</ele>
        <time>2022-03-06T11:14:37.000Z</time>
      </trkpt>
      <trkpt lat="44.42759" lon="6.81882">
        <ele>2558.3999023438</ele>
        <time>2022-03-06T11:14:56.000Z</time>
      </trkpt>
      <trkpt lat="44.42759" lon="6.81882">
        <ele>2559.3999023438</ele>
        <time>2022-03-06T11:15:07.000Z</time>
      </trkpt>
      <trkpt lat="44.42755" lon="6.81883">
        <ele>2560.3999023438</ele>
        <time>2022-03-06T11:15:20.000Z</time>
      </trkpt>
      <trkpt lat="44.42752" lon="6.81884">
        <ele>2561.3999023438</ele>
        <time>2022-03-06T11:15:30.000Z</time>
      </trkpt>
      <trkpt lat="44.42748" lon="6.81886">
        <ele>2562.6000976562</ele>
        <time>2022-03-06T11:15:40.000Z</time>
      </trkpt>
      <trkpt lat="44.42745" lon="6.81888">
        <ele>2563.6000976562</ele>
        <time>2022-03-06T11:15:50.000Z</time>
      </trkpt>
      <trkpt lat="44.42742" lon="6.8189">
        <ele>2564.6000976562</ele>
        <time>2022-03-06T11:16:00.000Z</time>
      </trkpt>
      <trkpt lat="44.42741" lon="6.81891">
        <ele>2565</ele>
        <time>2022-03-06T11:16:02.000Z</time>
      </trkpt>
      <trkpt lat="44.4274" lon="6.81893">
        <ele>2565.8000488281</ele>
        <time>2022-03-06T11:16:12.000Z</time>
      </trkpt>
      <trkpt lat="44.42738" lon="6.81897">
        <ele>2567</ele>
        <time>2022-03-06T11:16:26.000Z</time>
      </trkpt>
      <trkpt lat="44.42737" lon="6.819">
        <ele>2568</ele>
        <time>2022-03-06T11:16:38.000Z</time>
      </trkpt>
      <trkpt lat="44.42736" lon="6.81901">
        <ele>2569</ele>
        <time>2022-03-06T11:16:49.000Z</time>
      </trkpt>
      <trkpt lat="44.42736" lon="6.81901">
        <ele>2570.1999511719</ele>
        <time>2022-03-06T11:16:58.000Z</time>
      </trkpt>
      <trkpt lat="44.42736" lon="6.81901">
        <ele>2571.1999511719</ele>
        <time>2022-03-06T11:17:09.000Z</time>
      </trkpt>
      <trkpt lat="44.42736" lon="6.81902">
        <ele>2572.1999511719</ele>
        <time>2022-03-06T11:17:19.000Z</time>
      </trkpt>
      <trkpt lat="44.42736" lon="6.81902">
        <ele>2573.3999023438</ele>
        <time>2022-03-06T11:17:30.000Z</time>
      </trkpt>
      <trkpt lat="44.42736" lon="6.81902">
        <ele>2574.3999023438</ele>
        <time>2022-03-06T11:17:41.000Z</time>
      </trkpt>
      <trkpt lat="44.4272" lon="6.81905">
        <ele>2575.1999511719</ele>
        <time>2022-03-06T11:17:51.000Z</time>
      </trkpt>
      <trkpt lat="44.42719" lon="6.81906">
        <ele>2575.6000976562</ele>
        <time>2022-03-06T11:17:52.000Z</time>
      </trkpt>
      <trkpt lat="44.42718" lon="6.81905">
        <ele>2576.3999023438</ele>
        <time>2022-03-06T11:18:01.000Z</time>
      </trkpt>
      <trkpt lat="44.42719" lon="6.81905">
        <ele>2576.6000976562</ele>
        <time>2022-03-06T11:18:02.000Z</time>
      </trkpt>
      <trkpt lat="44.42718" lon="6.81902">
        <ele>2577.3999023438</ele>
        <time>2022-03-06T11:18:09.000Z</time>
      </trkpt>
      <trkpt lat="44.42718" lon="6.81902">
        <ele>2577.8000488281</ele>
        <time>2022-03-06T11:18:14.000Z</time>
      </trkpt>
      <trkpt lat="44.42718" lon="6.81902">
        <ele>2578.8000488281</ele>
        <time>2022-03-06T11:18:24.000Z</time>
      </trkpt>
      <trkpt lat="44.42718" lon="6.81898">
        <ele>2579.8000488281</ele>
        <time>2022-03-06T11:18:31.000Z</time>
      </trkpt>
      <trkpt lat="44.4272" lon="6.81893">
        <ele>2581</ele>
        <time>2022-03-06T11:18:46.000Z</time>
      </trkpt>
      <trkpt lat="44.4272" lon="6.81888">
        <ele>2582</ele>
        <time>2022-03-06T11:18:55.000Z</time>
      </trkpt>
      <trkpt lat="44.42719" lon="6.81883">
        <ele>2583</ele>
        <time>2022-03-06T11:19:26.000Z</time>
      </trkpt>
      <trkpt lat="44.42719" lon="6.81886">
        <ele>2584</ele>
        <time>2022-03-06T11:19:37.000Z</time>
      </trkpt>
      <trkpt lat="44.42717" lon="6.8189">
        <ele>2585</ele>
        <time>2022-03-06T11:19:47.000Z</time>
      </trkpt>
      <trkpt lat="44.42714" lon="6.81894">
        <ele>2586.1999511719</ele>
        <time>2022-03-06T11:19:56.000Z</time>
      </trkpt>
      <trkpt lat="44.4271" lon="6.81897">
        <ele>2587.1999511719</ele>
        <time>2022-03-06T11:20:06.000Z</time>
      </trkpt>
      <trkpt lat="44.42708" lon="6.81902">
        <ele>2588</ele>
        <time>2022-03-06T11:20:16.000Z</time>
      </trkpt>
      <trkpt lat="44.42707" lon="6.81904">
        <ele>2588.1999511719</ele>
        <time>2022-03-06T11:20:19.000Z</time>
      </trkpt>
      <trkpt lat="44.42705" lon="6.81907">
        <ele>2589.1999511719</ele>
        <time>2022-03-06T11:20:26.000Z</time>
      </trkpt>
      <trkpt lat="44.42702" lon="6.81912">
        <ele>2590.1999511719</ele>
        <time>2022-03-06T11:20:36.000Z</time>
      </trkpt>
      <trkpt lat="44.427" lon="6.81915">
        <ele>2591.3999023438</ele>
        <time>2022-03-06T11:20:44.000Z</time>
      </trkpt>
      <trkpt lat="44.42699" lon="6.81918">
        <ele>2592.3999023438</ele>
        <time>2022-03-06T11:20:52.000Z</time>
      </trkpt>
      <trkpt lat="44.42698" lon="6.81923">
        <ele>2593.6000976562</ele>
        <time>2022-03-06T11:21:01.000Z</time>
      </trkpt>
      <trkpt lat="44.42697" lon="6.81927">
        <ele>2594.6000976562</ele>
        <time>2022-03-06T11:21:11.000Z</time>
      </trkpt>
      <trkpt lat="44.42697" lon="6.81931">
        <ele>2595.8000488281</ele>
        <time>2022-03-06T11:21:20.000Z</time>
      </trkpt>
      <trkpt lat="44.42697" lon="6.81932">
        <ele>2596.8000488281</ele>
        <time>2022-03-06T11:21:27.000Z</time>
      </trkpt>
      <trkpt lat="44.42696" lon="6.81932">
        <ele>2597.8000488281</ele>
        <time>2022-03-06T11:21:39.000Z</time>
      </trkpt>
      <trkpt lat="44.42696" lon="6.81933">
        <ele>2598.8000488281</ele>
        <time>2022-03-06T11:21:49.000Z</time>
      </trkpt>
      <trkpt lat="44.42696" lon="6.81934">
        <ele>2598.3999023438</ele>
        <time>2022-03-06T11:22:34.000Z</time>
      </trkpt>
      <trkpt lat="44.42695" lon="6.81935">
        <ele>2600</ele>
        <time>2022-03-06T11:22:54.000Z</time>
      </trkpt>
      <trkpt lat="44.42695" lon="6.81935">
        <ele>2601.1999511719</ele>
        <time>2022-03-06T11:23:01.000Z</time>
      </trkpt>
      <trkpt lat="44.42695" lon="6.81936">
        <ele>2602.1999511719</ele>
        <time>2022-03-06T11:23:09.000Z</time>
      </trkpt>
      <trkpt lat="44.42695" lon="6.81936">
        <ele>2603.3999023438</ele>
        <time>2022-03-06T11:23:17.000Z</time>
      </trkpt>
      <trkpt lat="44.42695" lon="6.81936">
        <ele>2604.3999023438</ele>
        <time>2022-03-06T11:23:25.000Z</time>
      </trkpt>
      <trkpt lat="44.42694" lon="6.81937">
        <ele>2605.6000976562</ele>
        <time>2022-03-06T11:23:31.000Z</time>
      </trkpt>
      <trkpt lat="44.42694" lon="6.81937">
        <ele>2606.8000488281</ele>
        <time>2022-03-06T11:23:40.000Z</time>
      </trkpt>
      <trkpt lat="44.42694" lon="6.81938">
        <ele>2607.8000488281</ele>
        <time>2022-03-06T11:23:48.000Z</time>
      </trkpt>
      <trkpt lat="44.42693" lon="6.81939">
        <ele>2609</ele>
        <time>2022-03-06T11:23:55.000Z</time>
      </trkpt>
      <trkpt lat="44.42693" lon="6.81939">
        <ele>2610</ele>
        <time>2022-03-06T11:24:07.000Z</time>
      </trkpt>
      <trkpt lat="44.42692" lon="6.8194">
        <ele>2611.1999511719</ele>
        <time>2022-03-06T11:24:16.000Z</time>
      </trkpt>
      <trkpt lat="44.42692" lon="6.81941">
        <ele>2612.1999511719</ele>
        <time>2022-03-06T11:24:25.000Z</time>
      </trkpt>
      <trkpt lat="44.42674" lon="6.81947">
        <ele>2613</ele>
        <time>2022-03-06T11:24:30.000Z</time>
      </trkpt>
      <trkpt lat="44.4266" lon="6.81952">
        <ele>2613.1999511719</ele>
        <time>2022-03-06T11:24:34.000Z</time>
      </trkpt>
      <trkpt lat="44.42656" lon="6.81952">
        <ele>2613.3999023438</ele>
        <time>2022-03-06T11:24:36.000Z</time>
      </trkpt>
      <trkpt lat="44.42655" lon="6.81948">
        <ele>2614</ele>
        <time>2022-03-06T11:24:40.000Z</time>
      </trkpt>
      <trkpt lat="44.42653" lon="6.81947">
        <ele>2614.3999023438</ele>
        <time>2022-03-06T11:24:44.000Z</time>
      </trkpt>
      <trkpt lat="44.42652" lon="6.81947">
        <ele>2614.6000976562</ele>
        <time>2022-03-06T11:24:47.000Z</time>
      </trkpt>
      <trkpt lat="44.42648" lon="6.81948">
        <ele>2615.3999023438</ele>
        <time>2022-03-06T11:24:53.000Z</time>
      </trkpt>
      <trkpt lat="44.42646" lon="6.81947">
        <ele>2615.8000488281</ele>
        <time>2022-03-06T11:24:56.000Z</time>
      </trkpt>
      <trkpt lat="44.42648" lon="6.8195">
        <ele>2616.6000976562</ele>
        <time>2022-03-06T11:25:06.000Z</time>
      </trkpt>
      <trkpt lat="44.42648" lon="6.8195">
        <ele>2616.6000976562</ele>
        <time>2022-03-06T11:25:07.000Z</time>
      </trkpt>
      <trkpt lat="44.4265" lon="6.8195">
        <ele>2617.8000488281</ele>
        <time>2022-03-06T11:26:20.000Z</time>
      </trkpt>
      <trkpt lat="44.42645" lon="6.81951">
        <ele>2618.8000488281</ele>
        <time>2022-03-06T11:26:33.000Z</time>
      </trkpt>
      <trkpt lat="44.42643" lon="6.81952">
        <ele>2620</ele>
        <time>2022-03-06T11:26:39.000Z</time>
      </trkpt>
      <trkpt lat="44.42642" lon="6.81953">
        <ele>2621</ele>
        <time>2022-03-06T11:26:43.000Z</time>
      </trkpt>
      <trkpt lat="44.42638" lon="6.81961">
        <ele>2622.1999511719</ele>
        <time>2022-03-06T11:26:57.000Z</time>
      </trkpt>
      <trkpt lat="44.42637" lon="6.81965">
        <ele>2623.1999511719</ele>
        <time>2022-03-06T11:27:04.000Z</time>
      </trkpt>
      <trkpt lat="44.42635" lon="6.8197">
        <ele>2624.3999023438</ele>
        <time>2022-03-06T11:27:12.000Z</time>
      </trkpt>
      <trkpt lat="44.42631" lon="6.81979">
        <ele>2624.6000976562</ele>
        <time>2022-03-06T11:27:27.000Z</time>
      </trkpt>
      <trkpt lat="44.42629" lon="6.8198">
        <ele>2625.3999023438</ele>
        <time>2022-03-06T11:27:40.000Z</time>
      </trkpt>
      <trkpt lat="44.42629" lon="6.81981">
        <ele>2626.3999023438</ele>
        <time>2022-03-06T11:27:46.000Z</time>
      </trkpt>
      <trkpt lat="44.42629" lon="6.81983">
        <ele>2627.6000976562</ele>
        <time>2022-03-06T11:27:52.000Z</time>
      </trkpt>
      <trkpt lat="44.42627" lon="6.81991">
        <ele>2628.6000976562</ele>
        <time>2022-03-06T11:27:58.000Z</time>
      </trkpt>
      <trkpt lat="44.42624" lon="6.81998">
        <ele>2629.1999511719</ele>
        <time>2022-03-06T11:28:01.000Z</time>
      </trkpt>
      <trkpt lat="44.42622" lon="6.82009">
        <ele>2629.6000976562</ele>
        <time>2022-03-06T11:28:05.000Z</time>
      </trkpt>
      <trkpt lat="44.42622" lon="6.82009">
        <ele>2629.8000488281</ele>
        <time>2022-03-06T11:28:06.000Z</time>
      </trkpt>
      <trkpt lat="44.4262" lon="6.82012">
        <ele>2630.6000976562</ele>
        <time>2022-03-06T11:28:11.000Z</time>
      </trkpt>
      <trkpt lat="44.4262" lon="6.82013">
        <ele>2630.8000488281</ele>
        <time>2022-03-06T11:28:12.000Z</time>
      </trkpt>
      <trkpt lat="44.4262" lon="6.82014">
        <ele>2631.6000976562</ele>
        <time>2022-03-06T11:28:16.000Z</time>
      </trkpt>
      <trkpt lat="44.42619" lon="6.82016">
        <ele>2632</ele>
        <time>2022-03-06T11:28:18.000Z</time>
      </trkpt>
      <trkpt lat="44.42618" lon="6.8202">
        <ele>2632.8000488281</ele>
        <time>2022-03-06T11:28:24.000Z</time>
      </trkpt>
      <trkpt lat="44.42617" lon="6.82024">
        <ele>2633.8000488281</ele>
        <time>2022-03-06T11:28:30.000Z</time>
      </trkpt>
      <trkpt lat="44.42616" lon="6.82026">
        <ele>2634.1999511719</ele>
        <time>2022-03-06T11:28:34.000Z</time>
      </trkpt>
      <trkpt lat="44.42616" lon="6.82028">
        <ele>2634.8000488281</ele>
        <time>2022-03-06T11:28:37.000Z</time>
      </trkpt>
      <trkpt lat="44.42615" lon="6.82031">
        <ele>2635.1999511719</ele>
        <time>2022-03-06T11:28:42.000Z</time>
      </trkpt>
      <trkpt lat="44.42615" lon="6.82033">
        <ele>2635.8000488281</ele>
        <time>2022-03-06T11:28:46.000Z</time>
      </trkpt>
      <trkpt lat="44.42615" lon="6.82034">
        <ele>2636.1999511719</ele>
        <time>2022-03-06T11:28:48.000Z</time>
      </trkpt>
      <trkpt lat="44.42614" lon="6.82039">
        <ele>2637</ele>
        <time>2022-03-06T11:28:54.000Z</time>
      </trkpt>
      <trkpt lat="44.42614" lon="6.82041">
        <ele>2637.3999023438</ele>
        <time>2022-03-06T11:28:57.000Z</time>
      </trkpt>
      <trkpt lat="44.42614" lon="6.82045">
        <ele>2638</ele>
        <time>2022-03-06T11:29:02.000Z</time>
      </trkpt>
      <trkpt lat="44.42613" lon="6.82046">
        <ele>2638.3999023438</ele>
        <time>2022-03-06T11:29:05.000Z</time>
      </trkpt>
      <trkpt lat="44.42611" lon="6.82049">
        <ele>2639</ele>
        <time>2022-03-06T11:29:10.000Z</time>
      </trkpt>
      <trkpt lat="44.42611" lon="6.8205">
        <ele>2639.1999511719</ele>
        <time>2022-03-06T11:29:11.000Z</time>
      </trkpt>
      <trkpt lat="44.4261" lon="6.82054">
        <ele>2640</ele>
        <time>2022-03-06T11:29:17.000Z</time>
      </trkpt>
      <trkpt lat="44.4261" lon="6.82056">
        <ele>2640</ele>
        <time>2022-03-06T11:29:19.000Z</time>
      </trkpt>
      <trkpt lat="44.42607" lon="6.82059">
        <ele>2641</ele>
        <time>2022-03-06T11:29:24.000Z</time>
      </trkpt>
      <trkpt lat="44.42607" lon="6.82061">
        <ele>2641.1999511719</ele>
        <time>2022-03-06T11:29:27.000Z</time>
      </trkpt>
      <trkpt lat="44.42603" lon="6.82065">
        <ele>2642.3999023438</ele>
        <time>2022-03-06T11:29:37.000Z</time>
      </trkpt>
      <trkpt lat="44.426" lon="6.82071">
        <ele>2643.3999023438</ele>
        <time>2022-03-06T11:29:45.000Z</time>
      </trkpt>
      <trkpt lat="44.42597" lon="6.82076">
        <ele>2644.3999023438</ele>
        <time>2022-03-06T11:29:53.000Z</time>
      </trkpt>
      <trkpt lat="44.42596" lon="6.82079">
        <ele>2645.3999023438</ele>
        <time>2022-03-06T11:29:58.000Z</time>
      </trkpt>
      <trkpt lat="44.42596" lon="6.8208">
        <ele>2645.6000976562</ele>
        <time>2022-03-06T11:29:59.000Z</time>
      </trkpt>
      <trkpt lat="44.42595" lon="6.82083">
        <ele>2646.3999023438</ele>
        <time>2022-03-06T11:30:04.000Z</time>
      </trkpt>
      <trkpt lat="44.42594" lon="6.82084">
        <ele>2646.8000488281</ele>
        <time>2022-03-06T11:30:08.000Z</time>
      </trkpt>
      <trkpt lat="44.42591" lon="6.82083">
        <ele>2647.3999023438</ele>
        <time>2022-03-06T11:30:16.000Z</time>
      </trkpt>
      <trkpt lat="44.42591" lon="6.82083">
        <ele>2647.6000976562</ele>
        <time>2022-03-06T11:30:17.000Z</time>
      </trkpt>
      <trkpt lat="44.42591" lon="6.82082">
        <ele>2648.3999023438</ele>
        <time>2022-03-06T11:30:22.000Z</time>
      </trkpt>
      <trkpt lat="44.42591" lon="6.82082">
        <ele>2648.6000976562</ele>
        <time>2022-03-06T11:30:25.000Z</time>
      </trkpt>
      <trkpt lat="44.42591" lon="6.82083">
        <ele>2648.8000488281</ele>
        <time>2022-03-06T11:30:26.000Z</time>
      </trkpt>
      <trkpt lat="44.4259" lon="6.8208">
        <ele>2649.8000488281</ele>
        <time>2022-03-06T11:30:32.000Z</time>
      </trkpt>
      <trkpt lat="44.42589" lon="6.8208">
        <ele>2649.8000488281</ele>
        <time>2022-03-06T11:30:33.000Z</time>
      </trkpt>
      <trkpt lat="44.42589" lon="6.82079">
        <ele>2650.3999023438</ele>
        <time>2022-03-06T11:30:39.000Z</time>
      </trkpt>
      <trkpt lat="44.42589" lon="6.82078">
        <ele>2650.8000488281</ele>
        <time>2022-03-06T11:30:41.000Z</time>
      </trkpt>
      <trkpt lat="44.42588" lon="6.82077">
        <ele>2651</ele>
        <time>2022-03-06T11:30:42.000Z</time>
      </trkpt>
      <trkpt lat="44.42586" lon="6.82071">
        <ele>2651.8000488281</ele>
        <time>2022-03-06T11:30:49.000Z</time>
      </trkpt>
      <trkpt lat="44.42585" lon="6.82069">
        <ele>2652.1999511719</ele>
        <time>2022-03-06T11:30:53.000Z</time>
      </trkpt>
      <trkpt lat="44.42581" lon="6.82062">
        <ele>2652.8000488281</ele>
        <time>2022-03-06T11:31:01.000Z</time>
      </trkpt>
      <trkpt lat="44.4258" lon="6.8206">
        <ele>2653.6000976562</ele>
        <time>2022-03-06T11:31:06.000Z</time>
      </trkpt>
      <trkpt lat="44.42579" lon="6.82058">
        <ele>2653.8000488281</ele>
        <time>2022-03-06T11:31:09.000Z</time>
      </trkpt>
      <trkpt lat="44.42579" lon="6.82055">
        <ele>2654.8000488281</ele>
        <time>2022-03-06T11:31:16.000Z</time>
      </trkpt>
      <trkpt lat="44.42578" lon="6.82054">
        <ele>2655</ele>
        <time>2022-03-06T11:31:17.000Z</time>
      </trkpt>
      <trkpt lat="44.42574" lon="6.82046">
        <ele>2656.1999511719</ele>
        <time>2022-03-06T11:31:26.000Z</time>
      </trkpt>
      <trkpt lat="44.42574" lon="6.82045">
        <ele>2656.1999511719</ele>
        <time>2022-03-06T11:31:27.000Z</time>
      </trkpt>
      <trkpt lat="44.42574" lon="6.82045">
        <ele>2657.1999511719</ele>
        <time>2022-03-06T11:31:35.000Z</time>
      </trkpt>
      <trkpt lat="44.42574" lon="6.82045">
        <ele>2657.1999511719</ele>
        <time>2022-03-06T11:31:36.000Z</time>
      </trkpt>
      <trkpt lat="44.42573" lon="6.82044">
        <ele>2657.8000488281</ele>
        <time>2022-03-06T11:31:43.000Z</time>
      </trkpt>
      <trkpt lat="44.42573" lon="6.82045">
        <ele>2658.1999511719</ele>
        <time>2022-03-06T11:31:50.000Z</time>
      </trkpt>
      <trkpt lat="44.42573" lon="6.82045">
        <ele>2659.3999023438</ele>
        <time>2022-03-06T11:31:57.000Z</time>
      </trkpt>
      <trkpt lat="44.42571" lon="6.8205">
        <ele>2660.3999023438</ele>
        <time>2022-03-06T11:32:08.000Z</time>
      </trkpt>
      <trkpt lat="44.4257" lon="6.82064">
        <ele>2660.8000488281</ele>
        <time>2022-03-06T11:32:15.000Z</time>
      </trkpt>
      <trkpt lat="44.4257" lon="6.82074">
        <ele>2661.3999023438</ele>
        <time>2022-03-06T11:32:20.000Z</time>
      </trkpt>
      <trkpt lat="44.4257" lon="6.82076">
        <ele>2661.6000976562</ele>
        <time>2022-03-06T11:32:22.000Z</time>
      </trkpt>
      <trkpt lat="44.4257" lon="6.82079">
        <ele>2662.1999511719</ele>
        <time>2022-03-06T11:32:28.000Z</time>
      </trkpt>
      <trkpt lat="44.42568" lon="6.82081">
        <ele>2662.6000976562</ele>
        <time>2022-03-06T11:32:31.000Z</time>
      </trkpt>
      <trkpt lat="44.42568" lon="6.82089">
        <ele>2663.6000976562</ele>
        <time>2022-03-06T11:32:40.000Z</time>
      </trkpt>
      <trkpt lat="44.4257" lon="6.82094">
        <ele>2664.3999023438</ele>
        <time>2022-03-06T11:32:46.000Z</time>
      </trkpt>
      <trkpt lat="44.4257" lon="6.82096">
        <ele>2664.6000976562</ele>
        <time>2022-03-06T11:32:48.000Z</time>
      </trkpt>
      <trkpt lat="44.42571" lon="6.82101">
        <ele>2665.3999023438</ele>
        <time>2022-03-06T11:32:54.000Z</time>
      </trkpt>
      <trkpt lat="44.42571" lon="6.82103">
        <ele>2665.8000488281</ele>
        <time>2022-03-06T11:32:57.000Z</time>
      </trkpt>
      <trkpt lat="44.42571" lon="6.82105">
        <ele>2666</ele>
        <time>2022-03-06T11:33:00.000Z</time>
      </trkpt>
      <trkpt lat="44.42569" lon="6.82108">
        <ele>2666.3999023438</ele>
        <time>2022-03-06T11:33:05.000Z</time>
      </trkpt>
      <trkpt lat="44.42568" lon="6.8211">
        <ele>2666.8000488281</ele>
        <time>2022-03-06T11:33:08.000Z</time>
      </trkpt>
      <trkpt lat="44.42569" lon="6.82115">
        <ele>2667.3999023438</ele>
        <time>2022-03-06T11:33:13.000Z</time>
      </trkpt>
      <trkpt lat="44.42568" lon="6.82119">
        <ele>2668</ele>
        <time>2022-03-06T11:33:18.000Z</time>
      </trkpt>
      <trkpt lat="44.42568" lon="6.82121">
        <ele>2668</ele>
        <time>2022-03-06T11:33:20.000Z</time>
      </trkpt>
      <trkpt lat="44.42566" lon="6.82125">
        <ele>2668.8000488281</ele>
        <time>2022-03-06T11:33:26.000Z</time>
      </trkpt>
      <trkpt lat="44.42566" lon="6.82126">
        <ele>2669</ele>
        <time>2022-03-06T11:33:27.000Z</time>
      </trkpt>
      <trkpt lat="44.42564" lon="6.82131">
        <ele>2670.1999511719</ele>
        <time>2022-03-06T11:33:33.000Z</time>
      </trkpt>
      <trkpt lat="44.42563" lon="6.82136">
        <ele>2671</ele>
        <time>2022-03-06T11:33:41.000Z</time>
      </trkpt>
      <trkpt lat="44.42563" lon="6.82137">
        <ele>2671.1999511719</ele>
        <time>2022-03-06T11:33:42.000Z</time>
      </trkpt>
      <trkpt lat="44.42562" lon="6.82141">
        <ele>2672.1999511719</ele>
        <time>2022-03-06T11:33:48.000Z</time>
      </trkpt>
      <trkpt lat="44.42562" lon="6.82142">
        <ele>2672.1999511719</ele>
        <time>2022-03-06T11:33:50.000Z</time>
      </trkpt>
      <trkpt lat="44.42561" lon="6.82146">
        <ele>2673.1999511719</ele>
        <time>2022-03-06T11:33:55.000Z</time>
      </trkpt>
      <trkpt lat="44.4256" lon="6.82149">
        <ele>2674.1999511719</ele>
        <time>2022-03-06T11:34:02.000Z</time>
      </trkpt>
      <trkpt lat="44.42561" lon="6.82149">
        <ele>2674.3999023438</ele>
        <time>2022-03-06T11:34:05.000Z</time>
      </trkpt>
      <trkpt lat="44.42559" lon="6.82147">
        <ele>2674.6000976562</ele>
        <time>2022-03-06T11:34:09.000Z</time>
      </trkpt>
      <trkpt lat="44.42557" lon="6.82144">
        <ele>2675.3999023438</ele>
        <time>2022-03-06T11:34:16.000Z</time>
      </trkpt>
      <trkpt lat="44.42556" lon="6.82141">
        <ele>2676.6000976562</ele>
        <time>2022-03-06T11:34:22.000Z</time>
      </trkpt>
      <trkpt lat="44.42555" lon="6.82138">
        <ele>2677</ele>
        <time>2022-03-06T11:34:24.000Z</time>
      </trkpt>
      <trkpt lat="44.42554" lon="6.82134">
        <ele>2677.3999023438</ele>
        <time>2022-03-06T11:34:28.000Z</time>
      </trkpt>
      <trkpt lat="44.42553" lon="6.82133">
        <ele>2677.6000976562</ele>
        <time>2022-03-06T11:34:29.000Z</time>
      </trkpt>
      <trkpt lat="44.42552" lon="6.82129">
        <ele>2678.1999511719</ele>
        <time>2022-03-06T11:34:35.000Z</time>
      </trkpt>
      <trkpt lat="44.42551" lon="6.82128">
        <ele>2678.3999023438</ele>
        <time>2022-03-06T11:34:36.000Z</time>
      </trkpt>
      <trkpt lat="44.4255" lon="6.82126">
        <ele>2678.6000976562</ele>
        <time>2022-03-06T11:34:38.000Z</time>
      </trkpt>
      <trkpt lat="44.4255" lon="6.82125">
        <ele>2679.8000488281</ele>
        <time>2022-03-06T11:34:44.000Z</time>
      </trkpt>
      <trkpt lat="44.42549" lon="6.82124">
        <ele>2680</ele>
        <time>2022-03-06T11:34:46.000Z</time>
      </trkpt>
      <trkpt lat="44.42548" lon="6.82121">
        <ele>2680.8000488281</ele>
        <time>2022-03-06T11:34:50.000Z</time>
      </trkpt>
      <trkpt lat="44.42547" lon="6.8212">
        <ele>2681</ele>
        <time>2022-03-06T11:34:54.000Z</time>
      </trkpt>
      <trkpt lat="44.42545" lon="6.82117">
        <ele>2681.8000488281</ele>
        <time>2022-03-06T11:34:59.000Z</time>
      </trkpt>
      <trkpt lat="44.42544" lon="6.82111">
        <ele>2682.8000488281</ele>
        <time>2022-03-06T11:35:08.000Z</time>
      </trkpt>
      <trkpt lat="44.42542" lon="6.82106">
        <ele>2684</ele>
        <time>2022-03-06T11:35:14.000Z</time>
      </trkpt>
      <trkpt lat="44.42542" lon="6.82105">
        <ele>2684.1999511719</ele>
        <time>2022-03-06T11:35:15.000Z</time>
      </trkpt>
      <trkpt lat="44.4254" lon="6.82101">
        <ele>2684.6000976562</ele>
        <time>2022-03-06T11:35:21.000Z</time>
      </trkpt>
      <trkpt lat="44.42541" lon="6.82102">
        <ele>2684.8000488281</ele>
        <time>2022-03-06T11:35:27.000Z</time>
      </trkpt>
      <trkpt lat="44.42541" lon="6.82103">
        <ele>2685.1999511719</ele>
        <time>2022-03-06T11:35:29.000Z</time>
      </trkpt>
      <trkpt lat="44.4254" lon="6.82105">
        <ele>2685.6000976562</ele>
        <time>2022-03-06T11:35:32.000Z</time>
      </trkpt>
      <trkpt lat="44.42539" lon="6.82108">
        <ele>2686</ele>
        <time>2022-03-06T11:35:37.000Z</time>
      </trkpt>
      <trkpt lat="44.42538" lon="6.82109">
        <ele>2686.1999511719</ele>
        <time>2022-03-06T11:35:38.000Z</time>
      </trkpt>
      <trkpt lat="44.42537" lon="6.82112">
        <ele>2687</ele>
        <time>2022-03-06T11:35:45.000Z</time>
      </trkpt>
      <trkpt lat="44.42537" lon="6.82113">
        <ele>2687.1999511719</ele>
        <time>2022-03-06T11:35:46.000Z</time>
      </trkpt>
      <trkpt lat="44.42536" lon="6.8212">
        <ele>2688.3999023438</ele>
        <time>2022-03-06T11:35:56.000Z</time>
      </trkpt>
      <trkpt lat="44.42535" lon="6.8212">
        <ele>2688.3999023438</ele>
        <time>2022-03-06T11:35:57.000Z</time>
      </trkpt>
      <trkpt lat="44.42532" lon="6.82126">
        <ele>2689.1999511719</ele>
        <time>2022-03-06T11:36:05.000Z</time>
      </trkpt>
      <trkpt lat="44.42532" lon="6.82126">
        <ele>2689.3999023438</ele>
        <time>2022-03-06T11:36:06.000Z</time>
      </trkpt>
      <trkpt lat="44.42531" lon="6.82129">
        <ele>2689.8000488281</ele>
        <time>2022-03-06T11:36:09.000Z</time>
      </trkpt>
      <trkpt lat="44.42531" lon="6.82131">
        <ele>2690.3999023438</ele>
        <time>2022-03-06T11:36:13.000Z</time>
      </trkpt>
      <trkpt lat="44.42531" lon="6.82132">
        <ele>2690.6000976562</ele>
        <time>2022-03-06T11:36:14.000Z</time>
      </trkpt>
      <trkpt lat="44.4253" lon="6.82136">
        <ele>2691</ele>
        <time>2022-03-06T11:36:19.000Z</time>
      </trkpt>
      <trkpt lat="44.4253" lon="6.82139">
        <ele>2691.8000488281</ele>
        <time>2022-03-06T11:36:23.000Z</time>
      </trkpt>
      <trkpt lat="44.4253" lon="6.8214">
        <ele>2692.1999511719</ele>
        <time>2022-03-06T11:36:25.000Z</time>
      </trkpt>
      <trkpt lat="44.4253" lon="6.82144">
        <ele>2692.8000488281</ele>
        <time>2022-03-06T11:36:30.000Z</time>
      </trkpt>
      <trkpt lat="44.42529" lon="6.82145">
        <ele>2693</ele>
        <time>2022-03-06T11:36:33.000Z</time>
      </trkpt>
      <trkpt lat="44.42528" lon="6.82144">
        <ele>2693.3999023438</ele>
        <time>2022-03-06T11:36:40.000Z</time>
      </trkpt>
      <trkpt lat="44.42527" lon="6.82143">
        <ele>2693.8000488281</ele>
        <time>2022-03-06T11:36:44.000Z</time>
      </trkpt>
      <trkpt lat="44.42524" lon="6.82139">
        <ele>2694.8000488281</ele>
        <time>2022-03-06T11:36:51.000Z</time>
      </trkpt>
      <trkpt lat="44.42523" lon="6.82138">
        <ele>2695.1999511719</ele>
        <time>2022-03-06T11:36:52.000Z</time>
      </trkpt>
      <trkpt lat="44.4252" lon="6.82134">
        <ele>2696.1999511719</ele>
        <time>2022-03-06T11:37:00.000Z</time>
      </trkpt>
      <trkpt lat="44.42519" lon="6.82133">
        <ele>2696.3999023438</ele>
        <time>2022-03-06T11:37:01.000Z</time>
      </trkpt>
      <trkpt lat="44.42517" lon="6.82129">
        <ele>2697.3999023438</ele>
        <time>2022-03-06T11:37:09.000Z</time>
      </trkpt>
      <trkpt lat="44.42517" lon="6.82128">
        <ele>2697.6000976562</ele>
        <time>2022-03-06T11:37:11.000Z</time>
      </trkpt>
      <trkpt lat="44.4252" lon="6.82131">
        <ele>2697.6000976562</ele>
        <time>2022-03-06T11:37:20.000Z</time>
      </trkpt>
      <trkpt lat="44.4252" lon="6.82131">
        <ele>2698.3999023438</ele>
        <time>2022-03-06T11:37:31.000Z</time>
      </trkpt>
      <trkpt lat="44.42518" lon="6.8213">
        <ele>2699.1999511719</ele>
        <time>2022-03-06T11:37:38.000Z</time>
      </trkpt>
      <trkpt lat="44.42518" lon="6.82131">
        <ele>2699.3999023438</ele>
        <time>2022-03-06T11:37:41.000Z</time>
      </trkpt>
      <trkpt lat="44.42518" lon="6.82132">
        <ele>2700.3999023438</ele>
        <time>2022-03-06T11:37:49.000Z</time>
      </trkpt>
      <trkpt lat="44.42517" lon="6.82138">
        <ele>2701.6000976562</ele>
        <time>2022-03-06T11:37:56.000Z</time>
      </trkpt>
      <trkpt lat="44.42514" lon="6.82147">
        <ele>2702.8000488281</ele>
        <time>2022-03-06T11:38:04.000Z</time>
      </trkpt>
      <trkpt lat="44.42513" lon="6.82152">
        <ele>2703.3999023438</ele>
        <time>2022-03-06T11:38:07.000Z</time>
      </trkpt>
      <trkpt lat="44.42511" lon="6.82157">
        <ele>2703.6000976562</ele>
        <time>2022-03-06T11:38:13.000Z</time>
      </trkpt>
      <trkpt lat="44.42508" lon="6.82157">
        <ele>2703.8000488281</ele>
        <time>2022-03-06T11:38:19.000Z</time>
      </trkpt>
      <trkpt lat="44.42507" lon="6.82157">
        <ele>2704</ele>
        <time>2022-03-06T11:38:21.000Z</time>
      </trkpt>
      <trkpt lat="44.42506" lon="6.82158">
        <ele>2705</ele>
        <time>2022-03-06T11:38:24.000Z</time>
      </trkpt>
      <trkpt lat="44.425" lon="6.82156">
        <ele>2706.1999511719</ele>
        <time>2022-03-06T11:38:32.000Z</time>
      </trkpt>
      <trkpt lat="44.425" lon="6.82156">
        <ele>2706.3999023438</ele>
        <time>2022-03-06T11:38:33.000Z</time>
      </trkpt>
      <trkpt lat="44.42498" lon="6.82155">
        <ele>2707.1999511719</ele>
        <time>2022-03-06T11:38:37.000Z</time>
      </trkpt>
      <trkpt lat="44.42497" lon="6.82154">
        <ele>2707.8000488281</ele>
        <time>2022-03-06T11:38:40.000Z</time>
      </trkpt>
      <trkpt lat="44.42496" lon="6.82153">
        <ele>2708.1999511719</ele>
        <time>2022-03-06T11:38:43.000Z</time>
      </trkpt>
      <trkpt lat="44.42494" lon="6.82151">
        <ele>2709.1999511719</ele>
        <time>2022-03-06T11:38:48.000Z</time>
      </trkpt>
      <trkpt lat="44.42493" lon="6.82151">
        <ele>2709.3999023438</ele>
        <time>2022-03-06T11:38:49.000Z</time>
      </trkpt>
      <trkpt lat="44.42491" lon="6.8215">
        <ele>2710.3999023438</ele>
        <time>2022-03-06T11:38:55.000Z</time>
      </trkpt>
      <trkpt lat="44.42491" lon="6.82151">
        <ele>2710.6000976562</ele>
        <time>2022-03-06T11:38:56.000Z</time>
      </trkpt>
      <trkpt lat="44.4249" lon="6.82149">
        <ele>2711.1999511719</ele>
        <time>2022-03-06T11:39:02.000Z</time>
      </trkpt>
      <trkpt lat="44.42489" lon="6.82149">
        <ele>2711.6000976562</ele>
        <time>2022-03-06T11:39:05.000Z</time>
      </trkpt>
      <trkpt lat="44.42485" lon="6.82141">
        <ele>2712.8000488281</ele>
        <time>2022-03-06T11:39:15.000Z</time>
      </trkpt>
      <trkpt lat="44.42486" lon="6.82145">
        <ele>2713.6000976562</ele>
        <time>2022-03-06T11:39:23.000Z</time>
      </trkpt>
      <trkpt lat="44.42485" lon="6.82146">
        <ele>2713.8000488281</ele>
        <time>2022-03-06T11:39:24.000Z</time>
      </trkpt>
      <trkpt lat="44.42484" lon="6.82146">
        <ele>2714</ele>
        <time>2022-03-06T11:39:25.000Z</time>
      </trkpt>
      <trkpt lat="44.42482" lon="6.82149">
        <ele>2714.6000976562</ele>
        <time>2022-03-06T11:39:32.000Z</time>
      </trkpt>
      <trkpt lat="44.42482" lon="6.8215">
        <ele>2715</ele>
        <time>2022-03-06T11:39:34.000Z</time>
      </trkpt>
      <trkpt lat="44.42481" lon="6.82152">
        <ele>2715.6000976562</ele>
        <time>2022-03-06T11:39:38.000Z</time>
      </trkpt>
      <trkpt lat="44.4248" lon="6.82154">
        <ele>2716</ele>
        <time>2022-03-06T11:39:41.000Z</time>
      </trkpt>
      <trkpt lat="44.42478" lon="6.82156">
        <ele>2716.8000488281</ele>
        <time>2022-03-06T11:39:46.000Z</time>
      </trkpt>
      <trkpt lat="44.42477" lon="6.82157">
        <ele>2717</ele>
        <time>2022-03-06T11:39:48.000Z</time>
      </trkpt>
      <trkpt lat="44.42476" lon="6.82159">
        <ele>2717.6000976562</ele>
        <time>2022-03-06T11:39:52.000Z</time>
      </trkpt>
      <trkpt lat="44.42476" lon="6.82162">
        <ele>2718</ele>
        <time>2022-03-06T11:39:56.000Z</time>
      </trkpt>
      <trkpt lat="44.42475" lon="6.82163">
        <ele>2718.8000488281</ele>
        <time>2022-03-06T11:40:01.000Z</time>
      </trkpt>
      <trkpt lat="44.42474" lon="6.82163">
        <ele>2719</ele>
        <time>2022-03-06T11:40:06.000Z</time>
      </trkpt>
      <trkpt lat="44.42474" lon="6.82162">
        <ele>2719.1999511719</ele>
        <time>2022-03-06T11:40:08.000Z</time>
      </trkpt>
      <trkpt lat="44.4247" lon="6.82158">
        <ele>2720.1999511719</ele>
        <time>2022-03-06T11:40:17.000Z</time>
      </trkpt>
      <trkpt lat="44.42471" lon="6.82158">
        <ele>2720.8000488281</ele>
        <time>2022-03-06T11:40:20.000Z</time>
      </trkpt>
      <trkpt lat="44.42469" lon="6.82157">
        <ele>2721.1999511719</ele>
        <time>2022-03-06T11:40:23.000Z</time>
      </trkpt>
      <trkpt lat="44.42467" lon="6.82153">
        <ele>2722</ele>
        <time>2022-03-06T11:40:28.000Z</time>
      </trkpt>
      <trkpt lat="44.42467" lon="6.82153">
        <ele>2722.1999511719</ele>
        <time>2022-03-06T11:40:30.000Z</time>
      </trkpt>
      <trkpt lat="44.42465" lon="6.82149">
        <ele>2722.8000488281</ele>
        <time>2022-03-06T11:40:35.000Z</time>
      </trkpt>
      <trkpt lat="44.42464" lon="6.82146">
        <ele>2723.3999023438</ele>
        <time>2022-03-06T11:40:39.000Z</time>
      </trkpt>
      <trkpt lat="44.42464" lon="6.82143">
        <ele>2724.3999023438</ele>
        <time>2022-03-06T11:40:44.000Z</time>
      </trkpt>
      <trkpt lat="44.42462" lon="6.82141">
        <ele>2724.6000976562</ele>
        <time>2022-03-06T11:40:47.000Z</time>
      </trkpt>
      <trkpt lat="44.42462" lon="6.8214">
        <ele>2724.8000488281</ele>
        <time>2022-03-06T11:40:50.000Z</time>
      </trkpt>
      <trkpt lat="44.42461" lon="6.82137">
        <ele>2725.6000976562</ele>
        <time>2022-03-06T11:40:55.000Z</time>
      </trkpt>
      <trkpt lat="44.42462" lon="6.82137">
        <ele>2726.1999511719</ele>
        <time>2022-03-06T11:40:59.000Z</time>
      </trkpt>
      <trkpt lat="44.42461" lon="6.82135">
        <ele>2726.8000488281</ele>
        <time>2022-03-06T11:41:04.000Z</time>
      </trkpt>
      <trkpt lat="44.42461" lon="6.82135">
        <ele>2727</ele>
        <time>2022-03-06T11:41:06.000Z</time>
      </trkpt>
      <trkpt lat="44.42461" lon="6.82132">
        <ele>2727.8000488281</ele>
        <time>2022-03-06T11:41:12.000Z</time>
      </trkpt>
      <trkpt lat="44.42461" lon="6.8213">
        <ele>2728</ele>
        <time>2022-03-06T11:41:14.000Z</time>
      </trkpt>
      <trkpt lat="44.42461" lon="6.8213">
        <ele>2728.8000488281</ele>
        <time>2022-03-06T11:41:23.000Z</time>
      </trkpt>
      <trkpt lat="44.4246" lon="6.82132">
        <ele>2730</ele>
        <time>2022-03-06T11:41:31.000Z</time>
      </trkpt>
      <trkpt lat="44.42458" lon="6.82134">
        <ele>2730.6000976562</ele>
        <time>2022-03-06T11:41:42.000Z</time>
      </trkpt>
      <trkpt lat="44.42456" lon="6.82135">
        <ele>2731</ele>
        <time>2022-03-06T11:41:46.000Z</time>
      </trkpt>
      <trkpt lat="44.42454" lon="6.82135">
        <ele>2732</ele>
        <time>2022-03-06T11:41:58.000Z</time>
      </trkpt>
      <trkpt lat="44.42454" lon="6.82132">
        <ele>2733</ele>
        <time>2022-03-06T11:42:09.000Z</time>
      </trkpt>
      <trkpt lat="44.42453" lon="6.82132">
        <ele>2734.1999511719</ele>
        <time>2022-03-06T11:42:16.000Z</time>
      </trkpt>
      <trkpt lat="44.4245" lon="6.82136">
        <ele>2735.1999511719</ele>
        <time>2022-03-06T11:42:25.000Z</time>
      </trkpt>
      <trkpt lat="44.42446" lon="6.82141">
        <ele>2736.1999511719</ele>
        <time>2022-03-06T11:42:34.000Z</time>
      </trkpt>
      <trkpt lat="44.42441" lon="6.82146">
        <ele>2737.1999511719</ele>
        <time>2022-03-06T11:42:42.000Z</time>
      </trkpt>
      <trkpt lat="44.42435" lon="6.8216">
        <ele>2738.1999511719</ele>
        <time>2022-03-06T11:43:03.000Z</time>
      </trkpt>
      <trkpt lat="44.42433" lon="6.82161">
        <ele>2738.1999511719</ele>
        <time>2022-03-06T11:43:28.000Z</time>
      </trkpt>
      <trkpt lat="44.42433" lon="6.82162">
        <ele>2739.1999511719</ele>
        <time>2022-03-06T11:44:05.000Z</time>
      </trkpt>
      <trkpt lat="44.42433" lon="6.82162">
        <ele>2739.3999023438</ele>
        <time>2022-03-06T11:44:06.000Z</time>
      </trkpt>
      <trkpt lat="44.42433" lon="6.82162">
        <ele>2740.6000976562</ele>
        <time>2022-03-06T11:44:11.000Z</time>
      </trkpt>
      <trkpt lat="44.42432" lon="6.82161">
        <ele>2741.6000976562</ele>
        <time>2022-03-06T11:44:16.000Z</time>
      </trkpt>
      <trkpt lat="44.4243" lon="6.8216">
        <ele>2743</ele>
        <time>2022-03-06T11:44:22.000Z</time>
      </trkpt>
      <trkpt lat="44.42429" lon="6.82158">
        <ele>2744</ele>
        <time>2022-03-06T11:44:28.000Z</time>
      </trkpt>
      <trkpt lat="44.42429" lon="6.82158">
        <ele>2745</ele>
        <time>2022-03-06T11:44:33.000Z</time>
      </trkpt>
      <trkpt lat="44.42429" lon="6.82157">
        <ele>2746.1999511719</ele>
        <time>2022-03-06T11:44:39.000Z</time>
      </trkpt>
      <trkpt lat="44.42429" lon="6.82157">
        <ele>2747.1999511719</ele>
        <time>2022-03-06T11:44:48.000Z</time>
      </trkpt>
      <trkpt lat="44.42429" lon="6.82157">
        <ele>2748.1999511719</ele>
        <time>2022-03-06T11:44:59.000Z</time>
      </trkpt>
      <trkpt lat="44.42428" lon="6.82157">
        <ele>2748.1999511719</ele>
        <time>2022-03-06T11:45:00.000Z</time>
      </trkpt>
      <trkpt lat="44.42428" lon="6.82156">
        <ele>2749.3999023438</ele>
        <time>2022-03-06T11:45:11.000Z</time>
      </trkpt>
      <trkpt lat="44.42428" lon="6.82156">
        <ele>2750.6000976562</ele>
        <time>2022-03-06T11:45:19.000Z</time>
      </trkpt>
      <trkpt lat="44.42428" lon="6.82156">
        <ele>2751.6000976562</ele>
        <time>2022-03-06T11:45:25.000Z</time>
      </trkpt>
      <trkpt lat="44.42428" lon="6.82156">
        <ele>2752.6000976562</ele>
        <time>2022-03-06T11:45:33.000Z</time>
      </trkpt>
      <trkpt lat="44.42427" lon="6.82155">
        <ele>2753</ele>
        <time>2022-03-06T11:45:49.000Z</time>
      </trkpt>
      <trkpt lat="44.42424" lon="6.82154">
        <ele>2753.1999511719</ele>
        <time>2022-03-06T11:46:53.000Z</time>
      </trkpt>
      <trkpt lat="44.42423" lon="6.82153">
        <ele>2753.6000976562</ele>
        <time>2022-03-06T11:47:12.000Z</time>
      </trkpt>
      <trkpt lat="44.4242" lon="6.82152">
        <ele>2754</ele>
        <time>2022-03-06T11:48:32.000Z</time>
      </trkpt>
      <trkpt lat="44.42412" lon="6.82149">
        <ele>2752.6000976562</ele>
        <time>2022-03-06T11:52:50.000Z</time>
      </trkpt>
      <trkpt lat="44.42412" lon="6.82149">
        <ele>2752.6000976562</ele>
        <time>2022-03-06T11:52:55.000Z</time>
      </trkpt>
      <trkpt lat="44.4241" lon="6.82148">
        <ele>2752</ele>
        <time>2022-03-06T11:53:39.000Z</time>
      </trkpt>
      <trkpt lat="44.42409" lon="6.8215">
        <ele>2752</ele>
        <time>2022-03-06T11:53:40.000Z</time>
      </trkpt>
      <trkpt lat="44.42406" lon="6.82155">
        <ele>2751.6000976562</ele>
        <time>2022-03-06T11:53:42.000Z</time>
      </trkpt>
      <trkpt lat="44.42405" lon="6.82156">
        <ele>2751.1999511719</ele>
        <time>2022-03-06T11:53:43.000Z</time>
      </trkpt>
      <trkpt lat="44.424" lon="6.82158">
        <ele>2750</ele>
        <time>2022-03-06T11:53:47.000Z</time>
      </trkpt>
      <trkpt lat="44.42398" lon="6.82158">
        <ele>2750</ele>
        <time>2022-03-06T11:53:48.000Z</time>
      </trkpt>
      <trkpt lat="44.42396" lon="6.82161">
        <ele>2750</ele>
        <time>2022-03-06T11:53:56.000Z</time>
      </trkpt>
      <trkpt lat="44.42395" lon="6.82165">
        <ele>2750.6000976562</ele>
        <time>2022-03-06T11:54:00.000Z</time>
      </trkpt>
      <trkpt lat="44.42394" lon="6.82169">
        <ele>2750.6000976562</ele>
        <time>2022-03-06T11:54:03.000Z</time>
      </trkpt>
      <trkpt lat="44.42394" lon="6.82171">
        <ele>2751</ele>
        <time>2022-03-06T11:54:07.000Z</time>
      </trkpt>
      <trkpt lat="44.42394" lon="6.82172">
        <ele>2751.3999023438</ele>
        <time>2022-03-06T11:54:09.000Z</time>
      </trkpt>
      <trkpt lat="44.42394" lon="6.82173">
        <ele>2751.8000488281</ele>
        <time>2022-03-06T11:54:15.000Z</time>
      </trkpt>
      <trkpt lat="44.42393" lon="6.82176">
        <ele>2750</ele>
        <time>2022-03-06T11:55:07.000Z</time>
      </trkpt>
      <trkpt lat="44.42393" lon="6.82176">
        <ele>2749</ele>
        <time>2022-03-06T11:55:12.000Z</time>
      </trkpt>
      <trkpt lat="44.42394" lon="6.82176">
        <ele>2747.8000488281</ele>
        <time>2022-03-06T11:55:16.000Z</time>
      </trkpt>
      <trkpt lat="44.42395" lon="6.82176">
        <ele>2746.8000488281</ele>
        <time>2022-03-06T11:55:20.000Z</time>
      </trkpt>
      <trkpt lat="44.42404" lon="6.82175">
        <ele>2745.6000976562</ele>
        <time>2022-03-06T11:55:57.000Z</time>
      </trkpt>
      <trkpt lat="44.42408" lon="6.82182">
        <ele>2744.6000976562</ele>
        <time>2022-03-06T11:56:05.000Z</time>
      </trkpt>
      <trkpt lat="44.42409" lon="6.82184">
        <ele>2744.3999023438</ele>
        <time>2022-03-06T11:56:06.000Z</time>
      </trkpt>
      <trkpt lat="44.42412" lon="6.82189">
        <ele>2743.6000976562</ele>
        <time>2022-03-06T11:56:10.000Z</time>
      </trkpt>
      <trkpt lat="44.42413" lon="6.82191">
        <ele>2743.3999023438</ele>
        <time>2022-03-06T11:56:13.000Z</time>
      </trkpt>
      <trkpt lat="44.42415" lon="6.82197">
        <ele>2742.6000976562</ele>
        <time>2022-03-06T11:56:20.000Z</time>
      </trkpt>
      <trkpt lat="44.42415" lon="6.822">
        <ele>2742.3999023438</ele>
        <time>2022-03-06T11:56:23.000Z</time>
      </trkpt>
      <trkpt lat="44.42416" lon="6.82204">
        <ele>2742.1999511719</ele>
        <time>2022-03-06T11:56:27.000Z</time>
      </trkpt>
      <trkpt lat="44.42418" lon="6.82211">
        <ele>2742.3999023438</ele>
        <time>2022-03-06T11:56:34.000Z</time>
      </trkpt>
      <trkpt lat="44.42421" lon="6.8222">
        <ele>2743.1999511719</ele>
        <time>2022-03-06T11:56:44.000Z</time>
      </trkpt>
      <trkpt lat="44.42422" lon="6.82224">
        <ele>2743.6000976562</ele>
        <time>2022-03-06T11:56:49.000Z</time>
      </trkpt>
      <trkpt lat="44.42423" lon="6.82226">
        <ele>2744</ele>
        <time>2022-03-06T11:56:51.000Z</time>
      </trkpt>
      <trkpt lat="44.42424" lon="6.8223">
        <ele>2744.3999023438</ele>
        <time>2022-03-06T11:56:57.000Z</time>
      </trkpt>
      <trkpt lat="44.42424" lon="6.82231">
        <ele>2744.8000488281</ele>
        <time>2022-03-06T11:57:00.000Z</time>
      </trkpt>
      <trkpt lat="44.42425" lon="6.82234">
        <ele>2745.1999511719</ele>
        <time>2022-03-06T11:57:04.000Z</time>
      </trkpt>
      <trkpt lat="44.42427" lon="6.82237">
        <ele>2745.8000488281</ele>
        <time>2022-03-06T11:57:08.000Z</time>
      </trkpt>
      <trkpt lat="44.42428" lon="6.82241">
        <ele>2746.3999023438</ele>
        <time>2022-03-06T11:57:14.000Z</time>
      </trkpt>
      <trkpt lat="44.42427" lon="6.82242">
        <ele>2746.8000488281</ele>
        <time>2022-03-06T11:57:17.000Z</time>
      </trkpt>
      <trkpt lat="44.42428" lon="6.82245">
        <ele>2747</ele>
        <time>2022-03-06T11:57:22.000Z</time>
      </trkpt>
      <trkpt lat="44.42429" lon="6.8225">
        <ele>2747.8000488281</ele>
        <time>2022-03-06T11:57:28.000Z</time>
      </trkpt>
      <trkpt lat="44.42429" lon="6.8225">
        <ele>2748.1999511719</ele>
        <time>2022-03-06T11:57:30.000Z</time>
      </trkpt>
      <trkpt lat="44.42431" lon="6.82252">
        <ele>2748.8000488281</ele>
        <time>2022-03-06T11:57:36.000Z</time>
      </trkpt>
      <trkpt lat="44.42431" lon="6.82253">
        <ele>2748.8000488281</ele>
        <time>2022-03-06T11:57:37.000Z</time>
      </trkpt>
      <trkpt lat="44.42429" lon="6.82256">
        <ele>2749.3999023438</ele>
        <time>2022-03-06T11:57:43.000Z</time>
      </trkpt>
      <trkpt lat="44.42427" lon="6.82256">
        <ele>2749.8000488281</ele>
        <time>2022-03-06T11:57:46.000Z</time>
      </trkpt>
      <trkpt lat="44.42424" lon="6.82257">
        <ele>2750.8000488281</ele>
        <time>2022-03-06T11:57:53.000Z</time>
      </trkpt>
      <trkpt lat="44.42423" lon="6.82257">
        <ele>2751</ele>
        <time>2022-03-06T11:57:54.000Z</time>
      </trkpt>
      <trkpt lat="44.42419" lon="6.82257">
        <ele>2752</ele>
        <time>2022-03-06T11:58:02.000Z</time>
      </trkpt>
      <trkpt lat="44.42417" lon="6.82257">
        <ele>2752.8000488281</ele>
        <time>2022-03-06T11:58:07.000Z</time>
      </trkpt>
      <trkpt lat="44.42416" lon="6.82257">
        <ele>2753.1999511719</ele>
        <time>2022-03-06T11:58:09.000Z</time>
      </trkpt>
      <trkpt lat="44.42411" lon="6.82254">
        <ele>2754.1999511719</ele>
        <time>2022-03-06T11:58:19.000Z</time>
      </trkpt>
      <trkpt lat="44.42408" lon="6.82253">
        <ele>2755.3999023438</ele>
        <time>2022-03-06T11:58:29.000Z</time>
      </trkpt>
      <trkpt lat="44.42408" lon="6.82254">
        <ele>2755.6000976562</ele>
        <time>2022-03-06T11:58:30.000Z</time>
      </trkpt>
      <trkpt lat="44.4241" lon="6.82258">
        <ele>2756.3999023438</ele>
        <time>2022-03-06T11:58:40.000Z</time>
      </trkpt>
      <trkpt lat="44.4241" lon="6.82259">
        <ele>2756.3999023438</ele>
        <time>2022-03-06T11:58:41.000Z</time>
      </trkpt>
      <trkpt lat="44.42411" lon="6.8226">
        <ele>2757</ele>
        <time>2022-03-06T11:58:45.000Z</time>
      </trkpt>
      <trkpt lat="44.42411" lon="6.82261">
        <ele>2757</ele>
        <time>2022-03-06T11:58:46.000Z</time>
      </trkpt>
      <trkpt lat="44.42412" lon="6.82262">
        <ele>2757.6000976562</ele>
        <time>2022-03-06T11:58:49.000Z</time>
      </trkpt>
      <trkpt lat="44.42413" lon="6.82263">
        <ele>2757.8000488281</ele>
        <time>2022-03-06T11:58:52.000Z</time>
      </trkpt>
      <trkpt lat="44.42414" lon="6.82266">
        <ele>2758.6000976562</ele>
        <time>2022-03-06T11:58:56.000Z</time>
      </trkpt>
      <trkpt lat="44.42414" lon="6.82267">
        <ele>2758.8000488281</ele>
        <time>2022-03-06T11:58:57.000Z</time>
      </trkpt>
      <trkpt lat="44.42412" lon="6.82272">
        <ele>2759.6000976562</ele>
        <time>2022-03-06T11:59:04.000Z</time>
      </trkpt>
      <trkpt lat="44.42412" lon="6.82272">
        <ele>2759.8000488281</ele>
        <time>2022-03-06T11:59:05.000Z</time>
      </trkpt>
      <trkpt lat="44.42409" lon="6.82277">
        <ele>2760.8000488281</ele>
        <time>2022-03-06T11:59:14.000Z</time>
      </trkpt>
      <trkpt lat="44.42408" lon="6.82277">
        <ele>2761</ele>
        <time>2022-03-06T11:59:15.000Z</time>
      </trkpt>
      <trkpt lat="44.42405" lon="6.82279">
        <ele>2762</ele>
        <time>2022-03-06T11:59:22.000Z</time>
      </trkpt>
      <trkpt lat="44.42403" lon="6.82279">
        <ele>2762.6000976562</ele>
        <time>2022-03-06T11:59:27.000Z</time>
      </trkpt>
      <trkpt lat="44.42402" lon="6.82279">
        <ele>2763.1999511719</ele>
        <time>2022-03-06T11:59:29.000Z</time>
      </trkpt>
      <trkpt lat="44.42399" lon="6.82278">
        <ele>2764.3999023438</ele>
        <time>2022-03-06T11:59:36.000Z</time>
      </trkpt>
      <trkpt lat="44.42397" lon="6.82278">
        <ele>2765.1999511719</ele>
        <time>2022-03-06T11:59:43.000Z</time>
      </trkpt>
      <trkpt lat="44.42396" lon="6.82278">
        <ele>2765.6000976562</ele>
        <time>2022-03-06T11:59:45.000Z</time>
      </trkpt>
      <trkpt lat="44.42394" lon="6.82278">
        <ele>2766.8000488281</ele>
        <time>2022-03-06T11:59:50.000Z</time>
      </trkpt>
      <trkpt lat="44.42394" lon="6.82278">
        <ele>2767</ele>
        <time>2022-03-06T11:59:51.000Z</time>
      </trkpt>
      <trkpt lat="44.4239" lon="6.82278">
        <ele>2768</ele>
        <time>2022-03-06T12:00:00.000Z</time>
      </trkpt>
      <trkpt lat="44.42389" lon="6.82278">
        <ele>2768.3999023438</ele>
        <time>2022-03-06T12:00:02.000Z</time>
      </trkpt>
      <trkpt lat="44.42387" lon="6.82277">
        <ele>2769</ele>
        <time>2022-03-06T12:00:06.000Z</time>
      </trkpt>
      <trkpt lat="44.42384" lon="6.82276">
        <ele>2770</ele>
        <time>2022-03-06T12:00:12.000Z</time>
      </trkpt>
      <trkpt lat="44.42383" lon="6.82275">
        <ele>2770.6000976562</ele>
        <time>2022-03-06T12:00:16.000Z</time>
      </trkpt>
      <trkpt lat="44.42382" lon="6.82274">
        <ele>2771</ele>
        <time>2022-03-06T12:00:23.000Z</time>
      </trkpt>
      <trkpt lat="44.42382" lon="6.82273">
        <ele>2771</ele>
        <time>2022-03-06T12:00:32.000Z</time>
      </trkpt>
      <trkpt lat="44.42382" lon="6.82273">
        <ele>2771</ele>
        <time>2022-03-06T12:00:36.000Z</time>
      </trkpt>
      <trkpt lat="44.42382" lon="6.82273">
        <ele>2771</ele>
        <time>2022-03-06T12:00:38.000Z</time>
      </trkpt>
      <trkpt lat="44.42382" lon="6.8227">
        <ele>2770.8000488281</ele>
        <time>2022-03-06T12:03:06.000Z</time>
      </trkpt>
      <trkpt lat="44.42383" lon="6.82271">
        <ele>2772.1999511719</ele>
        <time>2022-03-06T12:04:10.000Z</time>
      </trkpt>
      <trkpt lat="44.42383" lon="6.82271">
        <ele>2773.1999511719</ele>
        <time>2022-03-06T12:04:16.000Z</time>
      </trkpt>
      <trkpt lat="44.42383" lon="6.82271">
        <ele>2774.3999023438</ele>
        <time>2022-03-06T12:04:24.000Z</time>
      </trkpt>
      <trkpt lat="44.42383" lon="6.82271">
        <ele>2775.3999023438</ele>
        <time>2022-03-06T12:04:29.000Z</time>
      </trkpt>
      <trkpt lat="44.42383" lon="6.82271">
        <ele>2776.3999023438</ele>
        <time>2022-03-06T12:04:41.000Z</time>
      </trkpt>
      <trkpt lat="44.42383" lon="6.82271">
        <ele>2777.8000488281</ele>
        <time>2022-03-06T12:04:50.000Z</time>
      </trkpt>
      <trkpt lat="44.42383" lon="6.82271">
        <ele>2778.8000488281</ele>
        <time>2022-03-06T12:04:54.000Z</time>
      </trkpt>
      <trkpt lat="44.42382" lon="6.82272">
        <ele>2779.8000488281</ele>
        <time>2022-03-06T12:05:09.000Z</time>
      </trkpt>
      <trkpt lat="44.42382" lon="6.82272">
        <ele>2780.8000488281</ele>
        <time>2022-03-06T12:05:19.000Z</time>
      </trkpt>
      <trkpt lat="44.42382" lon="6.82272">
        <ele>2782</ele>
        <time>2022-03-06T12:05:29.000Z</time>
      </trkpt>
      <trkpt lat="44.42382" lon="6.82272">
        <ele>2783</ele>
        <time>2022-03-06T12:05:36.000Z</time>
      </trkpt>
      <trkpt lat="44.42381" lon="6.82273">
        <ele>2784.1999511719</ele>
        <time>2022-03-06T12:05:45.000Z</time>
      </trkpt>
      <trkpt lat="44.42381" lon="6.82273">
        <ele>2785.1999511719</ele>
        <time>2022-03-06T12:05:56.000Z</time>
      </trkpt>
      <trkpt lat="44.42381" lon="6.82273">
        <ele>2786.1999511719</ele>
        <time>2022-03-06T12:06:08.000Z</time>
      </trkpt>
      <trkpt lat="44.42381" lon="6.82274">
        <ele>2787.1999511719</ele>
        <time>2022-03-06T12:06:17.000Z</time>
      </trkpt>
      <trkpt lat="44.4238" lon="6.82274">
        <ele>2788.1999511719</ele>
        <time>2022-03-06T12:06:24.000Z</time>
      </trkpt>
      <trkpt lat="44.4238" lon="6.82274">
        <ele>2788.3999023438</ele>
        <time>2022-03-06T12:06:25.000Z</time>
      </trkpt>
      <trkpt lat="44.4238" lon="6.82275">
        <ele>2789.3999023438</ele>
        <time>2022-03-06T12:06:37.000Z</time>
      </trkpt>
      <trkpt lat="44.4238" lon="6.82275">
        <ele>2790.3999023438</ele>
        <time>2022-03-06T12:06:44.000Z</time>
      </trkpt>
      <trkpt lat="44.42379" lon="6.82276">
        <ele>2791.6000976562</ele>
        <time>2022-03-06T12:06:56.000Z</time>
      </trkpt>
      <trkpt lat="44.42379" lon="6.82276">
        <ele>2792.6000976562</ele>
        <time>2022-03-06T12:07:03.000Z</time>
      </trkpt>
      <trkpt lat="44.42379" lon="6.82277">
        <ele>2793.6000976562</ele>
        <time>2022-03-06T12:07:10.000Z</time>
      </trkpt>
      <trkpt lat="44.42378" lon="6.82277">
        <ele>2794.8000488281</ele>
        <time>2022-03-06T12:07:20.000Z</time>
      </trkpt>
      <trkpt lat="44.42378" lon="6.82278">
        <ele>2795.8000488281</ele>
        <time>2022-03-06T12:07:31.000Z</time>
      </trkpt>
      <trkpt lat="44.42378" lon="6.82278">
        <ele>2796.8000488281</ele>
        <time>2022-03-06T12:07:38.000Z</time>
      </trkpt>
      <trkpt lat="44.42378" lon="6.82279">
        <ele>2797.8000488281</ele>
        <time>2022-03-06T12:07:46.000Z</time>
      </trkpt>
      <trkpt lat="44.42377" lon="6.8228">
        <ele>2799</ele>
        <time>2022-03-06T12:07:56.000Z</time>
      </trkpt>
      <trkpt lat="44.42377" lon="6.8228">
        <ele>2800</ele>
        <time>2022-03-06T12:08:04.000Z</time>
      </trkpt>
      <trkpt lat="44.42376" lon="6.82281">
        <ele>2801.1999511719</ele>
        <time>2022-03-06T12:08:16.000Z</time>
      </trkpt>
      <trkpt lat="44.42376" lon="6.82282">
        <ele>2802.1999511719</ele>
        <time>2022-03-06T12:08:26.000Z</time>
      </trkpt>
      <trkpt lat="44.42376" lon="6.82283">
        <ele>2803.1999511719</ele>
        <time>2022-03-06T12:08:35.000Z</time>
      </trkpt>
      <trkpt lat="44.42376" lon="6.82283">
        <ele>2804.3999023438</ele>
        <time>2022-03-06T12:08:43.000Z</time>
      </trkpt>
      <trkpt lat="44.42375" lon="6.82284">
        <ele>2805.6000976562</ele>
        <time>2022-03-06T12:08:53.000Z</time>
      </trkpt>
      <trkpt lat="44.42375" lon="6.82285">
        <ele>2806.6000976562</ele>
        <time>2022-03-06T12:09:03.000Z</time>
      </trkpt>
      <trkpt lat="44.42374" lon="6.82287">
        <ele>2807.8000488281</ele>
        <time>2022-03-06T12:09:19.000Z</time>
      </trkpt>
      <trkpt lat="44.42374" lon="6.82287">
        <ele>2808.8000488281</ele>
        <time>2022-03-06T12:09:27.000Z</time>
      </trkpt>
      <trkpt lat="44.42373" lon="6.82289">
        <ele>2809.8000488281</ele>
        <time>2022-03-06T12:09:38.000Z</time>
      </trkpt>
      <trkpt lat="44.42373" lon="6.82289">
        <ele>2810.8000488281</ele>
        <time>2022-03-06T12:09:45.000Z</time>
      </trkpt>
      <trkpt lat="44.42373" lon="6.8229">
        <ele>2811.3999023438</ele>
        <time>2022-03-06T12:09:47.000Z</time>
      </trkpt>
      <trkpt lat="44.42373" lon="6.8229">
        <ele>2811.8000488281</ele>
        <time>2022-03-06T12:09:50.000Z</time>
      </trkpt>
      <trkpt lat="44.42373" lon="6.82291">
        <ele>2813</ele>
        <time>2022-03-06T12:09:58.000Z</time>
      </trkpt>
      <trkpt lat="44.42372" lon="6.82292">
        <ele>2814</ele>
        <time>2022-03-06T12:10:07.000Z</time>
      </trkpt>
      <trkpt lat="44.42372" lon="6.82293">
        <ele>2815</ele>
        <time>2022-03-06T12:10:15.000Z</time>
      </trkpt>
      <trkpt lat="44.42372" lon="6.82294">
        <ele>2815.6000976562</ele>
        <time>2022-03-06T12:10:22.000Z</time>
      </trkpt>
      <trkpt lat="44.42371" lon="6.82294">
        <ele>2816</ele>
        <time>2022-03-06T12:10:25.000Z</time>
      </trkpt>
      <trkpt lat="44.42371" lon="6.82295">
        <ele>2817.1999511719</ele>
        <time>2022-03-06T12:10:35.000Z</time>
      </trkpt>
      <trkpt lat="44.42371" lon="6.82296">
        <ele>2817.8000488281</ele>
        <time>2022-03-06T12:10:39.000Z</time>
      </trkpt>
      <trkpt lat="44.42371" lon="6.82296">
        <ele>2818.1999511719</ele>
        <time>2022-03-06T12:10:42.000Z</time>
      </trkpt>
      <trkpt lat="44.4237" lon="6.82297">
        <ele>2819.1999511719</ele>
        <time>2022-03-06T12:10:50.000Z</time>
      </trkpt>
      <trkpt lat="44.4237" lon="6.82298">
        <ele>2819.8000488281</ele>
        <time>2022-03-06T12:10:55.000Z</time>
      </trkpt>
      <trkpt lat="44.4237" lon="6.82299">
        <ele>2820.1999511719</ele>
        <time>2022-03-06T12:11:00.000Z</time>
      </trkpt>
      <trkpt lat="44.42369" lon="6.823">
        <ele>2821.3999023438</ele>
        <time>2022-03-06T12:11:13.000Z</time>
      </trkpt>
      <trkpt lat="44.42369" lon="6.82301">
        <ele>2821.8000488281</ele>
        <time>2022-03-06T12:11:18.000Z</time>
      </trkpt>
      <trkpt lat="44.42368" lon="6.82302">
        <ele>2822.6000976562</ele>
        <time>2022-03-06T12:11:26.000Z</time>
      </trkpt>
      <trkpt lat="44.42368" lon="6.82302">
        <ele>2823.6000976562</ele>
        <time>2022-03-06T12:11:31.000Z</time>
      </trkpt>
      <trkpt lat="44.42367" lon="6.82304">
        <ele>2824.6000976562</ele>
        <time>2022-03-06T12:11:47.000Z</time>
      </trkpt>
      <trkpt lat="44.42366" lon="6.82307">
        <ele>2825.6000976562</ele>
        <time>2022-03-06T12:12:10.000Z</time>
      </trkpt>
      <trkpt lat="44.42365" lon="6.82308">
        <ele>2826.6000976562</ele>
        <time>2022-03-06T12:12:19.000Z</time>
      </trkpt>
      <trkpt lat="44.42365" lon="6.82309">
        <ele>2827.6000976562</ele>
        <time>2022-03-06T12:12:27.000Z</time>
      </trkpt>
      <trkpt lat="44.42365" lon="6.82309">
        <ele>2827.8000488281</ele>
        <time>2022-03-06T12:12:29.000Z</time>
      </trkpt>
      <trkpt lat="44.42364" lon="6.82309">
        <ele>2829</ele>
        <time>2022-03-06T12:12:36.000Z</time>
      </trkpt>
      <trkpt lat="44.42364" lon="6.8231">
        <ele>2830.1999511719</ele>
        <time>2022-03-06T12:12:43.000Z</time>
      </trkpt>
      <trkpt lat="44.42363" lon="6.82312">
        <ele>2830.6000976562</ele>
        <time>2022-03-06T12:12:59.000Z</time>
      </trkpt>
      <trkpt lat="44.42362" lon="6.82313">
        <ele>2831.1999511719</ele>
        <time>2022-03-06T12:13:06.000Z</time>
      </trkpt>
      <trkpt lat="44.42361" lon="6.82314">
        <ele>2832.1999511719</ele>
        <time>2022-03-06T12:13:22.000Z</time>
      </trkpt>
      <trkpt lat="44.42361" lon="6.82315">
        <ele>2833.1999511719</ele>
        <time>2022-03-06T12:13:29.000Z</time>
      </trkpt>
      <trkpt lat="44.42359" lon="6.82316">
        <ele>2834.3999023438</ele>
        <time>2022-03-06T12:13:48.000Z</time>
      </trkpt>
      <trkpt lat="44.42359" lon="6.82317">
        <ele>2835.3999023438</ele>
        <time>2022-03-06T12:13:55.000Z</time>
      </trkpt>
      <trkpt lat="44.42359" lon="6.82318">
        <ele>2836.6000976562</ele>
        <time>2022-03-06T12:14:02.000Z</time>
      </trkpt>
      <trkpt lat="44.42358" lon="6.82318">
        <ele>2837.8000488281</ele>
        <time>2022-03-06T12:14:10.000Z</time>
      </trkpt>
      <trkpt lat="44.42356" lon="6.8232">
        <ele>2838.8000488281</ele>
        <time>2022-03-06T12:14:32.000Z</time>
      </trkpt>
      <trkpt lat="44.42347" lon="6.8233">
        <ele>2839.1999511719</ele>
        <time>2022-03-06T12:16:48.000Z</time>
      </trkpt>
      <trkpt lat="44.42328" lon="6.82348">
        <ele>2839.8000488281</ele>
        <time>2022-03-06T12:23:42.000Z</time>
      </trkpt>
      <trkpt lat="44.42326" lon="6.8235">
        <ele>2840</ele>
        <time>2022-03-06T12:24:34.000Z</time>
      </trkpt>
      <trkpt lat="44.42324" lon="6.82351">
        <ele>2840.8000488281</ele>
        <time>2022-03-06T12:25:29.000Z</time>
      </trkpt>
      <trkpt lat="44.42324" lon="6.82352">
        <ele>2839.8000488281</ele>
        <time>2022-03-06T12:25:45.000Z</time>
      </trkpt>
      <trkpt lat="44.42315" lon="6.82363">
        <ele>2838.8000488281</ele>
        <time>2022-03-06T12:27:43.000Z</time>
      </trkpt>
      <trkpt lat="44.42313" lon="6.82365">
        <ele>2838.6000976562</ele>
        <time>2022-03-06T12:27:44.000Z</time>
      </trkpt>
      <trkpt lat="44.42307" lon="6.82373">
        <ele>2838.1999511719</ele>
        <time>2022-03-06T12:27:47.000Z</time>
      </trkpt>
      <trkpt lat="44.42303" lon="6.82377">
        <ele>2837.6000976562</ele>
        <time>2022-03-06T12:27:50.000Z</time>
      </trkpt>
      <trkpt lat="44.42303" lon="6.82377">
        <ele>2837.3999023438</ele>
        <time>2022-03-06T12:27:51.000Z</time>
      </trkpt>
      <trkpt lat="44.42304" lon="6.82378">
        <ele>2836.3999023438</ele>
        <time>2022-03-06T12:27:55.000Z</time>
      </trkpt>
      <trkpt lat="44.42305" lon="6.82379">
        <ele>2836</ele>
        <time>2022-03-06T12:27:57.000Z</time>
      </trkpt>
      <trkpt lat="44.42306" lon="6.8238">
        <ele>2835.1999511719</ele>
        <time>2022-03-06T12:27:59.000Z</time>
      </trkpt>
      <trkpt lat="44.42308" lon="6.82381">
        <ele>2834.6000976562</ele>
        <time>2022-03-06T12:28:03.000Z</time>
      </trkpt>
      <trkpt lat="44.42309" lon="6.82381">
        <ele>2834.1999511719</ele>
        <time>2022-03-06T12:28:04.000Z</time>
      </trkpt>
      <trkpt lat="44.42313" lon="6.82383">
        <ele>2832.8000488281</ele>
        <time>2022-03-06T12:28:10.000Z</time>
      </trkpt>
      <trkpt lat="44.42315" lon="6.82384">
        <ele>2832</ele>
        <time>2022-03-06T12:28:14.000Z</time>
      </trkpt>
      <trkpt lat="44.42315" lon="6.82385">
        <ele>2831.8000488281</ele>
        <time>2022-03-06T12:28:15.000Z</time>
      </trkpt>
      <trkpt lat="44.42315" lon="6.82388">
        <ele>2830.6000976562</ele>
        <time>2022-03-06T12:28:21.000Z</time>
      </trkpt>
      <trkpt lat="44.42315" lon="6.82389">
        <ele>2830.3999023438</ele>
        <time>2022-03-06T12:28:22.000Z</time>
      </trkpt>
      <trkpt lat="44.42314" lon="6.82391">
        <ele>2829.6000976562</ele>
        <time>2022-03-06T12:28:26.000Z</time>
      </trkpt>
      <trkpt lat="44.42314" lon="6.82392">
        <ele>2829.1999511719</ele>
        <time>2022-03-06T12:28:30.000Z</time>
      </trkpt>
      <trkpt lat="44.42314" lon="6.82393">
        <ele>2828.3999023438</ele>
        <time>2022-03-06T12:28:33.000Z</time>
      </trkpt>
      <trkpt lat="44.42317" lon="6.82393">
        <ele>2827.1999511719</ele>
        <time>2022-03-06T12:28:40.000Z</time>
      </trkpt>
      <trkpt lat="44.42317" lon="6.82393">
        <ele>2827</ele>
        <time>2022-03-06T12:28:41.000Z</time>
      </trkpt>
      <trkpt lat="44.4232" lon="6.82394">
        <ele>2826.1999511719</ele>
        <time>2022-03-06T12:28:50.000Z</time>
      </trkpt>
      <trkpt lat="44.42321" lon="6.82395">
        <ele>2825</ele>
        <time>2022-03-06T12:28:54.000Z</time>
      </trkpt>
      <trkpt lat="44.42326" lon="6.82396">
        <ele>2823.8000488281</ele>
        <time>2022-03-06T12:29:02.000Z</time>
      </trkpt>
      <trkpt lat="44.42327" lon="6.82396">
        <ele>2823.1999511719</ele>
        <time>2022-03-06T12:29:04.000Z</time>
      </trkpt>
      <trkpt lat="44.4233" lon="6.82396">
        <ele>2822.8000488281</ele>
        <time>2022-03-06T12:29:09.000Z</time>
      </trkpt>
      <trkpt lat="44.42332" lon="6.82397">
        <ele>2821.6000976562</ele>
        <time>2022-03-06T12:29:15.000Z</time>
      </trkpt>
      <trkpt lat="44.42333" lon="6.82397">
        <ele>2821.3999023438</ele>
        <time>2022-03-06T12:29:16.000Z</time>
      </trkpt>
      <trkpt lat="44.42338" lon="6.82397">
        <ele>2820.3999023438</ele>
        <time>2022-03-06T12:29:23.000Z</time>
      </trkpt>
      <trkpt lat="44.42339" lon="6.82397">
        <ele>2819.6000976562</ele>
        <time>2022-03-06T12:29:26.000Z</time>
      </trkpt>
      <trkpt lat="44.4234" lon="6.82398">
        <ele>2819.3999023438</ele>
        <time>2022-03-06T12:29:28.000Z</time>
      </trkpt>
      <trkpt lat="44.42342" lon="6.82399">
        <ele>2818.1999511719</ele>
        <time>2022-03-06T12:29:33.000Z</time>
      </trkpt>
      <trkpt lat="44.42345" lon="6.82401">
        <ele>2817</ele>
        <time>2022-03-06T12:29:40.000Z</time>
      </trkpt>
      <trkpt lat="44.42347" lon="6.82402">
        <ele>2816.3999023438</ele>
        <time>2022-03-06T12:29:43.000Z</time>
      </trkpt>
      <trkpt lat="44.42349" lon="6.82402">
        <ele>2815.8000488281</ele>
        <time>2022-03-06T12:29:47.000Z</time>
      </trkpt>
      <trkpt lat="44.42351" lon="6.82403">
        <ele>2815</ele>
        <time>2022-03-06T12:29:51.000Z</time>
      </trkpt>
      <trkpt lat="44.42352" lon="6.82403">
        <ele>2814.3999023438</ele>
        <time>2022-03-06T12:29:53.000Z</time>
      </trkpt>
      <trkpt lat="44.42355" lon="6.82406">
        <ele>2813.6000976562</ele>
        <time>2022-03-06T12:29:59.000Z</time>
      </trkpt>
      <trkpt lat="44.42355" lon="6.82406">
        <ele>2813.3999023438</ele>
        <time>2022-03-06T12:30:00.000Z</time>
      </trkpt>
      <trkpt lat="44.42356" lon="6.82407">
        <ele>2813.1999511719</ele>
        <time>2022-03-06T12:30:02.000Z</time>
      </trkpt>
      <trkpt lat="44.42357" lon="6.82407">
        <ele>2812.3999023438</ele>
        <time>2022-03-06T12:30:05.000Z</time>
      </trkpt>
      <trkpt lat="44.42358" lon="6.82407">
        <ele>2812.1999511719</ele>
        <time>2022-03-06T12:30:07.000Z</time>
      </trkpt>
      <trkpt lat="44.42361" lon="6.82407">
        <ele>2811.3999023438</ele>
        <time>2022-03-06T12:30:12.000Z</time>
      </trkpt>
      <trkpt lat="44.42362" lon="6.82409">
        <ele>2810.8000488281</ele>
        <time>2022-03-06T12:30:15.000Z</time>
      </trkpt>
      <trkpt lat="44.42363" lon="6.82412">
        <ele>2810.3999023438</ele>
        <time>2022-03-06T12:30:18.000Z</time>
      </trkpt>
      <trkpt lat="44.42366" lon="6.82413">
        <ele>2809.3999023438</ele>
        <time>2022-03-06T12:30:23.000Z</time>
      </trkpt>
      <trkpt lat="44.42368" lon="6.82415">
        <ele>2808.1999511719</ele>
        <time>2022-03-06T12:30:27.000Z</time>
      </trkpt>
      <trkpt lat="44.4237" lon="6.82416">
        <ele>2807.8000488281</ele>
        <time>2022-03-06T12:30:29.000Z</time>
      </trkpt>
      <trkpt lat="44.4237" lon="6.82415">
        <ele>2807</ele>
        <time>2022-03-06T12:30:31.000Z</time>
      </trkpt>
      <trkpt lat="44.42371" lon="6.82413">
        <ele>2805.8000488281</ele>
        <time>2022-03-06T12:30:36.000Z</time>
      </trkpt>
      <trkpt lat="44.42373" lon="6.82408">
        <ele>2804.8000488281</ele>
        <time>2022-03-06T12:30:41.000Z</time>
      </trkpt>
      <trkpt lat="44.42375" lon="6.82404">
        <ele>2804</ele>
        <time>2022-03-06T12:30:46.000Z</time>
      </trkpt>
      <trkpt lat="44.42375" lon="6.82403">
        <ele>2803.8000488281</ele>
        <time>2022-03-06T12:30:47.000Z</time>
      </trkpt>
      <trkpt lat="44.42376" lon="6.824">
        <ele>2802.3999023438</ele>
        <time>2022-03-06T12:30:51.000Z</time>
      </trkpt>
      <trkpt lat="44.42377" lon="6.82396">
        <ele>2801.3999023438</ele>
        <time>2022-03-06T12:30:56.000Z</time>
      </trkpt>
      <trkpt lat="44.42377" lon="6.82395">
        <ele>2801.1999511719</ele>
        <time>2022-03-06T12:30:57.000Z</time>
      </trkpt>
      <trkpt lat="44.42377" lon="6.82389">
        <ele>2800.1999511719</ele>
        <time>2022-03-06T12:31:04.000Z</time>
      </trkpt>
      <trkpt lat="44.42377" lon="6.82388">
        <ele>2800.1999511719</ele>
        <time>2022-03-06T12:31:05.000Z</time>
      </trkpt>
      <trkpt lat="44.42378" lon="6.82382">
        <ele>2799.1999511719</ele>
        <time>2022-03-06T12:31:12.000Z</time>
      </trkpt>
      <trkpt lat="44.42378" lon="6.82382">
        <ele>2798.8000488281</ele>
        <time>2022-03-06T12:31:14.000Z</time>
      </trkpt>
      <trkpt lat="44.42379" lon="6.8238">
        <ele>2798</ele>
        <time>2022-03-06T12:31:17.000Z</time>
      </trkpt>
      <trkpt lat="44.42379" lon="6.82376">
        <ele>2797</ele>
        <time>2022-03-06T12:31:21.000Z</time>
      </trkpt>
      <trkpt lat="44.4238" lon="6.82374">
        <ele>2796.6000976562</ele>
        <time>2022-03-06T12:31:23.000Z</time>
      </trkpt>
      <trkpt lat="44.42382" lon="6.82371">
        <ele>2795.8000488281</ele>
        <time>2022-03-06T12:31:27.000Z</time>
      </trkpt>
      <trkpt lat="44.42384" lon="6.82367">
        <ele>2794.6000976562</ele>
        <time>2022-03-06T12:31:32.000Z</time>
      </trkpt>
      <trkpt lat="44.42385" lon="6.82363">
        <ele>2793.6000976562</ele>
        <time>2022-03-06T12:31:37.000Z</time>
      </trkpt>
      <trkpt lat="44.42385" lon="6.82362">
        <ele>2793.1999511719</ele>
        <time>2022-03-06T12:31:40.000Z</time>
      </trkpt>
      <trkpt lat="44.42386" lon="6.82359">
        <ele>2792.6000976562</ele>
        <time>2022-03-06T12:31:46.000Z</time>
      </trkpt>
      <trkpt lat="44.42386" lon="6.82353">
        <ele>2791.8000488281</ele>
        <time>2022-03-06T12:31:56.000Z</time>
      </trkpt>
      <trkpt lat="44.42385" lon="6.82352">
        <ele>2791.3999023438</ele>
        <time>2022-03-06T12:31:59.000Z</time>
      </trkpt>
      <trkpt lat="44.42385" lon="6.8235">
        <ele>2790.8000488281</ele>
        <time>2022-03-06T12:32:04.000Z</time>
      </trkpt>
      <trkpt lat="44.42385" lon="6.82349">
        <ele>2790.3999023438</ele>
        <time>2022-03-06T12:32:09.000Z</time>
      </trkpt>
      <trkpt lat="44.42384" lon="6.82346">
        <ele>2789.8000488281</ele>
        <time>2022-03-06T12:32:14.000Z</time>
      </trkpt>
      <trkpt lat="44.42384" lon="6.82345">
        <ele>2789.3999023438</ele>
        <time>2022-03-06T12:32:16.000Z</time>
      </trkpt>
      <trkpt lat="44.42384" lon="6.82341">
        <ele>2788</ele>
        <time>2022-03-06T12:32:21.000Z</time>
      </trkpt>
      <trkpt lat="44.42383" lon="6.82339">
        <ele>2787.8000488281</ele>
        <time>2022-03-06T12:32:23.000Z</time>
      </trkpt>
      <trkpt lat="44.42382" lon="6.8233">
        <ele>2787</ele>
        <time>2022-03-06T12:32:32.000Z</time>
      </trkpt>
      <trkpt lat="44.42382" lon="6.8233">
        <ele>2787</ele>
        <time>2022-03-06T12:32:33.000Z</time>
      </trkpt>
      <trkpt lat="44.42381" lon="6.82324">
        <ele>2786.1999511719</ele>
        <time>2022-03-06T12:32:38.000Z</time>
      </trkpt>
      <trkpt lat="44.42379" lon="6.82319">
        <ele>2786</ele>
        <time>2022-03-06T12:32:43.000Z</time>
      </trkpt>
      <trkpt lat="44.42377" lon="6.82313">
        <ele>2786</ele>
        <time>2022-03-06T12:32:49.000Z</time>
      </trkpt>
      <trkpt lat="44.42375" lon="6.82308">
        <ele>2785.6000976562</ele>
        <time>2022-03-06T12:32:54.000Z</time>
      </trkpt>
      <trkpt lat="44.42372" lon="6.82304">
        <ele>2784.8000488281</ele>
        <time>2022-03-06T12:32:58.000Z</time>
      </trkpt>
      <trkpt lat="44.4237" lon="6.82299">
        <ele>2783.8000488281</ele>
        <time>2022-03-06T12:33:03.000Z</time>
      </trkpt>
      <trkpt lat="44.4237" lon="6.82298">
        <ele>2783.8000488281</ele>
        <time>2022-03-06T12:33:04.000Z</time>
      </trkpt>
      <trkpt lat="44.42368" lon="6.82292">
        <ele>2782.8000488281</ele>
        <time>2022-03-06T12:33:10.000Z</time>
      </trkpt>
      <trkpt lat="44.42368" lon="6.82291">
        <ele>2782.6000976562</ele>
        <time>2022-03-06T12:33:11.000Z</time>
      </trkpt>
      <trkpt lat="44.42367" lon="6.82287">
        <ele>2781.6000976562</ele>
        <time>2022-03-06T12:33:16.000Z</time>
      </trkpt>
      <trkpt lat="44.42366" lon="6.82283">
        <ele>2780.6000976562</ele>
        <time>2022-03-06T12:33:19.000Z</time>
      </trkpt>
      <trkpt lat="44.42366" lon="6.82283">
        <ele>2780.3999023438</ele>
        <time>2022-03-06T12:33:20.000Z</time>
      </trkpt>
      <trkpt lat="44.42367" lon="6.82276">
        <ele>2779.3999023438</ele>
        <time>2022-03-06T12:33:26.000Z</time>
      </trkpt>
      <trkpt lat="44.42368" lon="6.82276">
        <ele>2779.1999511719</ele>
        <time>2022-03-06T12:33:27.000Z</time>
      </trkpt>
      <trkpt lat="44.4237" lon="6.82273">
        <ele>2778.1999511719</ele>
        <time>2022-03-06T12:33:30.000Z</time>
      </trkpt>
      <trkpt lat="44.42374" lon="6.82272">
        <ele>2777.3999023438</ele>
        <time>2022-03-06T12:33:34.000Z</time>
      </trkpt>
      <trkpt lat="44.42375" lon="6.82272">
        <ele>2777.1999511719</ele>
        <time>2022-03-06T12:33:35.000Z</time>
      </trkpt>
      <trkpt lat="44.42379" lon="6.82271">
        <ele>2776</ele>
        <time>2022-03-06T12:33:41.000Z</time>
      </trkpt>
      <trkpt lat="44.4238" lon="6.82272">
        <ele>2775.8000488281</ele>
        <time>2022-03-06T12:33:42.000Z</time>
      </trkpt>
      <trkpt lat="44.4238" lon="6.82272">
        <ele>2775.3999023438</ele>
        <time>2022-03-06T12:33:43.000Z</time>
      </trkpt>
      <trkpt lat="44.42381" lon="6.82272">
        <ele>2775.1999511719</ele>
        <time>2022-03-06T12:33:49.000Z</time>
      </trkpt>
      <trkpt lat="44.42382" lon="6.82272">
        <ele>2775.1999511719</ele>
        <time>2022-03-06T12:33:55.000Z</time>
      </trkpt>
      <trkpt lat="44.42382" lon="6.82272">
        <ele>2775</ele>
        <time>2022-03-06T12:33:56.000Z</time>
      </trkpt>
      <trkpt lat="44.42381" lon="6.82269">
        <ele>2774</ele>
        <time>2022-03-06T12:36:24.000Z</time>
      </trkpt>
      <trkpt lat="44.42382" lon="6.82269">
        <ele>2774</ele>
        <time>2022-03-06T12:37:21.000Z</time>
      </trkpt>
      <trkpt lat="44.42378" lon="6.82272">
        <ele>2773.8000488281</ele>
        <time>2022-03-06T12:37:29.000Z</time>
      </trkpt>
      <trkpt lat="44.42377" lon="6.82274">
        <ele>2773.3999023438</ele>
        <time>2022-03-06T12:37:42.000Z</time>
      </trkpt>
      <trkpt lat="44.42378" lon="6.82274">
        <ele>2773.6000976562</ele>
        <time>2022-03-06T12:37:56.000Z</time>
      </trkpt>
      <trkpt lat="44.42382" lon="6.82273">
        <ele>2773.3999023438</ele>
        <time>2022-03-06T12:38:22.000Z</time>
      </trkpt>
      <trkpt lat="44.4238" lon="6.82271">
        <ele>2773.6000976562</ele>
        <time>2022-03-06T12:39:31.000Z</time>
      </trkpt>
      <trkpt lat="44.42383" lon="6.82271">
        <ele>2775.1999511719</ele>
        <time>2022-03-06T12:40:33.000Z</time>
      </trkpt>
      <trkpt lat="44.42383" lon="6.82271">
        <ele>2774</ele>
        <time>2022-03-06T12:40:56.000Z</time>
      </trkpt>
      <trkpt lat="44.42383" lon="6.82272">
        <ele>2775.1999511719</ele>
        <time>2022-03-06T12:41:28.000Z</time>
      </trkpt>
      <trkpt lat="44.42383" lon="6.82271">
        <ele>2774</ele>
        <time>2022-03-06T12:42:39.000Z</time>
      </trkpt>
      <trkpt lat="44.42383" lon="6.82271">
        <ele>2774.3999023438</ele>
        <time>2022-03-06T12:43:56.000Z</time>
      </trkpt>
      <trkpt lat="44.42383" lon="6.82271">
        <ele>2774</ele>
        <time>2022-03-06T12:44:24.000Z</time>
      </trkpt>
      <trkpt lat="44.42383" lon="6.82271">
        <ele>2775</ele>
        <time>2022-03-06T12:45:22.000Z</time>
      </trkpt>
      <trkpt lat="44.42383" lon="6.82271">
        <ele>2775</ele>
        <time>2022-03-06T12:45:25.000Z</time>
      </trkpt>
      <trkpt lat="44.42383" lon="6.82271">
        <ele>2774.6000976562</ele>
        <time>2022-03-06T12:45:57.000Z</time>
      </trkpt>
      <trkpt lat="44.42384" lon="6.82271">
        <ele>2774</ele>
        <time>2022-03-06T12:48:26.000Z</time>
      </trkpt>
      <trkpt lat="44.42384" lon="6.82271">
        <ele>2774.1999511719</ele>
        <time>2022-03-06T12:48:40.000Z</time>
      </trkpt>
      <trkpt lat="44.42383" lon="6.8227">
        <ele>2774.1999511719</ele>
        <time>2022-03-06T12:49:08.000Z</time>
      </trkpt>
      <trkpt lat="44.42383" lon="6.8227">
        <ele>2773.8000488281</ele>
        <time>2022-03-06T12:49:47.000Z</time>
      </trkpt>
      <trkpt lat="44.42383" lon="6.8227">
        <ele>2774.8000488281</ele>
        <time>2022-03-06T12:56:39.000Z</time>
      </trkpt>
      <trkpt lat="44.42383" lon="6.82271">
        <ele>2775.1999511719</ele>
        <time>2022-03-06T12:56:52.000Z</time>
      </trkpt>
      <trkpt lat="44.42385" lon="6.8227">
        <ele>2774.8000488281</ele>
        <time>2022-03-06T12:57:43.000Z</time>
      </trkpt>
      <trkpt lat="44.42382" lon="6.82272">
        <ele>2776</ele>
        <time>2022-03-06T12:59:44.000Z</time>
      </trkpt>
      <trkpt lat="44.42382" lon="6.82272">
        <ele>2776.1999511719</ele>
        <time>2022-03-06T13:00:03.000Z</time>
      </trkpt>
      <trkpt lat="44.42382" lon="6.82272">
        <ele>2776.1999511719</ele>
        <time>2022-03-06T13:00:37.000Z</time>
      </trkpt>
      <trkpt lat="44.42382" lon="6.82271">
        <ele>2776.8000488281</ele>
        <time>2022-03-06T13:02:19.000Z</time>
      </trkpt>
      <trkpt lat="44.42383" lon="6.82271">
        <ele>2777.1999511719</ele>
        <time>2022-03-06T13:03:15.000Z</time>
      </trkpt>
      <trkpt lat="44.42383" lon="6.82271">
        <ele>2776.8000488281</ele>
        <time>2022-03-06T13:03:38.000Z</time>
      </trkpt>
      <trkpt lat="44.42383" lon="6.82271">
        <ele>2777.1999511719</ele>
        <time>2022-03-06T13:04:41.000Z</time>
      </trkpt>
      <trkpt lat="44.42383" lon="6.82271">
        <ele>2777.3999023438</ele>
        <time>2022-03-06T13:04:50.000Z</time>
      </trkpt>
      <trkpt lat="44.4239" lon="6.82275">
        <ele>2776.8000488281</ele>
        <time>2022-03-06T13:04:53.000Z</time>
      </trkpt>
      <trkpt lat="44.42392" lon="6.82277">
        <ele>2776.1999511719</ele>
        <time>2022-03-06T13:04:54.000Z</time>
      </trkpt>
      <trkpt lat="44.42398" lon="6.82282">
        <ele>2774.6000976562</ele>
        <time>2022-03-06T13:04:57.000Z</time>
      </trkpt>
      <trkpt lat="44.42403" lon="6.82286">
        <ele>2773.8000488281</ele>
        <time>2022-03-06T13:05:00.000Z</time>
      </trkpt>
      <trkpt lat="44.42404" lon="6.82285">
        <ele>2773.3999023438</ele>
        <time>2022-03-06T13:05:01.000Z</time>
      </trkpt>
      <trkpt lat="44.42404" lon="6.8228">
        <ele>2772.1999511719</ele>
        <time>2022-03-06T13:05:03.000Z</time>
      </trkpt>
      <trkpt lat="44.42405" lon="6.82271">
        <ele>2770.6000976562</ele>
        <time>2022-03-06T13:05:05.000Z</time>
      </trkpt>
      <trkpt lat="44.4241" lon="6.82266">
        <ele>2769.3999023438</ele>
        <time>2022-03-06T13:05:07.000Z</time>
      </trkpt>
      <trkpt lat="44.42412" lon="6.82264">
        <ele>2768.6000976562</ele>
        <time>2022-03-06T13:05:08.000Z</time>
      </trkpt>
      <trkpt lat="44.42412" lon="6.82261">
        <ele>2768.1999511719</ele>
        <time>2022-03-06T13:05:09.000Z</time>
      </trkpt>
      <trkpt lat="44.42412" lon="6.82257">
        <ele>2767</ele>
        <time>2022-03-06T13:05:10.000Z</time>
      </trkpt>
      <trkpt lat="44.42413" lon="6.82255">
        <ele>2765.6000976562</ele>
        <time>2022-03-06T13:05:11.000Z</time>
      </trkpt>
      <trkpt lat="44.42416" lon="6.82254">
        <ele>2764.6000976562</ele>
        <time>2022-03-06T13:05:12.000Z</time>
      </trkpt>
      <trkpt lat="44.4242" lon="6.82254">
        <ele>2762.8000488281</ele>
        <time>2022-03-06T13:05:13.000Z</time>
      </trkpt>
      <trkpt lat="44.42424" lon="6.82254">
        <ele>2761.1999511719</ele>
        <time>2022-03-06T13:05:14.000Z</time>
      </trkpt>
      <trkpt lat="44.42429" lon="6.8225">
        <ele>2758.8000488281</ele>
        <time>2022-03-06T13:05:16.000Z</time>
      </trkpt>
      <trkpt lat="44.42428" lon="6.82241">
        <ele>2757</ele>
        <time>2022-03-06T13:05:18.000Z</time>
      </trkpt>
      <trkpt lat="44.42426" lon="6.82236">
        <ele>2755.6000976562</ele>
        <time>2022-03-06T13:05:19.000Z</time>
      </trkpt>
      <trkpt lat="44.42426" lon="6.82232">
        <ele>2754</ele>
        <time>2022-03-06T13:05:20.000Z</time>
      </trkpt>
      <trkpt lat="44.42427" lon="6.8223">
        <ele>2753</ele>
        <time>2022-03-06T13:05:21.000Z</time>
      </trkpt>
      <trkpt lat="44.4243" lon="6.82226">
        <ele>2751.8000488281</ele>
        <time>2022-03-06T13:05:22.000Z</time>
      </trkpt>
      <trkpt lat="44.42436" lon="6.82224">
        <ele>2750.3999023438</ele>
        <time>2022-03-06T13:05:24.000Z</time>
      </trkpt>
      <trkpt lat="44.42438" lon="6.82222">
        <ele>2749</ele>
        <time>2022-03-06T13:05:25.000Z</time>
      </trkpt>
      <trkpt lat="44.4244" lon="6.82222">
        <ele>2748.1999511719</ele>
        <time>2022-03-06T13:05:26.000Z</time>
      </trkpt>
      <trkpt lat="44.4244" lon="6.8222">
        <ele>2747.8000488281</ele>
        <time>2022-03-06T13:05:27.000Z</time>
      </trkpt>
      <trkpt lat="44.42439" lon="6.82213">
        <ele>2746.6000976562</ele>
        <time>2022-03-06T13:05:29.000Z</time>
      </trkpt>
      <trkpt lat="44.42438" lon="6.82203">
        <ele>2746.1999511719</ele>
        <time>2022-03-06T13:05:30.000Z</time>
      </trkpt>
      <trkpt lat="44.42439" lon="6.82195">
        <ele>2745.1999511719</ele>
        <time>2022-03-06T13:05:31.000Z</time>
      </trkpt>
      <trkpt lat="44.4244" lon="6.82188">
        <ele>2744</ele>
        <time>2022-03-06T13:05:32.000Z</time>
      </trkpt>
      <trkpt lat="44.42439" lon="6.82174">
        <ele>2743</ele>
        <time>2022-03-06T13:05:36.000Z</time>
      </trkpt>
      <trkpt lat="44.42439" lon="6.8216">
        <ele>2743</ele>
        <time>2022-03-06T13:05:40.000Z</time>
      </trkpt>
      <trkpt lat="44.42439" lon="6.82154">
        <ele>2742.6000976562</ele>
        <time>2022-03-06T13:05:42.000Z</time>
      </trkpt>
      <trkpt lat="44.42441" lon="6.82146">
        <ele>2741.8000488281</ele>
        <time>2022-03-06T13:05:46.000Z</time>
      </trkpt>
      <trkpt lat="44.42445" lon="6.82139">
        <ele>2741.3999023438</ele>
        <time>2022-03-06T13:05:48.000Z</time>
      </trkpt>
      <trkpt lat="44.42447" lon="6.82133">
        <ele>2740.1999511719</ele>
        <time>2022-03-06T13:05:50.000Z</time>
      </trkpt>
      <trkpt lat="44.42448" lon="6.82133">
        <ele>2739.3999023438</ele>
        <time>2022-03-06T13:05:51.000Z</time>
      </trkpt>
      <trkpt lat="44.42448" lon="6.82133">
        <ele>2739</ele>
        <time>2022-03-06T13:05:52.000Z</time>
      </trkpt>
      <trkpt lat="44.42454" lon="6.8213">
        <ele>2738</ele>
        <time>2022-03-06T13:05:55.000Z</time>
      </trkpt>
      <trkpt lat="44.42455" lon="6.82134">
        <ele>2737.8000488281</ele>
        <time>2022-03-06T13:05:56.000Z</time>
      </trkpt>
      <trkpt lat="44.42456" lon="6.82138">
        <ele>2737</ele>
        <time>2022-03-06T13:05:57.000Z</time>
      </trkpt>
      <trkpt lat="44.42457" lon="6.82141">
        <ele>2736.3999023438</ele>
        <time>2022-03-06T13:05:58.000Z</time>
      </trkpt>
      <trkpt lat="44.42458" lon="6.82143">
        <ele>2735.8000488281</ele>
        <time>2022-03-06T13:05:59.000Z</time>
      </trkpt>
      <trkpt lat="44.4246" lon="6.82143">
        <ele>2735</ele>
        <time>2022-03-06T13:06:00.000Z</time>
      </trkpt>
      <trkpt lat="44.42462" lon="6.82141">
        <ele>2734</ele>
        <time>2022-03-06T13:06:01.000Z</time>
      </trkpt>
      <trkpt lat="44.42464" lon="6.82139">
        <ele>2732.8000488281</ele>
        <time>2022-03-06T13:06:02.000Z</time>
      </trkpt>
      <trkpt lat="44.42467" lon="6.82139">
        <ele>2731.8000488281</ele>
        <time>2022-03-06T13:06:03.000Z</time>
      </trkpt>
      <trkpt lat="44.4247" lon="6.82142">
        <ele>2730.8000488281</ele>
        <time>2022-03-06T13:06:04.000Z</time>
      </trkpt>
      <trkpt lat="44.42472" lon="6.82146">
        <ele>2729.8000488281</ele>
        <time>2022-03-06T13:06:05.000Z</time>
      </trkpt>
      <trkpt lat="44.42474" lon="6.82151">
        <ele>2728.3999023438</ele>
        <time>2022-03-06T13:06:06.000Z</time>
      </trkpt>
      <trkpt lat="44.42476" lon="6.82155">
        <ele>2727.1999511719</ele>
        <time>2022-03-06T13:06:07.000Z</time>
      </trkpt>
      <trkpt lat="44.42478" lon="6.82155">
        <ele>2726</ele>
        <time>2022-03-06T13:06:08.000Z</time>
      </trkpt>
      <trkpt lat="44.4248" lon="6.82153">
        <ele>2725.1999511719</ele>
        <time>2022-03-06T13:06:09.000Z</time>
      </trkpt>
      <trkpt lat="44.42482" lon="6.82152">
        <ele>2724.3999023438</ele>
        <time>2022-03-06T13:06:10.000Z</time>
      </trkpt>
      <trkpt lat="44.42487" lon="6.82157">
        <ele>2723</ele>
        <time>2022-03-06T13:06:12.000Z</time>
      </trkpt>
      <trkpt lat="44.42489" lon="6.82161">
        <ele>2721.8000488281</ele>
        <time>2022-03-06T13:06:13.000Z</time>
      </trkpt>
      <trkpt lat="44.42491" lon="6.82163">
        <ele>2720.8000488281</ele>
        <time>2022-03-06T13:06:14.000Z</time>
      </trkpt>
      <trkpt lat="44.42493" lon="6.82162">
        <ele>2719.8000488281</ele>
        <time>2022-03-06T13:06:15.000Z</time>
      </trkpt>
      <trkpt lat="44.42494" lon="6.8216">
        <ele>2719.1999511719</ele>
        <time>2022-03-06T13:06:16.000Z</time>
      </trkpt>
      <trkpt lat="44.42495" lon="6.82156">
        <ele>2718.1999511719</ele>
        <time>2022-03-06T13:06:17.000Z</time>
      </trkpt>
      <trkpt lat="44.42498" lon="6.82147">
        <ele>2717</ele>
        <time>2022-03-06T13:06:19.000Z</time>
      </trkpt>
      <trkpt lat="44.425" lon="6.82145">
        <ele>2716.1999511719</ele>
        <time>2022-03-06T13:06:20.000Z</time>
      </trkpt>
      <trkpt lat="44.42503" lon="6.82144">
        <ele>2715.6000976562</ele>
        <time>2022-03-06T13:06:21.000Z</time>
      </trkpt>
      <trkpt lat="44.42505" lon="6.82143">
        <ele>2714.1999511719</ele>
        <time>2022-03-06T13:06:22.000Z</time>
      </trkpt>
      <trkpt lat="44.42507" lon="6.8214">
        <ele>2713.1999511719</ele>
        <time>2022-03-06T13:06:23.000Z</time>
      </trkpt>
      <trkpt lat="44.42508" lon="6.82137">
        <ele>2712.3999023438</ele>
        <time>2022-03-06T13:06:24.000Z</time>
      </trkpt>
      <trkpt lat="44.42509" lon="6.82133">
        <ele>2711.6000976562</ele>
        <time>2022-03-06T13:06:25.000Z</time>
      </trkpt>
      <trkpt lat="44.42509" lon="6.82129">
        <ele>2710</ele>
        <time>2022-03-06T13:06:26.000Z</time>
      </trkpt>
      <trkpt lat="44.42511" lon="6.82126">
        <ele>2709</ele>
        <time>2022-03-06T13:06:27.000Z</time>
      </trkpt>
      <trkpt lat="44.42513" lon="6.82125">
        <ele>2708.3999023438</ele>
        <time>2022-03-06T13:06:28.000Z</time>
      </trkpt>
      <trkpt lat="44.42516" lon="6.82126">
        <ele>2707.3999023438</ele>
        <time>2022-03-06T13:06:29.000Z</time>
      </trkpt>
      <trkpt lat="44.42518" lon="6.82128">
        <ele>2706.6000976562</ele>
        <time>2022-03-06T13:06:30.000Z</time>
      </trkpt>
      <trkpt lat="44.42519" lon="6.82127">
        <ele>2705.3999023438</ele>
        <time>2022-03-06T13:06:31.000Z</time>
      </trkpt>
      <trkpt lat="44.42523" lon="6.82124">
        <ele>2704</ele>
        <time>2022-03-06T13:06:33.000Z</time>
      </trkpt>
      <trkpt lat="44.42526" lon="6.82123">
        <ele>2702.8000488281</ele>
        <time>2022-03-06T13:06:34.000Z</time>
      </trkpt>
      <trkpt lat="44.42528" lon="6.82124">
        <ele>2701.6000976562</ele>
        <time>2022-03-06T13:06:35.000Z</time>
      </trkpt>
      <trkpt lat="44.42531" lon="6.82126">
        <ele>2700.3999023438</ele>
        <time>2022-03-06T13:06:36.000Z</time>
      </trkpt>
      <trkpt lat="44.42533" lon="6.82129">
        <ele>2699.1999511719</ele>
        <time>2022-03-06T13:06:37.000Z</time>
      </trkpt>
      <trkpt lat="44.42537" lon="6.82133">
        <ele>2697.3999023438</ele>
        <time>2022-03-06T13:06:39.000Z</time>
      </trkpt>
      <trkpt lat="44.42538" lon="6.82133">
        <ele>2696.3999023438</ele>
        <time>2022-03-06T13:06:40.000Z</time>
      </trkpt>
      <trkpt lat="44.4254" lon="6.82131">
        <ele>2695.8000488281</ele>
        <time>2022-03-06T13:06:41.000Z</time>
      </trkpt>
      <trkpt lat="44.42541" lon="6.82128">
        <ele>2694.6000976562</ele>
        <time>2022-03-06T13:06:42.000Z</time>
      </trkpt>
      <trkpt lat="44.42543" lon="6.82125">
        <ele>2693.6000976562</ele>
        <time>2022-03-06T13:06:43.000Z</time>
      </trkpt>
      <trkpt lat="44.42546" lon="6.82124">
        <ele>2692.6000976562</ele>
        <time>2022-03-06T13:06:44.000Z</time>
      </trkpt>
      <trkpt lat="44.42548" lon="6.82125">
        <ele>2691.6000976562</ele>
        <time>2022-03-06T13:06:45.000Z</time>
      </trkpt>
      <trkpt lat="44.4255" lon="6.82126">
        <ele>2690.6000976562</ele>
        <time>2022-03-06T13:06:46.000Z</time>
      </trkpt>
      <trkpt lat="44.42552" lon="6.82129">
        <ele>2689</ele>
        <time>2022-03-06T13:06:47.000Z</time>
      </trkpt>
      <trkpt lat="44.42554" lon="6.82135">
        <ele>2687.6000976562</ele>
        <time>2022-03-06T13:06:49.000Z</time>
      </trkpt>
      <trkpt lat="44.42555" lon="6.82139">
        <ele>2686.1999511719</ele>
        <time>2022-03-06T13:06:51.000Z</time>
      </trkpt>
      <trkpt lat="44.42557" lon="6.82144">
        <ele>2684.8000488281</ele>
        <time>2022-03-06T13:06:54.000Z</time>
      </trkpt>
      <trkpt lat="44.42557" lon="6.82146">
        <ele>2684.3999023438</ele>
        <time>2022-03-06T13:06:55.000Z</time>
      </trkpt>
      <trkpt lat="44.42558" lon="6.82149">
        <ele>2683.6000976562</ele>
        <time>2022-03-06T13:06:57.000Z</time>
      </trkpt>
      <trkpt lat="44.42563" lon="6.82158">
        <ele>2682.1999511719</ele>
        <time>2022-03-06T13:07:01.000Z</time>
      </trkpt>
      <trkpt lat="44.42564" lon="6.82161">
        <ele>2681.8000488281</ele>
        <time>2022-03-06T13:07:02.000Z</time>
      </trkpt>
      <trkpt lat="44.42565" lon="6.82164">
        <ele>2680.8000488281</ele>
        <time>2022-03-06T13:07:03.000Z</time>
      </trkpt>
      <trkpt lat="44.42567" lon="6.82168">
        <ele>2679.6000976562</ele>
        <time>2022-03-06T13:07:05.000Z</time>
      </trkpt>
      <trkpt lat="44.42568" lon="6.82172">
        <ele>2678.3999023438</ele>
        <time>2022-03-06T13:07:07.000Z</time>
      </trkpt>
      <trkpt lat="44.42569" lon="6.82175">
        <ele>2677.6000976562</ele>
        <time>2022-03-06T13:07:09.000Z</time>
      </trkpt>
      <trkpt lat="44.42569" lon="6.82177">
        <ele>2677.3999023438</ele>
        <time>2022-03-06T13:07:11.000Z</time>
      </trkpt>
      <trkpt lat="44.42569" lon="6.82176">
        <ele>2677</ele>
        <time>2022-03-06T13:07:15.000Z</time>
      </trkpt>
      <trkpt lat="44.42569" lon="6.82176">
        <ele>2677</ele>
        <time>2022-03-06T13:07:16.000Z</time>
      </trkpt>
      <trkpt lat="44.4257" lon="6.82175">
        <ele>2677</ele>
        <time>2022-03-06T13:07:29.000Z</time>
      </trkpt>
      <trkpt lat="44.42571" lon="6.82173">
        <ele>2677</ele>
        <time>2022-03-06T13:07:30.000Z</time>
      </trkpt>
      <trkpt lat="44.42572" lon="6.82168">
        <ele>2675.6000976562</ele>
        <time>2022-03-06T13:07:32.000Z</time>
      </trkpt>
      <trkpt lat="44.42572" lon="6.82163">
        <ele>2674.8000488281</ele>
        <time>2022-03-06T13:07:34.000Z</time>
      </trkpt>
      <trkpt lat="44.42573" lon="6.82161">
        <ele>2674.6000976562</ele>
        <time>2022-03-06T13:07:35.000Z</time>
      </trkpt>
      <trkpt lat="44.42573" lon="6.82159">
        <ele>2674.3999023438</ele>
        <time>2022-03-06T13:07:36.000Z</time>
      </trkpt>
      <trkpt lat="44.42573" lon="6.82146">
        <ele>2673.6000976562</ele>
        <time>2022-03-06T13:07:42.000Z</time>
      </trkpt>
      <trkpt lat="44.42573" lon="6.82143">
        <ele>2673.6000976562</ele>
        <time>2022-03-06T13:07:43.000Z</time>
      </trkpt>
      <trkpt lat="44.42574" lon="6.82137">
        <ele>2672.3999023438</ele>
        <time>2022-03-06T13:07:46.000Z</time>
      </trkpt>
      <trkpt lat="44.42574" lon="6.82136">
        <ele>2672.3999023438</ele>
        <time>2022-03-06T13:07:47.000Z</time>
      </trkpt>
      <trkpt lat="44.42571" lon="6.82132">
        <ele>2672</ele>
        <time>2022-03-06T13:07:54.000Z</time>
      </trkpt>
      <trkpt lat="44.42569" lon="6.8213">
        <ele>2672.1999511719</ele>
        <time>2022-03-06T13:07:59.000Z</time>
      </trkpt>
      <trkpt lat="44.42567" lon="6.82128">
        <ele>2673</ele>
        <time>2022-03-06T13:08:05.000Z</time>
      </trkpt>
      <trkpt lat="44.42565" lon="6.82127">
        <ele>2673.6000976562</ele>
        <time>2022-03-06T13:08:09.000Z</time>
      </trkpt>
      <trkpt lat="44.42565" lon="6.82126">
        <ele>2674</ele>
        <time>2022-03-06T13:08:11.000Z</time>
      </trkpt>
      <trkpt lat="44.42562" lon="6.82124">
        <ele>2674.1999511719</ele>
        <time>2022-03-06T13:08:17.000Z</time>
      </trkpt>
      <trkpt lat="44.42559" lon="6.82123">
        <ele>2674.6000976562</ele>
        <time>2022-03-06T13:08:24.000Z</time>
      </trkpt>
      <trkpt lat="44.42559" lon="6.8212">
        <ele>2674.8000488281</ele>
        <time>2022-03-06T13:08:27.000Z</time>
      </trkpt>
      <trkpt lat="44.42559" lon="6.8212">
        <ele>2675.3999023438</ele>
        <time>2022-03-06T13:08:35.000Z</time>
      </trkpt>
      <trkpt lat="44.42558" lon="6.82117">
        <ele>2675.6000976562</ele>
        <time>2022-03-06T13:08:41.000Z</time>
      </trkpt>
      <trkpt lat="44.42559" lon="6.82108">
        <ele>2675.3999023438</ele>
        <time>2022-03-06T13:08:47.000Z</time>
      </trkpt>
      <trkpt lat="44.4256" lon="6.82091">
        <ele>2673.6000976562</ele>
        <time>2022-03-06T13:08:53.000Z</time>
      </trkpt>
      <trkpt lat="44.42561" lon="6.82089">
        <ele>2673.1999511719</ele>
        <time>2022-03-06T13:08:54.000Z</time>
      </trkpt>
      <trkpt lat="44.42561" lon="6.82083">
        <ele>2671.8000488281</ele>
        <time>2022-03-06T13:08:57.000Z</time>
      </trkpt>
      <trkpt lat="44.42561" lon="6.8208">
        <ele>2671.6000976562</ele>
        <time>2022-03-06T13:08:58.000Z</time>
      </trkpt>
      <trkpt lat="44.42562" lon="6.82069">
        <ele>2670.3999023438</ele>
        <time>2022-03-06T13:09:01.000Z</time>
      </trkpt>
      <trkpt lat="44.42564" lon="6.82059">
        <ele>2669.1999511719</ele>
        <time>2022-03-06T13:09:03.000Z</time>
      </trkpt>
      <trkpt lat="44.42566" lon="6.82053">
        <ele>2667.3999023438</ele>
        <time>2022-03-06T13:09:05.000Z</time>
      </trkpt>
      <trkpt lat="44.42567" lon="6.82052">
        <ele>2666.8000488281</ele>
        <time>2022-03-06T13:09:06.000Z</time>
      </trkpt>
      <trkpt lat="44.42569" lon="6.82053">
        <ele>2666.6000976562</ele>
        <time>2022-03-06T13:09:07.000Z</time>
      </trkpt>
      <trkpt lat="44.4257" lon="6.82055">
        <ele>2666.1999511719</ele>
        <time>2022-03-06T13:09:08.000Z</time>
      </trkpt>
      <trkpt lat="44.42573" lon="6.82056">
        <ele>2664.1999511719</ele>
        <time>2022-03-06T13:09:10.000Z</time>
      </trkpt>
      <trkpt lat="44.42574" lon="6.82055">
        <ele>2663.6000976562</ele>
        <time>2022-03-06T13:09:11.000Z</time>
      </trkpt>
      <trkpt lat="44.42575" lon="6.82052">
        <ele>2663</ele>
        <time>2022-03-06T13:09:12.000Z</time>
      </trkpt>
      <trkpt lat="44.42575" lon="6.82049">
        <ele>2661.8000488281</ele>
        <time>2022-03-06T13:09:13.000Z</time>
      </trkpt>
      <trkpt lat="44.42577" lon="6.82042">
        <ele>2660.1999511719</ele>
        <time>2022-03-06T13:09:15.000Z</time>
      </trkpt>
      <trkpt lat="44.42578" lon="6.82039">
        <ele>2659.8000488281</ele>
        <time>2022-03-06T13:09:16.000Z</time>
      </trkpt>
      <trkpt lat="44.4258" lon="6.82033">
        <ele>2659</ele>
        <time>2022-03-06T13:09:18.000Z</time>
      </trkpt>
      <trkpt lat="44.42583" lon="6.82032">
        <ele>2658.3999023438</ele>
        <time>2022-03-06T13:09:19.000Z</time>
      </trkpt>
      <trkpt lat="44.42585" lon="6.82033">
        <ele>2657.6000976562</ele>
        <time>2022-03-06T13:09:20.000Z</time>
      </trkpt>
      <trkpt lat="44.42589" lon="6.82037">
        <ele>2656.6000976562</ele>
        <time>2022-03-06T13:09:22.000Z</time>
      </trkpt>
      <trkpt lat="44.42593" lon="6.82035">
        <ele>2655.3999023438</ele>
        <time>2022-03-06T13:09:24.000Z</time>
      </trkpt>
      <trkpt lat="44.42596" lon="6.82034">
        <ele>2654.3999023438</ele>
        <time>2022-03-06T13:09:25.000Z</time>
      </trkpt>
      <trkpt lat="44.42599" lon="6.82033">
        <ele>2653.3999023438</ele>
        <time>2022-03-06T13:09:26.000Z</time>
      </trkpt>
      <trkpt lat="44.426" lon="6.82034">
        <ele>2652.6000976562</ele>
        <time>2022-03-06T13:09:27.000Z</time>
      </trkpt>
      <trkpt lat="44.42602" lon="6.82035">
        <ele>2651.6000976562</ele>
        <time>2022-03-06T13:09:28.000Z</time>
      </trkpt>
      <trkpt lat="44.42603" lon="6.82033">
        <ele>2649.8000488281</ele>
        <time>2022-03-06T13:09:30.000Z</time>
      </trkpt>
      <trkpt lat="44.42603" lon="6.82033">
        <ele>2648.8000488281</ele>
        <time>2022-03-06T13:09:31.000Z</time>
      </trkpt>
      <trkpt lat="44.42603" lon="6.82032">
        <ele>2648.1999511719</ele>
        <time>2022-03-06T13:09:32.000Z</time>
      </trkpt>
      <trkpt lat="44.42607" lon="6.82017">
        <ele>2646.6000976562</ele>
        <time>2022-03-06T13:09:37.000Z</time>
      </trkpt>
      <trkpt lat="44.42609" lon="6.82014">
        <ele>2645.3999023438</ele>
        <time>2022-03-06T13:09:38.000Z</time>
      </trkpt>
      <trkpt lat="44.42616" lon="6.82013">
        <ele>2643.6000976562</ele>
        <time>2022-03-06T13:09:40.000Z</time>
      </trkpt>
      <trkpt lat="44.42619" lon="6.82011">
        <ele>2642.3999023438</ele>
        <time>2022-03-06T13:09:41.000Z</time>
      </trkpt>
      <trkpt lat="44.42621" lon="6.82008">
        <ele>2641.1999511719</ele>
        <time>2022-03-06T13:09:42.000Z</time>
      </trkpt>
      <trkpt lat="44.42622" lon="6.82005">
        <ele>2639.3999023438</ele>
        <time>2022-03-06T13:09:43.000Z</time>
      </trkpt>
      <trkpt lat="44.42622" lon="6.82003">
        <ele>2638</ele>
        <time>2022-03-06T13:09:44.000Z</time>
      </trkpt>
      <trkpt lat="44.42622" lon="6.81997">
        <ele>2636.6000976562</ele>
        <time>2022-03-06T13:09:46.000Z</time>
      </trkpt>
      <trkpt lat="44.42624" lon="6.81993">
        <ele>2636</ele>
        <time>2022-03-06T13:09:47.000Z</time>
      </trkpt>
      <trkpt lat="44.42628" lon="6.81992">
        <ele>2635.6000976562</ele>
        <time>2022-03-06T13:09:48.000Z</time>
      </trkpt>
      <trkpt lat="44.4263" lon="6.81992">
        <ele>2635</ele>
        <time>2022-03-06T13:09:49.000Z</time>
      </trkpt>
      <trkpt lat="44.42631" lon="6.81993">
        <ele>2634.1999511719</ele>
        <time>2022-03-06T13:09:50.000Z</time>
      </trkpt>
      <trkpt lat="44.42632" lon="6.81992">
        <ele>2633.6000976562</ele>
        <time>2022-03-06T13:09:51.000Z</time>
      </trkpt>
      <trkpt lat="44.42633" lon="6.8199">
        <ele>2632.6000976562</ele>
        <time>2022-03-06T13:09:52.000Z</time>
      </trkpt>
      <trkpt lat="44.42634" lon="6.81988">
        <ele>2631.6000976562</ele>
        <time>2022-03-06T13:09:53.000Z</time>
      </trkpt>
      <trkpt lat="44.42636" lon="6.81988">
        <ele>2630.8000488281</ele>
        <time>2022-03-06T13:09:54.000Z</time>
      </trkpt>
      <trkpt lat="44.42638" lon="6.81988">
        <ele>2630</ele>
        <time>2022-03-06T13:09:55.000Z</time>
      </trkpt>
      <trkpt lat="44.42641" lon="6.81988">
        <ele>2629.3999023438</ele>
        <time>2022-03-06T13:09:56.000Z</time>
      </trkpt>
      <trkpt lat="44.42643" lon="6.81986">
        <ele>2628.1999511719</ele>
        <time>2022-03-06T13:09:57.000Z</time>
      </trkpt>
      <trkpt lat="44.42645" lon="6.8198">
        <ele>2626</ele>
        <time>2022-03-06T13:09:59.000Z</time>
      </trkpt>
      <trkpt lat="44.42645" lon="6.81975">
        <ele>2624.8000488281</ele>
        <time>2022-03-06T13:10:00.000Z</time>
      </trkpt>
      <trkpt lat="44.42649" lon="6.81966">
        <ele>2623</ele>
        <time>2022-03-06T13:10:02.000Z</time>
      </trkpt>
      <trkpt lat="44.42652" lon="6.81959">
        <ele>2622.3999023438</ele>
        <time>2022-03-06T13:10:03.000Z</time>
      </trkpt>
      <trkpt lat="44.42655" lon="6.81953">
        <ele>2621.1999511719</ele>
        <time>2022-03-06T13:10:04.000Z</time>
      </trkpt>
      <trkpt lat="44.42657" lon="6.81947">
        <ele>2620.6000976562</ele>
        <time>2022-03-06T13:10:05.000Z</time>
      </trkpt>
      <trkpt lat="44.42659" lon="6.81943">
        <ele>2619.1999511719</ele>
        <time>2022-03-06T13:10:06.000Z</time>
      </trkpt>
      <trkpt lat="44.42661" lon="6.81939">
        <ele>2618.1999511719</ele>
        <time>2022-03-06T13:10:07.000Z</time>
      </trkpt>
      <trkpt lat="44.42665" lon="6.81931">
        <ele>2616.8000488281</ele>
        <time>2022-03-06T13:10:10.000Z</time>
      </trkpt>
      <trkpt lat="44.42668" lon="6.81924">
        <ele>2615.8000488281</ele>
        <time>2022-03-06T13:10:12.000Z</time>
      </trkpt>
      <trkpt lat="44.42669" lon="6.81921">
        <ele>2615.3999023438</ele>
        <time>2022-03-06T13:10:13.000Z</time>
      </trkpt>
      <trkpt lat="44.42674" lon="6.81906">
        <ele>2614.3999023438</ele>
        <time>2022-03-06T13:10:17.000Z</time>
      </trkpt>
      <trkpt lat="44.42677" lon="6.81894">
        <ele>2613</ele>
        <time>2022-03-06T13:10:19.000Z</time>
      </trkpt>
      <trkpt lat="44.42679" lon="6.81888">
        <ele>2612.3999023438</ele>
        <time>2022-03-06T13:10:20.000Z</time>
      </trkpt>
      <trkpt lat="44.42682" lon="6.81883">
        <ele>2611.3999023438</ele>
        <time>2022-03-06T13:10:21.000Z</time>
      </trkpt>
      <trkpt lat="44.42684" lon="6.81878">
        <ele>2610.6000976562</ele>
        <time>2022-03-06T13:10:22.000Z</time>
      </trkpt>
      <trkpt lat="44.42687" lon="6.81875">
        <ele>2610</ele>
        <time>2022-03-06T13:10:23.000Z</time>
      </trkpt>
      <trkpt lat="44.4269" lon="6.81875">
        <ele>2609.6000976562</ele>
        <time>2022-03-06T13:10:24.000Z</time>
      </trkpt>
      <trkpt lat="44.42691" lon="6.81879">
        <ele>2609</ele>
        <time>2022-03-06T13:10:25.000Z</time>
      </trkpt>
      <trkpt lat="44.42694" lon="6.81885">
        <ele>2606.3999023438</ele>
        <time>2022-03-06T13:10:27.000Z</time>
      </trkpt>
      <trkpt lat="44.42695" lon="6.81885">
        <ele>2605.3999023438</ele>
        <time>2022-03-06T13:10:28.000Z</time>
      </trkpt>
      <trkpt lat="44.42696" lon="6.81884">
        <ele>2603.6000976562</ele>
        <time>2022-03-06T13:10:30.000Z</time>
      </trkpt>
      <trkpt lat="44.42697" lon="6.81884">
        <ele>2602.6000976562</ele>
        <time>2022-03-06T13:10:31.000Z</time>
      </trkpt>
      <trkpt lat="44.42697" lon="6.81883">
        <ele>2601.8000488281</ele>
        <time>2022-03-06T13:10:32.000Z</time>
      </trkpt>
      <trkpt lat="44.42697" lon="6.81883">
        <ele>2601.3999023438</ele>
        <time>2022-03-06T13:10:34.000Z</time>
      </trkpt>
      <trkpt lat="44.42697" lon="6.81883">
        <ele>2601</ele>
        <time>2022-03-06T13:10:38.000Z</time>
      </trkpt>
      <trkpt lat="44.42697" lon="6.81884">
        <ele>2601</ele>
        <time>2022-03-06T13:10:48.000Z</time>
      </trkpt>
      <trkpt lat="44.42702" lon="6.81879">
        <ele>2600.8000488281</ele>
        <time>2022-03-06T13:10:51.000Z</time>
      </trkpt>
      <trkpt lat="44.42704" lon="6.81876">
        <ele>2600.1999511719</ele>
        <time>2022-03-06T13:10:52.000Z</time>
      </trkpt>
      <trkpt lat="44.42708" lon="6.81871">
        <ele>2599</ele>
        <time>2022-03-06T13:10:54.000Z</time>
      </trkpt>
      <trkpt lat="44.42711" lon="6.81867">
        <ele>2597.8000488281</ele>
        <time>2022-03-06T13:10:56.000Z</time>
      </trkpt>
      <trkpt lat="44.42712" lon="6.81866">
        <ele>2597.1999511719</ele>
        <time>2022-03-06T13:10:58.000Z</time>
      </trkpt>
      <trkpt lat="44.42712" lon="6.81865">
        <ele>2596.6000976562</ele>
        <time>2022-03-06T13:11:01.000Z</time>
      </trkpt>
      <trkpt lat="44.42711" lon="6.81865">
        <ele>2596.6000976562</ele>
        <time>2022-03-06T13:11:03.000Z</time>
      </trkpt>
      <trkpt lat="44.42712" lon="6.8187">
        <ele>2596.3999023438</ele>
        <time>2022-03-06T13:11:13.000Z</time>
      </trkpt>
      <trkpt lat="44.42714" lon="6.81875">
        <ele>2595.8000488281</ele>
        <time>2022-03-06T13:11:15.000Z</time>
      </trkpt>
      <trkpt lat="44.42715" lon="6.81876">
        <ele>2595</ele>
        <time>2022-03-06T13:11:16.000Z</time>
      </trkpt>
      <trkpt lat="44.42718" lon="6.81874">
        <ele>2593.8000488281</ele>
        <time>2022-03-06T13:11:18.000Z</time>
      </trkpt>
      <trkpt lat="44.42721" lon="6.81876">
        <ele>2592.3999023438</ele>
        <time>2022-03-06T13:11:19.000Z</time>
      </trkpt>
      <trkpt lat="44.42722" lon="6.81878">
        <ele>2591.3999023438</ele>
        <time>2022-03-06T13:11:20.000Z</time>
      </trkpt>
      <trkpt lat="44.42724" lon="6.8188">
        <ele>2590.8000488281</ele>
        <time>2022-03-06T13:11:21.000Z</time>
      </trkpt>
      <trkpt lat="44.42727" lon="6.8188">
        <ele>2589.1999511719</ele>
        <time>2022-03-06T13:11:22.000Z</time>
      </trkpt>
      <trkpt lat="44.4273" lon="6.81882">
        <ele>2587.3999023438</ele>
        <time>2022-03-06T13:11:23.000Z</time>
      </trkpt>
      <trkpt lat="44.42732" lon="6.81884">
        <ele>2585.6000976562</ele>
        <time>2022-03-06T13:11:24.000Z</time>
      </trkpt>
      <trkpt lat="44.42734" lon="6.81885">
        <ele>2584</ele>
        <time>2022-03-06T13:11:25.000Z</time>
      </trkpt>
      <trkpt lat="44.42737" lon="6.81884">
        <ele>2582.6000976562</ele>
        <time>2022-03-06T13:11:26.000Z</time>
      </trkpt>
      <trkpt lat="44.42741" lon="6.81882">
        <ele>2580.3999023438</ele>
        <time>2022-03-06T13:11:27.000Z</time>
      </trkpt>
      <trkpt lat="44.42743" lon="6.81882">
        <ele>2578.6000976562</ele>
        <time>2022-03-06T13:11:28.000Z</time>
      </trkpt>
      <trkpt lat="44.42746" lon="6.81883">
        <ele>2577</ele>
        <time>2022-03-06T13:11:29.000Z</time>
      </trkpt>
      <trkpt lat="44.42748" lon="6.81884">
        <ele>2575.8000488281</ele>
        <time>2022-03-06T13:11:30.000Z</time>
      </trkpt>
      <trkpt lat="44.42754" lon="6.81886">
        <ele>2573.1999511719</ele>
        <time>2022-03-06T13:11:32.000Z</time>
      </trkpt>
      <trkpt lat="44.42756" lon="6.81888">
        <ele>2571.8000488281</ele>
        <time>2022-03-06T13:11:33.000Z</time>
      </trkpt>
      <trkpt lat="44.42759" lon="6.81889">
        <ele>2570.1999511719</ele>
        <time>2022-03-06T13:11:34.000Z</time>
      </trkpt>
      <trkpt lat="44.42762" lon="6.8189">
        <ele>2568.6000976562</ele>
        <time>2022-03-06T13:11:35.000Z</time>
      </trkpt>
      <trkpt lat="44.42764" lon="6.81892">
        <ele>2567</ele>
        <time>2022-03-06T13:11:36.000Z</time>
      </trkpt>
      <trkpt lat="44.42765" lon="6.81895">
        <ele>2564.8000488281</ele>
        <time>2022-03-06T13:11:37.000Z</time>
      </trkpt>
      <trkpt lat="44.42768" lon="6.81895">
        <ele>2562.8000488281</ele>
        <time>2022-03-06T13:11:38.000Z</time>
      </trkpt>
      <trkpt lat="44.42772" lon="6.81897">
        <ele>2561</ele>
        <time>2022-03-06T13:11:39.000Z</time>
      </trkpt>
      <trkpt lat="44.42773" lon="6.819">
        <ele>2559</ele>
        <time>2022-03-06T13:11:40.000Z</time>
      </trkpt>
      <trkpt lat="44.42774" lon="6.81903">
        <ele>2557.8000488281</ele>
        <time>2022-03-06T13:11:41.000Z</time>
      </trkpt>
      <trkpt lat="44.42776" lon="6.81904">
        <ele>2555.6000976562</ele>
        <time>2022-03-06T13:11:42.000Z</time>
      </trkpt>
      <trkpt lat="44.42779" lon="6.81907">
        <ele>2554.3999023438</ele>
        <time>2022-03-06T13:11:43.000Z</time>
      </trkpt>
      <trkpt lat="44.42781" lon="6.81909">
        <ele>2552.3999023438</ele>
        <time>2022-03-06T13:11:44.000Z</time>
      </trkpt>
      <trkpt lat="44.42784" lon="6.81911">
        <ele>2550.6000976562</ele>
        <time>2022-03-06T13:11:45.000Z</time>
      </trkpt>
      <trkpt lat="44.42787" lon="6.81913">
        <ele>2549.1999511719</ele>
        <time>2022-03-06T13:11:46.000Z</time>
      </trkpt>
      <trkpt lat="44.42789" lon="6.81916">
        <ele>2547.6000976562</ele>
        <time>2022-03-06T13:11:47.000Z</time>
      </trkpt>
      <trkpt lat="44.4279" lon="6.8192">
        <ele>2545.8000488281</ele>
        <time>2022-03-06T13:11:48.000Z</time>
      </trkpt>
      <trkpt lat="44.42791" lon="6.81922">
        <ele>2543.3999023438</ele>
        <time>2022-03-06T13:11:49.000Z</time>
      </trkpt>
      <trkpt lat="44.42791" lon="6.81925">
        <ele>2542</ele>
        <time>2022-03-06T13:11:50.000Z</time>
      </trkpt>
      <trkpt lat="44.42792" lon="6.81928">
        <ele>2540.8000488281</ele>
        <time>2022-03-06T13:11:51.000Z</time>
      </trkpt>
      <trkpt lat="44.42794" lon="6.81931">
        <ele>2538.8000488281</ele>
        <time>2022-03-06T13:11:52.000Z</time>
      </trkpt>
      <trkpt lat="44.42796" lon="6.81934">
        <ele>2537.3999023438</ele>
        <time>2022-03-06T13:11:53.000Z</time>
      </trkpt>
      <trkpt lat="44.42796" lon="6.81938">
        <ele>2536.1999511719</ele>
        <time>2022-03-06T13:11:54.000Z</time>
      </trkpt>
      <trkpt lat="44.42798" lon="6.81941">
        <ele>2535</ele>
        <time>2022-03-06T13:11:55.000Z</time>
      </trkpt>
      <trkpt lat="44.428" lon="6.81944">
        <ele>2533.1999511719</ele>
        <time>2022-03-06T13:11:56.000Z</time>
      </trkpt>
      <trkpt lat="44.42802" lon="6.81949">
        <ele>2532.1999511719</ele>
        <time>2022-03-06T13:11:57.000Z</time>
      </trkpt>
      <trkpt lat="44.42803" lon="6.81955">
        <ele>2530.8000488281</ele>
        <time>2022-03-06T13:11:58.000Z</time>
      </trkpt>
      <trkpt lat="44.42803" lon="6.8196">
        <ele>2529.8000488281</ele>
        <time>2022-03-06T13:11:59.000Z</time>
      </trkpt>
      <trkpt lat="44.42803" lon="6.81965">
        <ele>2528.6000976562</ele>
        <time>2022-03-06T13:12:00.000Z</time>
      </trkpt>
      <trkpt lat="44.42805" lon="6.81973">
        <ele>2526.8000488281</ele>
        <time>2022-03-06T13:12:02.000Z</time>
      </trkpt>
      <trkpt lat="44.42808" lon="6.8198">
        <ele>2525.6000976562</ele>
        <time>2022-03-06T13:12:04.000Z</time>
      </trkpt>
      <trkpt lat="44.4281" lon="6.81987">
        <ele>2524.1999511719</ele>
        <time>2022-03-06T13:12:06.000Z</time>
      </trkpt>
      <trkpt lat="44.42813" lon="6.81994">
        <ele>2523.1999511719</ele>
        <time>2022-03-06T13:12:08.000Z</time>
      </trkpt>
      <trkpt lat="44.42814" lon="6.81995">
        <ele>2522.6000976562</ele>
        <time>2022-03-06T13:12:09.000Z</time>
      </trkpt>
      <trkpt lat="44.42815" lon="6.81994">
        <ele>2522.3999023438</ele>
        <time>2022-03-06T13:12:10.000Z</time>
      </trkpt>
      <trkpt lat="44.42816" lon="6.81993">
        <ele>2522.1999511719</ele>
        <time>2022-03-06T13:12:11.000Z</time>
      </trkpt>
      <trkpt lat="44.42817" lon="6.8199">
        <ele>2521</ele>
        <time>2022-03-06T13:12:13.000Z</time>
      </trkpt>
      <trkpt lat="44.42817" lon="6.81989">
        <ele>2520.3999023438</ele>
        <time>2022-03-06T13:12:14.000Z</time>
      </trkpt>
      <trkpt lat="44.42818" lon="6.81989">
        <ele>2519.8000488281</ele>
        <time>2022-03-06T13:12:15.000Z</time>
      </trkpt>
      <trkpt lat="44.42817" lon="6.81988">
        <ele>2519.1999511719</ele>
        <time>2022-03-06T13:12:20.000Z</time>
      </trkpt>
      <trkpt lat="44.42817" lon="6.81989">
        <ele>2519</ele>
        <time>2022-03-06T13:12:30.000Z</time>
      </trkpt>
      <trkpt lat="44.42817" lon="6.81989">
        <ele>2519.1999511719</ele>
        <time>2022-03-06T13:12:39.000Z</time>
      </trkpt>
      <trkpt lat="44.42817" lon="6.81989">
        <ele>2519.3999023438</ele>
        <time>2022-03-06T13:12:55.000Z</time>
      </trkpt>
      <trkpt lat="44.42815" lon="6.81994">
        <ele>2519.1999511719</ele>
        <time>2022-03-06T13:14:20.000Z</time>
      </trkpt>
      <trkpt lat="44.42813" lon="6.81993">
        <ele>2518.8000488281</ele>
        <time>2022-03-06T13:14:57.000Z</time>
      </trkpt>
      <trkpt lat="44.42813" lon="6.81993">
        <ele>2519</ele>
        <time>2022-03-06T13:15:03.000Z</time>
      </trkpt>
      <trkpt lat="44.42812" lon="6.81992">
        <ele>2518.8000488281</ele>
        <time>2022-03-06T13:15:28.000Z</time>
      </trkpt>
      <trkpt lat="44.42815" lon="6.81991">
        <ele>2518.8000488281</ele>
        <time>2022-03-06T13:15:43.000Z</time>
      </trkpt>
      <trkpt lat="44.42817" lon="6.8199">
        <ele>2518.6000976562</ele>
        <time>2022-03-06T13:15:58.000Z</time>
      </trkpt>
      <trkpt lat="44.42818" lon="6.8199">
        <ele>2518.1999511719</ele>
        <time>2022-03-06T13:16:00.000Z</time>
      </trkpt>
      <trkpt lat="44.42821" lon="6.81995">
        <ele>2517.6000976562</ele>
        <time>2022-03-06T13:16:02.000Z</time>
      </trkpt>
      <trkpt lat="44.42827" lon="6.82004">
        <ele>2516.3999023438</ele>
        <time>2022-03-06T13:16:05.000Z</time>
      </trkpt>
      <trkpt lat="44.42831" lon="6.82005">
        <ele>2515.6000976562</ele>
        <time>2022-03-06T13:16:06.000Z</time>
      </trkpt>
      <trkpt lat="44.42834" lon="6.82006">
        <ele>2514.8000488281</ele>
        <time>2022-03-06T13:16:07.000Z</time>
      </trkpt>
      <trkpt lat="44.4284" lon="6.82011">
        <ele>2512.6000976562</ele>
        <time>2022-03-06T13:16:09.000Z</time>
      </trkpt>
      <trkpt lat="44.42845" lon="6.82019">
        <ele>2510.8000488281</ele>
        <time>2022-03-06T13:16:11.000Z</time>
      </trkpt>
      <trkpt lat="44.42847" lon="6.82024">
        <ele>2509.8000488281</ele>
        <time>2022-03-06T13:16:12.000Z</time>
      </trkpt>
      <trkpt lat="44.42849" lon="6.82026">
        <ele>2508.8000488281</ele>
        <time>2022-03-06T13:16:13.000Z</time>
      </trkpt>
      <trkpt lat="44.42852" lon="6.82029">
        <ele>2508.3999023438</ele>
        <time>2022-03-06T13:16:14.000Z</time>
      </trkpt>
      <trkpt lat="44.42853" lon="6.82033">
        <ele>2507.1999511719</ele>
        <time>2022-03-06T13:16:15.000Z</time>
      </trkpt>
      <trkpt lat="44.42855" lon="6.82037">
        <ele>2506</ele>
        <time>2022-03-06T13:16:16.000Z</time>
      </trkpt>
      <trkpt lat="44.4286" lon="6.82045">
        <ele>2504.3999023438</ele>
        <time>2022-03-06T13:16:18.000Z</time>
      </trkpt>
      <trkpt lat="44.42861" lon="6.82049">
        <ele>2503.1999511719</ele>
        <time>2022-03-06T13:16:19.000Z</time>
      </trkpt>
      <trkpt lat="44.42863" lon="6.82054">
        <ele>2501.8000488281</ele>
        <time>2022-03-06T13:16:20.000Z</time>
      </trkpt>
      <trkpt lat="44.42865" lon="6.82059">
        <ele>2501</ele>
        <time>2022-03-06T13:16:21.000Z</time>
      </trkpt>
      <trkpt lat="44.42865" lon="6.82063">
        <ele>2499.3999023438</ele>
        <time>2022-03-06T13:16:22.000Z</time>
      </trkpt>
      <trkpt lat="44.42867" lon="6.82066">
        <ele>2498.1999511719</ele>
        <time>2022-03-06T13:16:23.000Z</time>
      </trkpt>
      <trkpt lat="44.4287" lon="6.82074">
        <ele>2496.8000488281</ele>
        <time>2022-03-06T13:16:25.000Z</time>
      </trkpt>
      <trkpt lat="44.42871" lon="6.82079">
        <ele>2495.6000976562</ele>
        <time>2022-03-06T13:16:26.000Z</time>
      </trkpt>
      <trkpt lat="44.42871" lon="6.82088">
        <ele>2494.1999511719</ele>
        <time>2022-03-06T13:16:28.000Z</time>
      </trkpt>
      <trkpt lat="44.42873" lon="6.8209">
        <ele>2493.8000488281</ele>
        <time>2022-03-06T13:16:29.000Z</time>
      </trkpt>
      <trkpt lat="44.42876" lon="6.82093">
        <ele>2493.6000976562</ele>
        <time>2022-03-06T13:16:30.000Z</time>
      </trkpt>
      <trkpt lat="44.42877" lon="6.82098">
        <ele>2492.6000976562</ele>
        <time>2022-03-06T13:16:31.000Z</time>
      </trkpt>
      <trkpt lat="44.42878" lon="6.82105">
        <ele>2491</ele>
        <time>2022-03-06T13:16:33.000Z</time>
      </trkpt>
      <trkpt lat="44.42878" lon="6.82107">
        <ele>2490.1999511719</ele>
        <time>2022-03-06T13:16:34.000Z</time>
      </trkpt>
      <trkpt lat="44.42879" lon="6.82109">
        <ele>2489.6000976562</ele>
        <time>2022-03-06T13:16:35.000Z</time>
      </trkpt>
      <trkpt lat="44.42881" lon="6.82115">
        <ele>2488</ele>
        <time>2022-03-06T13:16:37.000Z</time>
      </trkpt>
      <trkpt lat="44.42883" lon="6.82116">
        <ele>2486.6000976562</ele>
        <time>2022-03-06T13:16:38.000Z</time>
      </trkpt>
      <trkpt lat="44.42885" lon="6.82118">
        <ele>2485.8000488281</ele>
        <time>2022-03-06T13:16:39.000Z</time>
      </trkpt>
      <trkpt lat="44.42887" lon="6.82122">
        <ele>2484.6000976562</ele>
        <time>2022-03-06T13:16:40.000Z</time>
      </trkpt>
      <trkpt lat="44.42888" lon="6.82126">
        <ele>2483.3999023438</ele>
        <time>2022-03-06T13:16:41.000Z</time>
      </trkpt>
      <trkpt lat="44.42888" lon="6.8213">
        <ele>2482</ele>
        <time>2022-03-06T13:16:42.000Z</time>
      </trkpt>
      <trkpt lat="44.42889" lon="6.82132">
        <ele>2481</ele>
        <time>2022-03-06T13:16:43.000Z</time>
      </trkpt>
      <trkpt lat="44.4289" lon="6.82132">
        <ele>2480</ele>
        <time>2022-03-06T13:16:44.000Z</time>
      </trkpt>
      <trkpt lat="44.42894" lon="6.82133">
        <ele>2478.6000976562</ele>
        <time>2022-03-06T13:16:46.000Z</time>
      </trkpt>
      <trkpt lat="44.42895" lon="6.8214">
        <ele>2476.6000976562</ele>
        <time>2022-03-06T13:16:48.000Z</time>
      </trkpt>
      <trkpt lat="44.42896" lon="6.82143">
        <ele>2475.6000976562</ele>
        <time>2022-03-06T13:16:49.000Z</time>
      </trkpt>
      <trkpt lat="44.42896" lon="6.82147">
        <ele>2474.3999023438</ele>
        <time>2022-03-06T13:16:50.000Z</time>
      </trkpt>
      <trkpt lat="44.42898" lon="6.82152">
        <ele>2473</ele>
        <time>2022-03-06T13:16:52.000Z</time>
      </trkpt>
      <trkpt lat="44.429" lon="6.82151">
        <ele>2472.1999511719</ele>
        <time>2022-03-06T13:16:53.000Z</time>
      </trkpt>
      <trkpt lat="44.42902" lon="6.82148">
        <ele>2471.8000488281</ele>
        <time>2022-03-06T13:16:54.000Z</time>
      </trkpt>
      <trkpt lat="44.42904" lon="6.82145">
        <ele>2470.6000976562</ele>
        <time>2022-03-06T13:16:55.000Z</time>
      </trkpt>
      <trkpt lat="44.42909" lon="6.82142">
        <ele>2469.1999511719</ele>
        <time>2022-03-06T13:16:57.000Z</time>
      </trkpt>
      <trkpt lat="44.42912" lon="6.82149">
        <ele>2468.1999511719</ele>
        <time>2022-03-06T13:16:59.000Z</time>
      </trkpt>
      <trkpt lat="44.42911" lon="6.82156">
        <ele>2467.6000976562</ele>
        <time>2022-03-06T13:17:00.000Z</time>
      </trkpt>
      <trkpt lat="44.4291" lon="6.82161">
        <ele>2467.1999511719</ele>
        <time>2022-03-06T13:17:01.000Z</time>
      </trkpt>
      <trkpt lat="44.4291" lon="6.82165">
        <ele>2466.1999511719</ele>
        <time>2022-03-06T13:17:02.000Z</time>
      </trkpt>
      <trkpt lat="44.4291" lon="6.82167">
        <ele>2465.8000488281</ele>
        <time>2022-03-06T13:17:03.000Z</time>
      </trkpt>
      <trkpt lat="44.42913" lon="6.82167">
        <ele>2465</ele>
        <time>2022-03-06T13:17:04.000Z</time>
      </trkpt>
      <trkpt lat="44.42916" lon="6.82165">
        <ele>2464.6000976562</ele>
        <time>2022-03-06T13:17:05.000Z</time>
      </trkpt>
      <trkpt lat="44.42928" lon="6.82157">
        <ele>2462.8000488281</ele>
        <time>2022-03-06T13:17:07.000Z</time>
      </trkpt>
      <trkpt lat="44.42932" lon="6.82155">
        <ele>2461.6000976562</ele>
        <time>2022-03-06T13:17:08.000Z</time>
      </trkpt>
      <trkpt lat="44.42939" lon="6.82155">
        <ele>2460.3999023438</ele>
        <time>2022-03-06T13:17:10.000Z</time>
      </trkpt>
      <trkpt lat="44.42941" lon="6.82155">
        <ele>2460</ele>
        <time>2022-03-06T13:17:11.000Z</time>
      </trkpt>
      <trkpt lat="44.42952" lon="6.82159">
        <ele>2459.1999511719</ele>
        <time>2022-03-06T13:17:15.000Z</time>
      </trkpt>
      <trkpt lat="44.42953" lon="6.82162">
        <ele>2458.6000976562</ele>
        <time>2022-03-06T13:17:16.000Z</time>
      </trkpt>
      <trkpt lat="44.42954" lon="6.82164">
        <ele>2458</ele>
        <time>2022-03-06T13:17:17.000Z</time>
      </trkpt>
      <trkpt lat="44.42957" lon="6.82165">
        <ele>2457.3999023438</ele>
        <time>2022-03-06T13:17:18.000Z</time>
      </trkpt>
      <trkpt lat="44.42959" lon="6.82165">
        <ele>2456.6000976562</ele>
        <time>2022-03-06T13:17:19.000Z</time>
      </trkpt>
      <trkpt lat="44.42961" lon="6.82165">
        <ele>2456</ele>
        <time>2022-03-06T13:17:20.000Z</time>
      </trkpt>
      <trkpt lat="44.42964" lon="6.82166">
        <ele>2455</ele>
        <time>2022-03-06T13:17:22.000Z</time>
      </trkpt>
      <trkpt lat="44.42966" lon="6.82167">
        <ele>2454.6000976562</ele>
        <time>2022-03-06T13:17:24.000Z</time>
      </trkpt>
      <trkpt lat="44.42971" lon="6.82164">
        <ele>2453.8000488281</ele>
        <time>2022-03-06T13:17:27.000Z</time>
      </trkpt>
      <trkpt lat="44.42977" lon="6.82158">
        <ele>2453</ele>
        <time>2022-03-06T13:17:30.000Z</time>
      </trkpt>
      <trkpt lat="44.42979" lon="6.82155">
        <ele>2452.6000976562</ele>
        <time>2022-03-06T13:17:31.000Z</time>
      </trkpt>
      <trkpt lat="44.42986" lon="6.82151">
        <ele>2451.3999023438</ele>
        <time>2022-03-06T13:17:34.000Z</time>
      </trkpt>
      <trkpt lat="44.42988" lon="6.82151">
        <ele>2450.6000976562</ele>
        <time>2022-03-06T13:17:35.000Z</time>
      </trkpt>
      <trkpt lat="44.4299" lon="6.82152">
        <ele>2450</ele>
        <time>2022-03-06T13:17:36.000Z</time>
      </trkpt>
      <trkpt lat="44.43" lon="6.82155">
        <ele>2448.6000976562</ele>
        <time>2022-03-06T13:17:39.000Z</time>
      </trkpt>
      <trkpt lat="44.43002" lon="6.82158">
        <ele>2448.1999511719</ele>
        <time>2022-03-06T13:17:40.000Z</time>
      </trkpt>
      <trkpt lat="44.43001" lon="6.82164">
        <ele>2447</ele>
        <time>2022-03-06T13:17:42.000Z</time>
      </trkpt>
      <trkpt lat="44.42999" lon="6.82168">
        <ele>2445.6000976562</ele>
        <time>2022-03-06T13:17:44.000Z</time>
      </trkpt>
      <trkpt lat="44.42999" lon="6.8217">
        <ele>2445.1999511719</ele>
        <time>2022-03-06T13:17:45.000Z</time>
      </trkpt>
      <trkpt lat="44.42998" lon="6.82173">
        <ele>2445</ele>
        <time>2022-03-06T13:17:46.000Z</time>
      </trkpt>
      <trkpt lat="44.43001" lon="6.82176">
        <ele>2444.3999023438</ele>
        <time>2022-03-06T13:17:48.000Z</time>
      </trkpt>
      <trkpt lat="44.43004" lon="6.82177">
        <ele>2443.6000976562</ele>
        <time>2022-03-06T13:17:49.000Z</time>
      </trkpt>
      <trkpt lat="44.43005" lon="6.82179">
        <ele>2442.8000488281</ele>
        <time>2022-03-06T13:17:50.000Z</time>
      </trkpt>
      <trkpt lat="44.43005" lon="6.82187">
        <ele>2441.6000976562</ele>
        <time>2022-03-06T13:17:52.000Z</time>
      </trkpt>
      <trkpt lat="44.42998" lon="6.82195">
        <ele>2440</ele>
        <time>2022-03-06T13:17:55.000Z</time>
      </trkpt>
      <trkpt lat="44.42996" lon="6.82198">
        <ele>2439.3999023438</ele>
        <time>2022-03-06T13:17:56.000Z</time>
      </trkpt>
      <trkpt lat="44.42995" lon="6.82201">
        <ele>2439</ele>
        <time>2022-03-06T13:17:57.000Z</time>
      </trkpt>
      <trkpt lat="44.42999" lon="6.82207">
        <ele>2437.8000488281</ele>
        <time>2022-03-06T13:17:59.000Z</time>
      </trkpt>
      <trkpt lat="44.42999" lon="6.82211">
        <ele>2436.8000488281</ele>
        <time>2022-03-06T13:18:00.000Z</time>
      </trkpt>
      <trkpt lat="44.42998" lon="6.82216">
        <ele>2435.8000488281</ele>
        <time>2022-03-06T13:18:01.000Z</time>
      </trkpt>
      <trkpt lat="44.42997" lon="6.82221">
        <ele>2435.1999511719</ele>
        <time>2022-03-06T13:18:02.000Z</time>
      </trkpt>
      <trkpt lat="44.42995" lon="6.82225">
        <ele>2434</ele>
        <time>2022-03-06T13:18:03.000Z</time>
      </trkpt>
      <trkpt lat="44.42993" lon="6.82227">
        <ele>2432.8000488281</ele>
        <time>2022-03-06T13:18:04.000Z</time>
      </trkpt>
      <trkpt lat="44.42995" lon="6.8223">
        <ele>2431.8000488281</ele>
        <time>2022-03-06T13:18:06.000Z</time>
      </trkpt>
      <trkpt lat="44.43002" lon="6.82235">
        <ele>2430.1999511719</ele>
        <time>2022-03-06T13:18:09.000Z</time>
      </trkpt>
      <trkpt lat="44.43" lon="6.82245">
        <ele>2428.3999023438</ele>
        <time>2022-03-06T13:18:11.000Z</time>
      </trkpt>
      <trkpt lat="44.42998" lon="6.82252">
        <ele>2426.8000488281</ele>
        <time>2022-03-06T13:18:13.000Z</time>
      </trkpt>
      <trkpt lat="44.42998" lon="6.82253">
        <ele>2426</ele>
        <time>2022-03-06T13:18:15.000Z</time>
      </trkpt>
      <trkpt lat="44.42998" lon="6.82253">
        <ele>2425.6000976562</ele>
        <time>2022-03-06T13:18:17.000Z</time>
      </trkpt>
      <trkpt lat="44.42998" lon="6.82254">
        <ele>2425.6000976562</ele>
        <time>2022-03-06T13:18:22.000Z</time>
      </trkpt>
      <trkpt lat="44.42998" lon="6.82254">
        <ele>2425.6000976562</ele>
        <time>2022-03-06T13:18:26.000Z</time>
      </trkpt>
      <trkpt lat="44.42996" lon="6.82255">
        <ele>2425.8000488281</ele>
        <time>2022-03-06T13:18:58.000Z</time>
      </trkpt>
      <trkpt lat="44.42995" lon="6.82258">
        <ele>2425.1999511719</ele>
        <time>2022-03-06T13:20:06.000Z</time>
      </trkpt>
      <trkpt lat="44.43" lon="6.82257">
        <ele>2424.3999023438</ele>
        <time>2022-03-06T13:20:08.000Z</time>
      </trkpt>
      <trkpt lat="44.43006" lon="6.82258">
        <ele>2423</ele>
        <time>2022-03-06T13:20:10.000Z</time>
      </trkpt>
      <trkpt lat="44.43007" lon="6.82266">
        <ele>2422.1999511719</ele>
        <time>2022-03-06T13:20:12.000Z</time>
      </trkpt>
      <trkpt lat="44.43006" lon="6.8227">
        <ele>2421.6000976562</ele>
        <time>2022-03-06T13:20:13.000Z</time>
      </trkpt>
      <trkpt lat="44.43006" lon="6.82278">
        <ele>2421</ele>
        <time>2022-03-06T13:20:15.000Z</time>
      </trkpt>
      <trkpt lat="44.43008" lon="6.8228">
        <ele>2420.3999023438</ele>
        <time>2022-03-06T13:20:16.000Z</time>
      </trkpt>
      <trkpt lat="44.43014" lon="6.82278">
        <ele>2418.3999023438</ele>
        <time>2022-03-06T13:20:18.000Z</time>
      </trkpt>
      <trkpt lat="44.43018" lon="6.82278">
        <ele>2417.6000976562</ele>
        <time>2022-03-06T13:20:19.000Z</time>
      </trkpt>
      <trkpt lat="44.4302" lon="6.82281">
        <ele>2416.8000488281</ele>
        <time>2022-03-06T13:20:20.000Z</time>
      </trkpt>
      <trkpt lat="44.4302" lon="6.82285">
        <ele>2416.3999023438</ele>
        <time>2022-03-06T13:20:21.000Z</time>
      </trkpt>
      <trkpt lat="44.4302" lon="6.82289">
        <ele>2415.6000976562</ele>
        <time>2022-03-06T13:20:22.000Z</time>
      </trkpt>
      <trkpt lat="44.43022" lon="6.82299">
        <ele>2414</ele>
        <time>2022-03-06T13:20:25.000Z</time>
      </trkpt>
      <trkpt lat="44.43028" lon="6.82298">
        <ele>2412</ele>
        <time>2022-03-06T13:20:27.000Z</time>
      </trkpt>
      <trkpt lat="44.43031" lon="6.82297">
        <ele>2411.1999511719</ele>
        <time>2022-03-06T13:20:28.000Z</time>
      </trkpt>
      <trkpt lat="44.43035" lon="6.82297">
        <ele>2410</ele>
        <time>2022-03-06T13:20:29.000Z</time>
      </trkpt>
      <trkpt lat="44.43037" lon="6.82301">
        <ele>2409.3999023438</ele>
        <time>2022-03-06T13:20:30.000Z</time>
      </trkpt>
      <trkpt lat="44.43037" lon="6.82305">
        <ele>2408.6000976562</ele>
        <time>2022-03-06T13:20:31.000Z</time>
      </trkpt>
      <trkpt lat="44.43035" lon="6.82314">
        <ele>2407</ele>
        <time>2022-03-06T13:20:33.000Z</time>
      </trkpt>
      <trkpt lat="44.43035" lon="6.82318">
        <ele>2406.3999023438</ele>
        <time>2022-03-06T13:20:34.000Z</time>
      </trkpt>
      <trkpt lat="44.43036" lon="6.8232">
        <ele>2405.8000488281</ele>
        <time>2022-03-06T13:20:35.000Z</time>
      </trkpt>
      <trkpt lat="44.43042" lon="6.82319">
        <ele>2404.8000488281</ele>
        <time>2022-03-06T13:20:37.000Z</time>
      </trkpt>
      <trkpt lat="44.43046" lon="6.8232">
        <ele>2404</ele>
        <time>2022-03-06T13:20:38.000Z</time>
      </trkpt>
      <trkpt lat="44.43049" lon="6.82325">
        <ele>2403</ele>
        <time>2022-03-06T13:20:39.000Z</time>
      </trkpt>
      <trkpt lat="44.43049" lon="6.82336">
        <ele>2401.1999511719</ele>
        <time>2022-03-06T13:20:41.000Z</time>
      </trkpt>
      <trkpt lat="44.43049" lon="6.82345">
        <ele>2399.6000976562</ele>
        <time>2022-03-06T13:20:43.000Z</time>
      </trkpt>
      <trkpt lat="44.43051" lon="6.82355">
        <ele>2398.6000976562</ele>
        <time>2022-03-06T13:20:45.000Z</time>
      </trkpt>
      <trkpt lat="44.43054" lon="6.82359">
        <ele>2398</ele>
        <time>2022-03-06T13:20:46.000Z</time>
      </trkpt>
      <trkpt lat="44.43057" lon="6.82364">
        <ele>2397.3999023438</ele>
        <time>2022-03-06T13:20:47.000Z</time>
      </trkpt>
      <trkpt lat="44.4306" lon="6.82372">
        <ele>2395.8000488281</ele>
        <time>2022-03-06T13:20:49.000Z</time>
      </trkpt>
      <trkpt lat="44.43062" lon="6.82375">
        <ele>2395</ele>
        <time>2022-03-06T13:20:50.000Z</time>
      </trkpt>
      <trkpt lat="44.43063" lon="6.82377">
        <ele>2394.3999023438</ele>
        <time>2022-03-06T13:20:51.000Z</time>
      </trkpt>
      <trkpt lat="44.43063" lon="6.82376">
        <ele>2394</ele>
        <time>2022-03-06T13:20:52.000Z</time>
      </trkpt>
      <trkpt lat="44.43066" lon="6.8237">
        <ele>2392.8000488281</ele>
        <time>2022-03-06T13:20:54.000Z</time>
      </trkpt>
      <trkpt lat="44.43069" lon="6.82365">
        <ele>2391.8000488281</ele>
        <time>2022-03-06T13:20:55.000Z</time>
      </trkpt>
      <trkpt lat="44.43073" lon="6.82363">
        <ele>2391</ele>
        <time>2022-03-06T13:20:56.000Z</time>
      </trkpt>
      <trkpt lat="44.43075" lon="6.82364">
        <ele>2390.3999023438</ele>
        <time>2022-03-06T13:20:57.000Z</time>
      </trkpt>
      <trkpt lat="44.43077" lon="6.82368">
        <ele>2389</ele>
        <time>2022-03-06T13:20:59.000Z</time>
      </trkpt>
      <trkpt lat="44.43084" lon="6.82378">
        <ele>2387.8000488281</ele>
        <time>2022-03-06T13:21:02.000Z</time>
      </trkpt>
      <trkpt lat="44.43089" lon="6.82385">
        <ele>2387</ele>
        <time>2022-03-06T13:21:04.000Z</time>
      </trkpt>
      <trkpt lat="44.43092" lon="6.82387">
        <ele>2386.3999023438</ele>
        <time>2022-03-06T13:21:05.000Z</time>
      </trkpt>
      <trkpt lat="44.43098" lon="6.82394">
        <ele>2385.1999511719</ele>
        <time>2022-03-06T13:21:07.000Z</time>
      </trkpt>
      <trkpt lat="44.43103" lon="6.82402">
        <ele>2384.1999511719</ele>
        <time>2022-03-06T13:21:09.000Z</time>
      </trkpt>
      <trkpt lat="44.43105" lon="6.82407">
        <ele>2383.8000488281</ele>
        <time>2022-03-06T13:21:10.000Z</time>
      </trkpt>
      <trkpt lat="44.43108" lon="6.82411">
        <ele>2382.8000488281</ele>
        <time>2022-03-06T13:21:11.000Z</time>
      </trkpt>
      <trkpt lat="44.43115" lon="6.82425">
        <ele>2381.6000976562</ele>
        <time>2022-03-06T13:21:14.000Z</time>
      </trkpt>
      <trkpt lat="44.43118" lon="6.82429">
        <ele>2380.8000488281</ele>
        <time>2022-03-06T13:21:15.000Z</time>
      </trkpt>
      <trkpt lat="44.4312" lon="6.82433">
        <ele>2380</ele>
        <time>2022-03-06T13:21:16.000Z</time>
      </trkpt>
      <trkpt lat="44.43123" lon="6.82438">
        <ele>2379</ele>
        <time>2022-03-06T13:21:17.000Z</time>
      </trkpt>
      <trkpt lat="44.43125" lon="6.82443">
        <ele>2378.1999511719</ele>
        <time>2022-03-06T13:21:18.000Z</time>
      </trkpt>
      <trkpt lat="44.43128" lon="6.82449">
        <ele>2377.1999511719</ele>
        <time>2022-03-06T13:21:19.000Z</time>
      </trkpt>
      <trkpt lat="44.4313" lon="6.82454">
        <ele>2376.3999023438</ele>
        <time>2022-03-06T13:21:20.000Z</time>
      </trkpt>
      <trkpt lat="44.43132" lon="6.82459">
        <ele>2375.6000976562</ele>
        <time>2022-03-06T13:21:21.000Z</time>
      </trkpt>
      <trkpt lat="44.4314" lon="6.82471">
        <ele>2374.1999511719</ele>
        <time>2022-03-06T13:21:23.000Z</time>
      </trkpt>
      <trkpt lat="44.43142" lon="6.8248">
        <ele>2372.6000976562</ele>
        <time>2022-03-06T13:21:24.000Z</time>
      </trkpt>
      <trkpt lat="44.43145" lon="6.82487">
        <ele>2371.8000488281</ele>
        <time>2022-03-06T13:21:25.000Z</time>
      </trkpt>
      <trkpt lat="44.43148" lon="6.82495">
        <ele>2371.1999511719</ele>
        <time>2022-03-06T13:21:26.000Z</time>
      </trkpt>
      <trkpt lat="44.43151" lon="6.82502">
        <ele>2370</ele>
        <time>2022-03-06T13:21:27.000Z</time>
      </trkpt>
      <trkpt lat="44.43156" lon="6.82515">
        <ele>2368.3999023438</ele>
        <time>2022-03-06T13:21:29.000Z</time>
      </trkpt>
      <trkpt lat="44.43158" lon="6.8252">
        <ele>2367.8000488281</ele>
        <time>2022-03-06T13:21:30.000Z</time>
      </trkpt>
      <trkpt lat="44.43161" lon="6.82525">
        <ele>2367.1999511719</ele>
        <time>2022-03-06T13:21:31.000Z</time>
      </trkpt>
      <trkpt lat="44.43171" lon="6.8254">
        <ele>2365.8000488281</ele>
        <time>2022-03-06T13:21:34.000Z</time>
      </trkpt>
      <trkpt lat="44.43173" lon="6.82544">
        <ele>2365.1999511719</ele>
        <time>2022-03-06T13:21:35.000Z</time>
      </trkpt>
      <trkpt lat="44.43175" lon="6.82548">
        <ele>2364.8000488281</ele>
        <time>2022-03-06T13:21:36.000Z</time>
      </trkpt>
      <trkpt lat="44.43177" lon="6.82551">
        <ele>2364</ele>
        <time>2022-03-06T13:21:37.000Z</time>
      </trkpt>
      <trkpt lat="44.43184" lon="6.82556">
        <ele>2362.8000488281</ele>
        <time>2022-03-06T13:21:39.000Z</time>
      </trkpt>
      <trkpt lat="44.43192" lon="6.82561">
        <ele>2361.6000976562</ele>
        <time>2022-03-06T13:21:41.000Z</time>
      </trkpt>
      <trkpt lat="44.43195" lon="6.82565">
        <ele>2361.1999511719</ele>
        <time>2022-03-06T13:21:42.000Z</time>
      </trkpt>
      <trkpt lat="44.43199" lon="6.82568">
        <ele>2360</ele>
        <time>2022-03-06T13:21:43.000Z</time>
      </trkpt>
      <trkpt lat="44.43206" lon="6.82576">
        <ele>2358.8000488281</ele>
        <time>2022-03-06T13:21:45.000Z</time>
      </trkpt>
      <trkpt lat="44.43213" lon="6.82584">
        <ele>2357.3999023438</ele>
        <time>2022-03-06T13:21:47.000Z</time>
      </trkpt>
      <trkpt lat="44.43216" lon="6.82587">
        <ele>2357</ele>
        <time>2022-03-06T13:21:48.000Z</time>
      </trkpt>
      <trkpt lat="44.43222" lon="6.82592">
        <ele>2356.1999511719</ele>
        <time>2022-03-06T13:21:50.000Z</time>
      </trkpt>
      <trkpt lat="44.43231" lon="6.82596">
        <ele>2354.8000488281</ele>
        <time>2022-03-06T13:21:53.000Z</time>
      </trkpt>
      <trkpt lat="44.43241" lon="6.82603">
        <ele>2353.6000976562</ele>
        <time>2022-03-06T13:21:56.000Z</time>
      </trkpt>
      <trkpt lat="44.4325" lon="6.82609">
        <ele>2352.3999023438</ele>
        <time>2022-03-06T13:21:59.000Z</time>
      </trkpt>
      <trkpt lat="44.43257" lon="6.82616">
        <ele>2351.3999023438</ele>
        <time>2022-03-06T13:22:03.000Z</time>
      </trkpt>
      <trkpt lat="44.43258" lon="6.82618">
        <ele>2351.1999511719</ele>
        <time>2022-03-06T13:22:04.000Z</time>
      </trkpt>
      <trkpt lat="44.43267" lon="6.8263">
        <ele>2350.1999511719</ele>
        <time>2022-03-06T13:22:08.000Z</time>
      </trkpt>
      <trkpt lat="44.43276" lon="6.82641">
        <ele>2349.1999511719</ele>
        <time>2022-03-06T13:22:12.000Z</time>
      </trkpt>
      <trkpt lat="44.43283" lon="6.8265">
        <ele>2348</ele>
        <time>2022-03-06T13:22:15.000Z</time>
      </trkpt>
      <trkpt lat="44.43289" lon="6.82659">
        <ele>2346.8000488281</ele>
        <time>2022-03-06T13:22:18.000Z</time>
      </trkpt>
      <trkpt lat="44.43296" lon="6.82672">
        <ele>2345.8000488281</ele>
        <time>2022-03-06T13:22:22.000Z</time>
      </trkpt>
      <trkpt lat="44.433" lon="6.82681">
        <ele>2345</ele>
        <time>2022-03-06T13:22:25.000Z</time>
      </trkpt>
      <trkpt lat="44.43301" lon="6.82684">
        <ele>2344.8000488281</ele>
        <time>2022-03-06T13:22:26.000Z</time>
      </trkpt>
      <trkpt lat="44.43311" lon="6.82699">
        <ele>2343.6000976562</ele>
        <time>2022-03-06T13:22:30.000Z</time>
      </trkpt>
      <trkpt lat="44.43318" lon="6.8271">
        <ele>2342.1999511719</ele>
        <time>2022-03-06T13:22:33.000Z</time>
      </trkpt>
      <trkpt lat="44.43323" lon="6.82718">
        <ele>2341.3999023438</ele>
        <time>2022-03-06T13:22:35.000Z</time>
      </trkpt>
      <trkpt lat="44.43326" lon="6.82722">
        <ele>2340.8000488281</ele>
        <time>2022-03-06T13:22:36.000Z</time>
      </trkpt>
      <trkpt lat="44.43334" lon="6.82734">
        <ele>2339.6000976562</ele>
        <time>2022-03-06T13:22:39.000Z</time>
      </trkpt>
      <trkpt lat="44.4334" lon="6.82742">
        <ele>2338.3999023438</ele>
        <time>2022-03-06T13:22:41.000Z</time>
      </trkpt>
      <trkpt lat="44.43348" lon="6.82754">
        <ele>2337.1999511719</ele>
        <time>2022-03-06T13:22:44.000Z</time>
      </trkpt>
      <trkpt lat="44.43351" lon="6.82758">
        <ele>2337</ele>
        <time>2022-03-06T13:22:45.000Z</time>
      </trkpt>
      <trkpt lat="44.43355" lon="6.82767">
        <ele>2335.8000488281</ele>
        <time>2022-03-06T13:22:47.000Z</time>
      </trkpt>
      <trkpt lat="44.43363" lon="6.82776">
        <ele>2334.6000976562</ele>
        <time>2022-03-06T13:22:50.000Z</time>
      </trkpt>
      <trkpt lat="44.43372" lon="6.82785">
        <ele>2333.6000976562</ele>
        <time>2022-03-06T13:22:53.000Z</time>
      </trkpt>
      <trkpt lat="44.43374" lon="6.82788">
        <ele>2333.1999511719</ele>
        <time>2022-03-06T13:22:54.000Z</time>
      </trkpt>
      <trkpt lat="44.43378" lon="6.82795">
        <ele>2332.6000976562</ele>
        <time>2022-03-06T13:22:56.000Z</time>
      </trkpt>
      <trkpt lat="44.43384" lon="6.82807">
        <ele>2331</ele>
        <time>2022-03-06T13:22:59.000Z</time>
      </trkpt>
      <trkpt lat="44.43392" lon="6.8282">
        <ele>2329.6000976562</ele>
        <time>2022-03-06T13:23:02.000Z</time>
      </trkpt>
      <trkpt lat="44.43396" lon="6.82827">
        <ele>2328.8000488281</ele>
        <time>2022-03-06T13:23:04.000Z</time>
      </trkpt>
      <trkpt lat="44.43398" lon="6.8283">
        <ele>2328.6000976562</ele>
        <time>2022-03-06T13:23:05.000Z</time>
      </trkpt>
      <trkpt lat="44.43406" lon="6.82841">
        <ele>2327.3999023438</ele>
        <time>2022-03-06T13:23:10.000Z</time>
      </trkpt>
      <trkpt lat="44.43413" lon="6.82854">
        <ele>2326.3999023438</ele>
        <time>2022-03-06T13:23:14.000Z</time>
      </trkpt>
      <trkpt lat="44.43419" lon="6.82866">
        <ele>2325.1999511719</ele>
        <time>2022-03-06T13:23:17.000Z</time>
      </trkpt>
      <trkpt lat="44.43428" lon="6.8288">
        <ele>2324</ele>
        <time>2022-03-06T13:23:20.000Z</time>
      </trkpt>
      <trkpt lat="44.43434" lon="6.8289">
        <ele>2322.6000976562</ele>
        <time>2022-03-06T13:23:22.000Z</time>
      </trkpt>
      <trkpt lat="44.4344" lon="6.829">
        <ele>2321.3999023438</ele>
        <time>2022-03-06T13:23:24.000Z</time>
      </trkpt>
      <trkpt lat="44.43444" lon="6.82905">
        <ele>2321</ele>
        <time>2022-03-06T13:23:25.000Z</time>
      </trkpt>
      <trkpt lat="44.43447" lon="6.8291">
        <ele>2320.3999023438</ele>
        <time>2022-03-06T13:23:26.000Z</time>
      </trkpt>
      <trkpt lat="44.43456" lon="6.82919">
        <ele>2319.3999023438</ele>
        <time>2022-03-06T13:23:28.000Z</time>
      </trkpt>
      <trkpt lat="44.43463" lon="6.82928">
        <ele>2318.1999511719</ele>
        <time>2022-03-06T13:23:30.000Z</time>
      </trkpt>
      <trkpt lat="44.43472" lon="6.82937">
        <ele>2316.8000488281</ele>
        <time>2022-03-06T13:23:33.000Z</time>
      </trkpt>
      <trkpt lat="44.43478" lon="6.82941">
        <ele>2316.3999023438</ele>
        <time>2022-03-06T13:23:35.000Z</time>
      </trkpt>
      <trkpt lat="44.43484" lon="6.82943">
        <ele>2315.6000976562</ele>
        <time>2022-03-06T13:23:37.000Z</time>
      </trkpt>
      <trkpt lat="44.43494" lon="6.82946">
        <ele>2314.1999511719</ele>
        <time>2022-03-06T13:23:40.000Z</time>
      </trkpt>
      <trkpt lat="44.435" lon="6.8295">
        <ele>2312.6000976562</ele>
        <time>2022-03-06T13:23:42.000Z</time>
      </trkpt>
      <trkpt lat="44.43505" lon="6.82954">
        <ele>2311.6000976562</ele>
        <time>2022-03-06T13:23:44.000Z</time>
      </trkpt>
      <trkpt lat="44.43515" lon="6.82961">
        <ele>2310.8000488281</ele>
        <time>2022-03-06T13:23:47.000Z</time>
      </trkpt>
      <trkpt lat="44.43518" lon="6.82963">
        <ele>2310.1999511719</ele>
        <time>2022-03-06T13:23:48.000Z</time>
      </trkpt>
      <trkpt lat="44.43524" lon="6.8297">
        <ele>2309.1999511719</ele>
        <time>2022-03-06T13:23:50.000Z</time>
      </trkpt>
      <trkpt lat="44.43531" lon="6.82976">
        <ele>2308</ele>
        <time>2022-03-06T13:23:52.000Z</time>
      </trkpt>
      <trkpt lat="44.4354" lon="6.82982">
        <ele>2307</ele>
        <time>2022-03-06T13:23:54.000Z</time>
      </trkpt>
      <trkpt lat="44.43549" lon="6.82989">
        <ele>2305.1999511719</ele>
        <time>2022-03-06T13:23:56.000Z</time>
      </trkpt>
      <trkpt lat="44.43557" lon="6.82996">
        <ele>2303.8000488281</ele>
        <time>2022-03-06T13:23:58.000Z</time>
      </trkpt>
      <trkpt lat="44.4356" lon="6.83">
        <ele>2303.3999023438</ele>
        <time>2022-03-06T13:23:59.000Z</time>
      </trkpt>
      <trkpt lat="44.43567" lon="6.83007">
        <ele>2302.3999023438</ele>
        <time>2022-03-06T13:24:01.000Z</time>
      </trkpt>
      <trkpt lat="44.4358" lon="6.8302">
        <ele>2301.1999511719</ele>
        <time>2022-03-06T13:24:05.000Z</time>
      </trkpt>
      <trkpt lat="44.43591" lon="6.8303">
        <ele>2300</ele>
        <time>2022-03-06T13:24:08.000Z</time>
      </trkpt>
      <trkpt lat="44.43598" lon="6.83037">
        <ele>2299.6000976562</ele>
        <time>2022-03-06T13:24:11.000Z</time>
      </trkpt>
      <trkpt lat="44.43604" lon="6.8304">
        <ele>2299</ele>
        <time>2022-03-06T13:24:16.000Z</time>
      </trkpt>
      <trkpt lat="44.43604" lon="6.8304">
        <ele>2298.8000488281</ele>
        <time>2022-03-06T13:24:17.000Z</time>
      </trkpt>
      <trkpt lat="44.43604" lon="6.8304">
        <ele>2298.6000976562</ele>
        <time>2022-03-06T13:24:20.000Z</time>
      </trkpt>
      <trkpt lat="44.43604" lon="6.8304">
        <ele>2298.6000976562</ele>
        <time>2022-03-06T13:24:22.000Z</time>
      </trkpt>
      <trkpt lat="44.436" lon="6.83043">
        <ele>2298.6000976562</ele>
        <time>2022-03-06T13:24:29.000Z</time>
      </trkpt>
      <trkpt lat="44.43601" lon="6.83042">
        <ele>2298.8000488281</ele>
        <time>2022-03-06T13:24:45.000Z</time>
      </trkpt>
      <trkpt lat="44.43601" lon="6.83038">
        <ele>2298.8000488281</ele>
        <time>2022-03-06T13:25:22.000Z</time>
      </trkpt>
      <trkpt lat="44.43605" lon="6.83045">
        <ele>2298.6000976562</ele>
        <time>2022-03-06T13:25:58.000Z</time>
      </trkpt>
      <trkpt lat="44.43606" lon="6.83049">
        <ele>2298.1999511719</ele>
        <time>2022-03-06T13:25:59.000Z</time>
      </trkpt>
      <trkpt lat="44.43608" lon="6.83054">
        <ele>2297.3999023438</ele>
        <time>2022-03-06T13:26:01.000Z</time>
      </trkpt>
      <trkpt lat="44.43613" lon="6.83058">
        <ele>2296.6000976562</ele>
        <time>2022-03-06T13:26:03.000Z</time>
      </trkpt>
      <trkpt lat="44.43615" lon="6.83062">
        <ele>2296.1999511719</ele>
        <time>2022-03-06T13:26:04.000Z</time>
      </trkpt>
      <trkpt lat="44.43615" lon="6.83066">
        <ele>2295.1999511719</ele>
        <time>2022-03-06T13:26:05.000Z</time>
      </trkpt>
      <trkpt lat="44.43615" lon="6.8307">
        <ele>2294.1999511719</ele>
        <time>2022-03-06T13:26:06.000Z</time>
      </trkpt>
      <trkpt lat="44.43614" lon="6.8308">
        <ele>2292.8000488281</ele>
        <time>2022-03-06T13:26:08.000Z</time>
      </trkpt>
      <trkpt lat="44.43614" lon="6.83091">
        <ele>2291.6000976562</ele>
        <time>2022-03-06T13:26:10.000Z</time>
      </trkpt>
      <trkpt lat="44.43616" lon="6.831">
        <ele>2290</ele>
        <time>2022-03-06T13:26:12.000Z</time>
      </trkpt>
      <trkpt lat="44.43618" lon="6.83103">
        <ele>2289.6000976562</ele>
        <time>2022-03-06T13:26:13.000Z</time>
      </trkpt>
      <trkpt lat="44.4362" lon="6.83106">
        <ele>2289</ele>
        <time>2022-03-06T13:26:14.000Z</time>
      </trkpt>
      <trkpt lat="44.43622" lon="6.83111">
        <ele>2288.1999511719</ele>
        <time>2022-03-06T13:26:15.000Z</time>
      </trkpt>
      <trkpt lat="44.43625" lon="6.83121">
        <ele>2286.8000488281</ele>
        <time>2022-03-06T13:26:17.000Z</time>
      </trkpt>
      <trkpt lat="44.43625" lon="6.83125">
        <ele>2286</ele>
        <time>2022-03-06T13:26:18.000Z</time>
      </trkpt>
      <trkpt lat="44.43625" lon="6.83128">
        <ele>2285.1999511719</ele>
        <time>2022-03-06T13:26:19.000Z</time>
      </trkpt>
      <trkpt lat="44.43624" lon="6.83134">
        <ele>2284</ele>
        <time>2022-03-06T13:26:21.000Z</time>
      </trkpt>
      <trkpt lat="44.43622" lon="6.83141">
        <ele>2283.1999511719</ele>
        <time>2022-03-06T13:26:23.000Z</time>
      </trkpt>
      <trkpt lat="44.4362" lon="6.83144">
        <ele>2282.6000976562</ele>
        <time>2022-03-06T13:26:24.000Z</time>
      </trkpt>
      <trkpt lat="44.43617" lon="6.8315">
        <ele>2281.3999023438</ele>
        <time>2022-03-06T13:26:26.000Z</time>
      </trkpt>
      <trkpt lat="44.43615" lon="6.83155">
        <ele>2280.1999511719</ele>
        <time>2022-03-06T13:26:28.000Z</time>
      </trkpt>
      <trkpt lat="44.43613" lon="6.83158">
        <ele>2280</ele>
        <time>2022-03-06T13:26:29.000Z</time>
      </trkpt>
      <trkpt lat="44.43609" lon="6.83164">
        <ele>2278.8000488281</ele>
        <time>2022-03-06T13:26:31.000Z</time>
      </trkpt>
      <trkpt lat="44.43606" lon="6.83171">
        <ele>2277.8000488281</ele>
        <time>2022-03-06T13:26:33.000Z</time>
      </trkpt>
      <trkpt lat="44.43607" lon="6.8318">
        <ele>2276.6000976562</ele>
        <time>2022-03-06T13:26:36.000Z</time>
      </trkpt>
      <trkpt lat="44.43611" lon="6.83184">
        <ele>2275.1999511719</ele>
        <time>2022-03-06T13:26:38.000Z</time>
      </trkpt>
      <trkpt lat="44.43613" lon="6.83186">
        <ele>2273.8000488281</ele>
        <time>2022-03-06T13:26:39.000Z</time>
      </trkpt>
      <trkpt lat="44.43616" lon="6.83187">
        <ele>2272.3999023438</ele>
        <time>2022-03-06T13:26:40.000Z</time>
      </trkpt>
      <trkpt lat="44.43618" lon="6.83187">
        <ele>2270.8000488281</ele>
        <time>2022-03-06T13:26:41.000Z</time>
      </trkpt>
      <trkpt lat="44.43621" lon="6.83186">
        <ele>2269.3999023438</ele>
        <time>2022-03-06T13:26:42.000Z</time>
      </trkpt>
      <trkpt lat="44.43623" lon="6.83187">
        <ele>2267.6000976562</ele>
        <time>2022-03-06T13:26:43.000Z</time>
      </trkpt>
      <trkpt lat="44.43625" lon="6.83189">
        <ele>2266</ele>
        <time>2022-03-06T13:26:44.000Z</time>
      </trkpt>
      <trkpt lat="44.43626" lon="6.8319">
        <ele>2264.8000488281</ele>
        <time>2022-03-06T13:26:45.000Z</time>
      </trkpt>
      <trkpt lat="44.43629" lon="6.8319">
        <ele>2263.8000488281</ele>
        <time>2022-03-06T13:26:46.000Z</time>
      </trkpt>
      <trkpt lat="44.43631" lon="6.83192">
        <ele>2262.3999023438</ele>
        <time>2022-03-06T13:26:47.000Z</time>
      </trkpt>
      <trkpt lat="44.43633" lon="6.83195">
        <ele>2261.1999511719</ele>
        <time>2022-03-06T13:26:48.000Z</time>
      </trkpt>
      <trkpt lat="44.43637" lon="6.83198">
        <ele>2259</ele>
        <time>2022-03-06T13:26:50.000Z</time>
      </trkpt>
      <trkpt lat="44.43639" lon="6.832">
        <ele>2257.6000976562</ele>
        <time>2022-03-06T13:26:51.000Z</time>
      </trkpt>
      <trkpt lat="44.43641" lon="6.83202">
        <ele>2256.1999511719</ele>
        <time>2022-03-06T13:26:52.000Z</time>
      </trkpt>
      <trkpt lat="44.43643" lon="6.83204">
        <ele>2255.1999511719</ele>
        <time>2022-03-06T13:26:53.000Z</time>
      </trkpt>
      <trkpt lat="44.43645" lon="6.83205">
        <ele>2253.8000488281</ele>
        <time>2022-03-06T13:26:54.000Z</time>
      </trkpt>
      <trkpt lat="44.43648" lon="6.83207">
        <ele>2252.6000976562</ele>
        <time>2022-03-06T13:26:55.000Z</time>
      </trkpt>
      <trkpt lat="44.43649" lon="6.8321">
        <ele>2251.3999023438</ele>
        <time>2022-03-06T13:26:56.000Z</time>
      </trkpt>
      <trkpt lat="44.4365" lon="6.83213">
        <ele>2250</ele>
        <time>2022-03-06T13:26:57.000Z</time>
      </trkpt>
      <trkpt lat="44.43652" lon="6.83214">
        <ele>2248.6000976562</ele>
        <time>2022-03-06T13:26:58.000Z</time>
      </trkpt>
      <trkpt lat="44.43655" lon="6.83214">
        <ele>2247.6000976562</ele>
        <time>2022-03-06T13:26:59.000Z</time>
      </trkpt>
      <trkpt lat="44.43657" lon="6.83216">
        <ele>2246.1999511719</ele>
        <time>2022-03-06T13:27:00.000Z</time>
      </trkpt>
      <trkpt lat="44.43658" lon="6.83219">
        <ele>2244.8000488281</ele>
        <time>2022-03-06T13:27:01.000Z</time>
      </trkpt>
      <trkpt lat="44.4366" lon="6.8322">
        <ele>2243.6000976562</ele>
        <time>2022-03-06T13:27:02.000Z</time>
      </trkpt>
      <trkpt lat="44.43667" lon="6.83221">
        <ele>2241.1999511719</ele>
        <time>2022-03-06T13:27:04.000Z</time>
      </trkpt>
      <trkpt lat="44.43669" lon="6.83223">
        <ele>2240</ele>
        <time>2022-03-06T13:27:05.000Z</time>
      </trkpt>
      <trkpt lat="44.4367" lon="6.83226">
        <ele>2237.8000488281</ele>
        <time>2022-03-06T13:27:07.000Z</time>
      </trkpt>
      <trkpt lat="44.43669" lon="6.83227">
        <ele>2236.8000488281</ele>
        <time>2022-03-06T13:27:08.000Z</time>
      </trkpt>
      <trkpt lat="44.43669" lon="6.83227">
        <ele>2236.1999511719</ele>
        <time>2022-03-06T13:27:09.000Z</time>
      </trkpt>
      <trkpt lat="44.43665" lon="6.83229">
        <ele>2235.6000976562</ele>
        <time>2022-03-06T13:27:19.000Z</time>
      </trkpt>
      <trkpt lat="44.43665" lon="6.83229">
        <ele>2235.6000976562</ele>
        <time>2022-03-06T13:27:22.000Z</time>
      </trkpt>
      <trkpt lat="44.43663" lon="6.83229">
        <ele>2235.1999511719</ele>
        <time>2022-03-06T13:28:12.000Z</time>
      </trkpt>
      <trkpt lat="44.43664" lon="6.83232">
        <ele>2233.8000488281</ele>
        <time>2022-03-06T13:28:19.000Z</time>
      </trkpt>
      <trkpt lat="44.43665" lon="6.83235">
        <ele>2233</ele>
        <time>2022-03-06T13:28:20.000Z</time>
      </trkpt>
      <trkpt lat="44.43667" lon="6.83237">
        <ele>2231.6000976562</ele>
        <time>2022-03-06T13:28:21.000Z</time>
      </trkpt>
      <trkpt lat="44.43669" lon="6.83238">
        <ele>2230.6000976562</ele>
        <time>2022-03-06T13:28:22.000Z</time>
      </trkpt>
      <trkpt lat="44.43672" lon="6.83239">
        <ele>2229.6000976562</ele>
        <time>2022-03-06T13:28:23.000Z</time>
      </trkpt>
      <trkpt lat="44.43675" lon="6.83241">
        <ele>2228.8000488281</ele>
        <time>2022-03-06T13:28:24.000Z</time>
      </trkpt>
      <trkpt lat="44.43677" lon="6.83245">
        <ele>2227.6000976562</ele>
        <time>2022-03-06T13:28:25.000Z</time>
      </trkpt>
      <trkpt lat="44.43678" lon="6.8325">
        <ele>2226.6000976562</ele>
        <time>2022-03-06T13:28:26.000Z</time>
      </trkpt>
      <trkpt lat="44.43679" lon="6.83254">
        <ele>2225.3999023438</ele>
        <time>2022-03-06T13:28:27.000Z</time>
      </trkpt>
      <trkpt lat="44.43682" lon="6.83255">
        <ele>2224</ele>
        <time>2022-03-06T13:28:28.000Z</time>
      </trkpt>
      <trkpt lat="44.43684" lon="6.83256">
        <ele>2222.8000488281</ele>
        <time>2022-03-06T13:28:29.000Z</time>
      </trkpt>
      <trkpt lat="44.43688" lon="6.83258">
        <ele>2222.1999511719</ele>
        <time>2022-03-06T13:28:30.000Z</time>
      </trkpt>
      <trkpt lat="44.43689" lon="6.8326">
        <ele>2220.8000488281</ele>
        <time>2022-03-06T13:28:31.000Z</time>
      </trkpt>
      <trkpt lat="44.43691" lon="6.83261">
        <ele>2219.8000488281</ele>
        <time>2022-03-06T13:28:32.000Z</time>
      </trkpt>
      <trkpt lat="44.43693" lon="6.83263">
        <ele>2218.3999023438</ele>
        <time>2022-03-06T13:28:33.000Z</time>
      </trkpt>
      <trkpt lat="44.43696" lon="6.83264">
        <ele>2217.1999511719</ele>
        <time>2022-03-06T13:28:34.000Z</time>
      </trkpt>
      <trkpt lat="44.43699" lon="6.83267">
        <ele>2215.8000488281</ele>
        <time>2022-03-06T13:28:35.000Z</time>
      </trkpt>
      <trkpt lat="44.437" lon="6.8327">
        <ele>2214.6000976562</ele>
        <time>2022-03-06T13:28:36.000Z</time>
      </trkpt>
      <trkpt lat="44.43701" lon="6.83272">
        <ele>2213.1999511719</ele>
        <time>2022-03-06T13:28:37.000Z</time>
      </trkpt>
      <trkpt lat="44.43705" lon="6.83273">
        <ele>2212.1999511719</ele>
        <time>2022-03-06T13:28:38.000Z</time>
      </trkpt>
      <trkpt lat="44.43708" lon="6.83275">
        <ele>2211</ele>
        <time>2022-03-06T13:28:39.000Z</time>
      </trkpt>
      <trkpt lat="44.4371" lon="6.83277">
        <ele>2209.8000488281</ele>
        <time>2022-03-06T13:28:40.000Z</time>
      </trkpt>
      <trkpt lat="44.43711" lon="6.83278">
        <ele>2208.3999023438</ele>
        <time>2022-03-06T13:28:41.000Z</time>
      </trkpt>
      <trkpt lat="44.43713" lon="6.83278">
        <ele>2207.1999511719</ele>
        <time>2022-03-06T13:28:42.000Z</time>
      </trkpt>
      <trkpt lat="44.43715" lon="6.83278">
        <ele>2206</ele>
        <time>2022-03-06T13:28:43.000Z</time>
      </trkpt>
      <trkpt lat="44.43719" lon="6.83279">
        <ele>2204.6000976562</ele>
        <time>2022-03-06T13:28:44.000Z</time>
      </trkpt>
      <trkpt lat="44.4372" lon="6.8328">
        <ele>2203.6000976562</ele>
        <time>2022-03-06T13:28:45.000Z</time>
      </trkpt>
      <trkpt lat="44.43722" lon="6.83283">
        <ele>2202.6000976562</ele>
        <time>2022-03-06T13:28:46.000Z</time>
      </trkpt>
      <trkpt lat="44.43725" lon="6.83286">
        <ele>2201.6000976562</ele>
        <time>2022-03-06T13:28:47.000Z</time>
      </trkpt>
      <trkpt lat="44.43727" lon="6.83287">
        <ele>2200.3999023438</ele>
        <time>2022-03-06T13:28:48.000Z</time>
      </trkpt>
      <trkpt lat="44.43731" lon="6.83289">
        <ele>2199.1999511719</ele>
        <time>2022-03-06T13:28:49.000Z</time>
      </trkpt>
      <trkpt lat="44.43733" lon="6.83293">
        <ele>2198</ele>
        <time>2022-03-06T13:28:50.000Z</time>
      </trkpt>
      <trkpt lat="44.43733" lon="6.83301">
        <ele>2195.3999023438</ele>
        <time>2022-03-06T13:28:52.000Z</time>
      </trkpt>
      <trkpt lat="44.43734" lon="6.83304">
        <ele>2194.3999023438</ele>
        <time>2022-03-06T13:28:53.000Z</time>
      </trkpt>
      <trkpt lat="44.43733" lon="6.83306">
        <ele>2193.3999023438</ele>
        <time>2022-03-06T13:28:54.000Z</time>
      </trkpt>
      <trkpt lat="44.43736" lon="6.83307">
        <ele>2192.3999023438</ele>
        <time>2022-03-06T13:28:55.000Z</time>
      </trkpt>
      <trkpt lat="44.43738" lon="6.83309">
        <ele>2191.8000488281</ele>
        <time>2022-03-06T13:28:56.000Z</time>
      </trkpt>
      <trkpt lat="44.43741" lon="6.8331">
        <ele>2190.3999023438</ele>
        <time>2022-03-06T13:28:57.000Z</time>
      </trkpt>
      <trkpt lat="44.43746" lon="6.83311">
        <ele>2188.6000976562</ele>
        <time>2022-03-06T13:28:59.000Z</time>
      </trkpt>
      <trkpt lat="44.43749" lon="6.83312">
        <ele>2187.1999511719</ele>
        <time>2022-03-06T13:29:00.000Z</time>
      </trkpt>
      <trkpt lat="44.43753" lon="6.83313">
        <ele>2185.1999511719</ele>
        <time>2022-03-06T13:29:02.000Z</time>
      </trkpt>
      <trkpt lat="44.43754" lon="6.83312">
        <ele>2184.3999023438</ele>
        <time>2022-03-06T13:29:03.000Z</time>
      </trkpt>
      <trkpt lat="44.43756" lon="6.83311">
        <ele>2183.3999023438</ele>
        <time>2022-03-06T13:29:04.000Z</time>
      </trkpt>
      <trkpt lat="44.43758" lon="6.8331">
        <ele>2182.6000976562</ele>
        <time>2022-03-06T13:29:05.000Z</time>
      </trkpt>
      <trkpt lat="44.4376" lon="6.83311">
        <ele>2182</ele>
        <time>2022-03-06T13:29:06.000Z</time>
      </trkpt>
      <trkpt lat="44.43762" lon="6.83317">
        <ele>2181.3999023438</ele>
        <time>2022-03-06T13:29:08.000Z</time>
      </trkpt>
      <trkpt lat="44.43761" lon="6.83322">
        <ele>2180.8000488281</ele>
        <time>2022-03-06T13:29:11.000Z</time>
      </trkpt>
      <trkpt lat="44.43759" lon="6.83324">
        <ele>2180.6000976562</ele>
        <time>2022-03-06T13:29:13.000Z</time>
      </trkpt>
      <trkpt lat="44.43759" lon="6.83328">
        <ele>2180.3999023438</ele>
        <time>2022-03-06T13:29:16.000Z</time>
      </trkpt>
      <trkpt lat="44.4376" lon="6.83328">
        <ele>2180</ele>
        <time>2022-03-06T13:29:18.000Z</time>
      </trkpt>
      <trkpt lat="44.43762" lon="6.83326">
        <ele>2179.8000488281</ele>
        <time>2022-03-06T13:29:19.000Z</time>
      </trkpt>
      <trkpt lat="44.43764" lon="6.83324">
        <ele>2178.6000976562</ele>
        <time>2022-03-06T13:29:21.000Z</time>
      </trkpt>
      <trkpt lat="44.43772" lon="6.83322">
        <ele>2177.8000488281</ele>
        <time>2022-03-06T13:29:24.000Z</time>
      </trkpt>
      <trkpt lat="44.43773" lon="6.83325">
        <ele>2177.6000976562</ele>
        <time>2022-03-06T13:29:25.000Z</time>
      </trkpt>
      <trkpt lat="44.43773" lon="6.8333">
        <ele>2176.8000488281</ele>
        <time>2022-03-06T13:29:27.000Z</time>
      </trkpt>
      <trkpt lat="44.43772" lon="6.83332">
        <ele>2176.3999023438</ele>
        <time>2022-03-06T13:29:28.000Z</time>
      </trkpt>
      <trkpt lat="44.43771" lon="6.83336">
        <ele>2175.6000976562</ele>
        <time>2022-03-06T13:29:30.000Z</time>
      </trkpt>
      <trkpt lat="44.43771" lon="6.83337">
        <ele>2175.3999023438</ele>
        <time>2022-03-06T13:29:31.000Z</time>
      </trkpt>
      <trkpt lat="44.43772" lon="6.83338">
        <ele>2175.1999511719</ele>
        <time>2022-03-06T13:29:32.000Z</time>
      </trkpt>
      <trkpt lat="44.43777" lon="6.83337">
        <ele>2173.8000488281</ele>
        <time>2022-03-06T13:29:35.000Z</time>
      </trkpt>
      <trkpt lat="44.4378" lon="6.83337">
        <ele>2172.8000488281</ele>
        <time>2022-03-06T13:29:37.000Z</time>
      </trkpt>
      <trkpt lat="44.43781" lon="6.83339">
        <ele>2172.6000976562</ele>
        <time>2022-03-06T13:29:38.000Z</time>
      </trkpt>
      <trkpt lat="44.43782" lon="6.8335">
        <ele>2171.3999023438</ele>
        <time>2022-03-06T13:29:41.000Z</time>
      </trkpt>
      <trkpt lat="44.43778" lon="6.8336">
        <ele>2169.8000488281</ele>
        <time>2022-03-06T13:29:44.000Z</time>
      </trkpt>
      <trkpt lat="44.43779" lon="6.83363">
        <ele>2169</ele>
        <time>2022-03-06T13:29:45.000Z</time>
      </trkpt>
      <trkpt lat="44.43781" lon="6.83365">
        <ele>2168.3999023438</ele>
        <time>2022-03-06T13:29:46.000Z</time>
      </trkpt>
      <trkpt lat="44.43783" lon="6.83376">
        <ele>2167</ele>
        <time>2022-03-06T13:29:49.000Z</time>
      </trkpt>
      <trkpt lat="44.43784" lon="6.83386">
        <ele>2165.3999023438</ele>
        <time>2022-03-06T13:29:51.000Z</time>
      </trkpt>
      <trkpt lat="44.43784" lon="6.83389">
        <ele>2164</ele>
        <time>2022-03-06T13:29:52.000Z</time>
      </trkpt>
      <trkpt lat="44.43784" lon="6.83391">
        <ele>2163.3999023438</ele>
        <time>2022-03-06T13:29:53.000Z</time>
      </trkpt>
      <trkpt lat="44.43785" lon="6.83391">
        <ele>2163</ele>
        <time>2022-03-06T13:29:54.000Z</time>
      </trkpt>
      <trkpt lat="44.4379" lon="6.83393">
        <ele>2162</ele>
        <time>2022-03-06T13:29:56.000Z</time>
      </trkpt>
      <trkpt lat="44.43791" lon="6.83396">
        <ele>2161.1999511719</ele>
        <time>2022-03-06T13:29:57.000Z</time>
      </trkpt>
      <trkpt lat="44.43793" lon="6.83404">
        <ele>2160</ele>
        <time>2022-03-06T13:29:59.000Z</time>
      </trkpt>
      <trkpt lat="44.43793" lon="6.83408">
        <ele>2159.1999511719</ele>
        <time>2022-03-06T13:30:00.000Z</time>
      </trkpt>
      <trkpt lat="44.43793" lon="6.83412">
        <ele>2158.3999023438</ele>
        <time>2022-03-06T13:30:01.000Z</time>
      </trkpt>
      <trkpt lat="44.43793" lon="6.83418">
        <ele>2157</ele>
        <time>2022-03-06T13:30:03.000Z</time>
      </trkpt>
      <trkpt lat="44.43794" lon="6.8342">
        <ele>2156.3999023438</ele>
        <time>2022-03-06T13:30:04.000Z</time>
      </trkpt>
      <trkpt lat="44.43795" lon="6.83424">
        <ele>2155.8000488281</ele>
        <time>2022-03-06T13:30:05.000Z</time>
      </trkpt>
      <trkpt lat="44.43796" lon="6.83427">
        <ele>2155.3999023438</ele>
        <time>2022-03-06T13:30:06.000Z</time>
      </trkpt>
      <trkpt lat="44.43796" lon="6.8343">
        <ele>2154.3999023438</ele>
        <time>2022-03-06T13:30:07.000Z</time>
      </trkpt>
      <trkpt lat="44.43795" lon="6.83432">
        <ele>2153</ele>
        <time>2022-03-06T13:30:08.000Z</time>
      </trkpt>
      <trkpt lat="44.43794" lon="6.83439">
        <ele>2151.8000488281</ele>
        <time>2022-03-06T13:30:10.000Z</time>
      </trkpt>
      <trkpt lat="44.43793" lon="6.83443">
        <ele>2151.1999511719</ele>
        <time>2022-03-06T13:30:11.000Z</time>
      </trkpt>
      <trkpt lat="44.43792" lon="6.83454">
        <ele>2150.1999511719</ele>
        <time>2022-03-06T13:30:13.000Z</time>
      </trkpt>
      <trkpt lat="44.43791" lon="6.83457">
        <ele>2148.8000488281</ele>
        <time>2022-03-06T13:30:14.000Z</time>
      </trkpt>
      <trkpt lat="44.43791" lon="6.83461">
        <ele>2148.1999511719</ele>
        <time>2022-03-06T13:30:15.000Z</time>
      </trkpt>
      <trkpt lat="44.4379" lon="6.83464">
        <ele>2147.6000976562</ele>
        <time>2022-03-06T13:30:16.000Z</time>
      </trkpt>
      <trkpt lat="44.43788" lon="6.83485">
        <ele>2146.3999023438</ele>
        <time>2022-03-06T13:30:20.000Z</time>
      </trkpt>
      <trkpt lat="44.43788" lon="6.8349">
        <ele>2146</ele>
        <time>2022-03-06T13:30:21.000Z</time>
      </trkpt>
      <trkpt lat="44.43787" lon="6.83495">
        <ele>2145.1999511719</ele>
        <time>2022-03-06T13:30:22.000Z</time>
      </trkpt>
      <trkpt lat="44.43788" lon="6.83502">
        <ele>2144.6000976562</ele>
        <time>2022-03-06T13:30:24.000Z</time>
      </trkpt>
      <trkpt lat="44.43788" lon="6.83503">
        <ele>2144.3999023438</ele>
        <time>2022-03-06T13:30:25.000Z</time>
      </trkpt>
      <trkpt lat="44.43789" lon="6.83504">
        <ele>2144.1999511719</ele>
        <time>2022-03-06T13:30:26.000Z</time>
      </trkpt>
      <trkpt lat="44.4379" lon="6.83505">
        <ele>2144</ele>
        <time>2022-03-06T13:30:27.000Z</time>
      </trkpt>
      <trkpt lat="44.43795" lon="6.83511">
        <ele>2143</ele>
        <time>2022-03-06T13:30:30.000Z</time>
      </trkpt>
      <trkpt lat="44.43798" lon="6.83518">
        <ele>2141.6000976562</ele>
        <time>2022-03-06T13:30:33.000Z</time>
      </trkpt>
      <trkpt lat="44.43799" lon="6.83518">
        <ele>2141.3999023438</ele>
        <time>2022-03-06T13:30:34.000Z</time>
      </trkpt>
      <trkpt lat="44.438" lon="6.83517">
        <ele>2140.6000976562</ele>
        <time>2022-03-06T13:30:35.000Z</time>
      </trkpt>
      <trkpt lat="44.43803" lon="6.83513">
        <ele>2139.3999023438</ele>
        <time>2022-03-06T13:30:37.000Z</time>
      </trkpt>
      <trkpt lat="44.43804" lon="6.8351">
        <ele>2139</ele>
        <time>2022-03-06T13:30:38.000Z</time>
      </trkpt>
      <trkpt lat="44.43807" lon="6.8351">
        <ele>2138.6000976562</ele>
        <time>2022-03-06T13:30:39.000Z</time>
      </trkpt>
      <trkpt lat="44.43808" lon="6.83511">
        <ele>2138</ele>
        <time>2022-03-06T13:30:40.000Z</time>
      </trkpt>
      <trkpt lat="44.4381" lon="6.83513">
        <ele>2137.6000976562</ele>
        <time>2022-03-06T13:30:41.000Z</time>
      </trkpt>
      <trkpt lat="44.43811" lon="6.83516">
        <ele>2137.3999023438</ele>
        <time>2022-03-06T13:30:42.000Z</time>
      </trkpt>
      <trkpt lat="44.43812" lon="6.8352">
        <ele>2137</ele>
        <time>2022-03-06T13:30:44.000Z</time>
      </trkpt>
      <trkpt lat="44.43813" lon="6.83524">
        <ele>2136.8000488281</ele>
        <time>2022-03-06T13:30:46.000Z</time>
      </trkpt>
      <trkpt lat="44.43813" lon="6.83527">
        <ele>2136.6000976562</ele>
        <time>2022-03-06T13:30:48.000Z</time>
      </trkpt>
      <trkpt lat="44.43815" lon="6.83533">
        <ele>2136.3999023438</ele>
        <time>2022-03-06T13:30:53.000Z</time>
      </trkpt>
      <trkpt lat="44.43815" lon="6.83537">
        <ele>2136.3999023438</ele>
        <time>2022-03-06T13:30:56.000Z</time>
      </trkpt>
      <trkpt lat="44.43818" lon="6.83543">
        <ele>2136</ele>
        <time>2022-03-06T13:30:59.000Z</time>
      </trkpt>
      <trkpt lat="44.43818" lon="6.83546">
        <ele>2136</ele>
        <time>2022-03-06T13:31:00.000Z</time>
      </trkpt>
      <trkpt lat="44.43821" lon="6.83551">
        <ele>2134.8000488281</ele>
        <time>2022-03-06T13:31:04.000Z</time>
      </trkpt>
      <trkpt lat="44.43821" lon="6.83551">
        <ele>2134.6000976562</ele>
        <time>2022-03-06T13:31:05.000Z</time>
      </trkpt>
      <trkpt lat="44.43823" lon="6.83558">
        <ele>2134</ele>
        <time>2022-03-06T13:31:13.000Z</time>
      </trkpt>
      <trkpt lat="44.43826" lon="6.83564">
        <ele>2133.8000488281</ele>
        <time>2022-03-06T13:31:17.000Z</time>
      </trkpt>
      <trkpt lat="44.43829" lon="6.83567">
        <ele>2133.1999511719</ele>
        <time>2022-03-06T13:31:19.000Z</time>
      </trkpt>
      <trkpt lat="44.4383" lon="6.83575">
        <ele>2132.6000976562</ele>
        <time>2022-03-06T13:31:23.000Z</time>
      </trkpt>
      <trkpt lat="44.43832" lon="6.8358">
        <ele>2131.8000488281</ele>
        <time>2022-03-06T13:31:27.000Z</time>
      </trkpt>
      <trkpt lat="44.43833" lon="6.83581">
        <ele>2131.6000976562</ele>
        <time>2022-03-06T13:31:28.000Z</time>
      </trkpt>
      <trkpt lat="44.43835" lon="6.83583">
        <ele>2131.3999023438</ele>
        <time>2022-03-06T13:31:29.000Z</time>
      </trkpt>
      <trkpt lat="44.43837" lon="6.83588">
        <ele>2131</ele>
        <time>2022-03-06T13:31:31.000Z</time>
      </trkpt>
      <trkpt lat="44.43838" lon="6.83591">
        <ele>2130.1999511719</ele>
        <time>2022-03-06T13:31:34.000Z</time>
      </trkpt>
      <trkpt lat="44.4384" lon="6.83597">
        <ele>2129.8000488281</ele>
        <time>2022-03-06T13:31:38.000Z</time>
      </trkpt>
      <trkpt lat="44.43841" lon="6.83602">
        <ele>2129.1999511719</ele>
        <time>2022-03-06T13:31:44.000Z</time>
      </trkpt>
      <trkpt lat="44.43842" lon="6.83604">
        <ele>2129</ele>
        <time>2022-03-06T13:31:45.000Z</time>
      </trkpt>
      <trkpt lat="44.43848" lon="6.83616">
        <ele>2128</ele>
        <time>2022-03-06T13:31:49.000Z</time>
      </trkpt>
      <trkpt lat="44.43853" lon="6.83631">
        <ele>2126.6000976562</ele>
        <time>2022-03-06T13:31:53.000Z</time>
      </trkpt>
      <trkpt lat="44.43859" lon="6.83647">
        <ele>2125.3999023438</ele>
        <time>2022-03-06T13:31:57.000Z</time>
      </trkpt>
      <trkpt lat="44.43862" lon="6.83657">
        <ele>2124.1999511719</ele>
        <time>2022-03-06T13:31:59.000Z</time>
      </trkpt>
      <trkpt lat="44.43864" lon="6.83666">
        <ele>2123</ele>
        <time>2022-03-06T13:32:01.000Z</time>
      </trkpt>
      <trkpt lat="44.43868" lon="6.83674">
        <ele>2122</ele>
        <time>2022-03-06T13:32:03.000Z</time>
      </trkpt>
      <trkpt lat="44.4387" lon="6.83679">
        <ele>2121.6000976562</ele>
        <time>2022-03-06T13:32:04.000Z</time>
      </trkpt>
      <trkpt lat="44.43874" lon="6.83688">
        <ele>2120.1999511719</ele>
        <time>2022-03-06T13:32:06.000Z</time>
      </trkpt>
      <trkpt lat="44.43879" lon="6.83698">
        <ele>2118.8000488281</ele>
        <time>2022-03-06T13:32:08.000Z</time>
      </trkpt>
      <trkpt lat="44.43884" lon="6.83711">
        <ele>2117.6000976562</ele>
        <time>2022-03-06T13:32:11.000Z</time>
      </trkpt>
      <trkpt lat="44.4389" lon="6.83721">
        <ele>2116.3999023438</ele>
        <time>2022-03-06T13:32:14.000Z</time>
      </trkpt>
      <trkpt lat="44.43896" lon="6.83727">
        <ele>2115.3999023438</ele>
        <time>2022-03-06T13:32:16.000Z</time>
      </trkpt>
      <trkpt lat="44.43899" lon="6.83731">
        <ele>2115</ele>
        <time>2022-03-06T13:32:17.000Z</time>
      </trkpt>
      <trkpt lat="44.43903" lon="6.83737">
        <ele>2113.3999023438</ele>
        <time>2022-03-06T13:32:19.000Z</time>
      </trkpt>
      <trkpt lat="44.43905" lon="6.8374">
        <ele>2112.8000488281</ele>
        <time>2022-03-06T13:32:20.000Z</time>
      </trkpt>
      <trkpt lat="44.43911" lon="6.83746">
        <ele>2112.1999511719</ele>
        <time>2022-03-06T13:32:22.000Z</time>
      </trkpt>
      <trkpt lat="44.43916" lon="6.83753">
        <ele>2110.8000488281</ele>
        <time>2022-03-06T13:32:24.000Z</time>
      </trkpt>
      <trkpt lat="44.43919" lon="6.83754">
        <ele>2110</ele>
        <time>2022-03-06T13:32:25.000Z</time>
      </trkpt>
      <trkpt lat="44.43922" lon="6.83755">
        <ele>2109.6000976562</ele>
        <time>2022-03-06T13:32:26.000Z</time>
      </trkpt>
      <trkpt lat="44.43925" lon="6.83756">
        <ele>2108.6000976562</ele>
        <time>2022-03-06T13:32:27.000Z</time>
      </trkpt>
      <trkpt lat="44.43927" lon="6.83758">
        <ele>2108</ele>
        <time>2022-03-06T13:32:28.000Z</time>
      </trkpt>
      <trkpt lat="44.43931" lon="6.83764">
        <ele>2106.8000488281</ele>
        <time>2022-03-06T13:32:30.000Z</time>
      </trkpt>
      <trkpt lat="44.43934" lon="6.83771">
        <ele>2106.6000976562</ele>
        <time>2022-03-06T13:32:32.000Z</time>
      </trkpt>
      <trkpt lat="44.43941" lon="6.83786">
        <ele>2105.8000488281</ele>
        <time>2022-03-06T13:32:37.000Z</time>
      </trkpt>
      <trkpt lat="44.43943" lon="6.8379">
        <ele>2105.3999023438</ele>
        <time>2022-03-06T13:32:39.000Z</time>
      </trkpt>
      <trkpt lat="44.43944" lon="6.83791">
        <ele>2105</ele>
        <time>2022-03-06T13:32:43.000Z</time>
      </trkpt>
      <trkpt lat="44.43943" lon="6.83792">
        <ele>2105</ele>
        <time>2022-03-06T13:32:53.000Z</time>
      </trkpt>
      <trkpt lat="44.43942" lon="6.83793">
        <ele>2105.1999511719</ele>
        <time>2022-03-06T13:33:29.000Z</time>
      </trkpt>
      <trkpt lat="44.43939" lon="6.83794">
        <ele>2105.1999511719</ele>
        <time>2022-03-06T13:34:25.000Z</time>
      </trkpt>
      <trkpt lat="44.43936" lon="6.83794">
        <ele>2105.1999511719</ele>
        <time>2022-03-06T13:36:43.000Z</time>
      </trkpt>
      <trkpt lat="44.43937" lon="6.83795">
        <ele>2105.1999511719</ele>
        <time>2022-03-06T13:37:35.000Z</time>
      </trkpt>
      <trkpt lat="44.43938" lon="6.83809">
        <ele>2105.1999511719</ele>
        <time>2022-03-06T13:37:38.000Z</time>
      </trkpt>
      <trkpt lat="44.43939" lon="6.83819">
        <ele>2104.6000976562</ele>
        <time>2022-03-06T13:37:40.000Z</time>
      </trkpt>
      <trkpt lat="44.43945" lon="6.8384">
        <ele>2103.3999023438</ele>
        <time>2022-03-06T13:37:44.000Z</time>
      </trkpt>
      <trkpt lat="44.43947" lon="6.83851">
        <ele>2102.3999023438</ele>
        <time>2022-03-06T13:37:48.000Z</time>
      </trkpt>
      <trkpt lat="44.43947" lon="6.83853">
        <ele>2102.1999511719</ele>
        <time>2022-03-06T13:37:49.000Z</time>
      </trkpt>
      <trkpt lat="44.43949" lon="6.83878">
        <ele>2101</ele>
        <time>2022-03-06T13:37:56.000Z</time>
      </trkpt>
      <trkpt lat="44.43949" lon="6.83898">
        <ele>2099.8000488281</ele>
        <time>2022-03-06T13:38:00.000Z</time>
      </trkpt>
      <trkpt lat="44.43947" lon="6.83909">
        <ele>2099</ele>
        <time>2022-03-06T13:38:02.000Z</time>
      </trkpt>
      <trkpt lat="44.43946" lon="6.83914">
        <ele>2098.1999511719</ele>
        <time>2022-03-06T13:38:03.000Z</time>
      </trkpt>
      <trkpt lat="44.43946" lon="6.83928">
        <ele>2096.8000488281</ele>
        <time>2022-03-06T13:38:06.000Z</time>
      </trkpt>
      <trkpt lat="44.43947" lon="6.83933">
        <ele>2096.3999023438</ele>
        <time>2022-03-06T13:38:07.000Z</time>
      </trkpt>
      <trkpt lat="44.43949" lon="6.83941">
        <ele>2095.3999023438</ele>
        <time>2022-03-06T13:38:09.000Z</time>
      </trkpt>
      <trkpt lat="44.43951" lon="6.83952">
        <ele>2094.1999511719</ele>
        <time>2022-03-06T13:38:12.000Z</time>
      </trkpt>
      <trkpt lat="44.43952" lon="6.83956">
        <ele>2093.6000976562</ele>
        <time>2022-03-06T13:38:13.000Z</time>
      </trkpt>
      <trkpt lat="44.43951" lon="6.83968">
        <ele>2093</ele>
        <time>2022-03-06T13:38:15.000Z</time>
      </trkpt>
      <trkpt lat="44.43949" lon="6.83982">
        <ele>2092.3999023438</ele>
        <time>2022-03-06T13:38:17.000Z</time>
      </trkpt>
      <trkpt lat="44.43949" lon="6.83988">
        <ele>2091.6000976562</ele>
        <time>2022-03-06T13:38:18.000Z</time>
      </trkpt>
      <trkpt lat="44.43946" lon="6.84002">
        <ele>2090.6000976562</ele>
        <time>2022-03-06T13:38:21.000Z</time>
      </trkpt>
      <trkpt lat="44.43947" lon="6.84005">
        <ele>2090.6000976562</ele>
        <time>2022-03-06T13:38:22.000Z</time>
      </trkpt>
      <trkpt lat="44.43947" lon="6.84009">
        <ele>2090.3999023438</ele>
        <time>2022-03-06T13:38:23.000Z</time>
      </trkpt>
      <trkpt lat="44.43945" lon="6.84026">
        <ele>2089</ele>
        <time>2022-03-06T13:38:27.000Z</time>
      </trkpt>
      <trkpt lat="44.43944" lon="6.8403">
        <ele>2088.3999023438</ele>
        <time>2022-03-06T13:38:28.000Z</time>
      </trkpt>
      <trkpt lat="44.43945" lon="6.84033">
        <ele>2088</ele>
        <time>2022-03-06T13:38:29.000Z</time>
      </trkpt>
      <trkpt lat="44.43947" lon="6.84036">
        <ele>2087.8000488281</ele>
        <time>2022-03-06T13:38:30.000Z</time>
      </trkpt>
      <trkpt lat="44.43949" lon="6.84038">
        <ele>2086.8000488281</ele>
        <time>2022-03-06T13:38:31.000Z</time>
      </trkpt>
      <trkpt lat="44.43952" lon="6.8404">
        <ele>2086.3999023438</ele>
        <time>2022-03-06T13:38:32.000Z</time>
      </trkpt>
      <trkpt lat="44.43956" lon="6.84048">
        <ele>2085</ele>
        <time>2022-03-06T13:38:34.000Z</time>
      </trkpt>
      <trkpt lat="44.43957" lon="6.84052">
        <ele>2084.3999023438</ele>
        <time>2022-03-06T13:38:35.000Z</time>
      </trkpt>
      <trkpt lat="44.43956" lon="6.84054">
        <ele>2083.1999511719</ele>
        <time>2022-03-06T13:38:36.000Z</time>
      </trkpt>
      <trkpt lat="44.43954" lon="6.84059">
        <ele>2082.3999023438</ele>
        <time>2022-03-06T13:38:38.000Z</time>
      </trkpt>
      <trkpt lat="44.43956" lon="6.84059">
        <ele>2081.8000488281</ele>
        <time>2022-03-06T13:38:39.000Z</time>
      </trkpt>
      <trkpt lat="44.43963" lon="6.8406">
        <ele>2080.3999023438</ele>
        <time>2022-03-06T13:38:41.000Z</time>
      </trkpt>
      <trkpt lat="44.4397" lon="6.84062">
        <ele>2079</ele>
        <time>2022-03-06T13:38:43.000Z</time>
      </trkpt>
      <trkpt lat="44.43977" lon="6.84065">
        <ele>2078</ele>
        <time>2022-03-06T13:38:45.000Z</time>
      </trkpt>
      <trkpt lat="44.43986" lon="6.84069">
        <ele>2077.3999023438</ele>
        <time>2022-03-06T13:38:48.000Z</time>
      </trkpt>
      <trkpt lat="44.43993" lon="6.84077">
        <ele>2076.3999023438</ele>
        <time>2022-03-06T13:38:50.000Z</time>
      </trkpt>
      <trkpt lat="44.44001" lon="6.84093">
        <ele>2075</ele>
        <time>2022-03-06T13:38:52.000Z</time>
      </trkpt>
      <trkpt lat="44.44006" lon="6.84109">
        <ele>2074</ele>
        <time>2022-03-06T13:38:54.000Z</time>
      </trkpt>
      <trkpt lat="44.4401" lon="6.84131">
        <ele>2072.6000976562</ele>
        <time>2022-03-06T13:38:57.000Z</time>
      </trkpt>
      <trkpt lat="44.44008" lon="6.84145">
        <ele>2071.1999511719</ele>
        <time>2022-03-06T13:38:59.000Z</time>
      </trkpt>
      <trkpt lat="44.44009" lon="6.8415">
        <ele>2070.6000976562</ele>
        <time>2022-03-06T13:39:00.000Z</time>
      </trkpt>
      <trkpt lat="44.44009" lon="6.84155">
        <ele>2070.1999511719</ele>
        <time>2022-03-06T13:39:01.000Z</time>
      </trkpt>
      <trkpt lat="44.4401" lon="6.84167">
        <ele>2069.1999511719</ele>
        <time>2022-03-06T13:39:03.000Z</time>
      </trkpt>
      <trkpt lat="44.4401" lon="6.84173">
        <ele>2068.8000488281</ele>
        <time>2022-03-06T13:39:04.000Z</time>
      </trkpt>
      <trkpt lat="44.4401" lon="6.8418">
        <ele>2068.3999023438</ele>
        <time>2022-03-06T13:39:05.000Z</time>
      </trkpt>
      <trkpt lat="44.4401" lon="6.84191">
        <ele>2067.3999023438</ele>
        <time>2022-03-06T13:39:07.000Z</time>
      </trkpt>
      <trkpt lat="44.44008" lon="6.84201">
        <ele>2066</ele>
        <time>2022-03-06T13:39:09.000Z</time>
      </trkpt>
      <trkpt lat="44.44006" lon="6.84205">
        <ele>2065.3999023438</ele>
        <time>2022-03-06T13:39:10.000Z</time>
      </trkpt>
      <trkpt lat="44.44005" lon="6.84212">
        <ele>2064.6000976562</ele>
        <time>2022-03-06T13:39:12.000Z</time>
      </trkpt>
      <trkpt lat="44.44005" lon="6.84212">
        <ele>2064.3999023438</ele>
        <time>2022-03-06T13:39:13.000Z</time>
      </trkpt>
      <trkpt lat="44.44006" lon="6.84212">
        <ele>2063.3999023438</ele>
        <time>2022-03-06T13:39:15.000Z</time>
      </trkpt>
      <trkpt lat="44.44004" lon="6.84216">
        <ele>2062.8000488281</ele>
        <time>2022-03-06T13:39:18.000Z</time>
      </trkpt>
      <trkpt lat="44.44" lon="6.84228">
        <ele>2062</ele>
        <time>2022-03-06T13:39:22.000Z</time>
      </trkpt>
      <trkpt lat="44.43998" lon="6.84232">
        <ele>2061.3999023438</ele>
        <time>2022-03-06T13:39:24.000Z</time>
      </trkpt>
      <trkpt lat="44.43998" lon="6.84237">
        <ele>2061</ele>
        <time>2022-03-06T13:39:26.000Z</time>
      </trkpt>
      <trkpt lat="44.43998" lon="6.8424">
        <ele>2060.6000976562</ele>
        <time>2022-03-06T13:39:29.000Z</time>
      </trkpt>
      <trkpt lat="44.43996" lon="6.84245">
        <ele>2060.6000976562</ele>
        <time>2022-03-06T13:39:33.000Z</time>
      </trkpt>
      <trkpt lat="44.43995" lon="6.84261">
        <ele>2059.6000976562</ele>
        <time>2022-03-06T13:39:36.000Z</time>
      </trkpt>
      <trkpt lat="44.43994" lon="6.84268">
        <ele>2058.3999023438</ele>
        <time>2022-03-06T13:39:38.000Z</time>
      </trkpt>
      <trkpt lat="44.43993" lon="6.84273">
        <ele>2057.6000976562</ele>
        <time>2022-03-06T13:39:40.000Z</time>
      </trkpt>
      <trkpt lat="44.43992" lon="6.84276">
        <ele>2057.3999023438</ele>
        <time>2022-03-06T13:39:41.000Z</time>
      </trkpt>
      <trkpt lat="44.4399" lon="6.84286">
        <ele>2056.3999023438</ele>
        <time>2022-03-06T13:39:45.000Z</time>
      </trkpt>
      <trkpt lat="44.43989" lon="6.84288">
        <ele>2056.1999511719</ele>
        <time>2022-03-06T13:39:46.000Z</time>
      </trkpt>
      <trkpt lat="44.43987" lon="6.84295">
        <ele>2055.6000976562</ele>
        <time>2022-03-06T13:39:50.000Z</time>
      </trkpt>
      <trkpt lat="44.43986" lon="6.84308">
        <ele>2055</ele>
        <time>2022-03-06T13:39:54.000Z</time>
      </trkpt>
      <trkpt lat="44.43986" lon="6.84311">
        <ele>2054.3999023438</ele>
        <time>2022-03-06T13:39:55.000Z</time>
      </trkpt>
      <trkpt lat="44.43986" lon="6.84317">
        <ele>2053.8000488281</ele>
        <time>2022-03-06T13:39:57.000Z</time>
      </trkpt>
      <trkpt lat="44.43987" lon="6.84321">
        <ele>2052.6000976562</ele>
        <time>2022-03-06T13:39:59.000Z</time>
      </trkpt>
      <trkpt lat="44.43987" lon="6.84323">
        <ele>2052.3999023438</ele>
        <time>2022-03-06T13:40:00.000Z</time>
      </trkpt>
      <trkpt lat="44.43987" lon="6.84325">
        <ele>2052.1999511719</ele>
        <time>2022-03-06T13:40:01.000Z</time>
      </trkpt>
      <trkpt lat="44.43987" lon="6.8433">
        <ele>2051.6000976562</ele>
        <time>2022-03-06T13:40:04.000Z</time>
      </trkpt>
      <trkpt lat="44.43985" lon="6.84335">
        <ele>2050.6000976562</ele>
        <time>2022-03-06T13:40:08.000Z</time>
      </trkpt>
      <trkpt lat="44.43984" lon="6.84337">
        <ele>2050.6000976562</ele>
        <time>2022-03-06T13:40:09.000Z</time>
      </trkpt>
      <trkpt lat="44.43983" lon="6.8434">
        <ele>2050.3999023438</ele>
        <time>2022-03-06T13:40:10.000Z</time>
      </trkpt>
      <trkpt lat="44.43979" lon="6.84353">
        <ele>2049.6000976562</ele>
        <time>2022-03-06T13:40:15.000Z</time>
      </trkpt>
      <trkpt lat="44.43979" lon="6.84355">
        <ele>2049.1999511719</ele>
        <time>2022-03-06T13:40:16.000Z</time>
      </trkpt>
      <trkpt lat="44.43979" lon="6.84359">
        <ele>2048.1999511719</ele>
        <time>2022-03-06T13:40:19.000Z</time>
      </trkpt>
      <trkpt lat="44.43979" lon="6.84362">
        <ele>2047.4000244141</ele>
        <time>2022-03-06T13:40:21.000Z</time>
      </trkpt>
      <trkpt lat="44.43979" lon="6.84364">
        <ele>2047</ele>
        <time>2022-03-06T13:40:22.000Z</time>
      </trkpt>
      <trkpt lat="44.43979" lon="6.84372">
        <ele>2045.8000488281</ele>
        <time>2022-03-06T13:40:25.000Z</time>
      </trkpt>
      <trkpt lat="44.43981" lon="6.84372">
        <ele>2045</ele>
        <time>2022-03-06T13:40:27.000Z</time>
      </trkpt>
      <trkpt lat="44.43982" lon="6.84371">
        <ele>2044.5999755859</ele>
        <time>2022-03-06T13:40:28.000Z</time>
      </trkpt>
      <trkpt lat="44.43983" lon="6.8437">
        <ele>2043.5999755859</ele>
        <time>2022-03-06T13:40:29.000Z</time>
      </trkpt>
      <trkpt lat="44.43985" lon="6.84368">
        <ele>2041.8000488281</ele>
        <time>2022-03-06T13:40:31.000Z</time>
      </trkpt>
      <trkpt lat="44.43989" lon="6.84363">
        <ele>2040.5999755859</ele>
        <time>2022-03-06T13:40:34.000Z</time>
      </trkpt>
      <trkpt lat="44.4399" lon="6.84362">
        <ele>2040</ele>
        <time>2022-03-06T13:40:35.000Z</time>
      </trkpt>
      <trkpt lat="44.43994" lon="6.84362">
        <ele>2039.4000244141</ele>
        <time>2022-03-06T13:40:37.000Z</time>
      </trkpt>
      <trkpt lat="44.43995" lon="6.84364">
        <ele>2038.8000488281</ele>
        <time>2022-03-06T13:40:39.000Z</time>
      </trkpt>
      <trkpt lat="44.43994" lon="6.84365">
        <ele>2038.4000244141</ele>
        <time>2022-03-06T13:40:40.000Z</time>
      </trkpt>
      <trkpt lat="44.43996" lon="6.84367">
        <ele>2037.1999511719</ele>
        <time>2022-03-06T13:40:45.000Z</time>
      </trkpt>
      <trkpt lat="44.43998" lon="6.84368">
        <ele>2036.5999755859</ele>
        <time>2022-03-06T13:40:46.000Z</time>
      </trkpt>
      <trkpt lat="44.44" lon="6.84373">
        <ele>2036</ele>
        <time>2022-03-06T13:40:48.000Z</time>
      </trkpt>
      <trkpt lat="44.44" lon="6.84374">
        <ele>2035.8000488281</ele>
        <time>2022-03-06T13:40:49.000Z</time>
      </trkpt>
      <trkpt lat="44.43999" lon="6.84375">
        <ele>2034.8000488281</ele>
        <time>2022-03-06T13:40:50.000Z</time>
      </trkpt>
      <trkpt lat="44.44001" lon="6.84374">
        <ele>2034</ele>
        <time>2022-03-06T13:40:52.000Z</time>
      </trkpt>
      <trkpt lat="44.44003" lon="6.84373">
        <ele>2033.5999755859</ele>
        <time>2022-03-06T13:40:53.000Z</time>
      </trkpt>
      <trkpt lat="44.44006" lon="6.84371">
        <ele>2032.4000244141</ele>
        <time>2022-03-06T13:40:55.000Z</time>
      </trkpt>
      <trkpt lat="44.44009" lon="6.8437">
        <ele>2031.5999755859</ele>
        <time>2022-03-06T13:40:57.000Z</time>
      </trkpt>
      <trkpt lat="44.44011" lon="6.84368">
        <ele>2031.1999511719</ele>
        <time>2022-03-06T13:40:58.000Z</time>
      </trkpt>
      <trkpt lat="44.44013" lon="6.84363">
        <ele>2030</ele>
        <time>2022-03-06T13:41:01.000Z</time>
      </trkpt>
      <trkpt lat="44.44016" lon="6.84363">
        <ele>2029.8000488281</ele>
        <time>2022-03-06T13:41:03.000Z</time>
      </trkpt>
      <trkpt lat="44.44017" lon="6.84367">
        <ele>2029</ele>
        <time>2022-03-06T13:41:05.000Z</time>
      </trkpt>
      <trkpt lat="44.44017" lon="6.84368">
        <ele>2028.5999755859</ele>
        <time>2022-03-06T13:41:06.000Z</time>
      </trkpt>
      <trkpt lat="44.44017" lon="6.84368">
        <ele>2028.1999511719</ele>
        <time>2022-03-06T13:41:07.000Z</time>
      </trkpt>
      <trkpt lat="44.44017" lon="6.84368">
        <ele>2027.8000488281</ele>
        <time>2022-03-06T13:41:08.000Z</time>
      </trkpt>
      <trkpt lat="44.44016" lon="6.84369">
        <ele>2027.5999755859</ele>
        <time>2022-03-06T13:41:19.000Z</time>
      </trkpt>
      <trkpt lat="44.44017" lon="6.84369">
        <ele>2027.4000244141</ele>
        <time>2022-03-06T13:41:23.000Z</time>
      </trkpt>
      <trkpt lat="44.4402" lon="6.84368">
        <ele>2026.4000244141</ele>
        <time>2022-03-06T13:41:25.000Z</time>
      </trkpt>
      <trkpt lat="44.44021" lon="6.84368">
        <ele>2025.8000488281</ele>
        <time>2022-03-06T13:41:26.000Z</time>
      </trkpt>
      <trkpt lat="44.44024" lon="6.84372">
        <ele>2025.1999511719</ele>
        <time>2022-03-06T13:41:28.000Z</time>
      </trkpt>
      <trkpt lat="44.44024" lon="6.84374">
        <ele>2024.8000488281</ele>
        <time>2022-03-06T13:41:29.000Z</time>
      </trkpt>
      <trkpt lat="44.44025" lon="6.84376">
        <ele>2024</ele>
        <time>2022-03-06T13:41:30.000Z</time>
      </trkpt>
      <trkpt lat="44.44026" lon="6.84377">
        <ele>2023.5999755859</ele>
        <time>2022-03-06T13:41:31.000Z</time>
      </trkpt>
      <trkpt lat="44.44028" lon="6.84377">
        <ele>2023</ele>
        <time>2022-03-06T13:41:32.000Z</time>
      </trkpt>
      <trkpt lat="44.4403" lon="6.84377">
        <ele>2022.4000244141</ele>
        <time>2022-03-06T13:41:33.000Z</time>
      </trkpt>
      <trkpt lat="44.44032" lon="6.84376">
        <ele>2021.8000488281</ele>
        <time>2022-03-06T13:41:34.000Z</time>
      </trkpt>
      <trkpt lat="44.44034" lon="6.84378">
        <ele>2021.1999511719</ele>
        <time>2022-03-06T13:41:35.000Z</time>
      </trkpt>
      <trkpt lat="44.44035" lon="6.84381">
        <ele>2020.8000488281</ele>
        <time>2022-03-06T13:41:36.000Z</time>
      </trkpt>
      <trkpt lat="44.44036" lon="6.84383">
        <ele>2020.5999755859</ele>
        <time>2022-03-06T13:41:37.000Z</time>
      </trkpt>
      <trkpt lat="44.44038" lon="6.84384">
        <ele>2019.8000488281</ele>
        <time>2022-03-06T13:41:38.000Z</time>
      </trkpt>
      <trkpt lat="44.4404" lon="6.84385">
        <ele>2019.1999511719</ele>
        <time>2022-03-06T13:41:39.000Z</time>
      </trkpt>
      <trkpt lat="44.44042" lon="6.84386">
        <ele>2018.5999755859</ele>
        <time>2022-03-06T13:41:40.000Z</time>
      </trkpt>
      <trkpt lat="44.44043" lon="6.84387">
        <ele>2017.8000488281</ele>
        <time>2022-03-06T13:41:41.000Z</time>
      </trkpt>
      <trkpt lat="44.44043" lon="6.8439">
        <ele>2016.8000488281</ele>
        <time>2022-03-06T13:41:43.000Z</time>
      </trkpt>
      <trkpt lat="44.44043" lon="6.84389">
        <ele>2016.1999511719</ele>
        <time>2022-03-06T13:41:44.000Z</time>
      </trkpt>
      <trkpt lat="44.44043" lon="6.8439">
        <ele>2015.5999755859</ele>
        <time>2022-03-06T13:41:50.000Z</time>
      </trkpt>
      <trkpt lat="44.44044" lon="6.84391">
        <ele>2015.5999755859</ele>
        <time>2022-03-06T13:42:11.000Z</time>
      </trkpt>
      <trkpt lat="44.44044" lon="6.84399">
        <ele>2015.1999511719</ele>
        <time>2022-03-06T13:42:13.000Z</time>
      </trkpt>
      <trkpt lat="44.44045" lon="6.84407">
        <ele>2015</ele>
        <time>2022-03-06T13:42:15.000Z</time>
      </trkpt>
      <trkpt lat="44.44045" lon="6.84409">
        <ele>2014.1999511719</ele>
        <time>2022-03-06T13:42:16.000Z</time>
      </trkpt>
      <trkpt lat="44.44049" lon="6.84413">
        <ele>2013</ele>
        <time>2022-03-06T13:42:18.000Z</time>
      </trkpt>
      <trkpt lat="44.44053" lon="6.84416">
        <ele>2011.4000244141</ele>
        <time>2022-03-06T13:42:20.000Z</time>
      </trkpt>
      <trkpt lat="44.44054" lon="6.84419">
        <ele>2010.5999755859</ele>
        <time>2022-03-06T13:42:21.000Z</time>
      </trkpt>
      <trkpt lat="44.44053" lon="6.84421">
        <ele>2009.8000488281</ele>
        <time>2022-03-06T13:42:22.000Z</time>
      </trkpt>
      <trkpt lat="44.44051" lon="6.84427">
        <ele>2008.8000488281</ele>
        <time>2022-03-06T13:42:24.000Z</time>
      </trkpt>
      <trkpt lat="44.44051" lon="6.84428">
        <ele>2008.1999511719</ele>
        <time>2022-03-06T13:42:25.000Z</time>
      </trkpt>
      <trkpt lat="44.44052" lon="6.84429">
        <ele>2008</ele>
        <time>2022-03-06T13:42:26.000Z</time>
      </trkpt>
      <trkpt lat="44.44053" lon="6.84428">
        <ele>2007.4000244141</ele>
        <time>2022-03-06T13:42:27.000Z</time>
      </trkpt>
      <trkpt lat="44.44056" lon="6.84426">
        <ele>2006</ele>
        <time>2022-03-06T13:42:29.000Z</time>
      </trkpt>
      <trkpt lat="44.44062" lon="6.84423">
        <ele>2004.8000488281</ele>
        <time>2022-03-06T13:42:33.000Z</time>
      </trkpt>
      <trkpt lat="44.44063" lon="6.84424">
        <ele>2004</ele>
        <time>2022-03-06T13:42:36.000Z</time>
      </trkpt>
      <trkpt lat="44.44063" lon="6.84424">
        <ele>2003.8000488281</ele>
        <time>2022-03-06T13:42:37.000Z</time>
      </trkpt>
      <trkpt lat="44.44068" lon="6.84424">
        <ele>2003.1999511719</ele>
        <time>2022-03-06T13:42:43.000Z</time>
      </trkpt>
      <trkpt lat="44.44069" lon="6.84427">
        <ele>2002.8000488281</ele>
        <time>2022-03-06T13:42:48.000Z</time>
      </trkpt>
      <trkpt lat="44.4407" lon="6.84427">
        <ele>2002.8000488281</ele>
        <time>2022-03-06T13:42:49.000Z</time>
      </trkpt>
      <trkpt lat="44.44072" lon="6.84426">
        <ele>2002.5999755859</ele>
        <time>2022-03-06T13:42:51.000Z</time>
      </trkpt>
      <trkpt lat="44.44075" lon="6.84425">
        <ele>2002.1999511719</ele>
        <time>2022-03-06T13:42:54.000Z</time>
      </trkpt>
      <trkpt lat="44.44078" lon="6.84425">
        <ele>2001.4000244141</ele>
        <time>2022-03-06T13:42:58.000Z</time>
      </trkpt>
      <trkpt lat="44.44079" lon="6.84425">
        <ele>2001.1999511719</ele>
        <time>2022-03-06T13:42:59.000Z</time>
      </trkpt>
      <trkpt lat="44.44081" lon="6.84426">
        <ele>2000.1999511719</ele>
        <time>2022-03-06T13:43:02.000Z</time>
      </trkpt>
      <trkpt lat="44.44083" lon="6.84427">
        <ele>2000</ele>
        <time>2022-03-06T13:43:03.000Z</time>
      </trkpt>
      <trkpt lat="44.4409" lon="6.84426">
        <ele>1999</ele>
        <time>2022-03-06T13:43:06.000Z</time>
      </trkpt>
      <trkpt lat="44.44092" lon="6.84424">
        <ele>1998.4000244141</ele>
        <time>2022-03-06T13:43:07.000Z</time>
      </trkpt>
      <trkpt lat="44.44096" lon="6.84422">
        <ele>1998</ele>
        <time>2022-03-06T13:43:09.000Z</time>
      </trkpt>
      <trkpt lat="44.44097" lon="6.84421">
        <ele>1997.5999755859</ele>
        <time>2022-03-06T13:43:11.000Z</time>
      </trkpt>
      <trkpt lat="44.44105" lon="6.84421">
        <ele>1996.5999755859</ele>
        <time>2022-03-06T13:43:15.000Z</time>
      </trkpt>
      <trkpt lat="44.44107" lon="6.84425">
        <ele>1996.1999511719</ele>
        <time>2022-03-06T13:43:16.000Z</time>
      </trkpt>
      <trkpt lat="44.44107" lon="6.84429">
        <ele>1995.5999755859</ele>
        <time>2022-03-06T13:43:17.000Z</time>
      </trkpt>
      <trkpt lat="44.44104" lon="6.84438">
        <ele>1994.1999511719</ele>
        <time>2022-03-06T13:43:19.000Z</time>
      </trkpt>
      <trkpt lat="44.44104" lon="6.84447">
        <ele>1993.1999511719</ele>
        <time>2022-03-06T13:43:21.000Z</time>
      </trkpt>
      <trkpt lat="44.44107" lon="6.84455">
        <ele>1991.5999755859</ele>
        <time>2022-03-06T13:43:23.000Z</time>
      </trkpt>
      <trkpt lat="44.44106" lon="6.8446">
        <ele>1990.5999755859</ele>
        <time>2022-03-06T13:43:24.000Z</time>
      </trkpt>
      <trkpt lat="44.44105" lon="6.84464">
        <ele>1989.8000488281</ele>
        <time>2022-03-06T13:43:25.000Z</time>
      </trkpt>
      <trkpt lat="44.44106" lon="6.84469">
        <ele>1989</ele>
        <time>2022-03-06T13:43:26.000Z</time>
      </trkpt>
      <trkpt lat="44.44106" lon="6.84475">
        <ele>1988.4000244141</ele>
        <time>2022-03-06T13:43:27.000Z</time>
      </trkpt>
      <trkpt lat="44.44106" lon="6.84481">
        <ele>1987.5999755859</ele>
        <time>2022-03-06T13:43:28.000Z</time>
      </trkpt>
      <trkpt lat="44.44107" lon="6.84486">
        <ele>1986.5999755859</ele>
        <time>2022-03-06T13:43:29.000Z</time>
      </trkpt>
      <trkpt lat="44.44108" lon="6.84498">
        <ele>1985</ele>
        <time>2022-03-06T13:43:31.000Z</time>
      </trkpt>
      <trkpt lat="44.44109" lon="6.84503">
        <ele>1984.1999511719</ele>
        <time>2022-03-06T13:43:32.000Z</time>
      </trkpt>
      <trkpt lat="44.4411" lon="6.84508">
        <ele>1983.1999511719</ele>
        <time>2022-03-06T13:43:33.000Z</time>
      </trkpt>
      <trkpt lat="44.4411" lon="6.84514">
        <ele>1982</ele>
        <time>2022-03-06T13:43:34.000Z</time>
      </trkpt>
      <trkpt lat="44.44112" lon="6.84522">
        <ele>1980.4000244141</ele>
        <time>2022-03-06T13:43:36.000Z</time>
      </trkpt>
      <trkpt lat="44.44114" lon="6.84527">
        <ele>1979.8000488281</ele>
        <time>2022-03-06T13:43:37.000Z</time>
      </trkpt>
      <trkpt lat="44.44114" lon="6.84532">
        <ele>1978.5999755859</ele>
        <time>2022-03-06T13:43:38.000Z</time>
      </trkpt>
      <trkpt lat="44.44115" lon="6.84536">
        <ele>1977.5999755859</ele>
        <time>2022-03-06T13:43:39.000Z</time>
      </trkpt>
      <trkpt lat="44.44117" lon="6.84545">
        <ele>1976.1999511719</ele>
        <time>2022-03-06T13:43:41.000Z</time>
      </trkpt>
      <trkpt lat="44.44117" lon="6.84556">
        <ele>1974.5999755859</ele>
        <time>2022-03-06T13:43:43.000Z</time>
      </trkpt>
      <trkpt lat="44.44117" lon="6.84561">
        <ele>1973.8000488281</ele>
        <time>2022-03-06T13:43:44.000Z</time>
      </trkpt>
      <trkpt lat="44.44119" lon="6.84567">
        <ele>1973.4000244141</ele>
        <time>2022-03-06T13:43:45.000Z</time>
      </trkpt>
      <trkpt lat="44.44121" lon="6.84572">
        <ele>1973.1999511719</ele>
        <time>2022-03-06T13:43:46.000Z</time>
      </trkpt>
      <trkpt lat="44.44124" lon="6.84575">
        <ele>1972.4000244141</ele>
        <time>2022-03-06T13:43:47.000Z</time>
      </trkpt>
      <trkpt lat="44.44128" lon="6.84579">
        <ele>1970.4000244141</ele>
        <time>2022-03-06T13:43:49.000Z</time>
      </trkpt>
      <trkpt lat="44.44129" lon="6.84579">
        <ele>1969.8000488281</ele>
        <time>2022-03-06T13:43:50.000Z</time>
      </trkpt>
      <trkpt lat="44.44131" lon="6.84575">
        <ele>1969.1999511719</ele>
        <time>2022-03-06T13:43:52.000Z</time>
      </trkpt>
      <trkpt lat="44.44131" lon="6.84574">
        <ele>1969</ele>
        <time>2022-03-06T13:43:53.000Z</time>
      </trkpt>
      <trkpt lat="44.4413" lon="6.84574">
        <ele>1968.5999755859</ele>
        <time>2022-03-06T13:44:00.000Z</time>
      </trkpt>
      <trkpt lat="44.44132" lon="6.84574">
        <ele>1968.8000488281</ele>
        <time>2022-03-06T13:44:09.000Z</time>
      </trkpt>
      <trkpt lat="44.44131" lon="6.84571">
        <ele>1968.5999755859</ele>
        <time>2022-03-06T13:44:35.000Z</time>
      </trkpt>
      <trkpt lat="44.44131" lon="6.84571">
        <ele>1968.1999511719</ele>
        <time>2022-03-06T13:44:53.000Z</time>
      </trkpt>
      <trkpt lat="44.44132" lon="6.84573">
        <ele>1968</ele>
        <time>2022-03-06T13:44:54.000Z</time>
      </trkpt>
      <trkpt lat="44.44137" lon="6.84577">
        <ele>1967.8000488281</ele>
        <time>2022-03-06T13:44:59.000Z</time>
      </trkpt>
      <trkpt lat="44.4414" lon="6.84582">
        <ele>1967.8000488281</ele>
        <time>2022-03-06T13:45:07.000Z</time>
      </trkpt>
      <trkpt lat="44.44137" lon="6.84589">
        <ele>1967.8000488281</ele>
        <time>2022-03-06T13:45:47.000Z</time>
      </trkpt>
      <trkpt lat="44.44137" lon="6.84591">
        <ele>1967.8000488281</ele>
        <time>2022-03-06T13:45:50.000Z</time>
      </trkpt>
      <trkpt lat="44.44137" lon="6.84593">
        <ele>1967.4000244141</ele>
        <time>2022-03-06T13:46:05.000Z</time>
      </trkpt>
      <trkpt lat="44.44135" lon="6.84595">
        <ele>1967</ele>
        <time>2022-03-06T13:46:08.000Z</time>
      </trkpt>
      <trkpt lat="44.44134" lon="6.84598">
        <ele>1965.8000488281</ele>
        <time>2022-03-06T13:46:14.000Z</time>
      </trkpt>
      <trkpt lat="44.44134" lon="6.84599">
        <ele>1965.8000488281</ele>
        <time>2022-03-06T13:46:15.000Z</time>
      </trkpt>
      <trkpt lat="44.44134" lon="6.84598">
        <ele>1964.8000488281</ele>
        <time>2022-03-06T13:46:20.000Z</time>
      </trkpt>
      <trkpt lat="44.44135" lon="6.84598">
        <ele>1964.8000488281</ele>
        <time>2022-03-06T13:46:21.000Z</time>
      </trkpt>
      <trkpt lat="44.44136" lon="6.84599">
        <ele>1964.8000488281</ele>
        <time>2022-03-06T13:46:22.000Z</time>
      </trkpt>
      <trkpt lat="44.44139" lon="6.84598">
        <ele>1963.8000488281</ele>
        <time>2022-03-06T13:46:25.000Z</time>
      </trkpt>
      <trkpt lat="44.44141" lon="6.84598">
        <ele>1962.5999755859</ele>
        <time>2022-03-06T13:46:28.000Z</time>
      </trkpt>
      <trkpt lat="44.44143" lon="6.84598">
        <ele>1962.4000244141</ele>
        <time>2022-03-06T13:46:29.000Z</time>
      </trkpt>
      <trkpt lat="44.44148" lon="6.84597">
        <ele>1961.1999511719</ele>
        <time>2022-03-06T13:46:33.000Z</time>
      </trkpt>
      <trkpt lat="44.44149" lon="6.84597">
        <ele>1960.1999511719</ele>
        <time>2022-03-06T13:46:37.000Z</time>
      </trkpt>
      <trkpt lat="44.44149" lon="6.84597">
        <ele>1959.8000488281</ele>
        <time>2022-03-06T13:46:39.000Z</time>
      </trkpt>
      <trkpt lat="44.4415" lon="6.84598">
        <ele>1959.5999755859</ele>
        <time>2022-03-06T13:46:46.000Z</time>
      </trkpt>
      <trkpt lat="44.44151" lon="6.84598">
        <ele>1959</ele>
        <time>2022-03-06T13:46:53.000Z</time>
      </trkpt>
      <trkpt lat="44.44154" lon="6.846">
        <ele>1958</ele>
        <time>2022-03-06T13:46:55.000Z</time>
      </trkpt>
      <trkpt lat="44.44157" lon="6.846">
        <ele>1956.5999755859</ele>
        <time>2022-03-06T13:46:58.000Z</time>
      </trkpt>
      <trkpt lat="44.4416" lon="6.846">
        <ele>1955.4000244141</ele>
        <time>2022-03-06T13:47:01.000Z</time>
      </trkpt>
      <trkpt lat="44.44161" lon="6.84601">
        <ele>1955.1999511719</ele>
        <time>2022-03-06T13:47:02.000Z</time>
      </trkpt>
      <trkpt lat="44.44163" lon="6.84602">
        <ele>1954</ele>
        <time>2022-03-06T13:47:05.000Z</time>
      </trkpt>
      <trkpt lat="44.44164" lon="6.84602">
        <ele>1953.5999755859</ele>
        <time>2022-03-06T13:47:06.000Z</time>
      </trkpt>
      <trkpt lat="44.44166" lon="6.84602">
        <ele>1953.4000244141</ele>
        <time>2022-03-06T13:47:07.000Z</time>
      </trkpt>
      <trkpt lat="44.44169" lon="6.84601">
        <ele>1953</ele>
        <time>2022-03-06T13:47:09.000Z</time>
      </trkpt>
      <trkpt lat="44.44169" lon="6.84601">
        <ele>1952.1999511719</ele>
        <time>2022-03-06T13:47:11.000Z</time>
      </trkpt>
      <trkpt lat="44.4417" lon="6.84601">
        <ele>1952</ele>
        <time>2022-03-06T13:47:12.000Z</time>
      </trkpt>
      <trkpt lat="44.44172" lon="6.84601">
        <ele>1951.5999755859</ele>
        <time>2022-03-06T13:47:17.000Z</time>
      </trkpt>
      <trkpt lat="44.44173" lon="6.84603">
        <ele>1951.5999755859</ele>
        <time>2022-03-06T13:47:24.000Z</time>
      </trkpt>
      <trkpt lat="44.44176" lon="6.84603">
        <ele>1951.5999755859</ele>
        <time>2022-03-06T13:47:30.000Z</time>
      </trkpt>
      <trkpt lat="44.44172" lon="6.84602">
        <ele>1951.1999511719</ele>
        <time>2022-03-06T13:47:33.000Z</time>
      </trkpt>
      <trkpt lat="44.44172" lon="6.84603">
        <ele>1951</ele>
        <time>2022-03-06T13:47:47.000Z</time>
      </trkpt>
      <trkpt lat="44.44172" lon="6.84603">
        <ele>1951.1999511719</ele>
        <time>2022-03-06T13:47:54.000Z</time>
      </trkpt>
      <trkpt lat="44.44171" lon="6.84602">
        <ele>1951</ele>
        <time>2022-03-06T13:47:56.000Z</time>
      </trkpt>
      <trkpt lat="44.4417" lon="6.84602">
        <ele>1951</ele>
        <time>2022-03-06T13:47:57.000Z</time>
      </trkpt>
      <trkpt lat="44.44171" lon="6.84604">
        <ele>1950.8000488281</ele>
        <time>2022-03-06T13:48:02.000Z</time>
      </trkpt>
      <trkpt lat="44.44172" lon="6.84605">
        <ele>1951</ele>
        <time>2022-03-06T13:48:04.000Z</time>
      </trkpt>
      <trkpt lat="44.44174" lon="6.84605">
        <ele>1951.4000244141</ele>
        <time>2022-03-06T13:48:06.000Z</time>
      </trkpt>
      <trkpt lat="44.44176" lon="6.84605">
        <ele>1951.8000488281</ele>
        <time>2022-03-06T13:48:10.000Z</time>
      </trkpt>
      <trkpt lat="44.44176" lon="6.84605">
        <ele>1952</ele>
        <time>2022-03-06T13:48:14.000Z</time>
      </trkpt>
      <trkpt lat="44.44176" lon="6.84605">
        <ele>1951.8000488281</ele>
        <time>2022-03-06T13:48:18.000Z</time>
      </trkpt>
      <trkpt lat="44.44176" lon="6.84606">
        <ele>1952</ele>
        <time>2022-03-06T13:48:24.000Z</time>
      </trkpt>
      <trkpt lat="44.44176" lon="6.84607">
        <ele>1952</ele>
        <time>2022-03-06T13:48:29.000Z</time>
      </trkpt>
      <trkpt lat="44.44176" lon="6.84608">
        <ele>1952.4000244141</ele>
        <time>2022-03-06T13:48:35.000Z</time>
      </trkpt>
      <trkpt lat="44.44181" lon="6.8461">
        <ele>1951</ele>
        <time>2022-03-06T13:50:06.000Z</time>
      </trkpt>
      <trkpt lat="44.44181" lon="6.84609">
        <ele>1949.5999755859</ele>
        <time>2022-03-06T13:50:10.000Z</time>
      </trkpt>
      <trkpt lat="44.44182" lon="6.84608">
        <ele>1948.4000244141</ele>
        <time>2022-03-06T13:50:15.000Z</time>
      </trkpt>
      <trkpt lat="44.44184" lon="6.84607">
        <ele>1947.1999511719</ele>
        <time>2022-03-06T13:50:19.000Z</time>
      </trkpt>
      <trkpt lat="44.44185" lon="6.84605">
        <ele>1946.1999511719</ele>
        <time>2022-03-06T13:50:25.000Z</time>
      </trkpt>
      <trkpt lat="44.44187" lon="6.84605">
        <ele>1944.8000488281</ele>
        <time>2022-03-06T13:50:32.000Z</time>
      </trkpt>
      <trkpt lat="44.44194" lon="6.84606">
        <ele>1943.8000488281</ele>
        <time>2022-03-06T13:50:46.000Z</time>
      </trkpt>
      <trkpt lat="44.44197" lon="6.84607">
        <ele>1942.8000488281</ele>
        <time>2022-03-06T13:50:54.000Z</time>
      </trkpt>
      <trkpt lat="44.442" lon="6.8461">
        <ele>1941.5999755859</ele>
        <time>2022-03-06T13:51:00.000Z</time>
      </trkpt>
      <trkpt lat="44.44207" lon="6.84614">
        <ele>1940.1999511719</ele>
        <time>2022-03-06T13:51:05.000Z</time>
      </trkpt>
      <trkpt lat="44.44217" lon="6.84616">
        <ele>1939.1999511719</ele>
        <time>2022-03-06T13:51:12.000Z</time>
      </trkpt>
      <trkpt lat="44.44219" lon="6.84617">
        <ele>1939</ele>
        <time>2022-03-06T13:51:13.000Z</time>
      </trkpt>
      <trkpt lat="44.44221" lon="6.8462">
        <ele>1938</ele>
        <time>2022-03-06T13:51:17.000Z</time>
      </trkpt>
      <trkpt lat="44.44222" lon="6.8462">
        <ele>1937.5999755859</ele>
        <time>2022-03-06T13:51:18.000Z</time>
      </trkpt>
      <trkpt lat="44.44224" lon="6.84619">
        <ele>1937</ele>
        <time>2022-03-06T13:51:21.000Z</time>
      </trkpt>
      <trkpt lat="44.44221" lon="6.84618">
        <ele>1936.1999511719</ele>
        <time>2022-03-06T13:51:24.000Z</time>
      </trkpt>
      <trkpt lat="44.44221" lon="6.84618">
        <ele>1936</ele>
        <time>2022-03-06T13:51:25.000Z</time>
      </trkpt>
      <trkpt lat="44.4422" lon="6.84617">
        <ele>1934.8000488281</ele>
        <time>2022-03-06T13:51:28.000Z</time>
      </trkpt>
      <trkpt lat="44.44221" lon="6.84617">
        <ele>1934.5999755859</ele>
        <time>2022-03-06T13:51:29.000Z</time>
      </trkpt>
      <trkpt lat="44.44223" lon="6.84617">
        <ele>1933.5999755859</ele>
        <time>2022-03-06T13:51:33.000Z</time>
      </trkpt>
      <trkpt lat="44.44224" lon="6.84617">
        <ele>1933</ele>
        <time>2022-03-06T13:51:35.000Z</time>
      </trkpt>
      <trkpt lat="44.44225" lon="6.84617">
        <ele>1932.5999755859</ele>
        <time>2022-03-06T13:51:36.000Z</time>
      </trkpt>
      <trkpt lat="44.44225" lon="6.84617">
        <ele>1932.4000244141</ele>
        <time>2022-03-06T13:51:37.000Z</time>
      </trkpt>
      <trkpt lat="44.44232" lon="6.84619">
        <ele>1931.4000244141</ele>
        <time>2022-03-06T13:51:43.000Z</time>
      </trkpt>
      <trkpt lat="44.44233" lon="6.84619">
        <ele>1930.1999511719</ele>
        <time>2022-03-06T13:51:46.000Z</time>
      </trkpt>
      <trkpt lat="44.44233" lon="6.8462">
        <ele>1930</ele>
        <time>2022-03-06T13:51:47.000Z</time>
      </trkpt>
      <trkpt lat="44.44237" lon="6.84619">
        <ele>1929</ele>
        <time>2022-03-06T13:51:50.000Z</time>
      </trkpt>
      <trkpt lat="44.44238" lon="6.84619">
        <ele>1928.8000488281</ele>
        <time>2022-03-06T13:51:51.000Z</time>
      </trkpt>
      <trkpt lat="44.44238" lon="6.84621">
        <ele>1928</ele>
        <time>2022-03-06T13:51:55.000Z</time>
      </trkpt>
      <trkpt lat="44.44241" lon="6.84623">
        <ele>1926.8000488281</ele>
        <time>2022-03-06T13:51:59.000Z</time>
      </trkpt>
      <trkpt lat="44.44242" lon="6.84623">
        <ele>1926.5999755859</ele>
        <time>2022-03-06T13:52:00.000Z</time>
      </trkpt>
      <trkpt lat="44.44246" lon="6.84626">
        <ele>1925.8000488281</ele>
        <time>2022-03-06T13:52:03.000Z</time>
      </trkpt>
      <trkpt lat="44.44248" lon="6.84628">
        <ele>1925.4000244141</ele>
        <time>2022-03-06T13:52:04.000Z</time>
      </trkpt>
      <trkpt lat="44.44251" lon="6.84628">
        <ele>1925</ele>
        <time>2022-03-06T13:52:06.000Z</time>
      </trkpt>
      <trkpt lat="44.44251" lon="6.84628">
        <ele>1924.5999755859</ele>
        <time>2022-03-06T13:52:07.000Z</time>
      </trkpt>
      <trkpt lat="44.44256" lon="6.84632">
        <ele>1924.1999511719</ele>
        <time>2022-03-06T13:52:10.000Z</time>
      </trkpt>
      <trkpt lat="44.4426" lon="6.84638">
        <ele>1923.4000244141</ele>
        <time>2022-03-06T13:52:15.000Z</time>
      </trkpt>
      <trkpt lat="44.44261" lon="6.84639">
        <ele>1923.1999511719</ele>
        <time>2022-03-06T13:52:16.000Z</time>
      </trkpt>
      <trkpt lat="44.44262" lon="6.84643">
        <ele>1922</ele>
        <time>2022-03-06T13:52:20.000Z</time>
      </trkpt>
      <trkpt lat="44.44263" lon="6.84646">
        <ele>1921.8000488281</ele>
        <time>2022-03-06T13:52:22.000Z</time>
      </trkpt>
      <trkpt lat="44.4427" lon="6.8465">
        <ele>1921</ele>
        <time>2022-03-06T13:52:26.000Z</time>
      </trkpt>
      <trkpt lat="44.44271" lon="6.84651">
        <ele>1920.5999755859</ele>
        <time>2022-03-06T13:52:27.000Z</time>
      </trkpt>
      <trkpt lat="44.44275" lon="6.84657">
        <ele>1919.8000488281</ele>
        <time>2022-03-06T13:52:30.000Z</time>
      </trkpt>
      <trkpt lat="44.44276" lon="6.8466">
        <ele>1919.1999511719</ele>
        <time>2022-03-06T13:52:33.000Z</time>
      </trkpt>
      <trkpt lat="44.44278" lon="6.84663">
        <ele>1918.5999755859</ele>
        <time>2022-03-06T13:52:38.000Z</time>
      </trkpt>
      <trkpt lat="44.44278" lon="6.84663">
        <ele>1918.5999755859</ele>
        <time>2022-03-06T13:52:39.000Z</time>
      </trkpt>
      <trkpt lat="44.44279" lon="6.84663">
        <ele>1917.4000244141</ele>
        <time>2022-03-06T13:52:43.000Z</time>
      </trkpt>
      <trkpt lat="44.44278" lon="6.84663">
        <ele>1916.8000488281</ele>
        <time>2022-03-06T13:52:48.000Z</time>
      </trkpt>
      <trkpt lat="44.44276" lon="6.84663">
        <ele>1916.1999511719</ele>
        <time>2022-03-06T13:52:50.000Z</time>
      </trkpt>
      <trkpt lat="44.44277" lon="6.84663">
        <ele>1915.5999755859</ele>
        <time>2022-03-06T13:52:53.000Z</time>
      </trkpt>
      <trkpt lat="44.44279" lon="6.84663">
        <ele>1915.1999511719</ele>
        <time>2022-03-06T13:52:55.000Z</time>
      </trkpt>
      <trkpt lat="44.44283" lon="6.84663">
        <ele>1914</ele>
        <time>2022-03-06T13:52:59.000Z</time>
      </trkpt>
      <trkpt lat="44.44286" lon="6.84663">
        <ele>1913</ele>
        <time>2022-03-06T13:53:04.000Z</time>
      </trkpt>
      <trkpt lat="44.44286" lon="6.84663">
        <ele>1913</ele>
        <time>2022-03-06T13:53:05.000Z</time>
      </trkpt>
      <trkpt lat="44.44288" lon="6.84665">
        <ele>1912</ele>
        <time>2022-03-06T13:53:09.000Z</time>
      </trkpt>
      <trkpt lat="44.4429" lon="6.84666">
        <ele>1911.5999755859</ele>
        <time>2022-03-06T13:53:10.000Z</time>
      </trkpt>
      <trkpt lat="44.44293" lon="6.84665">
        <ele>1910.8000488281</ele>
        <time>2022-03-06T13:53:15.000Z</time>
      </trkpt>
      <trkpt lat="44.44294" lon="6.84665">
        <ele>1910.1999511719</ele>
        <time>2022-03-06T13:53:17.000Z</time>
      </trkpt>
      <trkpt lat="44.44296" lon="6.84665">
        <ele>1909.8000488281</ele>
        <time>2022-03-06T13:53:19.000Z</time>
      </trkpt>
      <trkpt lat="44.44298" lon="6.84664">
        <ele>1909.1999511719</ele>
        <time>2022-03-06T13:53:22.000Z</time>
      </trkpt>
      <trkpt lat="44.44299" lon="6.84664">
        <ele>1908.8000488281</ele>
        <time>2022-03-06T13:53:24.000Z</time>
      </trkpt>
      <trkpt lat="44.44303" lon="6.84664">
        <ele>1908.1999511719</ele>
        <time>2022-03-06T13:53:27.000Z</time>
      </trkpt>
      <trkpt lat="44.44306" lon="6.84664">
        <ele>1907.8000488281</ele>
        <time>2022-03-06T13:53:29.000Z</time>
      </trkpt>
      <trkpt lat="44.44309" lon="6.84665">
        <ele>1907.5999755859</ele>
        <time>2022-03-06T13:53:30.000Z</time>
      </trkpt>
      <trkpt lat="44.44313" lon="6.84666">
        <ele>1906.8000488281</ele>
        <time>2022-03-06T13:53:32.000Z</time>
      </trkpt>
      <trkpt lat="44.44315" lon="6.84666">
        <ele>1906.4000244141</ele>
        <time>2022-03-06T13:53:33.000Z</time>
      </trkpt>
      <trkpt lat="44.44316" lon="6.84665">
        <ele>1906.1999511719</ele>
        <time>2022-03-06T13:53:34.000Z</time>
      </trkpt>
      <trkpt lat="44.44318" lon="6.84662">
        <ele>1905.5999755859</ele>
        <time>2022-03-06T13:53:37.000Z</time>
      </trkpt>
      <trkpt lat="44.44317" lon="6.8466">
        <ele>1905</ele>
        <time>2022-03-06T13:53:39.000Z</time>
      </trkpt>
      <trkpt lat="44.44317" lon="6.84658">
        <ele>1904.5999755859</ele>
        <time>2022-03-06T13:53:41.000Z</time>
      </trkpt>
      <trkpt lat="44.44319" lon="6.84656">
        <ele>1904.4000244141</ele>
        <time>2022-03-06T13:53:43.000Z</time>
      </trkpt>
      <trkpt lat="44.44321" lon="6.84654">
        <ele>1904</ele>
        <time>2022-03-06T13:53:45.000Z</time>
      </trkpt>
      <trkpt lat="44.44322" lon="6.84653">
        <ele>1903.5999755859</ele>
        <time>2022-03-06T13:53:48.000Z</time>
      </trkpt>
      <trkpt lat="44.44323" lon="6.84654">
        <ele>1903</ele>
        <time>2022-03-06T13:53:51.000Z</time>
      </trkpt>
      <trkpt lat="44.44325" lon="6.84654">
        <ele>1902.1999511719</ele>
        <time>2022-03-06T13:53:54.000Z</time>
      </trkpt>
      <trkpt lat="44.44327" lon="6.84655">
        <ele>1901.5999755859</ele>
        <time>2022-03-06T13:53:56.000Z</time>
      </trkpt>
      <trkpt lat="44.4433" lon="6.84657">
        <ele>1900.4000244141</ele>
        <time>2022-03-06T13:54:00.000Z</time>
      </trkpt>
      <trkpt lat="44.44332" lon="6.84661">
        <ele>1899.4000244141</ele>
        <time>2022-03-06T13:54:05.000Z</time>
      </trkpt>
      <trkpt lat="44.44333" lon="6.84663">
        <ele>1898.5999755859</ele>
        <time>2022-03-06T13:54:08.000Z</time>
      </trkpt>
      <trkpt lat="44.44334" lon="6.84662">
        <ele>1898.4000244141</ele>
        <time>2022-03-06T13:54:09.000Z</time>
      </trkpt>
      <trkpt lat="44.44341" lon="6.84663">
        <ele>1898</ele>
        <time>2022-03-06T13:54:12.000Z</time>
      </trkpt>
      <trkpt lat="44.44349" lon="6.84665">
        <ele>1897.5999755859</ele>
        <time>2022-03-06T13:54:14.000Z</time>
      </trkpt>
      <trkpt lat="44.44353" lon="6.84666">
        <ele>1897.1999511719</ele>
        <time>2022-03-06T13:54:16.000Z</time>
      </trkpt>
      <trkpt lat="44.44356" lon="6.84666">
        <ele>1896.1999511719</ele>
        <time>2022-03-06T13:54:20.000Z</time>
      </trkpt>
      <trkpt lat="44.44358" lon="6.84666">
        <ele>1896.1999511719</ele>
        <time>2022-03-06T13:54:21.000Z</time>
      </trkpt>
      <trkpt lat="44.44362" lon="6.84664">
        <ele>1895.5999755859</ele>
        <time>2022-03-06T13:54:25.000Z</time>
      </trkpt>
      <trkpt lat="44.44364" lon="6.84664">
        <ele>1895.5999755859</ele>
        <time>2022-03-06T13:54:26.000Z</time>
      </trkpt>
      <trkpt lat="44.44367" lon="6.84663">
        <ele>1895</ele>
        <time>2022-03-06T13:54:29.000Z</time>
      </trkpt>
      <trkpt lat="44.44367" lon="6.84663">
        <ele>1894.4000244141</ele>
        <time>2022-03-06T13:54:31.000Z</time>
      </trkpt>
      <trkpt lat="44.44368" lon="6.84663">
        <ele>1893.8000488281</ele>
        <time>2022-03-06T13:54:34.000Z</time>
      </trkpt>
      <trkpt lat="44.4437" lon="6.84663">
        <ele>1893.1999511719</ele>
        <time>2022-03-06T13:54:36.000Z</time>
      </trkpt>
      <trkpt lat="44.44372" lon="6.84664">
        <ele>1892.5999755859</ele>
        <time>2022-03-06T13:54:39.000Z</time>
      </trkpt>
      <trkpt lat="44.44374" lon="6.84663">
        <ele>1892</ele>
        <time>2022-03-06T13:54:42.000Z</time>
      </trkpt>
      <trkpt lat="44.44374" lon="6.84664">
        <ele>1891.5999755859</ele>
        <time>2022-03-06T13:54:45.000Z</time>
      </trkpt>
      <trkpt lat="44.44373" lon="6.84665">
        <ele>1891.1999511719</ele>
        <time>2022-03-06T13:54:46.000Z</time>
      </trkpt>
      <trkpt lat="44.44374" lon="6.84664">
        <ele>1890.4000244141</ele>
        <time>2022-03-06T13:54:49.000Z</time>
      </trkpt>
      <trkpt lat="44.44374" lon="6.84662">
        <ele>1890.1999511719</ele>
        <time>2022-03-06T13:54:51.000Z</time>
      </trkpt>
      <trkpt lat="44.44376" lon="6.84661">
        <ele>1889.4000244141</ele>
        <time>2022-03-06T13:54:54.000Z</time>
      </trkpt>
      <trkpt lat="44.44377" lon="6.8466">
        <ele>1889.1999511719</ele>
        <time>2022-03-06T13:54:56.000Z</time>
      </trkpt>
      <trkpt lat="44.4438" lon="6.84657">
        <ele>1888.4000244141</ele>
        <time>2022-03-06T13:55:00.000Z</time>
      </trkpt>
      <trkpt lat="44.44383" lon="6.84654">
        <ele>1887.4000244141</ele>
        <time>2022-03-06T13:55:03.000Z</time>
      </trkpt>
      <trkpt lat="44.44383" lon="6.84653">
        <ele>1887.1999511719</ele>
        <time>2022-03-06T13:55:04.000Z</time>
      </trkpt>
      <trkpt lat="44.44383" lon="6.84652">
        <ele>1886.8000488281</ele>
        <time>2022-03-06T13:55:06.000Z</time>
      </trkpt>
      <trkpt lat="44.44383" lon="6.84651">
        <ele>1886.5999755859</ele>
        <time>2022-03-06T13:55:07.000Z</time>
      </trkpt>
      <trkpt lat="44.44383" lon="6.84651">
        <ele>1886.4000244141</ele>
        <time>2022-03-06T13:55:08.000Z</time>
      </trkpt>
      <trkpt lat="44.44384" lon="6.8465">
        <ele>1886.1999511719</ele>
        <time>2022-03-06T13:55:09.000Z</time>
      </trkpt>
      <trkpt lat="44.44387" lon="6.84648">
        <ele>1885.5999755859</ele>
        <time>2022-03-06T13:55:11.000Z</time>
      </trkpt>
      <trkpt lat="44.44387" lon="6.84647">
        <ele>1885</ele>
        <time>2022-03-06T13:55:12.000Z</time>
      </trkpt>
      <trkpt lat="44.44387" lon="6.84645">
        <ele>1884.4000244141</ele>
        <time>2022-03-06T13:55:14.000Z</time>
      </trkpt>
      <trkpt lat="44.44388" lon="6.84644">
        <ele>1884</ele>
        <time>2022-03-06T13:55:15.000Z</time>
      </trkpt>
      <trkpt lat="44.44388" lon="6.84643">
        <ele>1883.8000488281</ele>
        <time>2022-03-06T13:55:16.000Z</time>
      </trkpt>
      <trkpt lat="44.44391" lon="6.8464">
        <ele>1883.1999511719</ele>
        <time>2022-03-06T13:55:19.000Z</time>
      </trkpt>
      <trkpt lat="44.44392" lon="6.8464">
        <ele>1882.8000488281</ele>
        <time>2022-03-06T13:55:20.000Z</time>
      </trkpt>
      <trkpt lat="44.44399" lon="6.84637">
        <ele>1881.5999755859</ele>
        <time>2022-03-06T13:55:25.000Z</time>
      </trkpt>
      <trkpt lat="44.44409" lon="6.84636">
        <ele>1880.4000244141</ele>
        <time>2022-03-06T13:55:29.000Z</time>
      </trkpt>
      <trkpt lat="44.4441" lon="6.84636">
        <ele>1880</ele>
        <time>2022-03-06T13:55:31.000Z</time>
      </trkpt>
      <trkpt lat="44.4441" lon="6.84635">
        <ele>1879.8000488281</ele>
        <time>2022-03-06T13:55:32.000Z</time>
      </trkpt>
      <trkpt lat="44.44412" lon="6.84633">
        <ele>1879.4000244141</ele>
        <time>2022-03-06T13:55:34.000Z</time>
      </trkpt>
      <trkpt lat="44.44412" lon="6.84632">
        <ele>1879.1999511719</ele>
        <time>2022-03-06T13:55:35.000Z</time>
      </trkpt>
      <trkpt lat="44.44412" lon="6.84632">
        <ele>1878.8000488281</ele>
        <time>2022-03-06T13:55:36.000Z</time>
      </trkpt>
      <trkpt lat="44.44412" lon="6.84631">
        <ele>1878.5999755859</ele>
        <time>2022-03-06T13:55:37.000Z</time>
      </trkpt>
      <trkpt lat="44.44412" lon="6.84628">
        <ele>1878.1999511719</ele>
        <time>2022-03-06T13:55:39.000Z</time>
      </trkpt>
      <trkpt lat="44.44412" lon="6.84628">
        <ele>1878</ele>
        <time>2022-03-06T13:55:40.000Z</time>
      </trkpt>
      <trkpt lat="44.44422" lon="6.84628">
        <ele>1877</ele>
        <time>2022-03-06T13:55:45.000Z</time>
      </trkpt>
      <trkpt lat="44.44425" lon="6.84628">
        <ele>1877</ele>
        <time>2022-03-06T13:55:46.000Z</time>
      </trkpt>
      <trkpt lat="44.44437" lon="6.84628">
        <ele>1876</ele>
        <time>2022-03-06T13:55:51.000Z</time>
      </trkpt>
      <trkpt lat="44.44439" lon="6.84628">
        <ele>1875.8000488281</ele>
        <time>2022-03-06T13:55:52.000Z</time>
      </trkpt>
      <trkpt lat="44.44442" lon="6.84628">
        <ele>1875.1999511719</ele>
        <time>2022-03-06T13:55:54.000Z</time>
      </trkpt>
      <trkpt lat="44.44443" lon="6.84627">
        <ele>1875</ele>
        <time>2022-03-06T13:55:55.000Z</time>
      </trkpt>
      <trkpt lat="44.44445" lon="6.84626">
        <ele>1874.5999755859</ele>
        <time>2022-03-06T13:55:58.000Z</time>
      </trkpt>
      <trkpt lat="44.44446" lon="6.84625">
        <ele>1874.5999755859</ele>
        <time>2022-03-06T13:55:59.000Z</time>
      </trkpt>
      <trkpt lat="44.44452" lon="6.84623">
        <ele>1874.1999511719</ele>
        <time>2022-03-06T13:56:03.000Z</time>
      </trkpt>
      <trkpt lat="44.44453" lon="6.84623">
        <ele>1874</ele>
        <time>2022-03-06T13:56:04.000Z</time>
      </trkpt>
      <trkpt lat="44.44453" lon="6.84622">
        <ele>1873.8000488281</ele>
        <time>2022-03-06T13:56:05.000Z</time>
      </trkpt>
      <trkpt lat="44.44455" lon="6.84621">
        <ele>1873.5999755859</ele>
        <time>2022-03-06T13:56:07.000Z</time>
      </trkpt>
      <trkpt lat="44.44462" lon="6.84622">
        <ele>1873.4000244141</ele>
        <time>2022-03-06T13:56:09.000Z</time>
      </trkpt>
      <trkpt lat="44.44465" lon="6.84622">
        <ele>1872.8000488281</ele>
        <time>2022-03-06T13:56:11.000Z</time>
      </trkpt>
      <trkpt lat="44.44467" lon="6.84621">
        <ele>1871.8000488281</ele>
        <time>2022-03-06T13:56:15.000Z</time>
      </trkpt>
      <trkpt lat="44.44468" lon="6.84621">
        <ele>1871.5999755859</ele>
        <time>2022-03-06T13:56:16.000Z</time>
      </trkpt>
      <trkpt lat="44.44468" lon="6.84619">
        <ele>1871.1999511719</ele>
        <time>2022-03-06T13:56:19.000Z</time>
      </trkpt>
      <trkpt lat="44.44468" lon="6.84618">
        <ele>1870.4000244141</ele>
        <time>2022-03-06T13:56:23.000Z</time>
      </trkpt>
      <trkpt lat="44.4447" lon="6.84616">
        <ele>1869.4000244141</ele>
        <time>2022-03-06T13:56:27.000Z</time>
      </trkpt>
      <trkpt lat="44.44472" lon="6.84616">
        <ele>1869.1999511719</ele>
        <time>2022-03-06T13:56:28.000Z</time>
      </trkpt>
      <trkpt lat="44.44475" lon="6.84615">
        <ele>1868.1999511719</ele>
        <time>2022-03-06T13:56:32.000Z</time>
      </trkpt>
      <trkpt lat="44.44478" lon="6.84614">
        <ele>1867.1999511719</ele>
        <time>2022-03-06T13:56:36.000Z</time>
      </trkpt>
      <trkpt lat="44.44482" lon="6.84614">
        <ele>1866.4000244141</ele>
        <time>2022-03-06T13:56:38.000Z</time>
      </trkpt>
      <trkpt lat="44.44484" lon="6.84614">
        <ele>1866.1999511719</ele>
        <time>2022-03-06T13:56:39.000Z</time>
      </trkpt>
      <trkpt lat="44.44487" lon="6.84613">
        <ele>1865.4000244141</ele>
        <time>2022-03-06T13:56:43.000Z</time>
      </trkpt>
      <trkpt lat="44.44488" lon="6.84612">
        <ele>1865.1999511719</ele>
        <time>2022-03-06T13:56:44.000Z</time>
      </trkpt>
      <trkpt lat="44.44489" lon="6.84611">
        <ele>1864.5999755859</ele>
        <time>2022-03-06T13:56:46.000Z</time>
      </trkpt>
      <trkpt lat="44.44491" lon="6.84611">
        <ele>1864</ele>
        <time>2022-03-06T13:56:48.000Z</time>
      </trkpt>
      <trkpt lat="44.44494" lon="6.8461">
        <ele>1862.8000488281</ele>
        <time>2022-03-06T13:56:51.000Z</time>
      </trkpt>
      <trkpt lat="44.44498" lon="6.84609">
        <ele>1861.8000488281</ele>
        <time>2022-03-06T13:56:55.000Z</time>
      </trkpt>
      <trkpt lat="44.44498" lon="6.84609">
        <ele>1861.5999755859</ele>
        <time>2022-03-06T13:56:56.000Z</time>
      </trkpt>
      <trkpt lat="44.44503" lon="6.84607">
        <ele>1860.4000244141</ele>
        <time>2022-03-06T13:57:01.000Z</time>
      </trkpt>
      <trkpt lat="44.44506" lon="6.84607">
        <ele>1859.4000244141</ele>
        <time>2022-03-06T13:57:04.000Z</time>
      </trkpt>
      <trkpt lat="44.44508" lon="6.84608">
        <ele>1858.8000488281</ele>
        <time>2022-03-06T13:57:06.000Z</time>
      </trkpt>
      <trkpt lat="44.4451" lon="6.84609">
        <ele>1858</ele>
        <time>2022-03-06T13:57:08.000Z</time>
      </trkpt>
      <trkpt lat="44.44515" lon="6.84612">
        <ele>1857.4000244141</ele>
        <time>2022-03-06T13:57:10.000Z</time>
      </trkpt>
      <trkpt lat="44.44515" lon="6.84613">
        <ele>1857.1999511719</ele>
        <time>2022-03-06T13:57:11.000Z</time>
      </trkpt>
      <trkpt lat="44.44516" lon="6.84612">
        <ele>1857</ele>
        <time>2022-03-06T13:57:12.000Z</time>
      </trkpt>
      <trkpt lat="44.44516" lon="6.84611">
        <ele>1856.1999511719</ele>
        <time>2022-03-06T13:57:14.000Z</time>
      </trkpt>
      <trkpt lat="44.44517" lon="6.84611">
        <ele>1855.8000488281</ele>
        <time>2022-03-06T13:57:15.000Z</time>
      </trkpt>
      <trkpt lat="44.4452" lon="6.84611">
        <ele>1854.8000488281</ele>
        <time>2022-03-06T13:57:18.000Z</time>
      </trkpt>
      <trkpt lat="44.44521" lon="6.84611">
        <ele>1853.5999755859</ele>
        <time>2022-03-06T13:57:21.000Z</time>
      </trkpt>
      <trkpt lat="44.44522" lon="6.84611">
        <ele>1852.8000488281</ele>
        <time>2022-03-06T13:57:23.000Z</time>
      </trkpt>
      <trkpt lat="44.44522" lon="6.84611">
        <ele>1852.4000244141</ele>
        <time>2022-03-06T13:57:24.000Z</time>
      </trkpt>
      <trkpt lat="44.44522" lon="6.8461">
        <ele>1851.5999755859</ele>
        <time>2022-03-06T13:57:27.000Z</time>
      </trkpt>
      <trkpt lat="44.44524" lon="6.84609">
        <ele>1851</ele>
        <time>2022-03-06T13:57:28.000Z</time>
      </trkpt>
      <trkpt lat="44.44527" lon="6.84609">
        <ele>1850.5999755859</ele>
        <time>2022-03-06T13:57:29.000Z</time>
      </trkpt>
      <trkpt lat="44.4453" lon="6.84608">
        <ele>1850</ele>
        <time>2022-03-06T13:57:31.000Z</time>
      </trkpt>
      <trkpt lat="44.44533" lon="6.84608">
        <ele>1848.8000488281</ele>
        <time>2022-03-06T13:57:34.000Z</time>
      </trkpt>
      <trkpt lat="44.44534" lon="6.84607">
        <ele>1848.1999511719</ele>
        <time>2022-03-06T13:57:37.000Z</time>
      </trkpt>
      <trkpt lat="44.44535" lon="6.84606">
        <ele>1847.5999755859</ele>
        <time>2022-03-06T13:57:38.000Z</time>
      </trkpt>
      <trkpt lat="44.44538" lon="6.84603">
        <ele>1846.4000244141</ele>
        <time>2022-03-06T13:57:42.000Z</time>
      </trkpt>
      <trkpt lat="44.4454" lon="6.84603">
        <ele>1845.4000244141</ele>
        <time>2022-03-06T13:57:45.000Z</time>
      </trkpt>
      <trkpt lat="44.44545" lon="6.84604">
        <ele>1844.5999755859</ele>
        <time>2022-03-06T13:57:47.000Z</time>
      </trkpt>
      <trkpt lat="44.44547" lon="6.84604">
        <ele>1844.1999511719</ele>
        <time>2022-03-06T13:57:48.000Z</time>
      </trkpt>
      <trkpt lat="44.44551" lon="6.84603">
        <ele>1843.5999755859</ele>
        <time>2022-03-06T13:57:50.000Z</time>
      </trkpt>
      <trkpt lat="44.44551" lon="6.84602">
        <ele>1843.1999511719</ele>
        <time>2022-03-06T13:57:51.000Z</time>
      </trkpt>
      <trkpt lat="44.44552" lon="6.84601">
        <ele>1843</ele>
        <time>2022-03-06T13:57:52.000Z</time>
      </trkpt>
      <trkpt lat="44.44555" lon="6.846">
        <ele>1842.4000244141</ele>
        <time>2022-03-06T13:57:54.000Z</time>
      </trkpt>
      <trkpt lat="44.44554" lon="6.84598">
        <ele>1842.1999511719</ele>
        <time>2022-03-06T13:57:55.000Z</time>
      </trkpt>
      <trkpt lat="44.44555" lon="6.84597">
        <ele>1841.1999511719</ele>
        <time>2022-03-06T13:57:57.000Z</time>
      </trkpt>
      <trkpt lat="44.44556" lon="6.84596">
        <ele>1841</ele>
        <time>2022-03-06T13:57:58.000Z</time>
      </trkpt>
      <trkpt lat="44.44559" lon="6.84595">
        <ele>1840</ele>
        <time>2022-03-06T13:58:01.000Z</time>
      </trkpt>
      <trkpt lat="44.44562" lon="6.84595">
        <ele>1839.4000244141</ele>
        <time>2022-03-06T13:58:03.000Z</time>
      </trkpt>
      <trkpt lat="44.44566" lon="6.84595">
        <ele>1838.5999755859</ele>
        <time>2022-03-06T13:58:05.000Z</time>
      </trkpt>
      <trkpt lat="44.44568" lon="6.84595">
        <ele>1838</ele>
        <time>2022-03-06T13:58:07.000Z</time>
      </trkpt>
      <trkpt lat="44.44569" lon="6.84594">
        <ele>1837.8000488281</ele>
        <time>2022-03-06T13:58:08.000Z</time>
      </trkpt>
      <trkpt lat="44.44569" lon="6.84593">
        <ele>1837.1999511719</ele>
        <time>2022-03-06T13:58:09.000Z</time>
      </trkpt>
      <trkpt lat="44.4457" lon="6.84591">
        <ele>1836</ele>
        <time>2022-03-06T13:58:12.000Z</time>
      </trkpt>
      <trkpt lat="44.44571" lon="6.8459">
        <ele>1835.8000488281</ele>
        <time>2022-03-06T13:58:13.000Z</time>
      </trkpt>
      <trkpt lat="44.44573" lon="6.84588">
        <ele>1834.8000488281</ele>
        <time>2022-03-06T13:58:15.000Z</time>
      </trkpt>
      <trkpt lat="44.44576" lon="6.84587">
        <ele>1833.8000488281</ele>
        <time>2022-03-06T13:58:18.000Z</time>
      </trkpt>
      <trkpt lat="44.44577" lon="6.84585">
        <ele>1833.4000244141</ele>
        <time>2022-03-06T13:58:20.000Z</time>
      </trkpt>
      <trkpt lat="44.44579" lon="6.84584">
        <ele>1832.5999755859</ele>
        <time>2022-03-06T13:58:22.000Z</time>
      </trkpt>
      <trkpt lat="44.44582" lon="6.84581">
        <ele>1831.4000244141</ele>
        <time>2022-03-06T13:58:25.000Z</time>
      </trkpt>
      <trkpt lat="44.44588" lon="6.84579">
        <ele>1830</ele>
        <time>2022-03-06T13:58:29.000Z</time>
      </trkpt>
      <trkpt lat="44.44588" lon="6.84579">
        <ele>1829.8000488281</ele>
        <time>2022-03-06T13:58:30.000Z</time>
      </trkpt>
      <trkpt lat="44.44589" lon="6.84577">
        <ele>1828.5999755859</ele>
        <time>2022-03-06T13:58:33.000Z</time>
      </trkpt>
      <trkpt lat="44.44591" lon="6.84576">
        <ele>1827.5999755859</ele>
        <time>2022-03-06T13:58:36.000Z</time>
      </trkpt>
      <trkpt lat="44.4459" lon="6.84575">
        <ele>1827.4000244141</ele>
        <time>2022-03-06T13:58:37.000Z</time>
      </trkpt>
      <trkpt lat="44.4459" lon="6.84574">
        <ele>1827</ele>
        <time>2022-03-06T13:58:38.000Z</time>
      </trkpt>
      <trkpt lat="44.4459" lon="6.84572">
        <ele>1826.1999511719</ele>
        <time>2022-03-06T13:58:40.000Z</time>
      </trkpt>
      <trkpt lat="44.4459" lon="6.84571">
        <ele>1825.1999511719</ele>
        <time>2022-03-06T13:58:42.000Z</time>
      </trkpt>
      <trkpt lat="44.44591" lon="6.8457">
        <ele>1824.8000488281</ele>
        <time>2022-03-06T13:58:43.000Z</time>
      </trkpt>
      <trkpt lat="44.44597" lon="6.84568">
        <ele>1823.8000488281</ele>
        <time>2022-03-06T13:58:46.000Z</time>
      </trkpt>
      <trkpt lat="44.44598" lon="6.84568">
        <ele>1823.5999755859</ele>
        <time>2022-03-06T13:58:47.000Z</time>
      </trkpt>
      <trkpt lat="44.44602" lon="6.84567">
        <ele>1822.5999755859</ele>
        <time>2022-03-06T13:58:50.000Z</time>
      </trkpt>
      <trkpt lat="44.44604" lon="6.84566">
        <ele>1821.5999755859</ele>
        <time>2022-03-06T13:58:53.000Z</time>
      </trkpt>
      <trkpt lat="44.44605" lon="6.84565">
        <ele>1821.1999511719</ele>
        <time>2022-03-06T13:58:54.000Z</time>
      </trkpt>
      <trkpt lat="44.44607" lon="6.84564">
        <ele>1820.5999755859</ele>
        <time>2022-03-06T13:58:56.000Z</time>
      </trkpt>
      <trkpt lat="44.44612" lon="6.8456">
        <ele>1819.5999755859</ele>
        <time>2022-03-06T13:58:59.000Z</time>
      </trkpt>
      <trkpt lat="44.44614" lon="6.84559">
        <ele>1819.1999511719</ele>
        <time>2022-03-06T13:59:00.000Z</time>
      </trkpt>
      <trkpt lat="44.44618" lon="6.84558">
        <ele>1818.4000244141</ele>
        <time>2022-03-06T13:59:02.000Z</time>
      </trkpt>
      <trkpt lat="44.44629" lon="6.84555">
        <ele>1817.4000244141</ele>
        <time>2022-03-06T13:59:07.000Z</time>
      </trkpt>
      <trkpt lat="44.44631" lon="6.84553">
        <ele>1816</ele>
        <time>2022-03-06T13:59:10.000Z</time>
      </trkpt>
      <trkpt lat="44.44633" lon="6.84552">
        <ele>1815.8000488281</ele>
        <time>2022-03-06T13:59:11.000Z</time>
      </trkpt>
      <trkpt lat="44.44637" lon="6.84551">
        <ele>1815</ele>
        <time>2022-03-06T13:59:14.000Z</time>
      </trkpt>
      <trkpt lat="44.44639" lon="6.84549">
        <ele>1814</ele>
        <time>2022-03-06T13:59:17.000Z</time>
      </trkpt>
      <trkpt lat="44.44641" lon="6.84547">
        <ele>1813.4000244141</ele>
        <time>2022-03-06T13:59:19.000Z</time>
      </trkpt>
      <trkpt lat="44.44649" lon="6.84547">
        <ele>1812.5999755859</ele>
        <time>2022-03-06T13:59:22.000Z</time>
      </trkpt>
      <trkpt lat="44.44656" lon="6.84545">
        <ele>1812.1999511719</ele>
        <time>2022-03-06T13:59:24.000Z</time>
      </trkpt>
      <trkpt lat="44.44659" lon="6.84543">
        <ele>1811.5999755859</ele>
        <time>2022-03-06T13:59:27.000Z</time>
      </trkpt>
      <trkpt lat="44.44659" lon="6.84544">
        <ele>1811.4000244141</ele>
        <time>2022-03-06T13:59:28.000Z</time>
      </trkpt>
      <trkpt lat="44.4466" lon="6.84543">
        <ele>1810.8000488281</ele>
        <time>2022-03-06T13:59:30.000Z</time>
      </trkpt>
      <trkpt lat="44.4466" lon="6.84542">
        <ele>1810.4000244141</ele>
        <time>2022-03-06T13:59:31.000Z</time>
      </trkpt>
      <trkpt lat="44.4466" lon="6.84541">
        <ele>1809.8000488281</ele>
        <time>2022-03-06T13:59:33.000Z</time>
      </trkpt>
      <trkpt lat="44.44662" lon="6.8454">
        <ele>1809.1999511719</ele>
        <time>2022-03-06T13:59:35.000Z</time>
      </trkpt>
      <trkpt lat="44.44664" lon="6.84539">
        <ele>1808</ele>
        <time>2022-03-06T13:59:39.000Z</time>
      </trkpt>
      <trkpt lat="44.4467" lon="6.84537">
        <ele>1807</ele>
        <time>2022-03-06T13:59:43.000Z</time>
      </trkpt>
      <trkpt lat="44.4467" lon="6.84536">
        <ele>1806.4000244141</ele>
        <time>2022-03-06T13:59:45.000Z</time>
      </trkpt>
      <trkpt lat="44.44671" lon="6.84535">
        <ele>1805.8000488281</ele>
        <time>2022-03-06T13:59:47.000Z</time>
      </trkpt>
      <trkpt lat="44.44673" lon="6.84533">
        <ele>1804.5999755859</ele>
        <time>2022-03-06T13:59:51.000Z</time>
      </trkpt>
      <trkpt lat="44.44673" lon="6.84533">
        <ele>1804.5999755859</ele>
        <time>2022-03-06T13:59:52.000Z</time>
      </trkpt>
      <trkpt lat="44.44675" lon="6.84534">
        <ele>1803.5999755859</ele>
        <time>2022-03-06T13:59:55.000Z</time>
      </trkpt>
      <trkpt lat="44.44678" lon="6.84535">
        <ele>1802.5999755859</ele>
        <time>2022-03-06T13:59:58.000Z</time>
      </trkpt>
      <trkpt lat="44.4468" lon="6.84536">
        <ele>1802</ele>
        <time>2022-03-06T13:59:59.000Z</time>
      </trkpt>
      <trkpt lat="44.44684" lon="6.84538">
        <ele>1800.8000488281</ele>
        <time>2022-03-06T14:00:03.000Z</time>
      </trkpt>
      <trkpt lat="44.44684" lon="6.84538">
        <ele>1800.4000244141</ele>
        <time>2022-03-06T14:00:04.000Z</time>
      </trkpt>
      <trkpt lat="44.44686" lon="6.84538">
        <ele>1799.4000244141</ele>
        <time>2022-03-06T14:00:07.000Z</time>
      </trkpt>
      <trkpt lat="44.44687" lon="6.84538">
        <ele>1799.1999511719</ele>
        <time>2022-03-06T14:00:08.000Z</time>
      </trkpt>
      <trkpt lat="44.44688" lon="6.84538">
        <ele>1798.4000244141</ele>
        <time>2022-03-06T14:00:10.000Z</time>
      </trkpt>
      <trkpt lat="44.44689" lon="6.84536">
        <ele>1797.4000244141</ele>
        <time>2022-03-06T14:00:13.000Z</time>
      </trkpt>
      <trkpt lat="44.44693" lon="6.84535">
        <ele>1796</ele>
        <time>2022-03-06T14:00:17.000Z</time>
      </trkpt>
      <trkpt lat="44.44694" lon="6.84534">
        <ele>1795.1999511719</ele>
        <time>2022-03-06T14:00:19.000Z</time>
      </trkpt>
      <trkpt lat="44.44694" lon="6.84534">
        <ele>1794.8000488281</ele>
        <time>2022-03-06T14:00:20.000Z</time>
      </trkpt>
      <trkpt lat="44.44696" lon="6.84538">
        <ele>1794.4000244141</ele>
        <time>2022-03-06T14:00:23.000Z</time>
      </trkpt>
      <trkpt lat="44.44697" lon="6.84539">
        <ele>1793.5999755859</ele>
        <time>2022-03-06T14:00:25.000Z</time>
      </trkpt>
      <trkpt lat="44.44697" lon="6.84539">
        <ele>1792.5999755859</ele>
        <time>2022-03-06T14:00:27.000Z</time>
      </trkpt>
      <trkpt lat="44.44697" lon="6.84538">
        <ele>1791.4000244141</ele>
        <time>2022-03-06T14:00:30.000Z</time>
      </trkpt>
      <trkpt lat="44.44701" lon="6.8454">
        <ele>1790.4000244141</ele>
        <time>2022-03-06T14:00:33.000Z</time>
      </trkpt>
      <trkpt lat="44.44703" lon="6.8454">
        <ele>1790</ele>
        <time>2022-03-06T14:00:34.000Z</time>
      </trkpt>
      <trkpt lat="44.44705" lon="6.84542">
        <ele>1789.1999511719</ele>
        <time>2022-03-06T14:00:36.000Z</time>
      </trkpt>
      <trkpt lat="44.44705" lon="6.84543">
        <ele>1788.8000488281</ele>
        <time>2022-03-06T14:00:37.000Z</time>
      </trkpt>
      <trkpt lat="44.44707" lon="6.84546">
        <ele>1787.8000488281</ele>
        <time>2022-03-06T14:00:40.000Z</time>
      </trkpt>
      <trkpt lat="44.44709" lon="6.84549">
        <ele>1786.5999755859</ele>
        <time>2022-03-06T14:00:43.000Z</time>
      </trkpt>
      <trkpt lat="44.4471" lon="6.8455">
        <ele>1786.1999511719</ele>
        <time>2022-03-06T14:00:44.000Z</time>
      </trkpt>
      <trkpt lat="44.4471" lon="6.84552">
        <ele>1785.5999755859</ele>
        <time>2022-03-06T14:00:46.000Z</time>
      </trkpt>
      <trkpt lat="44.4471" lon="6.84553">
        <ele>1785.1999511719</ele>
        <time>2022-03-06T14:00:47.000Z</time>
      </trkpt>
      <trkpt lat="44.44712" lon="6.84556">
        <ele>1784.4000244141</ele>
        <time>2022-03-06T14:00:50.000Z</time>
      </trkpt>
      <trkpt lat="44.4471" lon="6.8456">
        <ele>1783.4000244141</ele>
        <time>2022-03-06T14:00:54.000Z</time>
      </trkpt>
      <trkpt lat="44.4471" lon="6.84561">
        <ele>1783.4000244141</ele>
        <time>2022-03-06T14:00:55.000Z</time>
      </trkpt>
      <trkpt lat="44.44715" lon="6.84565">
        <ele>1782.1999511719</ele>
        <time>2022-03-06T14:01:00.000Z</time>
      </trkpt>
      <trkpt lat="44.44718" lon="6.84569">
        <ele>1781</ele>
        <time>2022-03-06T14:01:03.000Z</time>
      </trkpt>
      <trkpt lat="44.44723" lon="6.84572">
        <ele>1779.8000488281</ele>
        <time>2022-03-06T14:01:06.000Z</time>
      </trkpt>
      <trkpt lat="44.44724" lon="6.84574">
        <ele>1779.4000244141</ele>
        <time>2022-03-06T14:01:07.000Z</time>
      </trkpt>
      <trkpt lat="44.44724" lon="6.84578">
        <ele>1778.4000244141</ele>
        <time>2022-03-06T14:01:09.000Z</time>
      </trkpt>
      <trkpt lat="44.44724" lon="6.8458">
        <ele>1778</ele>
        <time>2022-03-06T14:01:10.000Z</time>
      </trkpt>
      <trkpt lat="44.44723" lon="6.84581">
        <ele>1777.5999755859</ele>
        <time>2022-03-06T14:01:11.000Z</time>
      </trkpt>
      <trkpt lat="44.44724" lon="6.84585">
        <ele>1777.1999511719</ele>
        <time>2022-03-06T14:01:13.000Z</time>
      </trkpt>
      <trkpt lat="44.44723" lon="6.84589">
        <ele>1776.5999755859</ele>
        <time>2022-03-06T14:01:16.000Z</time>
      </trkpt>
      <trkpt lat="44.44723" lon="6.84592">
        <ele>1776</ele>
        <time>2022-03-06T14:01:18.000Z</time>
      </trkpt>
      <trkpt lat="44.44722" lon="6.84595">
        <ele>1775.4000244141</ele>
        <time>2022-03-06T14:01:21.000Z</time>
      </trkpt>
      <trkpt lat="44.44722" lon="6.84597">
        <ele>1775</ele>
        <time>2022-03-06T14:01:23.000Z</time>
      </trkpt>
      <trkpt lat="44.44722" lon="6.84602">
        <ele>1774</ele>
        <time>2022-03-06T14:01:27.000Z</time>
      </trkpt>
      <trkpt lat="44.4472" lon="6.84604">
        <ele>1773</ele>
        <time>2022-03-06T14:01:31.000Z</time>
      </trkpt>
      <trkpt lat="44.44719" lon="6.84605">
        <ele>1772.8000488281</ele>
        <time>2022-03-06T14:01:32.000Z</time>
      </trkpt>
      <trkpt lat="44.44719" lon="6.84609">
        <ele>1771.8000488281</ele>
        <time>2022-03-06T14:01:36.000Z</time>
      </trkpt>
      <trkpt lat="44.44719" lon="6.8461">
        <ele>1771.5999755859</ele>
        <time>2022-03-06T14:01:37.000Z</time>
      </trkpt>
      <trkpt lat="44.44718" lon="6.84618">
        <ele>1770.5999755859</ele>
        <time>2022-03-06T14:01:40.000Z</time>
      </trkpt>
      <trkpt lat="44.44719" lon="6.84623">
        <ele>1769.5999755859</ele>
        <time>2022-03-06T14:01:42.000Z</time>
      </trkpt>
      <trkpt lat="44.44718" lon="6.84626">
        <ele>1769.4000244141</ele>
        <time>2022-03-06T14:01:43.000Z</time>
      </trkpt>
      <trkpt lat="44.44718" lon="6.84627">
        <ele>1769</ele>
        <time>2022-03-06T14:01:44.000Z</time>
      </trkpt>
      <trkpt lat="44.44719" lon="6.84629">
        <ele>1768.4000244141</ele>
        <time>2022-03-06T14:01:47.000Z</time>
      </trkpt>
      <trkpt lat="44.4472" lon="6.8463">
        <ele>1767.5999755859</ele>
        <time>2022-03-06T14:01:48.000Z</time>
      </trkpt>
      <trkpt lat="44.44722" lon="6.8463">
        <ele>1767.1999511719</ele>
        <time>2022-03-06T14:01:49.000Z</time>
      </trkpt>
      <trkpt lat="44.44726" lon="6.84632">
        <ele>1766</ele>
        <time>2022-03-06T14:01:53.000Z</time>
      </trkpt>
      <trkpt lat="44.44726" lon="6.84633">
        <ele>1765.8000488281</ele>
        <time>2022-03-06T14:01:54.000Z</time>
      </trkpt>
      <trkpt lat="44.44726" lon="6.84634">
        <ele>1765.1999511719</ele>
        <time>2022-03-06T14:01:56.000Z</time>
      </trkpt>
      <trkpt lat="44.44726" lon="6.84634">
        <ele>1765</ele>
        <time>2022-03-06T14:01:57.000Z</time>
      </trkpt>
      <trkpt lat="44.44725" lon="6.84634">
        <ele>1764.5999755859</ele>
        <time>2022-03-06T14:01:58.000Z</time>
      </trkpt>
      <trkpt lat="44.44725" lon="6.84635">
        <ele>1764.4000244141</ele>
        <time>2022-03-06T14:01:59.000Z</time>
      </trkpt>
      <trkpt lat="44.44725" lon="6.84636">
        <ele>1763.8000488281</ele>
        <time>2022-03-06T14:02:01.000Z</time>
      </trkpt>
      <trkpt lat="44.44726" lon="6.84635">
        <ele>1762.8000488281</ele>
        <time>2022-03-06T14:02:05.000Z</time>
      </trkpt>
      <trkpt lat="44.44727" lon="6.84632">
        <ele>1761.4000244141</ele>
        <time>2022-03-06T14:02:09.000Z</time>
      </trkpt>
      <trkpt lat="44.44726" lon="6.8463">
        <ele>1761</ele>
        <time>2022-03-06T14:02:10.000Z</time>
      </trkpt>
      <trkpt lat="44.44726" lon="6.84628">
        <ele>1760.4000244141</ele>
        <time>2022-03-06T14:02:12.000Z</time>
      </trkpt>
      <trkpt lat="44.44726" lon="6.84628">
        <ele>1760.1999511719</ele>
        <time>2022-03-06T14:02:13.000Z</time>
      </trkpt>
      <trkpt lat="44.44727" lon="6.84625">
        <ele>1759.1999511719</ele>
        <time>2022-03-06T14:02:17.000Z</time>
      </trkpt>
      <trkpt lat="44.44727" lon="6.84624">
        <ele>1758.5999755859</ele>
        <time>2022-03-06T14:02:18.000Z</time>
      </trkpt>
      <trkpt lat="44.44728" lon="6.84621">
        <ele>1758</ele>
        <time>2022-03-06T14:02:20.000Z</time>
      </trkpt>
      <trkpt lat="44.44729" lon="6.84621">
        <ele>1756.8000488281</ele>
        <time>2022-03-06T14:02:23.000Z</time>
      </trkpt>
      <trkpt lat="44.44728" lon="6.8462">
        <ele>1756.5999755859</ele>
        <time>2022-03-06T14:02:24.000Z</time>
      </trkpt>
      <trkpt lat="44.4473" lon="6.84618">
        <ele>1755.8000488281</ele>
        <time>2022-03-06T14:02:27.000Z</time>
      </trkpt>
      <trkpt lat="44.44733" lon="6.84616">
        <ele>1754.8000488281</ele>
        <time>2022-03-06T14:02:30.000Z</time>
      </trkpt>
      <trkpt lat="44.44734" lon="6.84616">
        <ele>1754.5999755859</ele>
        <time>2022-03-06T14:02:31.000Z</time>
      </trkpt>
      <trkpt lat="44.44735" lon="6.84613">
        <ele>1753.4000244141</ele>
        <time>2022-03-06T14:02:35.000Z</time>
      </trkpt>
      <trkpt lat="44.44735" lon="6.84612">
        <ele>1753.4000244141</ele>
        <time>2022-03-06T14:02:36.000Z</time>
      </trkpt>
      <trkpt lat="44.44738" lon="6.8461">
        <ele>1752.4000244141</ele>
        <time>2022-03-06T14:02:39.000Z</time>
      </trkpt>
      <trkpt lat="44.4474" lon="6.84609">
        <ele>1751.8000488281</ele>
        <time>2022-03-06T14:02:41.000Z</time>
      </trkpt>
      <trkpt lat="44.4474" lon="6.84607">
        <ele>1751.1999511719</ele>
        <time>2022-03-06T14:02:43.000Z</time>
      </trkpt>
      <trkpt lat="44.44742" lon="6.84603">
        <ele>1750.8000488281</ele>
        <time>2022-03-06T14:02:45.000Z</time>
      </trkpt>
      <trkpt lat="44.44744" lon="6.84601">
        <ele>1750</ele>
        <time>2022-03-06T14:02:48.000Z</time>
      </trkpt>
      <trkpt lat="44.44747" lon="6.84598">
        <ele>1749</ele>
        <time>2022-03-06T14:02:51.000Z</time>
      </trkpt>
      <trkpt lat="44.44748" lon="6.84597">
        <ele>1748.8000488281</ele>
        <time>2022-03-06T14:02:52.000Z</time>
      </trkpt>
      <trkpt lat="44.44749" lon="6.84597">
        <ele>1748.5999755859</ele>
        <time>2022-03-06T14:02:53.000Z</time>
      </trkpt>
      <trkpt lat="44.4475" lon="6.84596">
        <ele>1747.5999755859</ele>
        <time>2022-03-06T14:02:55.000Z</time>
      </trkpt>
      <trkpt lat="44.44751" lon="6.84594">
        <ele>1746.8000488281</ele>
        <time>2022-03-06T14:02:57.000Z</time>
      </trkpt>
      <trkpt lat="44.44752" lon="6.84594">
        <ele>1746.5999755859</ele>
        <time>2022-03-06T14:02:58.000Z</time>
      </trkpt>
      <trkpt lat="44.44755" lon="6.84594">
        <ele>1746.1999511719</ele>
        <time>2022-03-06T14:03:00.000Z</time>
      </trkpt>
      <trkpt lat="44.44756" lon="6.84592">
        <ele>1745.4000244141</ele>
        <time>2022-03-06T14:03:02.000Z</time>
      </trkpt>
      <trkpt lat="44.44759" lon="6.84589">
        <ele>1744.5999755859</ele>
        <time>2022-03-06T14:03:05.000Z</time>
      </trkpt>
      <trkpt lat="44.4476" lon="6.84587">
        <ele>1744.1999511719</ele>
        <time>2022-03-06T14:03:06.000Z</time>
      </trkpt>
      <trkpt lat="44.4476" lon="6.84585">
        <ele>1743.4000244141</ele>
        <time>2022-03-06T14:03:08.000Z</time>
      </trkpt>
      <trkpt lat="44.44761" lon="6.84585">
        <ele>1743.1999511719</ele>
        <time>2022-03-06T14:03:09.000Z</time>
      </trkpt>
      <trkpt lat="44.44761" lon="6.84584">
        <ele>1742.8000488281</ele>
        <time>2022-03-06T14:03:10.000Z</time>
      </trkpt>
      <trkpt lat="44.44764" lon="6.84583">
        <ele>1742</ele>
        <time>2022-03-06T14:03:13.000Z</time>
      </trkpt>
      <trkpt lat="44.44765" lon="6.84583">
        <ele>1741.5999755859</ele>
        <time>2022-03-06T14:03:14.000Z</time>
      </trkpt>
      <trkpt lat="44.44766" lon="6.84582">
        <ele>1741.1999511719</ele>
        <time>2022-03-06T14:03:15.000Z</time>
      </trkpt>
      <trkpt lat="44.44766" lon="6.84582">
        <ele>1740.8000488281</ele>
        <time>2022-03-06T14:03:16.000Z</time>
      </trkpt>
      <trkpt lat="44.4477" lon="6.84581">
        <ele>1740.4000244141</ele>
        <time>2022-03-06T14:03:18.000Z</time>
      </trkpt>
      <trkpt lat="44.44771" lon="6.8458">
        <ele>1740</ele>
        <time>2022-03-06T14:03:20.000Z</time>
      </trkpt>
      <trkpt lat="44.44772" lon="6.84578">
        <ele>1739.5999755859</ele>
        <time>2022-03-06T14:03:22.000Z</time>
      </trkpt>
      <trkpt lat="44.44772" lon="6.84576">
        <ele>1739.1999511719</ele>
        <time>2022-03-06T14:03:23.000Z</time>
      </trkpt>
      <trkpt lat="44.44772" lon="6.84575">
        <ele>1739</ele>
        <time>2022-03-06T14:03:24.000Z</time>
      </trkpt>
      <trkpt lat="44.44773" lon="6.84574">
        <ele>1738.5999755859</ele>
        <time>2022-03-06T14:03:25.000Z</time>
      </trkpt>
      <trkpt lat="44.4478" lon="6.84571">
        <ele>1737.4000244141</ele>
        <time>2022-03-06T14:03:29.000Z</time>
      </trkpt>
      <trkpt lat="44.44789" lon="6.84565">
        <ele>1736.4000244141</ele>
        <time>2022-03-06T14:03:34.000Z</time>
      </trkpt>
      <trkpt lat="44.44791" lon="6.84563">
        <ele>1735.5999755859</ele>
        <time>2022-03-06T14:03:37.000Z</time>
      </trkpt>
      <trkpt lat="44.44792" lon="6.84563">
        <ele>1735.1999511719</ele>
        <time>2022-03-06T14:03:38.000Z</time>
      </trkpt>
      <trkpt lat="44.44794" lon="6.8456">
        <ele>1734.5999755859</ele>
        <time>2022-03-06T14:03:40.000Z</time>
      </trkpt>
      <trkpt lat="44.44796" lon="6.84557">
        <ele>1734.1999511719</ele>
        <time>2022-03-06T14:03:42.000Z</time>
      </trkpt>
      <trkpt lat="44.44796" lon="6.84554">
        <ele>1733.8000488281</ele>
        <time>2022-03-06T14:03:44.000Z</time>
      </trkpt>
      <trkpt lat="44.44797" lon="6.84553">
        <ele>1733.4000244141</ele>
        <time>2022-03-06T14:03:45.000Z</time>
      </trkpt>
      <trkpt lat="44.44798" lon="6.8455">
        <ele>1732.8000488281</ele>
        <time>2022-03-06T14:03:47.000Z</time>
      </trkpt>
      <trkpt lat="44.44799" lon="6.84549">
        <ele>1732.5999755859</ele>
        <time>2022-03-06T14:03:48.000Z</time>
      </trkpt>
      <trkpt lat="44.44801" lon="6.84546">
        <ele>1731.8000488281</ele>
        <time>2022-03-06T14:03:51.000Z</time>
      </trkpt>
      <trkpt lat="44.44802" lon="6.84543">
        <ele>1731.4000244141</ele>
        <time>2022-03-06T14:03:53.000Z</time>
      </trkpt>
      <trkpt lat="44.44804" lon="6.84541">
        <ele>1730.4000244141</ele>
        <time>2022-03-06T14:03:55.000Z</time>
      </trkpt>
      <trkpt lat="44.44806" lon="6.84539">
        <ele>1729.5999755859</ele>
        <time>2022-03-06T14:03:58.000Z</time>
      </trkpt>
      <trkpt lat="44.44807" lon="6.84537">
        <ele>1729</ele>
        <time>2022-03-06T14:04:00.000Z</time>
      </trkpt>
      <trkpt lat="44.44813" lon="6.84536">
        <ele>1728</ele>
        <time>2022-03-06T14:04:04.000Z</time>
      </trkpt>
      <trkpt lat="44.44814" lon="6.84535">
        <ele>1728</ele>
        <time>2022-03-06T14:04:05.000Z</time>
      </trkpt>
      <trkpt lat="44.44817" lon="6.84531">
        <ele>1727</ele>
        <time>2022-03-06T14:04:09.000Z</time>
      </trkpt>
      <trkpt lat="44.44819" lon="6.8453">
        <ele>1726.8000488281</ele>
        <time>2022-03-06T14:04:10.000Z</time>
      </trkpt>
      <trkpt lat="44.4482" lon="6.84528">
        <ele>1726.4000244141</ele>
        <time>2022-03-06T14:04:12.000Z</time>
      </trkpt>
      <trkpt lat="44.44823" lon="6.84527">
        <ele>1725.8000488281</ele>
        <time>2022-03-06T14:04:14.000Z</time>
      </trkpt>
      <trkpt lat="44.44824" lon="6.84526">
        <ele>1725.5999755859</ele>
        <time>2022-03-06T14:04:15.000Z</time>
      </trkpt>
      <trkpt lat="44.44828" lon="6.84525">
        <ele>1724.1999511719</ele>
        <time>2022-03-06T14:04:19.000Z</time>
      </trkpt>
      <trkpt lat="44.44832" lon="6.84524">
        <ele>1723</ele>
        <time>2022-03-06T14:04:23.000Z</time>
      </trkpt>
      <trkpt lat="44.44836" lon="6.84522">
        <ele>1722</ele>
        <time>2022-03-06T14:04:26.000Z</time>
      </trkpt>
      <trkpt lat="44.44843" lon="6.8452">
        <ele>1721.4000244141</ele>
        <time>2022-03-06T14:04:29.000Z</time>
      </trkpt>
      <trkpt lat="44.44843" lon="6.84519">
        <ele>1721</ele>
        <time>2022-03-06T14:04:30.000Z</time>
      </trkpt>
      <trkpt lat="44.44844" lon="6.84518">
        <ele>1720.8000488281</ele>
        <time>2022-03-06T14:04:31.000Z</time>
      </trkpt>
      <trkpt lat="44.44846" lon="6.84516">
        <ele>1719.4000244141</ele>
        <time>2022-03-06T14:04:34.000Z</time>
      </trkpt>
      <trkpt lat="44.44847" lon="6.84515">
        <ele>1719.1999511719</ele>
        <time>2022-03-06T14:04:35.000Z</time>
      </trkpt>
      <trkpt lat="44.44851" lon="6.84514">
        <ele>1718.4000244141</ele>
        <time>2022-03-06T14:04:38.000Z</time>
      </trkpt>
      <trkpt lat="44.44851" lon="6.84513">
        <ele>1718</ele>
        <time>2022-03-06T14:04:39.000Z</time>
      </trkpt>
      <trkpt lat="44.44852" lon="6.84512">
        <ele>1717.5999755859</ele>
        <time>2022-03-06T14:04:40.000Z</time>
      </trkpt>
      <trkpt lat="44.44853" lon="6.84511">
        <ele>1717.1999511719</ele>
        <time>2022-03-06T14:04:41.000Z</time>
      </trkpt>
      <trkpt lat="44.44854" lon="6.8451">
        <ele>1717</ele>
        <time>2022-03-06T14:04:42.000Z</time>
      </trkpt>
      <trkpt lat="44.44855" lon="6.84508">
        <ele>1716.8000488281</ele>
        <time>2022-03-06T14:04:44.000Z</time>
      </trkpt>
      <trkpt lat="44.44857" lon="6.84507">
        <ele>1716.8000488281</ele>
        <time>2022-03-06T14:04:45.000Z</time>
      </trkpt>
      <trkpt lat="44.44862" lon="6.84503">
        <ele>1716.1999511719</ele>
        <time>2022-03-06T14:04:48.000Z</time>
      </trkpt>
      <trkpt lat="44.44863" lon="6.84501">
        <ele>1716</ele>
        <time>2022-03-06T14:04:50.000Z</time>
      </trkpt>
      <trkpt lat="44.44864" lon="6.845">
        <ele>1715.8000488281</ele>
        <time>2022-03-06T14:04:51.000Z</time>
      </trkpt>
      <trkpt lat="44.44865" lon="6.84497">
        <ele>1715.5999755859</ele>
        <time>2022-03-06T14:04:53.000Z</time>
      </trkpt>
      <trkpt lat="44.44866" lon="6.84494">
        <ele>1715.1999511719</ele>
        <time>2022-03-06T14:04:55.000Z</time>
      </trkpt>
      <trkpt lat="44.44867" lon="6.84492">
        <ele>1714.5999755859</ele>
        <time>2022-03-06T14:04:57.000Z</time>
      </trkpt>
      <trkpt lat="44.44868" lon="6.84488">
        <ele>1714.1999511719</ele>
        <time>2022-03-06T14:04:59.000Z</time>
      </trkpt>
      <trkpt lat="44.44867" lon="6.84482">
        <ele>1713.4000244141</ele>
        <time>2022-03-06T14:05:03.000Z</time>
      </trkpt>
      <trkpt lat="44.44867" lon="6.8448">
        <ele>1713.1999511719</ele>
        <time>2022-03-06T14:05:04.000Z</time>
      </trkpt>
      <trkpt lat="44.44868" lon="6.8448">
        <ele>1713</ele>
        <time>2022-03-06T14:05:05.000Z</time>
      </trkpt>
      <trkpt lat="44.44869" lon="6.84479">
        <ele>1712.5999755859</ele>
        <time>2022-03-06T14:05:06.000Z</time>
      </trkpt>
      <trkpt lat="44.44872" lon="6.84477">
        <ele>1712</ele>
        <time>2022-03-06T14:05:08.000Z</time>
      </trkpt>
      <trkpt lat="44.44873" lon="6.84475">
        <ele>1711.8000488281</ele>
        <time>2022-03-06T14:05:09.000Z</time>
      </trkpt>
      <trkpt lat="44.44879" lon="6.84471">
        <ele>1710.5999755859</ele>
        <time>2022-03-06T14:05:14.000Z</time>
      </trkpt>
      <trkpt lat="44.44882" lon="6.84468">
        <ele>1710</ele>
        <time>2022-03-06T14:05:16.000Z</time>
      </trkpt>
      <trkpt lat="44.44884" lon="6.84466">
        <ele>1709.5999755859</ele>
        <time>2022-03-06T14:05:18.000Z</time>
      </trkpt>
      <trkpt lat="44.44888" lon="6.84463">
        <ele>1708.5999755859</ele>
        <time>2022-03-06T14:05:21.000Z</time>
      </trkpt>
      <trkpt lat="44.44889" lon="6.84462">
        <ele>1708.4000244141</ele>
        <time>2022-03-06T14:05:22.000Z</time>
      </trkpt>
      <trkpt lat="44.4489" lon="6.84461">
        <ele>1708</ele>
        <time>2022-03-06T14:05:23.000Z</time>
      </trkpt>
      <trkpt lat="44.44894" lon="6.84458">
        <ele>1707</ele>
        <time>2022-03-06T14:05:26.000Z</time>
      </trkpt>
      <trkpt lat="44.44898" lon="6.84452">
        <ele>1706</ele>
        <time>2022-03-06T14:05:30.000Z</time>
      </trkpt>
      <trkpt lat="44.44901" lon="6.84448">
        <ele>1705.4000244141</ele>
        <time>2022-03-06T14:05:33.000Z</time>
      </trkpt>
      <trkpt lat="44.44903" lon="6.84445">
        <ele>1704.8000488281</ele>
        <time>2022-03-06T14:05:35.000Z</time>
      </trkpt>
      <trkpt lat="44.44903" lon="6.84443">
        <ele>1704.5999755859</ele>
        <time>2022-03-06T14:05:36.000Z</time>
      </trkpt>
      <trkpt lat="44.44902" lon="6.84441">
        <ele>1704</ele>
        <time>2022-03-06T14:05:38.000Z</time>
      </trkpt>
      <trkpt lat="44.44903" lon="6.84439">
        <ele>1703.5999755859</ele>
        <time>2022-03-06T14:05:39.000Z</time>
      </trkpt>
      <trkpt lat="44.44907" lon="6.84436">
        <ele>1702.5999755859</ele>
        <time>2022-03-06T14:05:42.000Z</time>
      </trkpt>
      <trkpt lat="44.44908" lon="6.84435">
        <ele>1702.4000244141</ele>
        <time>2022-03-06T14:05:43.000Z</time>
      </trkpt>
      <trkpt lat="44.44912" lon="6.84429">
        <ele>1701.1999511719</ele>
        <time>2022-03-06T14:05:48.000Z</time>
      </trkpt>
      <trkpt lat="44.44913" lon="6.84428">
        <ele>1701.1999511719</ele>
        <time>2022-03-06T14:05:49.000Z</time>
      </trkpt>
      <trkpt lat="44.44914" lon="6.84427">
        <ele>1700.5999755859</ele>
        <time>2022-03-06T14:05:51.000Z</time>
      </trkpt>
      <trkpt lat="44.44914" lon="6.84425">
        <ele>1700</ele>
        <time>2022-03-06T14:05:53.000Z</time>
      </trkpt>
      <trkpt lat="44.44914" lon="6.84424">
        <ele>1699.8000488281</ele>
        <time>2022-03-06T14:05:54.000Z</time>
      </trkpt>
      <trkpt lat="44.44915" lon="6.84424">
        <ele>1699.5999755859</ele>
        <time>2022-03-06T14:05:55.000Z</time>
      </trkpt>
      <trkpt lat="44.44918" lon="6.84422">
        <ele>1698.8000488281</ele>
        <time>2022-03-06T14:05:57.000Z</time>
      </trkpt>
      <trkpt lat="44.4492" lon="6.84421">
        <ele>1698.4000244141</ele>
        <time>2022-03-06T14:05:58.000Z</time>
      </trkpt>
      <trkpt lat="44.44923" lon="6.84417">
        <ele>1697.5999755859</ele>
        <time>2022-03-06T14:06:01.000Z</time>
      </trkpt>
      <trkpt lat="44.44924" lon="6.84415">
        <ele>1697.4000244141</ele>
        <time>2022-03-06T14:06:03.000Z</time>
      </trkpt>
      <trkpt lat="44.44926" lon="6.84413">
        <ele>1696.8000488281</ele>
        <time>2022-03-06T14:06:05.000Z</time>
      </trkpt>
      <trkpt lat="44.44927" lon="6.84412">
        <ele>1696.5999755859</ele>
        <time>2022-03-06T14:06:06.000Z</time>
      </trkpt>
      <trkpt lat="44.44929" lon="6.84408">
        <ele>1696.1999511719</ele>
        <time>2022-03-06T14:06:09.000Z</time>
      </trkpt>
      <trkpt lat="44.44932" lon="6.84404">
        <ele>1695.1999511719</ele>
        <time>2022-03-06T14:06:12.000Z</time>
      </trkpt>
      <trkpt lat="44.44936" lon="6.84401">
        <ele>1694.1999511719</ele>
        <time>2022-03-06T14:06:15.000Z</time>
      </trkpt>
      <trkpt lat="44.44938" lon="6.84399">
        <ele>1693.5999755859</ele>
        <time>2022-03-06T14:06:17.000Z</time>
      </trkpt>
      <trkpt lat="44.44938" lon="6.84396">
        <ele>1693.1999511719</ele>
        <time>2022-03-06T14:06:19.000Z</time>
      </trkpt>
      <trkpt lat="44.44938" lon="6.84396">
        <ele>1692.8000488281</ele>
        <time>2022-03-06T14:06:20.000Z</time>
      </trkpt>
      <trkpt lat="44.44939" lon="6.84393">
        <ele>1692.4000244141</ele>
        <time>2022-03-06T14:06:22.000Z</time>
      </trkpt>
      <trkpt lat="44.44939" lon="6.84391">
        <ele>1692</ele>
        <time>2022-03-06T14:06:23.000Z</time>
      </trkpt>
      <trkpt lat="44.44943" lon="6.84389">
        <ele>1690.8000488281</ele>
        <time>2022-03-06T14:06:26.000Z</time>
      </trkpt>
      <trkpt lat="44.44945" lon="6.84389">
        <ele>1690.4000244141</ele>
        <time>2022-03-06T14:06:27.000Z</time>
      </trkpt>
      <trkpt lat="44.44949" lon="6.84387">
        <ele>1689.5999755859</ele>
        <time>2022-03-06T14:06:30.000Z</time>
      </trkpt>
      <trkpt lat="44.44951" lon="6.84383">
        <ele>1688.8000488281</ele>
        <time>2022-03-06T14:06:33.000Z</time>
      </trkpt>
      <trkpt lat="44.44955" lon="6.8438">
        <ele>1688.4000244141</ele>
        <time>2022-03-06T14:06:35.000Z</time>
      </trkpt>
      <trkpt lat="44.44961" lon="6.84378">
        <ele>1687</ele>
        <time>2022-03-06T14:06:38.000Z</time>
      </trkpt>
      <trkpt lat="44.44963" lon="6.84377">
        <ele>1686.8000488281</ele>
        <time>2022-03-06T14:06:39.000Z</time>
      </trkpt>
      <trkpt lat="44.44964" lon="6.84375">
        <ele>1686.1999511719</ele>
        <time>2022-03-06T14:06:41.000Z</time>
      </trkpt>
      <trkpt lat="44.44965" lon="6.84374">
        <ele>1685.5999755859</ele>
        <time>2022-03-06T14:06:42.000Z</time>
      </trkpt>
      <trkpt lat="44.44969" lon="6.8437">
        <ele>1684.8000488281</ele>
        <time>2022-03-06T14:06:45.000Z</time>
      </trkpt>
      <trkpt lat="44.44969" lon="6.84369">
        <ele>1684.1999511719</ele>
        <time>2022-03-06T14:06:46.000Z</time>
      </trkpt>
      <trkpt lat="44.44971" lon="6.84368">
        <ele>1684</ele>
        <time>2022-03-06T14:06:47.000Z</time>
      </trkpt>
      <trkpt lat="44.44974" lon="6.84365">
        <ele>1683.1999511719</ele>
        <time>2022-03-06T14:06:50.000Z</time>
      </trkpt>
      <trkpt lat="44.44976" lon="6.84364">
        <ele>1683</ele>
        <time>2022-03-06T14:06:51.000Z</time>
      </trkpt>
      <trkpt lat="44.4498" lon="6.84362">
        <ele>1682.1999511719</ele>
        <time>2022-03-06T14:06:53.000Z</time>
      </trkpt>
      <trkpt lat="44.44981" lon="6.84362">
        <ele>1682</ele>
        <time>2022-03-06T14:06:54.000Z</time>
      </trkpt>
      <trkpt lat="44.44983" lon="6.84359">
        <ele>1681.8000488281</ele>
        <time>2022-03-06T14:06:56.000Z</time>
      </trkpt>
      <trkpt lat="44.44989" lon="6.84349">
        <ele>1680.8000488281</ele>
        <time>2022-03-06T14:07:02.000Z</time>
      </trkpt>
      <trkpt lat="44.44989" lon="6.84347">
        <ele>1680.5999755859</ele>
        <time>2022-03-06T14:07:03.000Z</time>
      </trkpt>
      <trkpt lat="44.44991" lon="6.84344">
        <ele>1680.4000244141</ele>
        <time>2022-03-06T14:07:05.000Z</time>
      </trkpt>
      <trkpt lat="44.44993" lon="6.84342">
        <ele>1680.1999511719</ele>
        <time>2022-03-06T14:07:07.000Z</time>
      </trkpt>
      <trkpt lat="44.44994" lon="6.84342">
        <ele>1680.1999511719</ele>
        <time>2022-03-06T14:07:08.000Z</time>
      </trkpt>
      <trkpt lat="44.44997" lon="6.84342">
        <ele>1680</ele>
        <time>2022-03-06T14:07:11.000Z</time>
      </trkpt>
      <trkpt lat="44.45004" lon="6.84342">
        <ele>1680.1999511719</ele>
        <time>2022-03-06T14:07:18.000Z</time>
      </trkpt>
      <trkpt lat="44.45007" lon="6.84341">
        <ele>1680</ele>
        <time>2022-03-06T14:07:23.000Z</time>
      </trkpt>
      <trkpt lat="44.45014" lon="6.8434">
        <ele>1679.8000488281</ele>
        <time>2022-03-06T14:07:27.000Z</time>
      </trkpt>
      <trkpt lat="44.45017" lon="6.8434">
        <ele>1679.5999755859</ele>
        <time>2022-03-06T14:07:28.000Z</time>
      </trkpt>
      <trkpt lat="44.45026" lon="6.8434">
        <ele>1679.5999755859</ele>
        <time>2022-03-06T14:07:32.000Z</time>
      </trkpt>
      <trkpt lat="44.45028" lon="6.84343">
        <ele>1679.5999755859</ele>
        <time>2022-03-06T14:07:37.000Z</time>
      </trkpt>
      <trkpt lat="44.45031" lon="6.84345">
        <ele>1679.1999511719</ele>
        <time>2022-03-06T14:07:40.000Z</time>
      </trkpt>
      <trkpt lat="44.45035" lon="6.84346">
        <ele>1679.5999755859</ele>
        <time>2022-03-06T14:07:43.000Z</time>
      </trkpt>
      <trkpt lat="44.45038" lon="6.84349">
        <ele>1679.5999755859</ele>
        <time>2022-03-06T14:07:46.000Z</time>
      </trkpt>
      <trkpt lat="44.45045" lon="6.84354">
        <ele>1679.5999755859</ele>
        <time>2022-03-06T14:07:49.000Z</time>
      </trkpt>
      <trkpt lat="44.45054" lon="6.84366">
        <ele>1679.5999755859</ele>
        <time>2022-03-06T14:07:56.000Z</time>
      </trkpt>
      <trkpt lat="44.45064" lon="6.84376">
        <ele>1679.4000244141</ele>
        <time>2022-03-06T14:08:04.000Z</time>
      </trkpt>
      <trkpt lat="44.45076" lon="6.84385">
        <ele>1679.8000488281</ele>
        <time>2022-03-06T14:08:12.000Z</time>
      </trkpt>
      <trkpt lat="44.45091" lon="6.84397">
        <ele>1680.1999511719</ele>
        <time>2022-03-06T14:08:23.000Z</time>
      </trkpt>
      <trkpt lat="44.45093" lon="6.84399">
        <ele>1680.1999511719</ele>
        <time>2022-03-06T14:08:25.000Z</time>
      </trkpt>
      <trkpt lat="44.45096" lon="6.84403">
        <ele>1680.4000244141</ele>
        <time>2022-03-06T14:08:29.000Z</time>
      </trkpt>
      <trkpt lat="44.45097" lon="6.84404">
        <ele>1680.4000244141</ele>
        <time>2022-03-06T14:08:30.000Z</time>
      </trkpt>
      <trkpt lat="44.451" lon="6.8441">
        <ele>1680.8000488281</ele>
        <time>2022-03-06T14:08:34.000Z</time>
      </trkpt>
      <trkpt lat="44.45105" lon="6.84415">
        <ele>1681.1999511719</ele>
        <time>2022-03-06T14:08:39.000Z</time>
      </trkpt>
      <trkpt lat="44.45112" lon="6.84421">
        <ele>1681.5999755859</ele>
        <time>2022-03-06T14:08:49.000Z</time>
      </trkpt>
      <trkpt lat="44.45119" lon="6.84429">
        <ele>1681.4000244141</ele>
        <time>2022-03-06T14:08:58.000Z</time>
      </trkpt>
      <trkpt lat="44.45127" lon="6.84437">
        <ele>1681.8000488281</ele>
        <time>2022-03-06T14:09:07.000Z</time>
      </trkpt>
      <trkpt lat="44.45128" lon="6.84438">
        <ele>1681.8000488281</ele>
        <time>2022-03-06T14:09:09.000Z</time>
      </trkpt>
      <trkpt lat="44.45135" lon="6.84445">
        <ele>1682.8000488281</ele>
        <time>2022-03-06T14:09:16.000Z</time>
      </trkpt>
      <trkpt lat="44.45136" lon="6.84447">
        <ele>1682.8000488281</ele>
        <time>2022-03-06T14:09:17.000Z</time>
      </trkpt>
      <trkpt lat="44.45132" lon="6.84459">
        <ele>1683.4000244141</ele>
        <time>2022-03-06T14:09:24.000Z</time>
      </trkpt>
      <trkpt lat="44.45129" lon="6.84467">
        <ele>1683.8000488281</ele>
        <time>2022-03-06T14:09:29.000Z</time>
      </trkpt>
      <trkpt lat="44.45128" lon="6.84469">
        <ele>1683.8000488281</ele>
        <time>2022-03-06T14:09:31.000Z</time>
      </trkpt>
      <trkpt lat="44.45122" lon="6.84476">
        <ele>1683.5999755859</ele>
        <time>2022-03-06T14:09:37.000Z</time>
      </trkpt>
    </trkseg>
  </trk>
</gpx>